<?xml version="1.0" encoding="UTF-8" standalone="no" ?>
<gpx xmlns="http://www.topografix.com/GPX/1/1" xmlns:xsi="http://www.w3.org/2001/XMLSchema-instance" xsi:schemaLocation="http://www.topografix.com/GPX/1/1 http://www.topografix.com/GPX/1/1/gpx.xsd" version="1.1" creator="VisuGPX - https://www.visugpx.com">
  <metadata>
    <name>1-Châlet des Conques, Portail Mantet, Mantet</name>
    <desc><![CDATA[TOPO sur notre site:
https://randonnees-pyrenees-orientales.e-monsite.com/pages/grande-randonnee/le-canigou-vallespir-au-conflent/j1-prats-de-mollo-mantet.html]]></desc>
  </metadata>
  <trk>
    <name><![CDATA[1 Conques Mantet JL]]></name>
    <extensions>
      <line xmlns="http://www.topografix.com/GPX/gpx_style/0/2">
        <color>0000FF</color>
        <width>4</width>
      </line>
    </extensions>
    <trkseg>
      <trkpt lat="42.42629" lon="2.39789">
        <ele>1488.74</ele>
        <time>2017-08-07T06:26:27Z</time>
      </trkpt>
      <trkpt lat="42.42631" lon="2.39788">
        <ele>1492.1</ele>
        <time>2017-08-07T06:26:35Z</time>
      </trkpt>
      <trkpt lat="42.42631" lon="2.39789">
        <ele>1495.47</ele>
        <time>2017-08-07T06:26:36Z</time>
      </trkpt>
      <trkpt lat="42.42631" lon="2.39789">
        <ele>1499.31</ele>
        <time>2017-08-07T06:26:37Z</time>
      </trkpt>
      <trkpt lat="42.42631" lon="2.39789">
        <ele>1502.2</ele>
        <time>2017-08-07T06:26:39Z</time>
      </trkpt>
      <trkpt lat="42.42631" lon="2.39789">
        <ele>1505.56</ele>
        <time>2017-08-07T06:26:40Z</time>
      </trkpt>
      <trkpt lat="42.42631" lon="2.39788">
        <ele>1505.56</ele>
        <time>2017-08-07T06:26:41Z</time>
      </trkpt>
      <trkpt lat="42.42631" lon="2.39788">
        <ele>1508.93</ele>
        <time>2017-08-07T06:26:42Z</time>
      </trkpt>
      <trkpt lat="42.42631" lon="2.39788">
        <ele>1511.81</ele>
        <time>2017-08-07T06:26:43Z</time>
      </trkpt>
      <trkpt lat="42.42632" lon="2.39789">
        <ele>1517.58</ele>
        <time>2017-08-07T06:26:45Z</time>
      </trkpt>
      <trkpt lat="42.42633" lon="2.39788">
        <ele>1525.75</ele>
        <time>2017-08-07T06:26:47Z</time>
      </trkpt>
      <trkpt lat="42.42633" lon="2.39788">
        <ele>1525.75</ele>
        <time>2017-08-07T06:26:48Z</time>
      </trkpt>
      <trkpt lat="42.42633" lon="2.39788">
        <ele>1530.56</ele>
        <time>2017-08-07T06:26:50Z</time>
      </trkpt>
      <trkpt lat="42.42633" lon="2.39789">
        <ele>1535.36</ele>
        <time>2017-08-07T06:26:52Z</time>
      </trkpt>
      <trkpt lat="42.42633" lon="2.39789">
        <ele>1652.16</ele>
        <time>2017-08-07T06:26:54Z</time>
      </trkpt>
      <trkpt lat="42.42633" lon="2.39788">
        <ele>1602.66</ele>
        <time>2017-08-07T06:26:57Z</time>
      </trkpt>
      <trkpt lat="42.42633" lon="2.39788">
        <ele>1602.66</ele>
        <time>2017-08-07T06:26:58Z</time>
      </trkpt>
      <trkpt lat="42.42634" lon="2.39789">
        <ele>1602.66</ele>
        <time>2017-08-07T06:27:27Z</time>
      </trkpt>
      <trkpt lat="42.42626" lon="2.39791">
        <ele>1602.66</ele>
        <time>2017-08-07T06:27:41Z</time>
      </trkpt>
      <trkpt lat="42.42624" lon="2.39788">
        <ele>1603.14</ele>
        <time>2017-08-07T06:27:55Z</time>
      </trkpt>
      <trkpt lat="42.42614" lon="2.39783">
        <ele>1604.58</ele>
        <time>2017-08-07T06:28:08Z</time>
      </trkpt>
      <trkpt lat="42.42613" lon="2.39781">
        <ele>1604.58</ele>
        <time>2017-08-07T06:28:10Z</time>
      </trkpt>
      <trkpt lat="42.42608" lon="2.3977">
        <ele>1606.98</ele>
        <time>2017-08-07T06:28:24Z</time>
      </trkpt>
      <trkpt lat="42.4261" lon="2.39758">
        <ele>1608.42</ele>
        <time>2017-08-07T06:28:40Z</time>
      </trkpt>
      <trkpt lat="42.42608" lon="2.39751">
        <ele>1610.35</ele>
        <time>2017-08-07T06:28:54Z</time>
      </trkpt>
      <trkpt lat="42.42607" lon="2.3975">
        <ele>1611.31</ele>
        <time>2017-08-07T06:29:05Z</time>
      </trkpt>
      <trkpt lat="42.42607" lon="2.3975">
        <ele>1611.31</ele>
        <time>2017-08-07T06:29:30Z</time>
      </trkpt>
      <trkpt lat="42.42609" lon="2.39754">
        <ele>1611.79</ele>
        <time>2017-08-07T06:29:50Z</time>
      </trkpt>
      <trkpt lat="42.42609" lon="2.39752">
        <ele>1611.79</ele>
        <time>2017-08-07T06:30:11Z</time>
      </trkpt>
      <trkpt lat="42.42609" lon="2.3975">
        <ele>1611.31</ele>
        <time>2017-08-07T06:30:16Z</time>
      </trkpt>
      <trkpt lat="42.42608" lon="2.39746">
        <ele>1611.31</ele>
        <time>2017-08-07T06:30:29Z</time>
      </trkpt>
      <trkpt lat="42.42609" lon="2.39744">
        <ele>1611.31</ele>
        <time>2017-08-07T06:30:44Z</time>
      </trkpt>
      <trkpt lat="42.4261" lon="2.39745">
        <ele>1611.31</ele>
        <time>2017-08-07T06:30:59Z</time>
      </trkpt>
      <trkpt lat="42.42604" lon="2.39747">
        <ele>1610.83</ele>
        <time>2017-08-07T06:31:20Z</time>
      </trkpt>
      <trkpt lat="42.42606" lon="2.39747">
        <ele>1610.83</ele>
        <time>2017-08-07T06:31:41Z</time>
      </trkpt>
      <trkpt lat="42.42608" lon="2.39747">
        <ele>1610.83</ele>
        <time>2017-08-07T06:32:00Z</time>
      </trkpt>
      <trkpt lat="42.42608" lon="2.39746">
        <ele>1610.83</ele>
        <time>2017-08-07T06:32:19Z</time>
      </trkpt>
      <trkpt lat="42.42608" lon="2.39748">
        <ele>1610.83</ele>
        <time>2017-08-07T06:32:41Z</time>
      </trkpt>
      <trkpt lat="42.42609" lon="2.39745">
        <ele>1610.83</ele>
        <time>2017-08-07T06:32:56Z</time>
      </trkpt>
      <trkpt lat="42.4261" lon="2.39749">
        <ele>1610.83</ele>
        <time>2017-08-07T06:33:21Z</time>
      </trkpt>
      <trkpt lat="42.42611" lon="2.3975">
        <ele>1610.83</ele>
        <time>2017-08-07T06:33:39Z</time>
      </trkpt>
      <trkpt lat="42.42611" lon="2.39749">
        <ele>1610.83</ele>
        <time>2017-08-07T06:34:04Z</time>
      </trkpt>
      <trkpt lat="42.4261" lon="2.39749">
        <ele>1610.35</ele>
        <time>2017-08-07T06:34:23Z</time>
      </trkpt>
      <trkpt lat="42.4261" lon="2.3975">
        <ele>1610.35</ele>
        <time>2017-08-07T06:34:37Z</time>
      </trkpt>
      <trkpt lat="42.42608" lon="2.39744">
        <ele>1612.27</ele>
        <time>2017-08-07T06:34:56Z</time>
      </trkpt>
      <trkpt lat="42.42603" lon="2.39729">
        <ele>1613.71</ele>
        <time>2017-08-07T06:35:10Z</time>
      </trkpt>
      <trkpt lat="42.42602" lon="2.39717">
        <ele>1616.11</ele>
        <time>2017-08-07T06:35:25Z</time>
      </trkpt>
      <trkpt lat="42.42601" lon="2.39708">
        <ele>1617.56</ele>
        <time>2017-08-07T06:35:39Z</time>
      </trkpt>
      <trkpt lat="42.426" lon="2.397">
        <ele>1619</ele>
        <time>2017-08-07T06:35:50Z</time>
      </trkpt>
      <trkpt lat="42.42599" lon="2.39686">
        <ele>1620.92</ele>
        <time>2017-08-07T06:36:07Z</time>
      </trkpt>
      <trkpt lat="42.42599" lon="2.39671">
        <ele>1622.36</ele>
        <time>2017-08-07T06:36:21Z</time>
      </trkpt>
      <trkpt lat="42.42602" lon="2.39658">
        <ele>1623.8</ele>
        <time>2017-08-07T06:36:37Z</time>
      </trkpt>
      <trkpt lat="42.42606" lon="2.39648">
        <ele>1625.25</ele>
        <time>2017-08-07T06:36:51Z</time>
      </trkpt>
      <trkpt lat="42.4261" lon="2.39636">
        <ele>1627.17</ele>
        <time>2017-08-07T06:37:06Z</time>
      </trkpt>
      <trkpt lat="42.42614" lon="2.39622">
        <ele>1628.61</ele>
        <time>2017-08-07T06:37:23Z</time>
      </trkpt>
      <trkpt lat="42.42616" lon="2.3961">
        <ele>1631.49</ele>
        <time>2017-08-07T06:37:39Z</time>
      </trkpt>
      <trkpt lat="42.42616" lon="2.39603">
        <ele>1632.94</ele>
        <time>2017-08-07T06:37:53Z</time>
      </trkpt>
      <trkpt lat="42.42615" lon="2.39595">
        <ele>1634.38</ele>
        <time>2017-08-07T06:38:09Z</time>
      </trkpt>
      <trkpt lat="42.42615" lon="2.39586">
        <ele>1636.78</ele>
        <time>2017-08-07T06:38:22Z</time>
      </trkpt>
      <trkpt lat="42.42613" lon="2.39572">
        <ele>1639.67</ele>
        <time>2017-08-07T06:38:41Z</time>
      </trkpt>
      <trkpt lat="42.42611" lon="2.39562">
        <ele>1641.11</ele>
        <time>2017-08-07T06:38:58Z</time>
      </trkpt>
      <trkpt lat="42.42608" lon="2.39555">
        <ele>1643.03</ele>
        <time>2017-08-07T06:39:13Z</time>
      </trkpt>
      <trkpt lat="42.42608" lon="2.39544">
        <ele>1645.43</ele>
        <time>2017-08-07T06:39:29Z</time>
      </trkpt>
      <trkpt lat="42.42608" lon="2.39534">
        <ele>1647.36</ele>
        <time>2017-08-07T06:39:44Z</time>
      </trkpt>
      <trkpt lat="42.42608" lon="2.39524">
        <ele>1650.24</ele>
        <time>2017-08-07T06:40:03Z</time>
      </trkpt>
      <trkpt lat="42.4261" lon="2.39512">
        <ele>1652.64</ele>
        <time>2017-08-07T06:40:19Z</time>
      </trkpt>
      <trkpt lat="42.42611" lon="2.39502">
        <ele>1655.05</ele>
        <time>2017-08-07T06:40:36Z</time>
      </trkpt>
      <trkpt lat="42.42613" lon="2.39495">
        <ele>1656.97</ele>
        <time>2017-08-07T06:40:51Z</time>
      </trkpt>
      <trkpt lat="42.42617" lon="2.39483">
        <ele>1658.89</ele>
        <time>2017-08-07T06:41:07Z</time>
      </trkpt>
      <trkpt lat="42.42619" lon="2.39472">
        <ele>1661.78</ele>
        <time>2017-08-07T06:41:27Z</time>
      </trkpt>
      <trkpt lat="42.4262" lon="2.39462">
        <ele>1664.18</ele>
        <time>2017-08-07T06:41:45Z</time>
      </trkpt>
      <trkpt lat="42.42622" lon="2.3945">
        <ele>1666.1</ele>
        <time>2017-08-07T06:42:02Z</time>
      </trkpt>
      <trkpt lat="42.42626" lon="2.39436">
        <ele>1668.51</ele>
        <time>2017-08-07T06:42:20Z</time>
      </trkpt>
      <trkpt lat="42.42624" lon="2.39429">
        <ele>1671.39</ele>
        <time>2017-08-07T06:42:36Z</time>
      </trkpt>
      <trkpt lat="42.42629" lon="2.39418">
        <ele>1673.31</ele>
        <time>2017-08-07T06:42:52Z</time>
      </trkpt>
      <trkpt lat="42.42631" lon="2.39409">
        <ele>1675.23</ele>
        <time>2017-08-07T06:43:08Z</time>
      </trkpt>
      <trkpt lat="42.42631" lon="2.39395">
        <ele>1677.64</ele>
        <time>2017-08-07T06:43:26Z</time>
      </trkpt>
      <trkpt lat="42.4263" lon="2.39383">
        <ele>1680.04</ele>
        <time>2017-08-07T06:43:44Z</time>
      </trkpt>
      <trkpt lat="42.42631" lon="2.39372">
        <ele>1681.96</ele>
        <time>2017-08-07T06:43:59Z</time>
      </trkpt>
      <trkpt lat="42.4263" lon="2.39363">
        <ele>1682.44</ele>
        <time>2017-08-07T06:44:13Z</time>
      </trkpt>
      <trkpt lat="42.4263" lon="2.39351">
        <ele>1683.41</ele>
        <time>2017-08-07T06:44:28Z</time>
      </trkpt>
      <trkpt lat="42.42629" lon="2.39351">
        <ele>1683.89</ele>
        <time>2017-08-07T06:44:47Z</time>
      </trkpt>
      <trkpt lat="42.4263" lon="2.39351">
        <ele>1683.41</ele>
        <time>2017-08-07T06:45:11Z</time>
      </trkpt>
      <trkpt lat="42.4263" lon="2.39347">
        <ele>1683.41</ele>
        <time>2017-08-07T06:45:23Z</time>
      </trkpt>
      <trkpt lat="42.42631" lon="2.39342">
        <ele>1684.37</ele>
        <time>2017-08-07T06:45:34Z</time>
      </trkpt>
      <trkpt lat="42.42632" lon="2.39338">
        <ele>1684.37</ele>
        <time>2017-08-07T06:45:55Z</time>
      </trkpt>
      <trkpt lat="42.42629" lon="2.39321">
        <ele>1685.81</ele>
        <time>2017-08-07T06:46:09Z</time>
      </trkpt>
      <trkpt lat="42.4263" lon="2.39315">
        <ele>1686.77</ele>
        <time>2017-08-07T06:46:19Z</time>
      </trkpt>
      <trkpt lat="42.4263" lon="2.39306">
        <ele>1686.29</ele>
        <time>2017-08-07T06:46:33Z</time>
      </trkpt>
      <trkpt lat="42.42628" lon="2.39299">
        <ele>1686.77</ele>
        <time>2017-08-07T06:46:49Z</time>
      </trkpt>
      <trkpt lat="42.42628" lon="2.39296">
        <ele>1686.77</ele>
        <time>2017-08-07T06:47:04Z</time>
      </trkpt>
      <trkpt lat="42.42634" lon="2.39291">
        <ele>1686.77</ele>
        <time>2017-08-07T06:47:12Z</time>
      </trkpt>
      <trkpt lat="42.42646" lon="2.39282">
        <ele>1686.77</ele>
        <time>2017-08-07T06:47:28Z</time>
      </trkpt>
      <trkpt lat="42.42651" lon="2.39279">
        <ele>1686.77</ele>
        <time>2017-08-07T06:47:42Z</time>
      </trkpt>
      <trkpt lat="42.42654" lon="2.39279">
        <ele>1686.77</ele>
        <time>2017-08-07T06:48:00Z</time>
      </trkpt>
      <trkpt lat="42.42661" lon="2.39273">
        <ele>1686.77</ele>
        <time>2017-08-07T06:48:14Z</time>
      </trkpt>
      <trkpt lat="42.42671" lon="2.39263">
        <ele>1687.73</ele>
        <time>2017-08-07T06:48:29Z</time>
      </trkpt>
      <trkpt lat="42.42679" lon="2.39252">
        <ele>1689.17</ele>
        <time>2017-08-07T06:48:44Z</time>
      </trkpt>
      <trkpt lat="42.42686" lon="2.39243">
        <ele>1689.65</ele>
        <time>2017-08-07T06:48:54Z</time>
      </trkpt>
      <trkpt lat="42.42692" lon="2.39234">
        <ele>1689.65</ele>
        <time>2017-08-07T06:49:07Z</time>
      </trkpt>
      <trkpt lat="42.42697" lon="2.39227">
        <ele>1689.65</ele>
        <time>2017-08-07T06:49:24Z</time>
      </trkpt>
      <trkpt lat="42.42704" lon="2.39212">
        <ele>1691.58</ele>
        <time>2017-08-07T06:49:39Z</time>
      </trkpt>
      <trkpt lat="42.42712" lon="2.392">
        <ele>1693.5</ele>
        <time>2017-08-07T06:49:56Z</time>
      </trkpt>
      <trkpt lat="42.42718" lon="2.39195">
        <ele>1694.94</ele>
        <time>2017-08-07T06:50:08Z</time>
      </trkpt>
      <trkpt lat="42.42724" lon="2.39187">
        <ele>1696.38</ele>
        <time>2017-08-07T06:50:22Z</time>
      </trkpt>
      <trkpt lat="42.42725" lon="2.39171">
        <ele>1698.31</ele>
        <time>2017-08-07T06:50:40Z</time>
      </trkpt>
      <trkpt lat="42.42731" lon="2.3916">
        <ele>1700.71</ele>
        <time>2017-08-07T06:50:55Z</time>
      </trkpt>
      <trkpt lat="42.42736" lon="2.39147">
        <ele>1702.15</ele>
        <time>2017-08-07T06:51:11Z</time>
      </trkpt>
      <trkpt lat="42.42737" lon="2.39138">
        <ele>1704.07</ele>
        <time>2017-08-07T06:51:24Z</time>
      </trkpt>
      <trkpt lat="42.4274" lon="2.39124">
        <ele>1705.52</ele>
        <time>2017-08-07T06:51:41Z</time>
      </trkpt>
      <trkpt lat="42.4274" lon="2.39112">
        <ele>1707.44</ele>
        <time>2017-08-07T06:51:55Z</time>
      </trkpt>
      <trkpt lat="42.42739" lon="2.39103">
        <ele>1708.4</ele>
        <time>2017-08-07T06:52:10Z</time>
      </trkpt>
      <trkpt lat="42.42738" lon="2.39089">
        <ele>1710.32</ele>
        <time>2017-08-07T06:52:26Z</time>
      </trkpt>
      <trkpt lat="42.42742" lon="2.39072">
        <ele>1712.25</ele>
        <time>2017-08-07T06:52:43Z</time>
      </trkpt>
      <trkpt lat="42.42746" lon="2.39061">
        <ele>1713.69</ele>
        <time>2017-08-07T06:52:58Z</time>
      </trkpt>
      <trkpt lat="42.4275" lon="2.39051">
        <ele>1715.61</ele>
        <time>2017-08-07T06:53:14Z</time>
      </trkpt>
      <trkpt lat="42.42753" lon="2.39043">
        <ele>1717.05</ele>
        <time>2017-08-07T06:53:27Z</time>
      </trkpt>
      <trkpt lat="42.42757" lon="2.39035">
        <ele>1718.01</ele>
        <time>2017-08-07T06:53:41Z</time>
      </trkpt>
      <trkpt lat="42.42764" lon="2.39018">
        <ele>1716.57</ele>
        <time>2017-08-07T06:53:59Z</time>
      </trkpt>
      <trkpt lat="42.42768" lon="2.39008">
        <ele>1716.09</ele>
        <time>2017-08-07T06:54:13Z</time>
      </trkpt>
      <trkpt lat="42.42769" lon="2.39004">
        <ele>1717.53</ele>
        <time>2017-08-07T06:54:17Z</time>
      </trkpt>
      <trkpt lat="42.42774" lon="2.38992">
        <ele>1717.53</ele>
        <time>2017-08-07T06:54:30Z</time>
      </trkpt>
      <trkpt lat="42.42779" lon="2.38978">
        <ele>1718.49</ele>
        <time>2017-08-07T06:54:43Z</time>
      </trkpt>
      <trkpt lat="42.42782" lon="2.38955">
        <ele>1719.46</ele>
        <time>2017-08-07T06:54:58Z</time>
      </trkpt>
      <trkpt lat="42.42785" lon="2.38943">
        <ele>1719.46</ele>
        <time>2017-08-07T06:55:13Z</time>
      </trkpt>
      <trkpt lat="42.42784" lon="2.3893">
        <ele>1721.38</ele>
        <time>2017-08-07T06:55:28Z</time>
      </trkpt>
      <trkpt lat="42.42782" lon="2.38913">
        <ele>1722.82</ele>
        <time>2017-08-07T06:55:42Z</time>
      </trkpt>
      <trkpt lat="42.42782" lon="2.38901">
        <ele>1723.78</ele>
        <time>2017-08-07T06:55:54Z</time>
      </trkpt>
      <trkpt lat="42.42782" lon="2.38886">
        <ele>1725.22</ele>
        <time>2017-08-07T06:56:09Z</time>
      </trkpt>
      <trkpt lat="42.42783" lon="2.38872">
        <ele>1726.18</ele>
        <time>2017-08-07T06:56:25Z</time>
      </trkpt>
      <trkpt lat="42.42784" lon="2.38862">
        <ele>1727.15</ele>
        <time>2017-08-07T06:56:37Z</time>
      </trkpt>
      <trkpt lat="42.42784" lon="2.3886">
        <ele>1727.15</ele>
        <time>2017-08-07T06:56:39Z</time>
      </trkpt>
      <trkpt lat="42.42783" lon="2.3884">
        <ele>1728.59</ele>
        <time>2017-08-07T06:56:54Z</time>
      </trkpt>
      <trkpt lat="42.42784" lon="2.38825">
        <ele>1730.03</ele>
        <time>2017-08-07T06:57:10Z</time>
      </trkpt>
      <trkpt lat="42.42783" lon="2.38814">
        <ele>1731.47</ele>
        <time>2017-08-07T06:57:23Z</time>
      </trkpt>
      <trkpt lat="42.42788" lon="2.38803">
        <ele>1733.39</ele>
        <time>2017-08-07T06:57:38Z</time>
      </trkpt>
      <trkpt lat="42.42794" lon="2.38794">
        <ele>1735.32</ele>
        <time>2017-08-07T06:57:54Z</time>
      </trkpt>
      <trkpt lat="42.42798" lon="2.38786">
        <ele>1737.24</ele>
        <time>2017-08-07T06:58:09Z</time>
      </trkpt>
      <trkpt lat="42.42805" lon="2.38779">
        <ele>1739.64</ele>
        <time>2017-08-07T06:58:26Z</time>
      </trkpt>
      <trkpt lat="42.42809" lon="2.38771">
        <ele>1741.08</ele>
        <time>2017-08-07T06:58:48Z</time>
      </trkpt>
      <trkpt lat="42.42812" lon="2.38759">
        <ele>1743.49</ele>
        <time>2017-08-07T06:59:03Z</time>
      </trkpt>
      <trkpt lat="42.42817" lon="2.38749">
        <ele>1745.41</ele>
        <time>2017-08-07T06:59:22Z</time>
      </trkpt>
      <trkpt lat="42.42821" lon="2.38737">
        <ele>1745.41</ele>
        <time>2017-08-07T06:59:38Z</time>
      </trkpt>
      <trkpt lat="42.42823" lon="2.38728">
        <ele>1745.41</ele>
        <time>2017-08-07T06:59:50Z</time>
      </trkpt>
      <trkpt lat="42.42828" lon="2.38721">
        <ele>1745.41</ele>
        <time>2017-08-07T07:00:05Z</time>
      </trkpt>
      <trkpt lat="42.42836" lon="2.38715">
        <ele>1743.97</ele>
        <time>2017-08-07T07:00:20Z</time>
      </trkpt>
      <trkpt lat="42.42845" lon="2.38705">
        <ele>1743.97</ele>
        <time>2017-08-07T07:00:32Z</time>
      </trkpt>
      <trkpt lat="42.42855" lon="2.38689">
        <ele>1743.97</ele>
        <time>2017-08-07T07:00:50Z</time>
      </trkpt>
      <trkpt lat="42.42863" lon="2.3868">
        <ele>1743.97</ele>
        <time>2017-08-07T07:01:07Z</time>
      </trkpt>
      <trkpt lat="42.42868" lon="2.38671">
        <ele>1745.41</ele>
        <time>2017-08-07T07:01:17Z</time>
      </trkpt>
      <trkpt lat="42.42876" lon="2.38663">
        <ele>1746.37</ele>
        <time>2017-08-07T07:01:32Z</time>
      </trkpt>
      <trkpt lat="42.42886" lon="2.38651">
        <ele>1746.85</ele>
        <time>2017-08-07T07:01:46Z</time>
      </trkpt>
      <trkpt lat="42.4289" lon="2.38637">
        <ele>1747.33</ele>
        <time>2017-08-07T07:02:01Z</time>
      </trkpt>
      <trkpt lat="42.42896" lon="2.38622">
        <ele>1748.29</ele>
        <time>2017-08-07T07:02:17Z</time>
      </trkpt>
      <trkpt lat="42.42896" lon="2.38613">
        <ele>1748.29</ele>
        <time>2017-08-07T07:02:33Z</time>
      </trkpt>
      <trkpt lat="42.42892" lon="2.38599">
        <ele>1751.18</ele>
        <time>2017-08-07T07:02:49Z</time>
      </trkpt>
      <trkpt lat="42.42893" lon="2.3859">
        <ele>1753.58</ele>
        <time>2017-08-07T07:03:03Z</time>
      </trkpt>
      <trkpt lat="42.42893" lon="2.38583">
        <ele>1754.06</ele>
        <time>2017-08-07T07:03:18Z</time>
      </trkpt>
      <trkpt lat="42.42891" lon="2.3857">
        <ele>1755.02</ele>
        <time>2017-08-07T07:03:30Z</time>
      </trkpt>
      <trkpt lat="42.42886" lon="2.3855">
        <ele>1755.99</ele>
        <time>2017-08-07T07:03:46Z</time>
      </trkpt>
      <trkpt lat="42.42894" lon="2.38542">
        <ele>1757.43</ele>
        <time>2017-08-07T07:04:02Z</time>
      </trkpt>
      <trkpt lat="42.42894" lon="2.38533">
        <ele>1758.87</ele>
        <time>2017-08-07T07:04:18Z</time>
      </trkpt>
      <trkpt lat="42.42895" lon="2.38523">
        <ele>1760.31</ele>
        <time>2017-08-07T07:04:33Z</time>
      </trkpt>
      <trkpt lat="42.42892" lon="2.38506">
        <ele>1760.79</ele>
        <time>2017-08-07T07:04:48Z</time>
      </trkpt>
      <trkpt lat="42.42894" lon="2.38489">
        <ele>1761.75</ele>
        <time>2017-08-07T07:05:04Z</time>
      </trkpt>
      <trkpt lat="42.42896" lon="2.38483">
        <ele>1763.68</ele>
        <time>2017-08-07T07:05:17Z</time>
      </trkpt>
      <trkpt lat="42.42897" lon="2.38473">
        <ele>1764.64</ele>
        <time>2017-08-07T07:05:32Z</time>
      </trkpt>
      <trkpt lat="42.42901" lon="2.38464">
        <ele>1766.08</ele>
        <time>2017-08-07T07:05:46Z</time>
      </trkpt>
      <trkpt lat="42.42905" lon="2.38448">
        <ele>1766.08</ele>
        <time>2017-08-07T07:06:00Z</time>
      </trkpt>
      <trkpt lat="42.42906" lon="2.38439">
        <ele>1766.56</ele>
        <time>2017-08-07T07:06:14Z</time>
      </trkpt>
      <trkpt lat="42.42915" lon="2.38425">
        <ele>1768</ele>
        <time>2017-08-07T07:06:32Z</time>
      </trkpt>
      <trkpt lat="42.42921" lon="2.38416">
        <ele>1769.92</ele>
        <time>2017-08-07T07:06:49Z</time>
      </trkpt>
      <trkpt lat="42.42922" lon="2.38414">
        <ele>1770.89</ele>
        <time>2017-08-07T07:07:09Z</time>
      </trkpt>
      <trkpt lat="42.42926" lon="2.38407">
        <ele>1773.77</ele>
        <time>2017-08-07T07:07:23Z</time>
      </trkpt>
      <trkpt lat="42.42926" lon="2.38405">
        <ele>1775.21</ele>
        <time>2017-08-07T07:07:43Z</time>
      </trkpt>
      <trkpt lat="42.42932" lon="2.38399">
        <ele>1777.13</ele>
        <time>2017-08-07T07:08:01Z</time>
      </trkpt>
      <trkpt lat="42.42935" lon="2.3839">
        <ele>1778.58</ele>
        <time>2017-08-07T07:08:16Z</time>
      </trkpt>
      <trkpt lat="42.4294" lon="2.38383">
        <ele>1779.06</ele>
        <time>2017-08-07T07:08:39Z</time>
      </trkpt>
      <trkpt lat="42.42945" lon="2.38369">
        <ele>1780.02</ele>
        <time>2017-08-07T07:08:54Z</time>
      </trkpt>
      <trkpt lat="42.4295" lon="2.3836">
        <ele>1780.5</ele>
        <time>2017-08-07T07:09:09Z</time>
      </trkpt>
      <trkpt lat="42.42959" lon="2.38349">
        <ele>1781.94</ele>
        <time>2017-08-07T07:09:24Z</time>
      </trkpt>
      <trkpt lat="42.42968" lon="2.38342">
        <ele>1783.38</ele>
        <time>2017-08-07T07:09:40Z</time>
      </trkpt>
      <trkpt lat="42.42976" lon="2.38339">
        <ele>1785.31</ele>
        <time>2017-08-07T07:09:54Z</time>
      </trkpt>
      <trkpt lat="42.42982" lon="2.3833">
        <ele>1786.75</ele>
        <time>2017-08-07T07:10:09Z</time>
      </trkpt>
      <trkpt lat="42.42989" lon="2.38327">
        <ele>1787.71</ele>
        <time>2017-08-07T07:10:20Z</time>
      </trkpt>
      <trkpt lat="42.42995" lon="2.38319">
        <ele>1789.15</ele>
        <time>2017-08-07T07:10:34Z</time>
      </trkpt>
      <trkpt lat="42.43" lon="2.3831">
        <ele>1790.11</ele>
        <time>2017-08-07T07:10:50Z</time>
      </trkpt>
      <trkpt lat="42.43008" lon="2.38305">
        <ele>1792.03</ele>
        <time>2017-08-07T07:11:06Z</time>
      </trkpt>
      <trkpt lat="42.43009" lon="2.383">
        <ele>1793</ele>
        <time>2017-08-07T07:11:19Z</time>
      </trkpt>
      <trkpt lat="42.4301" lon="2.38298">
        <ele>1793</ele>
        <time>2017-08-07T07:11:40Z</time>
      </trkpt>
      <trkpt lat="42.43012" lon="2.38296">
        <ele>1793.96</ele>
        <time>2017-08-07T07:11:53Z</time>
      </trkpt>
      <trkpt lat="42.43016" lon="2.38295">
        <ele>1794.44</ele>
        <time>2017-08-07T07:12:15Z</time>
      </trkpt>
      <trkpt lat="42.43023" lon="2.38294">
        <ele>1796.36</ele>
        <time>2017-08-07T07:12:27Z</time>
      </trkpt>
      <trkpt lat="42.43032" lon="2.38294">
        <ele>1798.76</ele>
        <time>2017-08-07T07:12:43Z</time>
      </trkpt>
      <trkpt lat="42.43037" lon="2.38294">
        <ele>1799.73</ele>
        <time>2017-08-07T07:13:01Z</time>
      </trkpt>
      <trkpt lat="42.43046" lon="2.38295">
        <ele>1801.65</ele>
        <time>2017-08-07T07:13:14Z</time>
      </trkpt>
      <trkpt lat="42.43058" lon="2.38295">
        <ele>1804.05</ele>
        <time>2017-08-07T07:13:32Z</time>
      </trkpt>
      <trkpt lat="42.43068" lon="2.38295">
        <ele>1805.97</ele>
        <time>2017-08-07T07:13:46Z</time>
      </trkpt>
      <trkpt lat="42.43073" lon="2.38295">
        <ele>1806.94</ele>
        <time>2017-08-07T07:13:52Z</time>
      </trkpt>
      <trkpt lat="42.43082" lon="2.38288">
        <ele>1807.9</ele>
        <time>2017-08-07T07:14:06Z</time>
      </trkpt>
      <trkpt lat="42.43091" lon="2.38282">
        <ele>1809.82</ele>
        <time>2017-08-07T07:14:21Z</time>
      </trkpt>
      <trkpt lat="42.431" lon="2.38281">
        <ele>1811.74</ele>
        <time>2017-08-07T07:14:35Z</time>
      </trkpt>
      <trkpt lat="42.43105" lon="2.3828">
        <ele>1812.7</ele>
        <time>2017-08-07T07:14:45Z</time>
      </trkpt>
      <trkpt lat="42.43108" lon="2.38279">
        <ele>1814.15</ele>
        <time>2017-08-07T07:15:01Z</time>
      </trkpt>
      <trkpt lat="42.43111" lon="2.38277">
        <ele>1814.63</ele>
        <time>2017-08-07T07:15:16Z</time>
      </trkpt>
      <trkpt lat="42.43119" lon="2.38275">
        <ele>1817.99</ele>
        <time>2017-08-07T07:15:32Z</time>
      </trkpt>
      <trkpt lat="42.43129" lon="2.38271">
        <ele>1820.39</ele>
        <time>2017-08-07T07:15:50Z</time>
      </trkpt>
      <trkpt lat="42.43137" lon="2.38269">
        <ele>1822.8</ele>
        <time>2017-08-07T07:16:04Z</time>
      </trkpt>
      <trkpt lat="42.43143" lon="2.38264">
        <ele>1825.2</ele>
        <time>2017-08-07T07:16:21Z</time>
      </trkpt>
      <trkpt lat="42.4315" lon="2.38256">
        <ele>1826.64</ele>
        <time>2017-08-07T07:16:35Z</time>
      </trkpt>
      <trkpt lat="42.43161" lon="2.38249">
        <ele>1829.05</ele>
        <time>2017-08-07T07:16:54Z</time>
      </trkpt>
      <trkpt lat="42.43165" lon="2.38245">
        <ele>1831.45</ele>
        <time>2017-08-07T07:17:08Z</time>
      </trkpt>
      <trkpt lat="42.43166" lon="2.38242">
        <ele>1833.37</ele>
        <time>2017-08-07T07:17:20Z</time>
      </trkpt>
      <trkpt lat="42.43167" lon="2.38241">
        <ele>1831.45</ele>
        <time>2017-08-07T07:17:22Z</time>
      </trkpt>
      <trkpt lat="42.43171" lon="2.38231">
        <ele>1833.85</ele>
        <time>2017-08-07T07:17:38Z</time>
      </trkpt>
      <trkpt lat="42.43173" lon="2.38219">
        <ele>1835.29</ele>
        <time>2017-08-07T07:17:53Z</time>
      </trkpt>
      <trkpt lat="42.43171" lon="2.38206">
        <ele>1835.77</ele>
        <time>2017-08-07T07:18:07Z</time>
      </trkpt>
      <trkpt lat="42.43173" lon="2.38191">
        <ele>1837.22</ele>
        <time>2017-08-07T07:18:20Z</time>
      </trkpt>
      <trkpt lat="42.43169" lon="2.38175">
        <ele>1837.7</ele>
        <time>2017-08-07T07:18:34Z</time>
      </trkpt>
      <trkpt lat="42.43167" lon="2.38158">
        <ele>1838.66</ele>
        <time>2017-08-07T07:18:50Z</time>
      </trkpt>
      <trkpt lat="42.43169" lon="2.38148">
        <ele>1840.1</ele>
        <time>2017-08-07T07:19:04Z</time>
      </trkpt>
      <trkpt lat="42.4317" lon="2.38137">
        <ele>1842.02</ele>
        <time>2017-08-07T07:19:20Z</time>
      </trkpt>
      <trkpt lat="42.43168" lon="2.38123">
        <ele>1843.95</ele>
        <time>2017-08-07T07:19:35Z</time>
      </trkpt>
      <trkpt lat="42.43166" lon="2.38113">
        <ele>1844.43</ele>
        <time>2017-08-07T07:19:49Z</time>
      </trkpt>
      <trkpt lat="42.43164" lon="2.381">
        <ele>1844.91</ele>
        <time>2017-08-07T07:20:02Z</time>
      </trkpt>
      <trkpt lat="42.43163" lon="2.38089">
        <ele>1846.83</ele>
        <time>2017-08-07T07:20:16Z</time>
      </trkpt>
      <trkpt lat="42.43159" lon="2.38075">
        <ele>1848.75</ele>
        <time>2017-08-07T07:20:32Z</time>
      </trkpt>
      <trkpt lat="42.43158" lon="2.38067">
        <ele>1850.19</ele>
        <time>2017-08-07T07:20:45Z</time>
      </trkpt>
      <trkpt lat="42.43159" lon="2.38057">
        <ele>1851.16</ele>
        <time>2017-08-07T07:21:04Z</time>
      </trkpt>
      <trkpt lat="42.43153" lon="2.38046">
        <ele>1853.08</ele>
        <time>2017-08-07T07:21:23Z</time>
      </trkpt>
      <trkpt lat="42.43148" lon="2.38033">
        <ele>1855.48</ele>
        <time>2017-08-07T07:21:42Z</time>
      </trkpt>
      <trkpt lat="42.43149" lon="2.38024">
        <ele>1857.89</ele>
        <time>2017-08-07T07:21:58Z</time>
      </trkpt>
      <trkpt lat="42.43142" lon="2.38015">
        <ele>1859.81</ele>
        <time>2017-08-07T07:22:16Z</time>
      </trkpt>
      <trkpt lat="42.43141" lon="2.38004">
        <ele>1862.69</ele>
        <time>2017-08-07T07:22:33Z</time>
      </trkpt>
      <trkpt lat="42.43144" lon="2.37994">
        <ele>1864.61</ele>
        <time>2017-08-07T07:22:51Z</time>
      </trkpt>
      <trkpt lat="42.43141" lon="2.37984">
        <ele>1867.02</ele>
        <time>2017-08-07T07:23:09Z</time>
      </trkpt>
      <trkpt lat="42.43137" lon="2.37978">
        <ele>1869.42</ele>
        <time>2017-08-07T07:23:24Z</time>
      </trkpt>
      <trkpt lat="42.43133" lon="2.37975">
        <ele>1870.38</ele>
        <time>2017-08-07T07:23:36Z</time>
      </trkpt>
      <trkpt lat="42.43131" lon="2.37969">
        <ele>1872.3</ele>
        <time>2017-08-07T07:23:50Z</time>
      </trkpt>
      <trkpt lat="42.43127" lon="2.37957">
        <ele>1873.75</ele>
        <time>2017-08-07T07:24:05Z</time>
      </trkpt>
      <trkpt lat="42.43124" lon="2.37947">
        <ele>1875.19</ele>
        <time>2017-08-07T07:24:18Z</time>
      </trkpt>
      <trkpt lat="42.43121" lon="2.37939">
        <ele>1878.07</ele>
        <time>2017-08-07T07:24:36Z</time>
      </trkpt>
      <trkpt lat="42.43116" lon="2.37931">
        <ele>1880.96</ele>
        <time>2017-08-07T07:24:54Z</time>
      </trkpt>
      <trkpt lat="42.43114" lon="2.3793">
        <ele>1881.44</ele>
        <time>2017-08-07T07:25:13Z</time>
      </trkpt>
      <trkpt lat="42.4311" lon="2.37923">
        <ele>1883.84</ele>
        <time>2017-08-07T07:25:30Z</time>
      </trkpt>
      <trkpt lat="42.43107" lon="2.37912">
        <ele>1886.24</ele>
        <time>2017-08-07T07:25:49Z</time>
      </trkpt>
      <trkpt lat="42.43104" lon="2.37914">
        <ele>1887.21</ele>
        <time>2017-08-07T07:26:02Z</time>
      </trkpt>
      <trkpt lat="42.43104" lon="2.37909">
        <ele>1887.69</ele>
        <time>2017-08-07T07:26:19Z</time>
      </trkpt>
      <trkpt lat="42.43107" lon="2.37905">
        <ele>1888.17</ele>
        <time>2017-08-07T07:26:44Z</time>
      </trkpt>
      <trkpt lat="42.43109" lon="2.37902">
        <ele>1889.61</ele>
        <time>2017-08-07T07:27:00Z</time>
      </trkpt>
      <trkpt lat="42.43115" lon="2.37902">
        <ele>1892.01</ele>
        <time>2017-08-07T07:27:15Z</time>
      </trkpt>
      <trkpt lat="42.43118" lon="2.37904">
        <ele>1893.93</ele>
        <time>2017-08-07T07:27:33Z</time>
      </trkpt>
      <trkpt lat="42.43118" lon="2.37897">
        <ele>1896.34</ele>
        <time>2017-08-07T07:27:48Z</time>
      </trkpt>
      <trkpt lat="42.43117" lon="2.37891">
        <ele>1897.3</ele>
        <time>2017-08-07T07:28:00Z</time>
      </trkpt>
      <trkpt lat="42.4311" lon="2.37879">
        <ele>1898.74</ele>
        <time>2017-08-07T07:28:17Z</time>
      </trkpt>
      <trkpt lat="42.43109" lon="2.37872">
        <ele>1901.14</ele>
        <time>2017-08-07T07:28:31Z</time>
      </trkpt>
      <trkpt lat="42.43108" lon="2.37863">
        <ele>1903.55</ele>
        <time>2017-08-07T07:28:47Z</time>
      </trkpt>
      <trkpt lat="42.4311" lon="2.37855">
        <ele>1905.47</ele>
        <time>2017-08-07T07:29:01Z</time>
      </trkpt>
      <trkpt lat="42.43111" lon="2.37848">
        <ele>1907.39</ele>
        <time>2017-08-07T07:29:16Z</time>
      </trkpt>
      <trkpt lat="42.43112" lon="2.3784">
        <ele>1909.32</ele>
        <time>2017-08-07T07:29:31Z</time>
      </trkpt>
      <trkpt lat="42.43108" lon="2.37831">
        <ele>1910.76</ele>
        <time>2017-08-07T07:29:46Z</time>
      </trkpt>
      <trkpt lat="42.43108" lon="2.37832">
        <ele>1910.76</ele>
        <time>2017-08-07T07:29:57Z</time>
      </trkpt>
      <trkpt lat="42.43109" lon="2.37832">
        <ele>1910.76</ele>
        <time>2017-08-07T07:30:13Z</time>
      </trkpt>
      <trkpt lat="42.4311" lon="2.37832">
        <ele>1912.2</ele>
        <time>2017-08-07T07:30:24Z</time>
      </trkpt>
      <trkpt lat="42.43109" lon="2.37831">
        <ele>1912.2</ele>
        <time>2017-08-07T07:30:42Z</time>
      </trkpt>
      <trkpt lat="42.43109" lon="2.3783">
        <ele>1912.2</ele>
        <time>2017-08-07T07:31:03Z</time>
      </trkpt>
      <trkpt lat="42.43109" lon="2.3783">
        <ele>1912.68</ele>
        <time>2017-08-07T07:31:28Z</time>
      </trkpt>
      <trkpt lat="42.43108" lon="2.37829">
        <ele>1912.68</ele>
        <time>2017-08-07T07:31:53Z</time>
      </trkpt>
      <trkpt lat="42.43109" lon="2.37831">
        <ele>1912.68</ele>
        <time>2017-08-07T07:32:08Z</time>
      </trkpt>
      <trkpt lat="42.43108" lon="2.3783">
        <ele>1913.16</ele>
        <time>2017-08-07T07:32:30Z</time>
      </trkpt>
      <trkpt lat="42.43109" lon="2.37829">
        <ele>1913.16</ele>
        <time>2017-08-07T07:32:50Z</time>
      </trkpt>
      <trkpt lat="42.43108" lon="2.37831">
        <ele>1913.16</ele>
        <time>2017-08-07T07:33:10Z</time>
      </trkpt>
      <trkpt lat="42.43116" lon="2.37823">
        <ele>1913.16</ele>
        <time>2017-08-07T07:33:24Z</time>
      </trkpt>
      <trkpt lat="42.43115" lon="2.37821">
        <ele>1913.64</ele>
        <time>2017-08-07T07:33:56Z</time>
      </trkpt>
      <trkpt lat="42.43115" lon="2.3782">
        <ele>1913.64</ele>
        <time>2017-08-07T07:34:24Z</time>
      </trkpt>
      <trkpt lat="42.43114" lon="2.37821">
        <ele>1912.68</ele>
        <time>2017-08-07T07:34:50Z</time>
      </trkpt>
      <trkpt lat="42.43112" lon="2.3782">
        <ele>1912.68</ele>
        <time>2017-08-07T07:35:10Z</time>
      </trkpt>
      <trkpt lat="42.43115" lon="2.37822">
        <ele>1912.68</ele>
        <time>2017-08-07T07:35:29Z</time>
      </trkpt>
      <trkpt lat="42.43113" lon="2.37822">
        <ele>1913.16</ele>
        <time>2017-08-07T07:35:48Z</time>
      </trkpt>
      <trkpt lat="42.43112" lon="2.37823">
        <ele>1913.16</ele>
        <time>2017-08-07T07:36:07Z</time>
      </trkpt>
      <trkpt lat="42.43112" lon="2.37826">
        <ele>1913.16</ele>
        <time>2017-08-07T07:36:33Z</time>
      </trkpt>
      <trkpt lat="42.43112" lon="2.37827">
        <ele>1913.64</ele>
        <time>2017-08-07T07:36:54Z</time>
      </trkpt>
      <trkpt lat="42.43111" lon="2.37827">
        <ele>1913.64</ele>
        <time>2017-08-07T07:37:13Z</time>
      </trkpt>
      <trkpt lat="42.43111" lon="2.37826">
        <ele>1913.64</ele>
        <time>2017-08-07T07:37:35Z</time>
      </trkpt>
      <trkpt lat="42.43112" lon="2.37824">
        <ele>1914.12</ele>
        <time>2017-08-07T07:38:04Z</time>
      </trkpt>
      <trkpt lat="42.43115" lon="2.3782">
        <ele>1914.12</ele>
        <time>2017-08-07T07:38:32Z</time>
      </trkpt>
      <trkpt lat="42.43117" lon="2.37813">
        <ele>1913.64</ele>
        <time>2017-08-07T07:38:48Z</time>
      </trkpt>
      <trkpt lat="42.4312" lon="2.3781">
        <ele>1914.12</ele>
        <time>2017-08-07T07:39:04Z</time>
      </trkpt>
      <trkpt lat="42.43122" lon="2.37803">
        <ele>1913.64</ele>
        <time>2017-08-07T07:39:18Z</time>
      </trkpt>
      <trkpt lat="42.43122" lon="2.37801">
        <ele>1914.6</ele>
        <time>2017-08-07T07:39:25Z</time>
      </trkpt>
      <trkpt lat="42.43122" lon="2.37801">
        <ele>1913.64</ele>
        <time>2017-08-07T07:39:27Z</time>
      </trkpt>
      <trkpt lat="42.43123" lon="2.37798">
        <ele>1913.64</ele>
        <time>2017-08-07T07:39:45Z</time>
      </trkpt>
      <trkpt lat="42.43128" lon="2.37796">
        <ele>1913.64</ele>
        <time>2017-08-07T07:40:03Z</time>
      </trkpt>
      <trkpt lat="42.43134" lon="2.37794">
        <ele>1916.04</ele>
        <time>2017-08-07T07:40:18Z</time>
      </trkpt>
      <trkpt lat="42.43143" lon="2.37795">
        <ele>1918.45</ele>
        <time>2017-08-07T07:40:36Z</time>
      </trkpt>
      <trkpt lat="42.43149" lon="2.37796">
        <ele>1920.85</ele>
        <time>2017-08-07T07:40:50Z</time>
      </trkpt>
      <trkpt lat="42.43154" lon="2.37797">
        <ele>1922.29</ele>
        <time>2017-08-07T07:41:03Z</time>
      </trkpt>
      <trkpt lat="42.4316" lon="2.37795">
        <ele>1924.7</ele>
        <time>2017-08-07T07:41:21Z</time>
      </trkpt>
      <trkpt lat="42.43168" lon="2.37793">
        <ele>1926.62</ele>
        <time>2017-08-07T07:41:37Z</time>
      </trkpt>
      <trkpt lat="42.43176" lon="2.3779">
        <ele>1927.58</ele>
        <time>2017-08-07T07:41:50Z</time>
      </trkpt>
      <trkpt lat="42.43183" lon="2.37792">
        <ele>1929.02</ele>
        <time>2017-08-07T07:42:04Z</time>
      </trkpt>
      <trkpt lat="42.43193" lon="2.37792">
        <ele>1930.46</ele>
        <time>2017-08-07T07:42:21Z</time>
      </trkpt>
      <trkpt lat="42.43199" lon="2.37794">
        <ele>1931.91</ele>
        <time>2017-08-07T07:42:36Z</time>
      </trkpt>
      <trkpt lat="42.4321" lon="2.37795">
        <ele>1933.83</ele>
        <time>2017-08-07T07:42:52Z</time>
      </trkpt>
      <trkpt lat="42.43218" lon="2.37796">
        <ele>1935.27</ele>
        <time>2017-08-07T07:43:08Z</time>
      </trkpt>
      <trkpt lat="42.43228" lon="2.37798">
        <ele>1936.71</ele>
        <time>2017-08-07T07:43:24Z</time>
      </trkpt>
      <trkpt lat="42.43235" lon="2.37801">
        <ele>1939.12</ele>
        <time>2017-08-07T07:43:40Z</time>
      </trkpt>
      <trkpt lat="42.43243" lon="2.37803">
        <ele>1942</ele>
        <time>2017-08-07T07:43:54Z</time>
      </trkpt>
      <trkpt lat="42.43246" lon="2.37802">
        <ele>1943.44</ele>
        <time>2017-08-07T07:44:08Z</time>
      </trkpt>
      <trkpt lat="42.43251" lon="2.37806">
        <ele>1944.88</ele>
        <time>2017-08-07T07:44:28Z</time>
      </trkpt>
      <trkpt lat="42.43255" lon="2.3781">
        <ele>1946.81</ele>
        <time>2017-08-07T07:44:42Z</time>
      </trkpt>
      <trkpt lat="42.43256" lon="2.3781">
        <ele>1948.73</ele>
        <time>2017-08-07T07:44:58Z</time>
      </trkpt>
      <trkpt lat="42.43264" lon="2.37809">
        <ele>1951.13</ele>
        <time>2017-08-07T07:45:14Z</time>
      </trkpt>
      <trkpt lat="42.43264" lon="2.37808">
        <ele>1952.57</ele>
        <time>2017-08-07T07:45:28Z</time>
      </trkpt>
      <trkpt lat="42.43267" lon="2.37804">
        <ele>1953.06</ele>
        <time>2017-08-07T07:45:50Z</time>
      </trkpt>
      <trkpt lat="42.43275" lon="2.37805">
        <ele>1955.94</ele>
        <time>2017-08-07T07:46:05Z</time>
      </trkpt>
      <trkpt lat="42.43278" lon="2.37805">
        <ele>1956.9</ele>
        <time>2017-08-07T07:46:20Z</time>
      </trkpt>
      <trkpt lat="42.43283" lon="2.378">
        <ele>1958.34</ele>
        <time>2017-08-07T07:46:32Z</time>
      </trkpt>
      <trkpt lat="42.4329" lon="2.378">
        <ele>1960.27</ele>
        <time>2017-08-07T07:46:45Z</time>
      </trkpt>
      <trkpt lat="42.43292" lon="2.37811">
        <ele>1963.15</ele>
        <time>2017-08-07T07:47:00Z</time>
      </trkpt>
      <trkpt lat="42.43298" lon="2.37816">
        <ele>1966.03</ele>
        <time>2017-08-07T07:47:15Z</time>
      </trkpt>
      <trkpt lat="42.433" lon="2.37819">
        <ele>1966.03</ele>
        <time>2017-08-07T07:47:29Z</time>
      </trkpt>
      <trkpt lat="42.43306" lon="2.37822">
        <ele>1969.4</ele>
        <time>2017-08-07T07:47:44Z</time>
      </trkpt>
      <trkpt lat="42.43313" lon="2.37828">
        <ele>1971.8</ele>
        <time>2017-08-07T07:48:00Z</time>
      </trkpt>
      <trkpt lat="42.43319" lon="2.37833">
        <ele>1974.69</ele>
        <time>2017-08-07T07:48:17Z</time>
      </trkpt>
      <trkpt lat="42.43325" lon="2.37834">
        <ele>1977.09</ele>
        <time>2017-08-07T07:48:32Z</time>
      </trkpt>
      <trkpt lat="42.43332" lon="2.37835">
        <ele>1979.49</ele>
        <time>2017-08-07T07:48:47Z</time>
      </trkpt>
      <trkpt lat="42.43338" lon="2.37835">
        <ele>1981.41</ele>
        <time>2017-08-07T07:49:02Z</time>
      </trkpt>
      <trkpt lat="42.4334" lon="2.37844">
        <ele>1983.82</ele>
        <time>2017-08-07T07:49:19Z</time>
      </trkpt>
      <trkpt lat="42.43348" lon="2.37847">
        <ele>1986.22</ele>
        <time>2017-08-07T07:49:32Z</time>
      </trkpt>
      <trkpt lat="42.43353" lon="2.37854">
        <ele>1988.62</ele>
        <time>2017-08-07T07:49:48Z</time>
      </trkpt>
      <trkpt lat="42.43358" lon="2.37853">
        <ele>1991.03</ele>
        <time>2017-08-07T07:50:03Z</time>
      </trkpt>
      <trkpt lat="42.43364" lon="2.37855">
        <ele>1993.43</ele>
        <time>2017-08-07T07:50:19Z</time>
      </trkpt>
      <trkpt lat="42.4337" lon="2.37859">
        <ele>1995.83</ele>
        <time>2017-08-07T07:50:35Z</time>
      </trkpt>
      <trkpt lat="42.4338" lon="2.37858">
        <ele>1998.72</ele>
        <time>2017-08-07T07:50:53Z</time>
      </trkpt>
      <trkpt lat="42.43383" lon="2.37856">
        <ele>2000.64</ele>
        <time>2017-08-07T07:51:09Z</time>
      </trkpt>
      <trkpt lat="42.43385" lon="2.37854">
        <ele>2001.6</ele>
        <time>2017-08-07T07:51:22Z</time>
      </trkpt>
      <trkpt lat="42.43384" lon="2.37854">
        <ele>2001.6</ele>
        <time>2017-08-07T07:51:40Z</time>
      </trkpt>
      <trkpt lat="42.43384" lon="2.37855">
        <ele>2001.6</ele>
        <time>2017-08-07T07:52:03Z</time>
      </trkpt>
      <trkpt lat="42.43382" lon="2.37855">
        <ele>2001.6</ele>
        <time>2017-08-07T07:52:29Z</time>
      </trkpt>
      <trkpt lat="42.43383" lon="2.37854">
        <ele>2002.08</ele>
        <time>2017-08-07T07:52:45Z</time>
      </trkpt>
      <trkpt lat="42.43382" lon="2.37854">
        <ele>2002.56</ele>
        <time>2017-08-07T07:53:08Z</time>
      </trkpt>
      <trkpt lat="42.43382" lon="2.37854">
        <ele>2002.56</ele>
        <time>2017-08-07T07:53:28Z</time>
      </trkpt>
      <trkpt lat="42.43382" lon="2.37854">
        <ele>2002.56</ele>
        <time>2017-08-07T07:53:44Z</time>
      </trkpt>
      <trkpt lat="42.43382" lon="2.37856">
        <ele>2002.56</ele>
        <time>2017-08-07T07:54:02Z</time>
      </trkpt>
      <trkpt lat="42.43381" lon="2.37855">
        <ele>2003.04</ele>
        <time>2017-08-07T07:54:24Z</time>
      </trkpt>
      <trkpt lat="42.4338" lon="2.37854">
        <ele>2003.04</ele>
        <time>2017-08-07T07:54:44Z</time>
      </trkpt>
      <trkpt lat="42.43381" lon="2.37857">
        <ele>2003.04</ele>
        <time>2017-08-07T07:55:13Z</time>
      </trkpt>
      <trkpt lat="42.43383" lon="2.3786">
        <ele>2004.01</ele>
        <time>2017-08-07T07:55:35Z</time>
      </trkpt>
      <trkpt lat="42.43384" lon="2.37859">
        <ele>2004.01</ele>
        <time>2017-08-07T07:56:00Z</time>
      </trkpt>
      <trkpt lat="42.43384" lon="2.37861">
        <ele>2004.01</ele>
        <time>2017-08-07T07:56:20Z</time>
      </trkpt>
      <trkpt lat="42.43391" lon="2.37854">
        <ele>2005.45</ele>
        <time>2017-08-07T07:56:36Z</time>
      </trkpt>
      <trkpt lat="42.43395" lon="2.37851">
        <ele>2007.37</ele>
        <time>2017-08-07T07:56:48Z</time>
      </trkpt>
      <trkpt lat="42.43401" lon="2.37846">
        <ele>2009.29</ele>
        <time>2017-08-07T07:57:02Z</time>
      </trkpt>
      <trkpt lat="42.43406" lon="2.37842">
        <ele>2011.22</ele>
        <time>2017-08-07T07:57:17Z</time>
      </trkpt>
      <trkpt lat="42.43409" lon="2.37834">
        <ele>2013.62</ele>
        <time>2017-08-07T07:57:31Z</time>
      </trkpt>
      <trkpt lat="42.43412" lon="2.37822">
        <ele>2016.5</ele>
        <time>2017-08-07T07:57:49Z</time>
      </trkpt>
      <trkpt lat="42.43416" lon="2.37812">
        <ele>2018.91</ele>
        <time>2017-08-07T07:58:05Z</time>
      </trkpt>
      <trkpt lat="42.43419" lon="2.37806">
        <ele>2020.35</ele>
        <time>2017-08-07T07:58:18Z</time>
      </trkpt>
      <trkpt lat="42.4342" lon="2.37795">
        <ele>2022.75</ele>
        <time>2017-08-07T07:58:33Z</time>
      </trkpt>
      <trkpt lat="42.43421" lon="2.37789">
        <ele>2023.71</ele>
        <time>2017-08-07T07:58:49Z</time>
      </trkpt>
      <trkpt lat="42.43423" lon="2.37784">
        <ele>2024.67</ele>
        <time>2017-08-07T07:59:02Z</time>
      </trkpt>
      <trkpt lat="42.43421" lon="2.37778">
        <ele>2026.6</ele>
        <time>2017-08-07T07:59:17Z</time>
      </trkpt>
      <trkpt lat="42.43425" lon="2.37771">
        <ele>2028.52</ele>
        <time>2017-08-07T07:59:30Z</time>
      </trkpt>
      <trkpt lat="42.43426" lon="2.37765">
        <ele>2030.44</ele>
        <time>2017-08-07T07:59:45Z</time>
      </trkpt>
      <trkpt lat="42.43428" lon="2.37757">
        <ele>2032.36</ele>
        <time>2017-08-07T07:59:58Z</time>
      </trkpt>
      <trkpt lat="42.43431" lon="2.37749">
        <ele>2034.77</ele>
        <time>2017-08-07T08:00:13Z</time>
      </trkpt>
      <trkpt lat="42.4343" lon="2.3774">
        <ele>2036.69</ele>
        <time>2017-08-07T08:00:29Z</time>
      </trkpt>
      <trkpt lat="42.43431" lon="2.37735">
        <ele>2038.13</ele>
        <time>2017-08-07T08:00:43Z</time>
      </trkpt>
      <trkpt lat="42.43432" lon="2.37727">
        <ele>2040.05</ele>
        <time>2017-08-07T08:00:57Z</time>
      </trkpt>
      <trkpt lat="42.43433" lon="2.37713">
        <ele>2041.5</ele>
        <time>2017-08-07T08:01:13Z</time>
      </trkpt>
      <trkpt lat="42.43437" lon="2.3771">
        <ele>2043.9</ele>
        <time>2017-08-07T08:01:27Z</time>
      </trkpt>
      <trkpt lat="42.4344" lon="2.37704">
        <ele>2045.34</ele>
        <time>2017-08-07T08:01:40Z</time>
      </trkpt>
      <trkpt lat="42.43445" lon="2.377">
        <ele>2047.26</ele>
        <time>2017-08-07T08:01:56Z</time>
      </trkpt>
      <trkpt lat="42.43446" lon="2.37695">
        <ele>2048.23</ele>
        <time>2017-08-07T08:02:10Z</time>
      </trkpt>
      <trkpt lat="42.43449" lon="2.37695">
        <ele>2049.19</ele>
        <time>2017-08-07T08:02:34Z</time>
      </trkpt>
      <trkpt lat="42.43451" lon="2.37694">
        <ele>2050.15</ele>
        <time>2017-08-07T08:02:47Z</time>
      </trkpt>
      <trkpt lat="42.43455" lon="2.37686">
        <ele>2051.11</ele>
        <time>2017-08-07T08:03:01Z</time>
      </trkpt>
      <trkpt lat="42.43464" lon="2.37685">
        <ele>2053.99</ele>
        <time>2017-08-07T08:03:18Z</time>
      </trkpt>
      <trkpt lat="42.43471" lon="2.37679">
        <ele>2054.47</ele>
        <time>2017-08-07T08:03:31Z</time>
      </trkpt>
      <trkpt lat="42.43479" lon="2.37677">
        <ele>2054.96</ele>
        <time>2017-08-07T08:03:44Z</time>
      </trkpt>
      <trkpt lat="42.43489" lon="2.37672">
        <ele>2055.44</ele>
        <time>2017-08-07T08:03:59Z</time>
      </trkpt>
      <trkpt lat="42.43498" lon="2.37662">
        <ele>2057.36</ele>
        <time>2017-08-07T08:04:15Z</time>
      </trkpt>
      <trkpt lat="42.43505" lon="2.37647">
        <ele>2058.8</ele>
        <time>2017-08-07T08:04:32Z</time>
      </trkpt>
      <trkpt lat="42.43513" lon="2.37638">
        <ele>2059.76</ele>
        <time>2017-08-07T08:04:48Z</time>
      </trkpt>
      <trkpt lat="42.43519" lon="2.37625">
        <ele>2061.68</ele>
        <time>2017-08-07T08:05:03Z</time>
      </trkpt>
      <trkpt lat="42.43526" lon="2.37619">
        <ele>2063.13</ele>
        <time>2017-08-07T08:05:17Z</time>
      </trkpt>
      <trkpt lat="42.43527" lon="2.37617">
        <ele>2064.09</ele>
        <time>2017-08-07T08:05:31Z</time>
      </trkpt>
      <trkpt lat="42.43526" lon="2.37616">
        <ele>2062.65</ele>
        <time>2017-08-07T08:05:33Z</time>
      </trkpt>
      <trkpt lat="42.43526" lon="2.37616">
        <ele>2064.09</ele>
        <time>2017-08-07T08:05:35Z</time>
      </trkpt>
      <trkpt lat="42.43527" lon="2.37616">
        <ele>2063.13</ele>
        <time>2017-08-07T08:05:41Z</time>
      </trkpt>
      <trkpt lat="42.43529" lon="2.37615">
        <ele>2062.65</ele>
        <time>2017-08-07T08:05:53Z</time>
      </trkpt>
      <trkpt lat="42.43529" lon="2.37614">
        <ele>2063.13</ele>
        <time>2017-08-07T08:06:10Z</time>
      </trkpt>
      <trkpt lat="42.43529" lon="2.37614">
        <ele>2063.13</ele>
        <time>2017-08-07T08:06:21Z</time>
      </trkpt>
      <trkpt lat="42.4353" lon="2.37614">
        <ele>2063.13</ele>
        <time>2017-08-07T08:06:35Z</time>
      </trkpt>
      <trkpt lat="42.43529" lon="2.37615">
        <ele>2064.57</ele>
        <time>2017-08-07T08:06:46Z</time>
      </trkpt>
      <trkpt lat="42.43529" lon="2.37614">
        <ele>2064.57</ele>
        <time>2017-08-07T08:07:02Z</time>
      </trkpt>
      <trkpt lat="42.4353" lon="2.37614">
        <ele>2064.57</ele>
        <time>2017-08-07T08:07:23Z</time>
      </trkpt>
      <trkpt lat="42.43531" lon="2.37613">
        <ele>2065.05</ele>
        <time>2017-08-07T08:07:44Z</time>
      </trkpt>
      <trkpt lat="42.4353" lon="2.37615">
        <ele>2065.05</ele>
        <time>2017-08-07T08:08:08Z</time>
      </trkpt>
      <trkpt lat="42.43532" lon="2.37614">
        <ele>2065.53</ele>
        <time>2017-08-07T08:08:40Z</time>
      </trkpt>
      <trkpt lat="42.43531" lon="2.37615">
        <ele>2065.53</ele>
        <time>2017-08-07T08:09:15Z</time>
      </trkpt>
      <trkpt lat="42.4353" lon="2.37615">
        <ele>2066.01</ele>
        <time>2017-08-07T08:09:53Z</time>
      </trkpt>
      <trkpt lat="42.43529" lon="2.37614">
        <ele>2066.01</ele>
        <time>2017-08-07T08:10:22Z</time>
      </trkpt>
      <trkpt lat="42.43529" lon="2.37611">
        <ele>2066.97</ele>
        <time>2017-08-07T08:10:42Z</time>
      </trkpt>
      <trkpt lat="42.43529" lon="2.37612">
        <ele>2067.45</ele>
        <time>2017-08-07T08:11:11Z</time>
      </trkpt>
      <trkpt lat="42.43528" lon="2.376">
        <ele>2068.41</ele>
        <time>2017-08-07T08:11:24Z</time>
      </trkpt>
      <trkpt lat="42.43531" lon="2.37591">
        <ele>2068.89</ele>
        <time>2017-08-07T08:11:37Z</time>
      </trkpt>
      <trkpt lat="42.43537" lon="2.37581">
        <ele>2069.86</ele>
        <time>2017-08-07T08:11:50Z</time>
      </trkpt>
      <trkpt lat="42.43537" lon="2.37569">
        <ele>2070.34</ele>
        <time>2017-08-07T08:12:02Z</time>
      </trkpt>
      <trkpt lat="42.43538" lon="2.37558">
        <ele>2071.3</ele>
        <time>2017-08-07T08:12:16Z</time>
      </trkpt>
      <trkpt lat="42.43536" lon="2.3755">
        <ele>2072.26</ele>
        <time>2017-08-07T08:12:28Z</time>
      </trkpt>
      <trkpt lat="42.43535" lon="2.3754">
        <ele>2072.74</ele>
        <time>2017-08-07T08:12:45Z</time>
      </trkpt>
      <trkpt lat="42.43535" lon="2.3753">
        <ele>2073.22</ele>
        <time>2017-08-07T08:12:57Z</time>
      </trkpt>
      <trkpt lat="42.43534" lon="2.37516">
        <ele>2074.18</ele>
        <time>2017-08-07T08:13:12Z</time>
      </trkpt>
      <trkpt lat="42.43533" lon="2.37503">
        <ele>2076.1</ele>
        <time>2017-08-07T08:13:26Z</time>
      </trkpt>
      <trkpt lat="42.43533" lon="2.37484">
        <ele>2076.59</ele>
        <time>2017-08-07T08:13:42Z</time>
      </trkpt>
      <trkpt lat="42.43534" lon="2.37466">
        <ele>2077.55</ele>
        <time>2017-08-07T08:13:59Z</time>
      </trkpt>
      <trkpt lat="42.43535" lon="2.3745">
        <ele>2078.51</ele>
        <time>2017-08-07T08:14:13Z</time>
      </trkpt>
      <trkpt lat="42.43534" lon="2.37435">
        <ele>2078.99</ele>
        <time>2017-08-07T08:14:28Z</time>
      </trkpt>
      <trkpt lat="42.43533" lon="2.37427">
        <ele>2079.47</ele>
        <time>2017-08-07T08:14:46Z</time>
      </trkpt>
      <trkpt lat="42.43532" lon="2.37415">
        <ele>2080.43</ele>
        <time>2017-08-07T08:15:06Z</time>
      </trkpt>
      <trkpt lat="42.43526" lon="2.37403">
        <ele>2080.91</ele>
        <time>2017-08-07T08:15:20Z</time>
      </trkpt>
      <trkpt lat="42.43523" lon="2.37393">
        <ele>2082.35</ele>
        <time>2017-08-07T08:15:33Z</time>
      </trkpt>
      <trkpt lat="42.43518" lon="2.37381">
        <ele>2083.31</ele>
        <time>2017-08-07T08:15:48Z</time>
      </trkpt>
      <trkpt lat="42.43511" lon="2.37373">
        <ele>2083.79</ele>
        <time>2017-08-07T08:16:02Z</time>
      </trkpt>
      <trkpt lat="42.43503" lon="2.37365">
        <ele>2084.76</ele>
        <time>2017-08-07T08:16:16Z</time>
      </trkpt>
      <trkpt lat="42.43498" lon="2.37354">
        <ele>2086.2</ele>
        <time>2017-08-07T08:16:31Z</time>
      </trkpt>
      <trkpt lat="42.43501" lon="2.37343">
        <ele>2089.08</ele>
        <time>2017-08-07T08:16:47Z</time>
      </trkpt>
      <trkpt lat="42.43502" lon="2.3733">
        <ele>2091.49</ele>
        <time>2017-08-07T08:17:05Z</time>
      </trkpt>
      <trkpt lat="42.43507" lon="2.37322">
        <ele>2093.41</ele>
        <time>2017-08-07T08:17:20Z</time>
      </trkpt>
      <trkpt lat="42.43512" lon="2.37313">
        <ele>2095.81</ele>
        <time>2017-08-07T08:17:36Z</time>
      </trkpt>
      <trkpt lat="42.43513" lon="2.37298">
        <ele>2097.73</ele>
        <time>2017-08-07T08:17:53Z</time>
      </trkpt>
      <trkpt lat="42.43515" lon="2.37282">
        <ele>2099.66</ele>
        <time>2017-08-07T08:18:11Z</time>
      </trkpt>
      <trkpt lat="42.43517" lon="2.37267">
        <ele>2100.14</ele>
        <time>2017-08-07T08:18:25Z</time>
      </trkpt>
      <trkpt lat="42.43517" lon="2.37254">
        <ele>2103.02</ele>
        <time>2017-08-07T08:18:42Z</time>
      </trkpt>
      <trkpt lat="42.43518" lon="2.37242">
        <ele>2103.98</ele>
        <time>2017-08-07T08:18:56Z</time>
      </trkpt>
      <trkpt lat="42.43519" lon="2.37239">
        <ele>2104.94</ele>
        <time>2017-08-07T08:19:10Z</time>
      </trkpt>
      <trkpt lat="42.43522" lon="2.37226">
        <ele>2107.35</ele>
        <time>2017-08-07T08:19:27Z</time>
      </trkpt>
      <trkpt lat="42.43523" lon="2.37213">
        <ele>2109.27</ele>
        <time>2017-08-07T08:19:44Z</time>
      </trkpt>
      <trkpt lat="42.43526" lon="2.372">
        <ele>2112.63</ele>
        <time>2017-08-07T08:20:02Z</time>
      </trkpt>
      <trkpt lat="42.43527" lon="2.37189">
        <ele>2114.56</ele>
        <time>2017-08-07T08:20:22Z</time>
      </trkpt>
      <trkpt lat="42.43526" lon="2.3718">
        <ele>2115.52</ele>
        <time>2017-08-07T08:20:41Z</time>
      </trkpt>
      <trkpt lat="42.43527" lon="2.37167">
        <ele>2117.44</ele>
        <time>2017-08-07T08:20:56Z</time>
      </trkpt>
      <trkpt lat="42.43532" lon="2.37159">
        <ele>2118.4</ele>
        <time>2017-08-07T08:21:12Z</time>
      </trkpt>
      <trkpt lat="42.43542" lon="2.37153">
        <ele>2121.29</ele>
        <time>2017-08-07T08:21:29Z</time>
      </trkpt>
      <trkpt lat="42.43549" lon="2.37145">
        <ele>2123.69</ele>
        <time>2017-08-07T08:21:45Z</time>
      </trkpt>
      <trkpt lat="42.43551" lon="2.37133">
        <ele>2125.61</ele>
        <time>2017-08-07T08:22:01Z</time>
      </trkpt>
      <trkpt lat="42.43556" lon="2.37124">
        <ele>2128.5</ele>
        <time>2017-08-07T08:22:19Z</time>
      </trkpt>
      <trkpt lat="42.43561" lon="2.37116">
        <ele>2130.9</ele>
        <time>2017-08-07T08:22:34Z</time>
      </trkpt>
      <trkpt lat="42.43564" lon="2.37109">
        <ele>2132.82</ele>
        <time>2017-08-07T08:22:49Z</time>
      </trkpt>
      <trkpt lat="42.43567" lon="2.371">
        <ele>2134.74</ele>
        <time>2017-08-07T08:23:04Z</time>
      </trkpt>
      <trkpt lat="42.43571" lon="2.37091">
        <ele>2137.15</ele>
        <time>2017-08-07T08:23:19Z</time>
      </trkpt>
      <trkpt lat="42.43575" lon="2.37084">
        <ele>2138.59</ele>
        <time>2017-08-07T08:23:33Z</time>
      </trkpt>
      <trkpt lat="42.43579" lon="2.37075">
        <ele>2141.95</ele>
        <time>2017-08-07T08:23:50Z</time>
      </trkpt>
      <trkpt lat="42.43582" lon="2.37064">
        <ele>2143.88</ele>
        <time>2017-08-07T08:24:06Z</time>
      </trkpt>
      <trkpt lat="42.43583" lon="2.3706">
        <ele>2144.84</ele>
        <time>2017-08-07T08:24:21Z</time>
      </trkpt>
      <trkpt lat="42.43588" lon="2.3705">
        <ele>2146.28</ele>
        <time>2017-08-07T08:24:37Z</time>
      </trkpt>
      <trkpt lat="42.43592" lon="2.37038">
        <ele>2149.16</ele>
        <time>2017-08-07T08:24:52Z</time>
      </trkpt>
      <trkpt lat="42.43598" lon="2.3703">
        <ele>2151.09</ele>
        <time>2017-08-07T08:25:07Z</time>
      </trkpt>
      <trkpt lat="42.43603" lon="2.37022">
        <ele>2152.53</ele>
        <time>2017-08-07T08:25:21Z</time>
      </trkpt>
      <trkpt lat="42.43605" lon="2.37012">
        <ele>2154.45</ele>
        <time>2017-08-07T08:25:36Z</time>
      </trkpt>
      <trkpt lat="42.43607" lon="2.36998">
        <ele>2156.86</ele>
        <time>2017-08-07T08:25:54Z</time>
      </trkpt>
      <trkpt lat="42.43609" lon="2.36998">
        <ele>2156.86</ele>
        <time>2017-08-07T08:26:17Z</time>
      </trkpt>
      <trkpt lat="42.43613" lon="2.36987">
        <ele>2158.78</ele>
        <time>2017-08-07T08:26:32Z</time>
      </trkpt>
      <trkpt lat="42.43614" lon="2.36971">
        <ele>2161.18</ele>
        <time>2017-08-07T08:26:50Z</time>
      </trkpt>
      <trkpt lat="42.43619" lon="2.36959">
        <ele>2162.62</ele>
        <time>2017-08-07T08:27:04Z</time>
      </trkpt>
      <trkpt lat="42.43628" lon="2.36948">
        <ele>2164.06</ele>
        <time>2017-08-07T08:27:20Z</time>
      </trkpt>
      <trkpt lat="42.43633" lon="2.36934">
        <ele>2165.99</ele>
        <time>2017-08-07T08:27:36Z</time>
      </trkpt>
      <trkpt lat="42.43636" lon="2.36924">
        <ele>2167.43</ele>
        <time>2017-08-07T08:27:50Z</time>
      </trkpt>
      <trkpt lat="42.43643" lon="2.36914">
        <ele>2169.83</ele>
        <time>2017-08-07T08:28:05Z</time>
      </trkpt>
      <trkpt lat="42.4365" lon="2.36904">
        <ele>2172.24</ele>
        <time>2017-08-07T08:28:22Z</time>
      </trkpt>
      <trkpt lat="42.43654" lon="2.36894">
        <ele>2174.16</ele>
        <time>2017-08-07T08:28:36Z</time>
      </trkpt>
      <trkpt lat="42.43658" lon="2.36878">
        <ele>2175.6</ele>
        <time>2017-08-07T08:28:52Z</time>
      </trkpt>
      <trkpt lat="42.43659" lon="2.36864">
        <ele>2177.52</ele>
        <time>2017-08-07T08:29:07Z</time>
      </trkpt>
      <trkpt lat="42.43655" lon="2.36848">
        <ele>2178.97</ele>
        <time>2017-08-07T08:29:25Z</time>
      </trkpt>
      <trkpt lat="42.43654" lon="2.36833">
        <ele>2180.41</ele>
        <time>2017-08-07T08:29:41Z</time>
      </trkpt>
      <trkpt lat="42.43655" lon="2.36819">
        <ele>2181.37</ele>
        <time>2017-08-07T08:29:56Z</time>
      </trkpt>
      <trkpt lat="42.43658" lon="2.36809">
        <ele>2182.33</ele>
        <time>2017-08-07T08:30:10Z</time>
      </trkpt>
      <trkpt lat="42.43664" lon="2.36794">
        <ele>2184.25</ele>
        <time>2017-08-07T08:30:25Z</time>
      </trkpt>
      <trkpt lat="42.43665" lon="2.36778">
        <ele>2185.21</ele>
        <time>2017-08-07T08:30:41Z</time>
      </trkpt>
      <trkpt lat="42.43667" lon="2.36764">
        <ele>2186.18</ele>
        <time>2017-08-07T08:30:55Z</time>
      </trkpt>
      <trkpt lat="42.43669" lon="2.36752">
        <ele>2187.14</ele>
        <time>2017-08-07T08:31:08Z</time>
      </trkpt>
      <trkpt lat="42.43672" lon="2.36735">
        <ele>2188.1</ele>
        <time>2017-08-07T08:31:24Z</time>
      </trkpt>
      <trkpt lat="42.43673" lon="2.36721">
        <ele>2190.02</ele>
        <time>2017-08-07T08:31:40Z</time>
      </trkpt>
      <trkpt lat="42.43675" lon="2.36713">
        <ele>2190.98</ele>
        <time>2017-08-07T08:31:55Z</time>
      </trkpt>
      <trkpt lat="42.43677" lon="2.36699">
        <ele>2192.9</ele>
        <time>2017-08-07T08:32:12Z</time>
      </trkpt>
      <trkpt lat="42.43678" lon="2.36685">
        <ele>2195.31</ele>
        <time>2017-08-07T08:32:30Z</time>
      </trkpt>
      <trkpt lat="42.43681" lon="2.36671">
        <ele>2196.75</ele>
        <time>2017-08-07T08:32:46Z</time>
      </trkpt>
      <trkpt lat="42.43684" lon="2.36658">
        <ele>2198.67</ele>
        <time>2017-08-07T08:33:00Z</time>
      </trkpt>
      <trkpt lat="42.43688" lon="2.36649">
        <ele>2200.59</ele>
        <time>2017-08-07T08:33:15Z</time>
      </trkpt>
      <trkpt lat="42.43693" lon="2.36638">
        <ele>2202.52</ele>
        <time>2017-08-07T08:33:31Z</time>
      </trkpt>
      <trkpt lat="42.43698" lon="2.36628">
        <ele>2204.92</ele>
        <time>2017-08-07T08:33:48Z</time>
      </trkpt>
      <trkpt lat="42.43703" lon="2.36613">
        <ele>2206.84</ele>
        <time>2017-08-07T08:34:06Z</time>
      </trkpt>
      <trkpt lat="42.43707" lon="2.36601">
        <ele>2209.25</ele>
        <time>2017-08-07T08:34:22Z</time>
      </trkpt>
      <trkpt lat="42.43712" lon="2.36589">
        <ele>2210.69</ele>
        <time>2017-08-07T08:34:37Z</time>
      </trkpt>
      <trkpt lat="42.43717" lon="2.36582">
        <ele>2212.13</ele>
        <time>2017-08-07T08:34:50Z</time>
      </trkpt>
      <trkpt lat="42.43723" lon="2.36569">
        <ele>2213.57</ele>
        <time>2017-08-07T08:35:06Z</time>
      </trkpt>
      <trkpt lat="42.4373" lon="2.3656">
        <ele>2215.01</ele>
        <time>2017-08-07T08:35:20Z</time>
      </trkpt>
      <trkpt lat="42.43738" lon="2.36546">
        <ele>2217.42</ele>
        <time>2017-08-07T08:35:36Z</time>
      </trkpt>
      <trkpt lat="42.43739" lon="2.36545">
        <ele>2217.42</ele>
        <time>2017-08-07T08:35:38Z</time>
      </trkpt>
      <trkpt lat="42.43745" lon="2.3653">
        <ele>2218.86</ele>
        <time>2017-08-07T08:35:53Z</time>
      </trkpt>
      <trkpt lat="42.43751" lon="2.36519">
        <ele>2219.34</ele>
        <time>2017-08-07T08:36:08Z</time>
      </trkpt>
      <trkpt lat="42.43751" lon="2.3652">
        <ele>2219.34</ele>
        <time>2017-08-07T08:36:22Z</time>
      </trkpt>
      <trkpt lat="42.43752" lon="2.36519">
        <ele>2217.9</ele>
        <time>2017-08-07T08:36:27Z</time>
      </trkpt>
      <trkpt lat="42.43751" lon="2.36521">
        <ele>2219.34</ele>
        <time>2017-08-07T08:36:47Z</time>
      </trkpt>
      <trkpt lat="42.4375" lon="2.36521">
        <ele>2219.34</ele>
        <time>2017-08-07T08:37:07Z</time>
      </trkpt>
      <trkpt lat="42.4375" lon="2.36521">
        <ele>2219.34</ele>
        <time>2017-08-07T08:37:25Z</time>
      </trkpt>
      <trkpt lat="42.4375" lon="2.36521">
        <ele>2219.34</ele>
        <time>2017-08-07T08:37:41Z</time>
      </trkpt>
      <trkpt lat="42.43751" lon="2.3652">
        <ele>2219.82</ele>
        <time>2017-08-07T08:38:00Z</time>
      </trkpt>
      <trkpt lat="42.43751" lon="2.36521">
        <ele>2219.82</ele>
        <time>2017-08-07T08:38:13Z</time>
      </trkpt>
      <trkpt lat="42.43752" lon="2.36521">
        <ele>2219.82</ele>
        <time>2017-08-07T08:38:34Z</time>
      </trkpt>
      <trkpt lat="42.43751" lon="2.3652">
        <ele>2219.82</ele>
        <time>2017-08-07T08:38:53Z</time>
      </trkpt>
      <trkpt lat="42.43752" lon="2.36521">
        <ele>2219.82</ele>
        <time>2017-08-07T08:39:18Z</time>
      </trkpt>
      <trkpt lat="42.43751" lon="2.36521">
        <ele>2220.78</ele>
        <time>2017-08-07T08:39:41Z</time>
      </trkpt>
      <trkpt lat="42.43752" lon="2.3652">
        <ele>2220.78</ele>
        <time>2017-08-07T08:39:59Z</time>
      </trkpt>
      <trkpt lat="42.43753" lon="2.3652">
        <ele>2220.78</ele>
        <time>2017-08-07T08:40:16Z</time>
      </trkpt>
      <trkpt lat="42.43754" lon="2.36522">
        <ele>2220.78</ele>
        <time>2017-08-07T08:40:31Z</time>
      </trkpt>
      <trkpt lat="42.43753" lon="2.36522">
        <ele>2220.78</ele>
        <time>2017-08-07T08:40:54Z</time>
      </trkpt>
      <trkpt lat="42.43751" lon="2.3652">
        <ele>2219.82</ele>
        <time>2017-08-07T08:41:10Z</time>
      </trkpt>
      <trkpt lat="42.43755" lon="2.36521">
        <ele>2219.82</ele>
        <time>2017-08-07T08:41:25Z</time>
      </trkpt>
      <trkpt lat="42.43755" lon="2.3652">
        <ele>2219.82</ele>
        <time>2017-08-07T08:41:45Z</time>
      </trkpt>
      <trkpt lat="42.43755" lon="2.3652">
        <ele>2220.3</ele>
        <time>2017-08-07T08:42:08Z</time>
      </trkpt>
      <trkpt lat="42.43753" lon="2.3652">
        <ele>2220.3</ele>
        <time>2017-08-07T08:42:36Z</time>
      </trkpt>
      <trkpt lat="42.43754" lon="2.36519">
        <ele>2220.3</ele>
        <time>2017-08-07T08:42:52Z</time>
      </trkpt>
      <trkpt lat="42.43753" lon="2.36518">
        <ele>2220.3</ele>
        <time>2017-08-07T08:43:14Z</time>
      </trkpt>
      <trkpt lat="42.4375" lon="2.36519">
        <ele>2220.78</ele>
        <time>2017-08-07T08:43:36Z</time>
      </trkpt>
      <trkpt lat="42.4375" lon="2.36522">
        <ele>2220.78</ele>
        <time>2017-08-07T08:44:01Z</time>
      </trkpt>
      <trkpt lat="42.4375" lon="2.36519">
        <ele>2220.78</ele>
        <time>2017-08-07T08:44:25Z</time>
      </trkpt>
      <trkpt lat="42.43751" lon="2.36521">
        <ele>2220.78</ele>
        <time>2017-08-07T08:44:45Z</time>
      </trkpt>
      <trkpt lat="42.43752" lon="2.3652">
        <ele>2220.78</ele>
        <time>2017-08-07T08:45:01Z</time>
      </trkpt>
      <trkpt lat="42.43752" lon="2.36519">
        <ele>2221.26</ele>
        <time>2017-08-07T08:45:25Z</time>
      </trkpt>
      <trkpt lat="42.43753" lon="2.36519">
        <ele>2222.22</ele>
        <time>2017-08-07T08:45:29Z</time>
      </trkpt>
      <trkpt lat="42.43752" lon="2.3652">
        <ele>2222.22</ele>
        <time>2017-08-07T08:45:48Z</time>
      </trkpt>
      <trkpt lat="42.43751" lon="2.3652">
        <ele>2221.26</ele>
        <time>2017-08-07T08:46:02Z</time>
      </trkpt>
      <trkpt lat="42.43751" lon="2.3652">
        <ele>2221.26</ele>
        <time>2017-08-07T08:46:22Z</time>
      </trkpt>
      <trkpt lat="42.43751" lon="2.3652">
        <ele>2221.74</ele>
        <time>2017-08-07T08:46:49Z</time>
      </trkpt>
      <trkpt lat="42.43751" lon="2.36519">
        <ele>2221.74</ele>
        <time>2017-08-07T08:47:18Z</time>
      </trkpt>
      <trkpt lat="42.43751" lon="2.36519">
        <ele>2221.74</ele>
        <time>2017-08-07T08:47:47Z</time>
      </trkpt>
      <trkpt lat="42.43751" lon="2.36519">
        <ele>2221.74</ele>
        <time>2017-08-07T08:48:17Z</time>
      </trkpt>
      <trkpt lat="42.43751" lon="2.36518">
        <ele>2221.74</ele>
        <time>2017-08-07T08:48:45Z</time>
      </trkpt>
      <trkpt lat="42.4375" lon="2.3651">
        <ele>2222.22</ele>
        <time>2017-08-07T08:48:57Z</time>
      </trkpt>
      <trkpt lat="42.43751" lon="2.36507">
        <ele>2222.22</ele>
        <time>2017-08-07T08:49:11Z</time>
      </trkpt>
      <trkpt lat="42.4375" lon="2.36507">
        <ele>2222.22</ele>
        <time>2017-08-07T08:49:26Z</time>
      </trkpt>
      <trkpt lat="42.43747" lon="2.36511">
        <ele>2222.22</ele>
        <time>2017-08-07T08:49:39Z</time>
      </trkpt>
      <trkpt lat="42.43748" lon="2.36512">
        <ele>2222.22</ele>
        <time>2017-08-07T08:49:58Z</time>
      </trkpt>
      <trkpt lat="42.43748" lon="2.36511">
        <ele>2222.22</ele>
        <time>2017-08-07T08:50:28Z</time>
      </trkpt>
      <trkpt lat="42.43753" lon="2.36503">
        <ele>2222.22</ele>
        <time>2017-08-07T08:50:45Z</time>
      </trkpt>
      <trkpt lat="42.43754" lon="2.36488">
        <ele>2222.22</ele>
        <time>2017-08-07T08:51:00Z</time>
      </trkpt>
      <trkpt lat="42.43758" lon="2.36477">
        <ele>2223.67</ele>
        <time>2017-08-07T08:51:12Z</time>
      </trkpt>
      <trkpt lat="42.43759" lon="2.36469">
        <ele>2223.67</ele>
        <time>2017-08-07T08:51:20Z</time>
      </trkpt>
      <trkpt lat="42.43759" lon="2.36451">
        <ele>2223.67</ele>
        <time>2017-08-07T08:51:35Z</time>
      </trkpt>
      <trkpt lat="42.43757" lon="2.36436">
        <ele>2223.67</ele>
        <time>2017-08-07T08:51:48Z</time>
      </trkpt>
      <trkpt lat="42.43754" lon="2.36421">
        <ele>2224.15</ele>
        <time>2017-08-07T08:52:02Z</time>
      </trkpt>
      <trkpt lat="42.43755" lon="2.36406">
        <ele>2224.15</ele>
        <time>2017-08-07T08:52:15Z</time>
      </trkpt>
      <trkpt lat="42.43754" lon="2.36395">
        <ele>2224.63</ele>
        <time>2017-08-07T08:52:23Z</time>
      </trkpt>
      <trkpt lat="42.43749" lon="2.36377">
        <ele>2224.63</ele>
        <time>2017-08-07T08:52:39Z</time>
      </trkpt>
      <trkpt lat="42.43744" lon="2.36358">
        <ele>2225.11</ele>
        <time>2017-08-07T08:52:55Z</time>
      </trkpt>
      <trkpt lat="42.43742" lon="2.36345">
        <ele>2224.15</ele>
        <time>2017-08-07T08:53:10Z</time>
      </trkpt>
      <trkpt lat="42.43739" lon="2.36328">
        <ele>2223.19</ele>
        <time>2017-08-07T08:53:23Z</time>
      </trkpt>
      <trkpt lat="42.43737" lon="2.36314">
        <ele>2223.19</ele>
        <time>2017-08-07T08:53:34Z</time>
      </trkpt>
      <trkpt lat="42.43734" lon="2.36304">
        <ele>2222.22</ele>
        <time>2017-08-07T08:53:42Z</time>
      </trkpt>
      <trkpt lat="42.43727" lon="2.36285">
        <ele>2222.22</ele>
        <time>2017-08-07T08:53:58Z</time>
      </trkpt>
      <trkpt lat="42.43718" lon="2.36267">
        <ele>2222.22</ele>
        <time>2017-08-07T08:54:15Z</time>
      </trkpt>
      <trkpt lat="42.43718" lon="2.36266">
        <ele>2222.22</ele>
        <time>2017-08-07T08:54:16Z</time>
      </trkpt>
      <trkpt lat="42.43716" lon="2.36248">
        <ele>2221.26</ele>
        <time>2017-08-07T08:54:32Z</time>
      </trkpt>
      <trkpt lat="42.43711" lon="2.36233">
        <ele>2220.78</ele>
        <time>2017-08-07T08:54:47Z</time>
      </trkpt>
      <trkpt lat="42.43709" lon="2.36227">
        <ele>2220.78</ele>
        <time>2017-08-07T08:54:52Z</time>
      </trkpt>
      <trkpt lat="42.43705" lon="2.36212">
        <ele>2220.78</ele>
        <time>2017-08-07T08:55:08Z</time>
      </trkpt>
      <trkpt lat="42.43701" lon="2.36199">
        <ele>2221.26</ele>
        <time>2017-08-07T08:55:21Z</time>
      </trkpt>
      <trkpt lat="42.43696" lon="2.36186">
        <ele>2220.3</ele>
        <time>2017-08-07T08:55:33Z</time>
      </trkpt>
      <trkpt lat="42.43691" lon="2.3617">
        <ele>2219.82</ele>
        <time>2017-08-07T08:55:47Z</time>
      </trkpt>
      <trkpt lat="42.43685" lon="2.36155">
        <ele>2219.34</ele>
        <time>2017-08-07T08:56:02Z</time>
      </trkpt>
      <trkpt lat="42.43681" lon="2.36139">
        <ele>2217.9</ele>
        <time>2017-08-07T08:56:14Z</time>
      </trkpt>
      <trkpt lat="42.43679" lon="2.36134">
        <ele>2217.42</ele>
        <time>2017-08-07T08:56:18Z</time>
      </trkpt>
      <trkpt lat="42.43679" lon="2.36132">
        <ele>2217.42</ele>
        <time>2017-08-07T08:56:20Z</time>
      </trkpt>
      <trkpt lat="42.4367" lon="2.36113">
        <ele>2216.94</ele>
        <time>2017-08-07T08:56:37Z</time>
      </trkpt>
      <trkpt lat="42.43669" lon="2.36112">
        <ele>2216.94</ele>
        <time>2017-08-07T08:56:41Z</time>
      </trkpt>
      <trkpt lat="42.4366" lon="2.36097">
        <ele>2216.94</ele>
        <time>2017-08-07T08:56:56Z</time>
      </trkpt>
      <trkpt lat="42.43652" lon="2.36081">
        <ele>2216.94</ele>
        <time>2017-08-07T08:57:09Z</time>
      </trkpt>
      <trkpt lat="42.43647" lon="2.36073">
        <ele>2218.86</ele>
        <time>2017-08-07T08:57:17Z</time>
      </trkpt>
      <trkpt lat="42.43635" lon="2.36061">
        <ele>2218.86</ele>
        <time>2017-08-07T08:57:31Z</time>
      </trkpt>
      <trkpt lat="42.43627" lon="2.36051">
        <ele>2218.86</ele>
        <time>2017-08-07T08:57:41Z</time>
      </trkpt>
      <trkpt lat="42.43625" lon="2.36046">
        <ele>2218.86</ele>
        <time>2017-08-07T08:57:46Z</time>
      </trkpt>
      <trkpt lat="42.43612" lon="2.36027">
        <ele>2218.86</ele>
        <time>2017-08-07T08:58:04Z</time>
      </trkpt>
      <trkpt lat="42.43602" lon="2.3601">
        <ele>2219.34</ele>
        <time>2017-08-07T08:58:19Z</time>
      </trkpt>
      <trkpt lat="42.43596" lon="2.35995">
        <ele>2219.34</ele>
        <time>2017-08-07T08:58:31Z</time>
      </trkpt>
      <trkpt lat="42.43594" lon="2.35989">
        <ele>2219.34</ele>
        <time>2017-08-07T08:58:36Z</time>
      </trkpt>
      <trkpt lat="42.43585" lon="2.35968">
        <ele>2220.3</ele>
        <time>2017-08-07T08:58:53Z</time>
      </trkpt>
      <trkpt lat="42.43581" lon="2.3595">
        <ele>2221.26</ele>
        <time>2017-08-07T08:59:08Z</time>
      </trkpt>
      <trkpt lat="42.43577" lon="2.35929">
        <ele>2222.71</ele>
        <time>2017-08-07T08:59:24Z</time>
      </trkpt>
      <trkpt lat="42.43574" lon="2.35918">
        <ele>2222.71</ele>
        <time>2017-08-07T08:59:32Z</time>
      </trkpt>
      <trkpt lat="42.43573" lon="2.35915">
        <ele>2222.71</ele>
        <time>2017-08-07T08:59:34Z</time>
      </trkpt>
      <trkpt lat="42.43572" lon="2.35913">
        <ele>2222.71</ele>
        <time>2017-08-07T08:59:36Z</time>
      </trkpt>
      <trkpt lat="42.43571" lon="2.35892">
        <ele>2222.71</ele>
        <time>2017-08-07T08:59:51Z</time>
      </trkpt>
      <trkpt lat="42.43567" lon="2.35874">
        <ele>2222.71</ele>
        <time>2017-08-07T09:00:06Z</time>
      </trkpt>
      <trkpt lat="42.43567" lon="2.35871">
        <ele>2223.19</ele>
        <time>2017-08-07T09:00:08Z</time>
      </trkpt>
      <trkpt lat="42.43563" lon="2.35852">
        <ele>2223.67</ele>
        <time>2017-08-07T09:00:24Z</time>
      </trkpt>
      <trkpt lat="42.43562" lon="2.35839">
        <ele>2224.15</ele>
        <time>2017-08-07T09:00:37Z</time>
      </trkpt>
      <trkpt lat="42.4356" lon="2.35835">
        <ele>2224.63</ele>
        <time>2017-08-07T09:00:41Z</time>
      </trkpt>
      <trkpt lat="42.4356" lon="2.35832">
        <ele>2224.63</ele>
        <time>2017-08-07T09:00:44Z</time>
      </trkpt>
      <trkpt lat="42.43557" lon="2.35822">
        <ele>2225.59</ele>
        <time>2017-08-07T09:00:58Z</time>
      </trkpt>
      <trkpt lat="42.43554" lon="2.35815">
        <ele>2226.55</ele>
        <time>2017-08-07T09:01:11Z</time>
      </trkpt>
      <trkpt lat="42.43552" lon="2.35804">
        <ele>2227.51</ele>
        <time>2017-08-07T09:01:26Z</time>
      </trkpt>
      <trkpt lat="42.43549" lon="2.3579">
        <ele>2227.99</ele>
        <time>2017-08-07T09:01:40Z</time>
      </trkpt>
      <trkpt lat="42.43546" lon="2.35771">
        <ele>2229.43</ele>
        <time>2017-08-07T09:01:55Z</time>
      </trkpt>
      <trkpt lat="42.4354" lon="2.35758">
        <ele>2231.36</ele>
        <time>2017-08-07T09:02:10Z</time>
      </trkpt>
      <trkpt lat="42.43534" lon="2.35746">
        <ele>2232.8</ele>
        <time>2017-08-07T09:02:24Z</time>
      </trkpt>
      <trkpt lat="42.43533" lon="2.35741">
        <ele>2232.8</ele>
        <time>2017-08-07T09:02:29Z</time>
      </trkpt>
      <trkpt lat="42.43532" lon="2.35739">
        <ele>2233.28</ele>
        <time>2017-08-07T09:02:47Z</time>
      </trkpt>
      <trkpt lat="42.43531" lon="2.35735">
        <ele>2233.28</ele>
        <time>2017-08-07T09:02:51Z</time>
      </trkpt>
      <trkpt lat="42.43528" lon="2.3573">
        <ele>2233.76</ele>
        <time>2017-08-07T09:02:55Z</time>
      </trkpt>
      <trkpt lat="42.43526" lon="2.35723">
        <ele>2233.76</ele>
        <time>2017-08-07T09:03:00Z</time>
      </trkpt>
      <trkpt lat="42.43526" lon="2.35718">
        <ele>2233.76</ele>
        <time>2017-08-07T09:03:03Z</time>
      </trkpt>
      <trkpt lat="42.4352" lon="2.35704">
        <ele>2234.72</ele>
        <time>2017-08-07T09:03:14Z</time>
      </trkpt>
      <trkpt lat="42.43519" lon="2.35701">
        <ele>2234.72</ele>
        <time>2017-08-07T09:03:16Z</time>
      </trkpt>
      <trkpt lat="42.43516" lon="2.35697">
        <ele>2235.2</ele>
        <time>2017-08-07T09:03:20Z</time>
      </trkpt>
      <trkpt lat="42.43509" lon="2.35676">
        <ele>2236.16</ele>
        <time>2017-08-07T09:03:37Z</time>
      </trkpt>
      <trkpt lat="42.43507" lon="2.35667">
        <ele>2236.64</ele>
        <time>2017-08-07T09:03:43Z</time>
      </trkpt>
      <trkpt lat="42.43502" lon="2.35655">
        <ele>2237.13</ele>
        <time>2017-08-07T09:03:55Z</time>
      </trkpt>
      <trkpt lat="42.43501" lon="2.35649">
        <ele>2237.13</ele>
        <time>2017-08-07T09:03:59Z</time>
      </trkpt>
      <trkpt lat="42.43498" lon="2.35644">
        <ele>2237.61</ele>
        <time>2017-08-07T09:04:03Z</time>
      </trkpt>
      <trkpt lat="42.43487" lon="2.35622">
        <ele>2238.09</ele>
        <time>2017-08-07T09:04:20Z</time>
      </trkpt>
      <trkpt lat="42.43478" lon="2.35591">
        <ele>2239.05</ele>
        <time>2017-08-07T09:04:39Z</time>
      </trkpt>
      <trkpt lat="42.43466" lon="2.35568">
        <ele>2239.05</ele>
        <time>2017-08-07T09:04:57Z</time>
      </trkpt>
      <trkpt lat="42.43457" lon="2.35551">
        <ele>2238.09</ele>
        <time>2017-08-07T09:05:13Z</time>
      </trkpt>
      <trkpt lat="42.43456" lon="2.35548">
        <ele>2238.09</ele>
        <time>2017-08-07T09:05:15Z</time>
      </trkpt>
      <trkpt lat="42.43452" lon="2.3552">
        <ele>2237.13</ele>
        <time>2017-08-07T09:05:34Z</time>
      </trkpt>
      <trkpt lat="42.43452" lon="2.35518">
        <ele>2237.13</ele>
        <time>2017-08-07T09:05:36Z</time>
      </trkpt>
      <trkpt lat="42.43447" lon="2.355">
        <ele>2238.57</ele>
        <time>2017-08-07T09:05:51Z</time>
      </trkpt>
      <trkpt lat="42.43444" lon="2.35491">
        <ele>2240.01</ele>
        <time>2017-08-07T09:06:05Z</time>
      </trkpt>
      <trkpt lat="42.43441" lon="2.35473">
        <ele>2241.93</ele>
        <time>2017-08-07T09:06:21Z</time>
      </trkpt>
      <trkpt lat="42.43437" lon="2.35454">
        <ele>2242.89</ele>
        <time>2017-08-07T09:06:37Z</time>
      </trkpt>
      <trkpt lat="42.4343" lon="2.35436">
        <ele>2243.85</ele>
        <time>2017-08-07T09:06:53Z</time>
      </trkpt>
      <trkpt lat="42.43427" lon="2.35428">
        <ele>2243.85</ele>
        <time>2017-08-07T09:07:04Z</time>
      </trkpt>
      <trkpt lat="42.43428" lon="2.35402">
        <ele>2241.93</ele>
        <time>2017-08-07T09:07:23Z</time>
      </trkpt>
      <trkpt lat="42.43427" lon="2.35385">
        <ele>2241.93</ele>
        <time>2017-08-07T09:07:36Z</time>
      </trkpt>
      <trkpt lat="42.43428" lon="2.3538">
        <ele>2243.37</ele>
        <time>2017-08-07T09:07:40Z</time>
      </trkpt>
      <trkpt lat="42.43428" lon="2.35359">
        <ele>2244.82</ele>
        <time>2017-08-07T09:07:56Z</time>
      </trkpt>
      <trkpt lat="42.43427" lon="2.35352">
        <ele>2245.3</ele>
        <time>2017-08-07T09:08:02Z</time>
      </trkpt>
      <trkpt lat="42.43428" lon="2.35336">
        <ele>2245.3</ele>
        <time>2017-08-07T09:08:16Z</time>
      </trkpt>
      <trkpt lat="42.43427" lon="2.35314">
        <ele>2243.37</ele>
        <time>2017-08-07T09:08:33Z</time>
      </trkpt>
      <trkpt lat="42.43423" lon="2.35293">
        <ele>2243.85</ele>
        <time>2017-08-07T09:08:49Z</time>
      </trkpt>
      <trkpt lat="42.43418" lon="2.35272">
        <ele>2245.3</ele>
        <time>2017-08-07T09:09:06Z</time>
      </trkpt>
      <trkpt lat="42.43413" lon="2.35253">
        <ele>2246.74</ele>
        <time>2017-08-07T09:09:22Z</time>
      </trkpt>
      <trkpt lat="42.43413" lon="2.35247">
        <ele>2247.22</ele>
        <time>2017-08-07T09:09:28Z</time>
      </trkpt>
      <trkpt lat="42.43406" lon="2.35228">
        <ele>2247.7</ele>
        <time>2017-08-07T09:09:44Z</time>
      </trkpt>
      <trkpt lat="42.43401" lon="2.35216">
        <ele>2248.18</ele>
        <time>2017-08-07T09:10:01Z</time>
      </trkpt>
      <trkpt lat="42.43398" lon="2.35212">
        <ele>2247.22</ele>
        <time>2017-08-07T09:10:18Z</time>
      </trkpt>
      <trkpt lat="42.43393" lon="2.352">
        <ele>2246.74</ele>
        <time>2017-08-07T09:10:27Z</time>
      </trkpt>
      <trkpt lat="42.43381" lon="2.3518">
        <ele>2246.74</ele>
        <time>2017-08-07T09:10:45Z</time>
      </trkpt>
      <trkpt lat="42.4338" lon="2.35178">
        <ele>2247.7</ele>
        <time>2017-08-07T09:10:47Z</time>
      </trkpt>
      <trkpt lat="42.43372" lon="2.35151">
        <ele>2247.7</ele>
        <time>2017-08-07T09:11:07Z</time>
      </trkpt>
      <trkpt lat="42.43365" lon="2.35134">
        <ele>2249.14</ele>
        <time>2017-08-07T09:11:23Z</time>
      </trkpt>
      <trkpt lat="42.4336" lon="2.35123">
        <ele>2251.06</ele>
        <time>2017-08-07T09:11:36Z</time>
      </trkpt>
      <trkpt lat="42.43354" lon="2.35109">
        <ele>2252.51</ele>
        <time>2017-08-07T09:11:51Z</time>
      </trkpt>
      <trkpt lat="42.43351" lon="2.35104">
        <ele>2252.99</ele>
        <time>2017-08-07T09:11:57Z</time>
      </trkpt>
      <trkpt lat="42.43351" lon="2.35102">
        <ele>2253.47</ele>
        <time>2017-08-07T09:11:59Z</time>
      </trkpt>
      <trkpt lat="42.43346" lon="2.35086">
        <ele>2254.43</ele>
        <time>2017-08-07T09:12:14Z</time>
      </trkpt>
      <trkpt lat="42.43342" lon="2.3507">
        <ele>2254.43</ele>
        <time>2017-08-07T09:12:26Z</time>
      </trkpt>
      <trkpt lat="42.43336" lon="2.35053">
        <ele>2255.87</ele>
        <time>2017-08-07T09:12:42Z</time>
      </trkpt>
      <trkpt lat="42.43331" lon="2.35042">
        <ele>2257.31</ele>
        <time>2017-08-07T09:12:58Z</time>
      </trkpt>
      <trkpt lat="42.43327" lon="2.35026">
        <ele>2260.2</ele>
        <time>2017-08-07T09:13:14Z</time>
      </trkpt>
      <trkpt lat="42.43324" lon="2.35007">
        <ele>2261.64</ele>
        <time>2017-08-07T09:13:30Z</time>
      </trkpt>
      <trkpt lat="42.43322" lon="2.34993">
        <ele>2262.6</ele>
        <time>2017-08-07T09:13:43Z</time>
      </trkpt>
      <trkpt lat="42.43318" lon="2.34971">
        <ele>2263.08</ele>
        <time>2017-08-07T09:14:00Z</time>
      </trkpt>
      <trkpt lat="42.43313" lon="2.34947">
        <ele>2264.04</ele>
        <time>2017-08-07T09:14:17Z</time>
      </trkpt>
      <trkpt lat="42.43309" lon="2.3493">
        <ele>2265.48</ele>
        <time>2017-08-07T09:14:32Z</time>
      </trkpt>
      <trkpt lat="42.43306" lon="2.34915">
        <ele>2266.93</ele>
        <time>2017-08-07T09:14:46Z</time>
      </trkpt>
      <trkpt lat="42.43304" lon="2.34904">
        <ele>2268.37</ele>
        <time>2017-08-07T09:15:02Z</time>
      </trkpt>
      <trkpt lat="42.43296" lon="2.34894">
        <ele>2269.81</ele>
        <time>2017-08-07T09:15:17Z</time>
      </trkpt>
      <trkpt lat="42.43294" lon="2.34882">
        <ele>2273.17</ele>
        <time>2017-08-07T09:15:31Z</time>
      </trkpt>
      <trkpt lat="42.43291" lon="2.34868">
        <ele>2274.14</ele>
        <time>2017-08-07T09:15:46Z</time>
      </trkpt>
      <trkpt lat="42.43288" lon="2.34851">
        <ele>2275.58</ele>
        <time>2017-08-07T09:16:02Z</time>
      </trkpt>
      <trkpt lat="42.43283" lon="2.34831">
        <ele>2277.5</ele>
        <time>2017-08-07T09:16:19Z</time>
      </trkpt>
      <trkpt lat="42.43281" lon="2.34829">
        <ele>2277.02</ele>
        <time>2017-08-07T09:16:21Z</time>
      </trkpt>
      <trkpt lat="42.43272" lon="2.34809">
        <ele>2278.94</ele>
        <time>2017-08-07T09:16:39Z</time>
      </trkpt>
      <trkpt lat="42.43266" lon="2.34794">
        <ele>2280.87</ele>
        <time>2017-08-07T09:16:55Z</time>
      </trkpt>
      <trkpt lat="42.43259" lon="2.3478">
        <ele>2281.35</ele>
        <time>2017-08-07T09:17:09Z</time>
      </trkpt>
      <trkpt lat="42.43254" lon="2.34763">
        <ele>2282.79</ele>
        <time>2017-08-07T09:17:24Z</time>
      </trkpt>
      <trkpt lat="42.43249" lon="2.34752">
        <ele>2281.35</ele>
        <time>2017-08-07T09:17:33Z</time>
      </trkpt>
      <trkpt lat="42.43242" lon="2.3473">
        <ele>2280.38</ele>
        <time>2017-08-07T09:17:50Z</time>
      </trkpt>
      <trkpt lat="42.43242" lon="2.3472">
        <ele>2280.87</ele>
        <time>2017-08-07T09:18:03Z</time>
      </trkpt>
      <trkpt lat="42.43239" lon="2.34703">
        <ele>2282.31</ele>
        <time>2017-08-07T09:18:17Z</time>
      </trkpt>
      <trkpt lat="42.43236" lon="2.34686">
        <ele>2282.79</ele>
        <time>2017-08-07T09:18:30Z</time>
      </trkpt>
      <trkpt lat="42.43234" lon="2.34664">
        <ele>2284.23</ele>
        <time>2017-08-07T09:18:47Z</time>
      </trkpt>
      <trkpt lat="42.43233" lon="2.34647">
        <ele>2286.15</ele>
        <time>2017-08-07T09:19:03Z</time>
      </trkpt>
      <trkpt lat="42.4323" lon="2.34632">
        <ele>2288.08</ele>
        <time>2017-08-07T09:19:20Z</time>
      </trkpt>
      <trkpt lat="42.43231" lon="2.34624">
        <ele>2288.56</ele>
        <time>2017-08-07T09:19:32Z</time>
      </trkpt>
      <trkpt lat="42.43232" lon="2.34622">
        <ele>2288.56</ele>
        <time>2017-08-07T09:19:34Z</time>
      </trkpt>
      <trkpt lat="42.4323" lon="2.34604">
        <ele>2290</ele>
        <time>2017-08-07T09:19:49Z</time>
      </trkpt>
      <trkpt lat="42.4323" lon="2.34599">
        <ele>2290</ele>
        <time>2017-08-07T09:19:53Z</time>
      </trkpt>
      <trkpt lat="42.43231" lon="2.3459">
        <ele>2290.48</ele>
        <time>2017-08-07T09:20:07Z</time>
      </trkpt>
      <trkpt lat="42.43231" lon="2.34573">
        <ele>2291.92</ele>
        <time>2017-08-07T09:20:23Z</time>
      </trkpt>
      <trkpt lat="42.4323" lon="2.3456">
        <ele>2292.88</ele>
        <time>2017-08-07T09:20:36Z</time>
      </trkpt>
      <trkpt lat="42.43231" lon="2.34553">
        <ele>2293.36</ele>
        <time>2017-08-07T09:20:42Z</time>
      </trkpt>
      <trkpt lat="42.43233" lon="2.34538">
        <ele>2293.84</ele>
        <time>2017-08-07T09:20:58Z</time>
      </trkpt>
      <trkpt lat="42.43235" lon="2.34528">
        <ele>2294.32</ele>
        <time>2017-08-07T09:21:19Z</time>
      </trkpt>
      <trkpt lat="42.43238" lon="2.34513">
        <ele>2295.28</ele>
        <time>2017-08-07T09:21:33Z</time>
      </trkpt>
      <trkpt lat="42.43242" lon="2.34504">
        <ele>2295.28</ele>
        <time>2017-08-07T09:21:45Z</time>
      </trkpt>
      <trkpt lat="42.43242" lon="2.34497">
        <ele>2295.77</ele>
        <time>2017-08-07T09:22:07Z</time>
      </trkpt>
      <trkpt lat="42.43245" lon="2.34484">
        <ele>2295.77</ele>
        <time>2017-08-07T09:22:18Z</time>
      </trkpt>
      <trkpt lat="42.43245" lon="2.34481">
        <ele>2295.77</ele>
        <time>2017-08-07T09:22:20Z</time>
      </trkpt>
      <trkpt lat="42.43248" lon="2.34463">
        <ele>2296.73</ele>
        <time>2017-08-07T09:22:35Z</time>
      </trkpt>
      <trkpt lat="42.4325" lon="2.34459">
        <ele>2297.21</ele>
        <time>2017-08-07T09:22:53Z</time>
      </trkpt>
      <trkpt lat="42.4325" lon="2.34456">
        <ele>2297.21</ele>
        <time>2017-08-07T09:22:56Z</time>
      </trkpt>
      <trkpt lat="42.43251" lon="2.34442">
        <ele>2297.69</ele>
        <time>2017-08-07T09:23:10Z</time>
      </trkpt>
      <trkpt lat="42.43252" lon="2.34439">
        <ele>2297.69</ele>
        <time>2017-08-07T09:23:12Z</time>
      </trkpt>
      <trkpt lat="42.43253" lon="2.34435">
        <ele>2298.17</ele>
        <time>2017-08-07T09:23:16Z</time>
      </trkpt>
      <trkpt lat="42.43252" lon="2.34431">
        <ele>2297.69</ele>
        <time>2017-08-07T09:23:19Z</time>
      </trkpt>
      <trkpt lat="42.43253" lon="2.34423">
        <ele>2298.17</ele>
        <time>2017-08-07T09:23:25Z</time>
      </trkpt>
      <trkpt lat="42.43252" lon="2.3442">
        <ele>2298.17</ele>
        <time>2017-08-07T09:23:27Z</time>
      </trkpt>
      <trkpt lat="42.43251" lon="2.34417">
        <ele>2299.13</ele>
        <time>2017-08-07T09:23:30Z</time>
      </trkpt>
      <trkpt lat="42.43253" lon="2.34408">
        <ele>2299.61</ele>
        <time>2017-08-07T09:23:43Z</time>
      </trkpt>
      <trkpt lat="42.43254" lon="2.34394">
        <ele>2300.09</ele>
        <time>2017-08-07T09:23:57Z</time>
      </trkpt>
      <trkpt lat="42.43255" lon="2.34371">
        <ele>2302.01</ele>
        <time>2017-08-07T09:24:16Z</time>
      </trkpt>
      <trkpt lat="42.43256" lon="2.34348">
        <ele>2300.57</ele>
        <time>2017-08-07T09:24:33Z</time>
      </trkpt>
      <trkpt lat="42.43257" lon="2.3433">
        <ele>2300.57</ele>
        <time>2017-08-07T09:24:45Z</time>
      </trkpt>
      <trkpt lat="42.43254" lon="2.3431">
        <ele>2301.05</ele>
        <time>2017-08-07T09:25:01Z</time>
      </trkpt>
      <trkpt lat="42.43253" lon="2.34305">
        <ele>2301.05</ele>
        <time>2017-08-07T09:25:06Z</time>
      </trkpt>
      <trkpt lat="42.43253" lon="2.34299">
        <ele>2302.01</ele>
        <time>2017-08-07T09:25:10Z</time>
      </trkpt>
      <trkpt lat="42.43251" lon="2.34288">
        <ele>2302.49</ele>
        <time>2017-08-07T09:25:21Z</time>
      </trkpt>
      <trkpt lat="42.43247" lon="2.34263">
        <ele>2302.98</ele>
        <time>2017-08-07T09:25:38Z</time>
      </trkpt>
      <trkpt lat="42.43245" lon="2.34244">
        <ele>2302.98</ele>
        <time>2017-08-07T09:25:54Z</time>
      </trkpt>
      <trkpt lat="42.43242" lon="2.34236">
        <ele>2302.98</ele>
        <time>2017-08-07T09:26:05Z</time>
      </trkpt>
      <trkpt lat="42.43242" lon="2.34234">
        <ele>2302.01</ele>
        <time>2017-08-07T09:26:06Z</time>
      </trkpt>
      <trkpt lat="42.43239" lon="2.34227">
        <ele>2301.53</ele>
        <time>2017-08-07T09:26:11Z</time>
      </trkpt>
      <trkpt lat="42.4323" lon="2.34213">
        <ele>2301.53</ele>
        <time>2017-08-07T09:26:23Z</time>
      </trkpt>
      <trkpt lat="42.43222" lon="2.34189">
        <ele>2301.53</ele>
        <time>2017-08-07T09:26:41Z</time>
      </trkpt>
      <trkpt lat="42.4322" lon="2.34187">
        <ele>2302.98</ele>
        <time>2017-08-07T09:26:44Z</time>
      </trkpt>
      <trkpt lat="42.43215" lon="2.34172">
        <ele>2304.42</ele>
        <time>2017-08-07T09:26:58Z</time>
      </trkpt>
      <trkpt lat="42.43212" lon="2.34147">
        <ele>2304.9</ele>
        <time>2017-08-07T09:27:16Z</time>
      </trkpt>
      <trkpt lat="42.43211" lon="2.34145">
        <ele>2304.9</ele>
        <time>2017-08-07T09:27:18Z</time>
      </trkpt>
      <trkpt lat="42.43209" lon="2.34129">
        <ele>2305.38</ele>
        <time>2017-08-07T09:27:29Z</time>
      </trkpt>
      <trkpt lat="42.43208" lon="2.34126">
        <ele>2305.38</ele>
        <time>2017-08-07T09:27:31Z</time>
      </trkpt>
      <trkpt lat="42.43203" lon="2.34105">
        <ele>2306.82</ele>
        <time>2017-08-07T09:27:48Z</time>
      </trkpt>
      <trkpt lat="42.43202" lon="2.341">
        <ele>2306.82</ele>
        <time>2017-08-07T09:27:52Z</time>
      </trkpt>
      <trkpt lat="42.43198" lon="2.34082">
        <ele>2306.82</ele>
        <time>2017-08-07T09:28:06Z</time>
      </trkpt>
      <trkpt lat="42.43196" lon="2.34073">
        <ele>2306.82</ele>
        <time>2017-08-07T09:28:20Z</time>
      </trkpt>
      <trkpt lat="42.43195" lon="2.34066">
        <ele>2307.3</ele>
        <time>2017-08-07T09:28:29Z</time>
      </trkpt>
      <trkpt lat="42.43191" lon="2.34048">
        <ele>2307.3</ele>
        <time>2017-08-07T09:28:45Z</time>
      </trkpt>
      <trkpt lat="42.43189" lon="2.34047">
        <ele>2307.3</ele>
        <time>2017-08-07T09:29:00Z</time>
      </trkpt>
      <trkpt lat="42.43185" lon="2.34038">
        <ele>2307.3</ele>
        <time>2017-08-07T09:29:15Z</time>
      </trkpt>
      <trkpt lat="42.43176" lon="2.34022">
        <ele>2308.26</ele>
        <time>2017-08-07T09:29:30Z</time>
      </trkpt>
      <trkpt lat="42.4317" lon="2.34006">
        <ele>2308.26</ele>
        <time>2017-08-07T09:29:47Z</time>
      </trkpt>
      <trkpt lat="42.43168" lon="2.34001">
        <ele>2308.74</ele>
        <time>2017-08-07T09:30:12Z</time>
      </trkpt>
      <trkpt lat="42.43165" lon="2.33997">
        <ele>2308.74</ele>
        <time>2017-08-07T09:30:17Z</time>
      </trkpt>
      <trkpt lat="42.43159" lon="2.33985">
        <ele>2309.7</ele>
        <time>2017-08-07T09:30:29Z</time>
      </trkpt>
      <trkpt lat="42.43151" lon="2.33962">
        <ele>2309.7</ele>
        <time>2017-08-07T09:30:47Z</time>
      </trkpt>
      <trkpt lat="42.43147" lon="2.33953">
        <ele>2309.7</ele>
        <time>2017-08-07T09:30:54Z</time>
      </trkpt>
      <trkpt lat="42.43136" lon="2.33938">
        <ele>2310.67</ele>
        <time>2017-08-07T09:31:10Z</time>
      </trkpt>
      <trkpt lat="42.4313" lon="2.33924">
        <ele>2311.63</ele>
        <time>2017-08-07T09:31:25Z</time>
      </trkpt>
      <trkpt lat="42.43127" lon="2.33916">
        <ele>2311.63</ele>
        <time>2017-08-07T09:31:40Z</time>
      </trkpt>
      <trkpt lat="42.43126" lon="2.33918">
        <ele>2311.63</ele>
        <time>2017-08-07T09:32:00Z</time>
      </trkpt>
      <trkpt lat="42.43122" lon="2.3391">
        <ele>2312.59</ele>
        <time>2017-08-07T09:32:18Z</time>
      </trkpt>
      <trkpt lat="42.43113" lon="2.33895">
        <ele>2313.55</ele>
        <time>2017-08-07T09:32:34Z</time>
      </trkpt>
      <trkpt lat="42.43103" lon="2.33885">
        <ele>2314.51</ele>
        <time>2017-08-07T09:32:49Z</time>
      </trkpt>
      <trkpt lat="42.43097" lon="2.3387">
        <ele>2315.95</ele>
        <time>2017-08-07T09:33:06Z</time>
      </trkpt>
      <trkpt lat="42.43089" lon="2.3386">
        <ele>2317.4</ele>
        <time>2017-08-07T09:33:19Z</time>
      </trkpt>
      <trkpt lat="42.4308" lon="2.3385">
        <ele>2318.36</ele>
        <time>2017-08-07T09:33:33Z</time>
      </trkpt>
      <trkpt lat="42.4307" lon="2.33844">
        <ele>2320.28</ele>
        <time>2017-08-07T09:33:50Z</time>
      </trkpt>
      <trkpt lat="42.43065" lon="2.33839">
        <ele>2322.2</ele>
        <time>2017-08-07T09:34:04Z</time>
      </trkpt>
      <trkpt lat="42.4306" lon="2.33834">
        <ele>2323.16</ele>
        <time>2017-08-07T09:34:21Z</time>
      </trkpt>
      <trkpt lat="42.43055" lon="2.33829">
        <ele>2324.12</ele>
        <time>2017-08-07T09:34:33Z</time>
      </trkpt>
      <trkpt lat="42.43054" lon="2.33823">
        <ele>2324.61</ele>
        <time>2017-08-07T09:34:49Z</time>
      </trkpt>
      <trkpt lat="42.43048" lon="2.33818">
        <ele>2325.57</ele>
        <time>2017-08-07T09:35:05Z</time>
      </trkpt>
      <trkpt lat="42.43041" lon="2.33809">
        <ele>2327.49</ele>
        <time>2017-08-07T09:35:21Z</time>
      </trkpt>
      <trkpt lat="42.43037" lon="2.33812">
        <ele>2328.93</ele>
        <time>2017-08-07T09:35:35Z</time>
      </trkpt>
      <trkpt lat="42.43032" lon="2.33804">
        <ele>2330.85</ele>
        <time>2017-08-07T09:35:49Z</time>
      </trkpt>
      <trkpt lat="42.43029" lon="2.33795">
        <ele>2332.3</ele>
        <time>2017-08-07T09:36:03Z</time>
      </trkpt>
      <trkpt lat="42.43023" lon="2.33785">
        <ele>2334.22</ele>
        <time>2017-08-07T09:36:20Z</time>
      </trkpt>
      <trkpt lat="42.43016" lon="2.33777">
        <ele>2336.14</ele>
        <time>2017-08-07T09:36:36Z</time>
      </trkpt>
      <trkpt lat="42.43009" lon="2.33774">
        <ele>2338.54</ele>
        <time>2017-08-07T09:36:52Z</time>
      </trkpt>
      <trkpt lat="42.43002" lon="2.33769">
        <ele>2340.47</ele>
        <time>2017-08-07T09:37:08Z</time>
      </trkpt>
      <trkpt lat="42.42998" lon="2.33762">
        <ele>2341.91</ele>
        <time>2017-08-07T09:37:22Z</time>
      </trkpt>
      <trkpt lat="42.42994" lon="2.33759">
        <ele>2342.87</ele>
        <time>2017-08-07T09:37:39Z</time>
      </trkpt>
      <trkpt lat="42.42992" lon="2.33755">
        <ele>2343.35</ele>
        <time>2017-08-07T09:38:06Z</time>
      </trkpt>
      <trkpt lat="42.42988" lon="2.33753">
        <ele>2343.83</ele>
        <time>2017-08-07T09:38:10Z</time>
      </trkpt>
      <trkpt lat="42.42982" lon="2.33744">
        <ele>2344.79</ele>
        <time>2017-08-07T09:38:26Z</time>
      </trkpt>
      <trkpt lat="42.42979" lon="2.33744">
        <ele>2346.23</ele>
        <time>2017-08-07T09:38:40Z</time>
      </trkpt>
      <trkpt lat="42.42977" lon="2.33745">
        <ele>2347.2</ele>
        <time>2017-08-07T09:38:56Z</time>
      </trkpt>
      <trkpt lat="42.42977" lon="2.33743">
        <ele>2348.64</ele>
        <time>2017-08-07T09:39:13Z</time>
      </trkpt>
      <trkpt lat="42.42974" lon="2.3374">
        <ele>2348.64</ele>
        <time>2017-08-07T09:39:36Z</time>
      </trkpt>
      <trkpt lat="42.42974" lon="2.33743">
        <ele>2349.12</ele>
        <time>2017-08-07T09:39:59Z</time>
      </trkpt>
      <trkpt lat="42.42974" lon="2.33745">
        <ele>2349.12</ele>
        <time>2017-08-07T09:40:16Z</time>
      </trkpt>
      <trkpt lat="42.42974" lon="2.33744">
        <ele>2349.12</ele>
        <time>2017-08-07T09:40:37Z</time>
      </trkpt>
      <trkpt lat="42.42973" lon="2.33743">
        <ele>2349.12</ele>
        <time>2017-08-07T09:41:01Z</time>
      </trkpt>
      <trkpt lat="42.42973" lon="2.3374">
        <ele>2349.12</ele>
        <time>2017-08-07T09:41:21Z</time>
      </trkpt>
      <trkpt lat="42.42976" lon="2.33743">
        <ele>2349.6</ele>
        <time>2017-08-07T09:41:43Z</time>
      </trkpt>
      <trkpt lat="42.42977" lon="2.33744">
        <ele>2349.6</ele>
        <time>2017-08-07T09:42:02Z</time>
      </trkpt>
      <trkpt lat="42.42976" lon="2.33747">
        <ele>2349.6</ele>
        <time>2017-08-07T09:42:43Z</time>
      </trkpt>
      <trkpt lat="42.42977" lon="2.33746">
        <ele>2349.6</ele>
        <time>2017-08-07T09:43:19Z</time>
      </trkpt>
      <trkpt lat="42.42977" lon="2.33747">
        <ele>2350.08</ele>
        <time>2017-08-07T09:43:39Z</time>
      </trkpt>
      <trkpt lat="42.42974" lon="2.33744">
        <ele>2350.56</ele>
        <time>2017-08-07T09:44:25Z</time>
      </trkpt>
      <trkpt lat="42.42974" lon="2.33742">
        <ele>2350.56</ele>
        <time>2017-08-07T09:45:15Z</time>
      </trkpt>
      <trkpt lat="42.42973" lon="2.33743">
        <ele>2350.56</ele>
        <time>2017-08-07T09:45:31Z</time>
      </trkpt>
      <trkpt lat="42.42977" lon="2.33745">
        <ele>2349.6</ele>
        <time>2017-08-07T09:46:14Z</time>
      </trkpt>
      <trkpt lat="42.42974" lon="2.33747">
        <ele>2349.6</ele>
        <time>2017-08-07T09:46:46Z</time>
      </trkpt>
      <trkpt lat="42.42976" lon="2.33747">
        <ele>2350.56</ele>
        <time>2017-08-07T09:47:15Z</time>
      </trkpt>
      <trkpt lat="42.42973" lon="2.33746">
        <ele>2351.04</ele>
        <time>2017-08-07T09:48:06Z</time>
      </trkpt>
      <trkpt lat="42.42974" lon="2.33749">
        <ele>2351.52</ele>
        <time>2017-08-07T09:48:51Z</time>
      </trkpt>
      <trkpt lat="42.42966" lon="2.33749">
        <ele>2354.41</ele>
        <time>2017-08-07T09:49:18Z</time>
      </trkpt>
      <trkpt lat="42.42963" lon="2.33742">
        <ele>2355.37</ele>
        <time>2017-08-07T09:49:30Z</time>
      </trkpt>
      <trkpt lat="42.42955" lon="2.33752">
        <ele>2360.17</ele>
        <time>2017-08-07T09:51:50Z</time>
      </trkpt>
      <trkpt lat="42.42949" lon="2.33756">
        <ele>2362.1</ele>
        <time>2017-08-07T09:52:03Z</time>
      </trkpt>
      <trkpt lat="42.42941" lon="2.33754">
        <ele>2364.02</ele>
        <time>2017-08-07T09:52:17Z</time>
      </trkpt>
      <trkpt lat="42.42934" lon="2.3375">
        <ele>2365.46</ele>
        <time>2017-08-07T09:52:29Z</time>
      </trkpt>
      <trkpt lat="42.42926" lon="2.33747">
        <ele>2366.42</ele>
        <time>2017-08-07T09:52:42Z</time>
      </trkpt>
      <trkpt lat="42.42918" lon="2.33747">
        <ele>2368.35</ele>
        <time>2017-08-07T09:52:56Z</time>
      </trkpt>
      <trkpt lat="42.4291" lon="2.33747">
        <ele>2371.23</ele>
        <time>2017-08-07T09:53:13Z</time>
      </trkpt>
      <trkpt lat="42.4291" lon="2.33747">
        <ele>2370.27</ele>
        <time>2017-08-07T09:53:18Z</time>
      </trkpt>
      <trkpt lat="42.42911" lon="2.33747">
        <ele>2370.27</ele>
        <time>2017-08-07T09:53:37Z</time>
      </trkpt>
      <trkpt lat="42.42911" lon="2.33749">
        <ele>2369.79</ele>
        <time>2017-08-07T09:53:53Z</time>
      </trkpt>
      <trkpt lat="42.4291" lon="2.33748">
        <ele>2370.27</ele>
        <time>2017-08-07T09:54:14Z</time>
      </trkpt>
      <trkpt lat="42.4291" lon="2.33747">
        <ele>2370.27</ele>
        <time>2017-08-07T09:54:40Z</time>
      </trkpt>
      <trkpt lat="42.4291" lon="2.33749">
        <ele>2369.31</ele>
        <time>2017-08-07T09:54:59Z</time>
      </trkpt>
      <trkpt lat="42.42909" lon="2.33748">
        <ele>2369.31</ele>
        <time>2017-08-07T09:55:29Z</time>
      </trkpt>
      <trkpt lat="42.4291" lon="2.33749">
        <ele>2369.31</ele>
        <time>2017-08-07T09:55:59Z</time>
      </trkpt>
      <trkpt lat="42.42911" lon="2.33748">
        <ele>2370.75</ele>
        <time>2017-08-07T09:56:07Z</time>
      </trkpt>
      <trkpt lat="42.42909" lon="2.33747">
        <ele>2370.75</ele>
        <time>2017-08-07T09:56:29Z</time>
      </trkpt>
      <trkpt lat="42.42911" lon="2.33744">
        <ele>2370.75</ele>
        <time>2017-08-07T09:56:44Z</time>
      </trkpt>
      <trkpt lat="42.42912" lon="2.33746">
        <ele>2370.75</ele>
        <time>2017-08-07T09:57:16Z</time>
      </trkpt>
      <trkpt lat="42.42911" lon="2.33748">
        <ele>2369.31</ele>
        <time>2017-08-07T09:57:32Z</time>
      </trkpt>
      <trkpt lat="42.42914" lon="2.33745">
        <ele>2369.79</ele>
        <time>2017-08-07T09:57:44Z</time>
      </trkpt>
      <trkpt lat="42.42915" lon="2.33745">
        <ele>2369.79</ele>
        <time>2017-08-07T09:58:02Z</time>
      </trkpt>
      <trkpt lat="42.42914" lon="2.33744">
        <ele>2369.79</ele>
        <time>2017-08-07T09:58:24Z</time>
      </trkpt>
      <trkpt lat="42.42914" lon="2.33745">
        <ele>2369.79</ele>
        <time>2017-08-07T09:58:51Z</time>
      </trkpt>
      <trkpt lat="42.42914" lon="2.33745">
        <ele>2369.79</ele>
        <time>2017-08-07T09:59:13Z</time>
      </trkpt>
      <trkpt lat="42.42914" lon="2.33744">
        <ele>2369.79</ele>
        <time>2017-08-07T09:59:40Z</time>
      </trkpt>
      <trkpt lat="42.42914" lon="2.33744">
        <ele>2369.79</ele>
        <time>2017-08-07T10:00:08Z</time>
      </trkpt>
      <trkpt lat="42.42915" lon="2.33744">
        <ele>2369.79</ele>
        <time>2017-08-07T10:00:41Z</time>
      </trkpt>
      <trkpt lat="42.42914" lon="2.33744">
        <ele>2369.79</ele>
        <time>2017-08-07T10:01:06Z</time>
      </trkpt>
      <trkpt lat="42.42915" lon="2.33743">
        <ele>2369.31</ele>
        <time>2017-08-07T10:01:32Z</time>
      </trkpt>
      <trkpt lat="42.42915" lon="2.33743">
        <ele>2370.75</ele>
        <time>2017-08-07T10:01:44Z</time>
      </trkpt>
      <trkpt lat="42.42914" lon="2.33738">
        <ele>2370.75</ele>
        <time>2017-08-07T10:01:56Z</time>
      </trkpt>
      <trkpt lat="42.42913" lon="2.3374">
        <ele>2370.75</ele>
        <time>2017-08-07T10:02:24Z</time>
      </trkpt>
      <trkpt lat="42.42913" lon="2.3374">
        <ele>2370.75</ele>
        <time>2017-08-07T10:02:48Z</time>
      </trkpt>
      <trkpt lat="42.42908" lon="2.33735">
        <ele>2371.71</ele>
        <time>2017-08-07T10:03:01Z</time>
      </trkpt>
      <trkpt lat="42.42907" lon="2.33731">
        <ele>2372.19</ele>
        <time>2017-08-07T10:03:14Z</time>
      </trkpt>
      <trkpt lat="42.42904" lon="2.33719">
        <ele>2375.07</ele>
        <time>2017-08-07T10:03:30Z</time>
      </trkpt>
      <trkpt lat="42.42907" lon="2.33711">
        <ele>2377.48</ele>
        <time>2017-08-07T10:03:44Z</time>
      </trkpt>
      <trkpt lat="42.42915" lon="2.3371">
        <ele>2378.44</ele>
        <time>2017-08-07T10:03:58Z</time>
      </trkpt>
      <trkpt lat="42.42912" lon="2.337">
        <ele>2379.88</ele>
        <time>2017-08-07T10:04:12Z</time>
      </trkpt>
      <trkpt lat="42.42909" lon="2.33689">
        <ele>2383.25</ele>
        <time>2017-08-07T10:04:26Z</time>
      </trkpt>
      <trkpt lat="42.42909" lon="2.33679">
        <ele>2385.17</ele>
        <time>2017-08-07T10:04:42Z</time>
      </trkpt>
      <trkpt lat="42.42909" lon="2.33674">
        <ele>2387.57</ele>
        <time>2017-08-07T10:04:57Z</time>
      </trkpt>
      <trkpt lat="42.42905" lon="2.33673">
        <ele>2386.13</ele>
        <time>2017-08-07T10:05:04Z</time>
      </trkpt>
      <trkpt lat="42.42902" lon="2.33669">
        <ele>2389.01</ele>
        <time>2017-08-07T10:05:13Z</time>
      </trkpt>
      <trkpt lat="42.42898" lon="2.33669">
        <ele>2387.57</ele>
        <time>2017-08-07T10:05:21Z</time>
      </trkpt>
      <trkpt lat="42.42897" lon="2.33671">
        <ele>2391.42</ele>
        <time>2017-08-07T10:05:25Z</time>
      </trkpt>
      <trkpt lat="42.42898" lon="2.33665">
        <ele>2391.9</ele>
        <time>2017-08-07T10:05:40Z</time>
      </trkpt>
      <trkpt lat="42.42898" lon="2.33669">
        <ele>2389.97</ele>
        <time>2017-08-07T10:05:45Z</time>
      </trkpt>
      <trkpt lat="42.42896" lon="2.33671">
        <ele>2391.9</ele>
        <time>2017-08-07T10:05:52Z</time>
      </trkpt>
      <trkpt lat="42.42895" lon="2.33662">
        <ele>2390.46</ele>
        <time>2017-08-07T10:06:08Z</time>
      </trkpt>
      <trkpt lat="42.42892" lon="2.33661">
        <ele>2391.9</ele>
        <time>2017-08-07T10:06:14Z</time>
      </trkpt>
      <trkpt lat="42.42888" lon="2.33653">
        <ele>2395.26</ele>
        <time>2017-08-07T10:06:27Z</time>
      </trkpt>
      <trkpt lat="42.42885" lon="2.33641">
        <ele>2396.7</ele>
        <time>2017-08-07T10:06:44Z</time>
      </trkpt>
      <trkpt lat="42.42882" lon="2.3363">
        <ele>2398.15</ele>
        <time>2017-08-07T10:06:57Z</time>
      </trkpt>
      <trkpt lat="42.42882" lon="2.33622">
        <ele>2401.03</ele>
        <time>2017-08-07T10:07:12Z</time>
      </trkpt>
      <trkpt lat="42.42878" lon="2.33611">
        <ele>2402.47</ele>
        <time>2017-08-07T10:07:28Z</time>
      </trkpt>
      <trkpt lat="42.42876" lon="2.33602">
        <ele>2404.39</ele>
        <time>2017-08-07T10:07:42Z</time>
      </trkpt>
      <trkpt lat="42.42879" lon="2.336">
        <ele>2405.84</ele>
        <time>2017-08-07T10:07:57Z</time>
      </trkpt>
      <trkpt lat="42.42874" lon="2.3359">
        <ele>2405.84</ele>
        <time>2017-08-07T10:08:08Z</time>
      </trkpt>
      <trkpt lat="42.42868" lon="2.33576">
        <ele>2407.28</ele>
        <time>2017-08-07T10:08:24Z</time>
      </trkpt>
      <trkpt lat="42.42872" lon="2.33568">
        <ele>2406.32</ele>
        <time>2017-08-07T10:08:38Z</time>
      </trkpt>
      <trkpt lat="42.42872" lon="2.33563">
        <ele>2407.76</ele>
        <time>2017-08-07T10:08:47Z</time>
      </trkpt>
      <trkpt lat="42.42871" lon="2.33554">
        <ele>2407.76</ele>
        <time>2017-08-07T10:08:59Z</time>
      </trkpt>
      <trkpt lat="42.4287" lon="2.33547">
        <ele>2409.68</ele>
        <time>2017-08-07T10:09:12Z</time>
      </trkpt>
      <trkpt lat="42.4287" lon="2.33546">
        <ele>2410.64</ele>
        <time>2017-08-07T10:09:29Z</time>
      </trkpt>
      <trkpt lat="42.42869" lon="2.3354">
        <ele>2412.57</ele>
        <time>2017-08-07T10:09:44Z</time>
      </trkpt>
      <trkpt lat="42.42868" lon="2.33535">
        <ele>2415.45</ele>
        <time>2017-08-07T10:09:58Z</time>
      </trkpt>
      <trkpt lat="42.42868" lon="2.33535">
        <ele>2415.93</ele>
        <time>2017-08-07T10:10:19Z</time>
      </trkpt>
      <trkpt lat="42.42865" lon="2.33531">
        <ele>2416.89</ele>
        <time>2017-08-07T10:10:35Z</time>
      </trkpt>
      <trkpt lat="42.42861" lon="2.33529">
        <ele>2420.26</ele>
        <time>2017-08-07T10:10:50Z</time>
      </trkpt>
      <trkpt lat="42.42857" lon="2.33526">
        <ele>2421.7</ele>
        <time>2017-08-07T10:11:06Z</time>
      </trkpt>
      <trkpt lat="42.42856" lon="2.3352">
        <ele>2424.1</ele>
        <time>2017-08-07T10:11:21Z</time>
      </trkpt>
      <trkpt lat="42.42854" lon="2.33513">
        <ele>2426.5</ele>
        <time>2017-08-07T10:11:36Z</time>
      </trkpt>
      <trkpt lat="42.42857" lon="2.33511">
        <ele>2427.47</ele>
        <time>2017-08-07T10:11:49Z</time>
      </trkpt>
      <trkpt lat="42.42856" lon="2.33507">
        <ele>2429.87</ele>
        <time>2017-08-07T10:12:02Z</time>
      </trkpt>
      <trkpt lat="42.42855" lon="2.335">
        <ele>2431.31</ele>
        <time>2017-08-07T10:12:16Z</time>
      </trkpt>
      <trkpt lat="42.42854" lon="2.33495">
        <ele>2433.71</ele>
        <time>2017-08-07T10:12:32Z</time>
      </trkpt>
      <trkpt lat="42.42856" lon="2.33492">
        <ele>2435.16</ele>
        <time>2017-08-07T10:12:45Z</time>
      </trkpt>
      <trkpt lat="42.42853" lon="2.33488">
        <ele>2437.08</ele>
        <time>2017-08-07T10:13:00Z</time>
      </trkpt>
      <trkpt lat="42.42851" lon="2.33483">
        <ele>2439</ele>
        <time>2017-08-07T10:13:16Z</time>
      </trkpt>
      <trkpt lat="42.42849" lon="2.33477">
        <ele>2440.44</ele>
        <time>2017-08-07T10:13:33Z</time>
      </trkpt>
      <trkpt lat="42.42847" lon="2.33475">
        <ele>2441.89</ele>
        <time>2017-08-07T10:13:39Z</time>
      </trkpt>
      <trkpt lat="42.42843" lon="2.33463">
        <ele>2444.29</ele>
        <time>2017-08-07T10:13:55Z</time>
      </trkpt>
      <trkpt lat="42.42842" lon="2.3345">
        <ele>2446.21</ele>
        <time>2017-08-07T10:14:10Z</time>
      </trkpt>
      <trkpt lat="42.42841" lon="2.33441">
        <ele>2447.65</ele>
        <time>2017-08-07T10:14:25Z</time>
      </trkpt>
      <trkpt lat="42.4284" lon="2.3344">
        <ele>2445.73</ele>
        <time>2017-08-07T10:14:28Z</time>
      </trkpt>
      <trkpt lat="42.42835" lon="2.33432">
        <ele>2446.69</ele>
        <time>2017-08-07T10:14:41Z</time>
      </trkpt>
      <trkpt lat="42.42832" lon="2.3342">
        <ele>2447.65</ele>
        <time>2017-08-07T10:14:56Z</time>
      </trkpt>
      <trkpt lat="42.42832" lon="2.33412">
        <ele>2448.13</ele>
        <time>2017-08-07T10:15:10Z</time>
      </trkpt>
      <trkpt lat="42.4283" lon="2.33405">
        <ele>2449.58</ele>
        <time>2017-08-07T10:15:21Z</time>
      </trkpt>
      <trkpt lat="42.42829" lon="2.33396">
        <ele>2451.98</ele>
        <time>2017-08-07T10:15:35Z</time>
      </trkpt>
      <trkpt lat="42.42824" lon="2.33389">
        <ele>2453.9</ele>
        <time>2017-08-07T10:15:49Z</time>
      </trkpt>
      <trkpt lat="42.42823" lon="2.33387">
        <ele>2452.46</ele>
        <time>2017-08-07T10:15:52Z</time>
      </trkpt>
      <trkpt lat="42.42823" lon="2.33388">
        <ele>2453.9</ele>
        <time>2017-08-07T10:15:58Z</time>
      </trkpt>
      <trkpt lat="42.42824" lon="2.33387">
        <ele>2452.94</ele>
        <time>2017-08-07T10:16:10Z</time>
      </trkpt>
      <trkpt lat="42.42823" lon="2.33389">
        <ele>2453.9</ele>
        <time>2017-08-07T10:16:29Z</time>
      </trkpt>
      <trkpt lat="42.42823" lon="2.33387">
        <ele>2452.94</ele>
        <time>2017-08-07T10:16:52Z</time>
      </trkpt>
      <trkpt lat="42.42822" lon="2.33387">
        <ele>2451.98</ele>
        <time>2017-08-07T10:17:03Z</time>
      </trkpt>
      <trkpt lat="42.42817" lon="2.33387">
        <ele>2450.54</ele>
        <time>2017-08-07T10:17:16Z</time>
      </trkpt>
      <trkpt lat="42.42813" lon="2.3337">
        <ele>2449.58</ele>
        <time>2017-08-07T10:17:29Z</time>
      </trkpt>
      <trkpt lat="42.42807" lon="2.33364">
        <ele>2447.65</ele>
        <time>2017-08-07T10:17:44Z</time>
      </trkpt>
      <trkpt lat="42.42802" lon="2.33353">
        <ele>2447.65</ele>
        <time>2017-08-07T10:17:58Z</time>
      </trkpt>
      <trkpt lat="42.42802" lon="2.33352">
        <ele>2447.65</ele>
        <time>2017-08-07T10:17:59Z</time>
      </trkpt>
      <trkpt lat="42.42797" lon="2.33331">
        <ele>2449.58</ele>
        <time>2017-08-07T10:18:14Z</time>
      </trkpt>
      <trkpt lat="42.42792" lon="2.33319">
        <ele>2450.06</ele>
        <time>2017-08-07T10:18:28Z</time>
      </trkpt>
      <trkpt lat="42.42789" lon="2.33316">
        <ele>2450.06</ele>
        <time>2017-08-07T10:18:32Z</time>
      </trkpt>
      <trkpt lat="42.42784" lon="2.3331">
        <ele>2450.06</ele>
        <time>2017-08-07T10:18:40Z</time>
      </trkpt>
      <trkpt lat="42.42784" lon="2.33307">
        <ele>2448.62</ele>
        <time>2017-08-07T10:18:42Z</time>
      </trkpt>
      <trkpt lat="42.42782" lon="2.33296">
        <ele>2445.73</ele>
        <time>2017-08-07T10:18:52Z</time>
      </trkpt>
      <trkpt lat="42.42776" lon="2.33291">
        <ele>2442.85</ele>
        <time>2017-08-07T10:19:02Z</time>
      </trkpt>
      <trkpt lat="42.42773" lon="2.33288">
        <ele>2441.41</ele>
        <time>2017-08-07T10:19:06Z</time>
      </trkpt>
      <trkpt lat="42.42772" lon="2.33282">
        <ele>2440.92</ele>
        <time>2017-08-07T10:19:11Z</time>
      </trkpt>
      <trkpt lat="42.42771" lon="2.33275">
        <ele>2439.48</ele>
        <time>2017-08-07T10:19:16Z</time>
      </trkpt>
      <trkpt lat="42.42768" lon="2.33258">
        <ele>2436.12</ele>
        <time>2017-08-07T10:19:30Z</time>
      </trkpt>
      <trkpt lat="42.42767" lon="2.33248">
        <ele>2433.23</ele>
        <time>2017-08-07T10:19:38Z</time>
      </trkpt>
      <trkpt lat="42.42765" lon="2.33246">
        <ele>2432.75</ele>
        <time>2017-08-07T10:19:40Z</time>
      </trkpt>
      <trkpt lat="42.42763" lon="2.33241">
        <ele>2431.79</ele>
        <time>2017-08-07T10:19:45Z</time>
      </trkpt>
      <trkpt lat="42.42752" lon="2.33224">
        <ele>2430.35</ele>
        <time>2017-08-07T10:20:00Z</time>
      </trkpt>
      <trkpt lat="42.42752" lon="2.33222">
        <ele>2429.87</ele>
        <time>2017-08-07T10:20:01Z</time>
      </trkpt>
      <trkpt lat="42.42749" lon="2.33219">
        <ele>2428.91</ele>
        <time>2017-08-07T10:20:04Z</time>
      </trkpt>
      <trkpt lat="42.42745" lon="2.33216">
        <ele>2427.47</ele>
        <time>2017-08-07T10:20:08Z</time>
      </trkpt>
      <trkpt lat="42.4273" lon="2.33195">
        <ele>2424.1</ele>
        <time>2017-08-07T10:20:26Z</time>
      </trkpt>
      <trkpt lat="42.42729" lon="2.33194">
        <ele>2424.1</ele>
        <time>2017-08-07T10:20:27Z</time>
      </trkpt>
      <trkpt lat="42.42728" lon="2.33191">
        <ele>2426.5</ele>
        <time>2017-08-07T10:20:29Z</time>
      </trkpt>
      <trkpt lat="42.42716" lon="2.33168">
        <ele>2423.14</ele>
        <time>2017-08-07T10:20:42Z</time>
      </trkpt>
      <trkpt lat="42.42714" lon="2.33164">
        <ele>2422.18</ele>
        <time>2017-08-07T10:20:44Z</time>
      </trkpt>
      <trkpt lat="42.42703" lon="2.33136">
        <ele>2419.78</ele>
        <time>2017-08-07T10:21:01Z</time>
      </trkpt>
      <trkpt lat="42.42702" lon="2.33133">
        <ele>2418.33</ele>
        <time>2017-08-07T10:21:03Z</time>
      </trkpt>
      <trkpt lat="42.42699" lon="2.33128">
        <ele>2418.33</ele>
        <time>2017-08-07T10:21:06Z</time>
      </trkpt>
      <trkpt lat="42.42689" lon="2.33101">
        <ele>2416.89</ele>
        <time>2017-08-07T10:21:24Z</time>
      </trkpt>
      <trkpt lat="42.42685" lon="2.33088">
        <ele>2414.01</ele>
        <time>2017-08-07T10:21:32Z</time>
      </trkpt>
      <trkpt lat="42.42675" lon="2.33059">
        <ele>2414.49</ele>
        <time>2017-08-07T10:21:49Z</time>
      </trkpt>
      <trkpt lat="42.42669" lon="2.33049">
        <ele>2413.05</ele>
        <time>2017-08-07T10:21:56Z</time>
      </trkpt>
      <trkpt lat="42.42662" lon="2.33022">
        <ele>2413.05</ele>
        <time>2017-08-07T10:22:13Z</time>
      </trkpt>
      <trkpt lat="42.42652" lon="2.32996">
        <ele>2412.57</ele>
        <time>2017-08-07T10:22:30Z</time>
      </trkpt>
      <trkpt lat="42.42651" lon="2.32993">
        <ele>2410.64</ele>
        <time>2017-08-07T10:22:33Z</time>
      </trkpt>
      <trkpt lat="42.42645" lon="2.32976">
        <ele>2409.68</ele>
        <time>2017-08-07T10:22:47Z</time>
      </trkpt>
      <trkpt lat="42.42641" lon="2.32956">
        <ele>2409.68</ele>
        <time>2017-08-07T10:22:59Z</time>
      </trkpt>
      <trkpt lat="42.42633" lon="2.32927">
        <ele>2408.24</ele>
        <time>2017-08-07T10:23:17Z</time>
      </trkpt>
      <trkpt lat="42.42631" lon="2.32914">
        <ele>2408.72</ele>
        <time>2017-08-07T10:23:33Z</time>
      </trkpt>
      <trkpt lat="42.42626" lon="2.32885">
        <ele>2407.76</ele>
        <time>2017-08-07T10:23:49Z</time>
      </trkpt>
      <trkpt lat="42.42625" lon="2.32872">
        <ele>2409.2</ele>
        <time>2017-08-07T10:24:05Z</time>
      </trkpt>
      <trkpt lat="42.42626" lon="2.3287">
        <ele>2409.2</ele>
        <time>2017-08-07T10:24:26Z</time>
      </trkpt>
      <trkpt lat="42.42627" lon="2.32873">
        <ele>2409.2</ele>
        <time>2017-08-07T10:24:39Z</time>
      </trkpt>
      <trkpt lat="42.42626" lon="2.3287">
        <ele>2409.2</ele>
        <time>2017-08-07T10:25:04Z</time>
      </trkpt>
      <trkpt lat="42.42627" lon="2.32871">
        <ele>2409.2</ele>
        <time>2017-08-07T10:25:24Z</time>
      </trkpt>
      <trkpt lat="42.42627" lon="2.32865">
        <ele>2407.76</ele>
        <time>2017-08-07T10:25:45Z</time>
      </trkpt>
      <trkpt lat="42.42625" lon="2.32852">
        <ele>2409.2</ele>
        <time>2017-08-07T10:25:59Z</time>
      </trkpt>
      <trkpt lat="42.42625" lon="2.3285">
        <ele>2407.76</ele>
        <time>2017-08-07T10:26:01Z</time>
      </trkpt>
      <trkpt lat="42.42625" lon="2.32845">
        <ele>2409.2</ele>
        <time>2017-08-07T10:26:05Z</time>
      </trkpt>
      <trkpt lat="42.42622" lon="2.32836">
        <ele>2409.2</ele>
        <time>2017-08-07T10:26:16Z</time>
      </trkpt>
      <trkpt lat="42.42621" lon="2.32834">
        <ele>2407.76</ele>
        <time>2017-08-07T10:26:18Z</time>
      </trkpt>
      <trkpt lat="42.4262" lon="2.32831">
        <ele>2409.2</ele>
        <time>2017-08-07T10:26:23Z</time>
      </trkpt>
      <trkpt lat="42.42618" lon="2.32818">
        <ele>2409.68</ele>
        <time>2017-08-07T10:26:38Z</time>
      </trkpt>
      <trkpt lat="42.42616" lon="2.32808">
        <ele>2410.16</ele>
        <time>2017-08-07T10:26:53Z</time>
      </trkpt>
      <trkpt lat="42.42615" lon="2.32798">
        <ele>2410.64</ele>
        <time>2017-08-07T10:27:05Z</time>
      </trkpt>
      <trkpt lat="42.42614" lon="2.32795">
        <ele>2410.64</ele>
        <time>2017-08-07T10:27:07Z</time>
      </trkpt>
      <trkpt lat="42.42611" lon="2.32778">
        <ele>2410.64</ele>
        <time>2017-08-07T10:27:22Z</time>
      </trkpt>
      <trkpt lat="42.4261" lon="2.32776">
        <ele>2410.64</ele>
        <time>2017-08-07T10:27:24Z</time>
      </trkpt>
      <trkpt lat="42.42609" lon="2.32774">
        <ele>2410.64</ele>
        <time>2017-08-07T10:27:26Z</time>
      </trkpt>
      <trkpt lat="42.42609" lon="2.32767">
        <ele>2411.6</ele>
        <time>2017-08-07T10:27:42Z</time>
      </trkpt>
      <trkpt lat="42.42608" lon="2.3276">
        <ele>2409.68</ele>
        <time>2017-08-07T10:27:52Z</time>
      </trkpt>
      <trkpt lat="42.42608" lon="2.32756">
        <ele>2411.12</ele>
        <time>2017-08-07T10:27:55Z</time>
      </trkpt>
      <trkpt lat="42.42604" lon="2.32736">
        <ele>2411.6</ele>
        <time>2017-08-07T10:28:10Z</time>
      </trkpt>
      <trkpt lat="42.42604" lon="2.32723">
        <ele>2411.6</ele>
        <time>2017-08-07T10:28:24Z</time>
      </trkpt>
      <trkpt lat="42.426" lon="2.32705">
        <ele>2412.57</ele>
        <time>2017-08-07T10:28:40Z</time>
      </trkpt>
      <trkpt lat="42.42598" lon="2.32693">
        <ele>2414.49</ele>
        <time>2017-08-07T10:28:55Z</time>
      </trkpt>
      <trkpt lat="42.42597" lon="2.32679">
        <ele>2416.41</ele>
        <time>2017-08-07T10:29:08Z</time>
      </trkpt>
      <trkpt lat="42.42596" lon="2.32668">
        <ele>2417.37</ele>
        <time>2017-08-07T10:29:22Z</time>
      </trkpt>
      <trkpt lat="42.42594" lon="2.32655">
        <ele>2418.33</ele>
        <time>2017-08-07T10:29:35Z</time>
      </trkpt>
      <trkpt lat="42.42593" lon="2.32652">
        <ele>2418.81</ele>
        <time>2017-08-07T10:29:40Z</time>
      </trkpt>
      <trkpt lat="42.42593" lon="2.32646">
        <ele>2419.3</ele>
        <time>2017-08-07T10:29:54Z</time>
      </trkpt>
      <trkpt lat="42.42589" lon="2.32637">
        <ele>2420.26</ele>
        <time>2017-08-07T10:30:23Z</time>
      </trkpt>
      <trkpt lat="42.42592" lon="2.32622">
        <ele>2421.7</ele>
        <time>2017-08-07T10:30:39Z</time>
      </trkpt>
      <trkpt lat="42.42593" lon="2.32617">
        <ele>2422.18</ele>
        <time>2017-08-07T10:30:52Z</time>
      </trkpt>
      <trkpt lat="42.42594" lon="2.32604">
        <ele>2424.1</ele>
        <time>2017-08-07T10:31:06Z</time>
      </trkpt>
      <trkpt lat="42.42591" lon="2.32595">
        <ele>2426.02</ele>
        <time>2017-08-07T10:31:16Z</time>
      </trkpt>
      <trkpt lat="42.42584" lon="2.32579">
        <ele>2428.43</ele>
        <time>2017-08-07T10:31:33Z</time>
      </trkpt>
      <trkpt lat="42.4258" lon="2.32561">
        <ele>2430.83</ele>
        <time>2017-08-07T10:31:50Z</time>
      </trkpt>
      <trkpt lat="42.42578" lon="2.32548">
        <ele>2432.27</ele>
        <time>2017-08-07T10:32:05Z</time>
      </trkpt>
      <trkpt lat="42.42579" lon="2.32537">
        <ele>2434.68</ele>
        <time>2017-08-07T10:32:19Z</time>
      </trkpt>
      <trkpt lat="42.42577" lon="2.32525">
        <ele>2437.56</ele>
        <time>2017-08-07T10:32:35Z</time>
      </trkpt>
      <trkpt lat="42.42577" lon="2.32513">
        <ele>2439.48</ele>
        <time>2017-08-07T10:32:50Z</time>
      </trkpt>
      <trkpt lat="42.42575" lon="2.32502">
        <ele>2441.41</ele>
        <time>2017-08-07T10:33:05Z</time>
      </trkpt>
      <trkpt lat="42.4257" lon="2.32488">
        <ele>2443.81</ele>
        <time>2017-08-07T10:33:22Z</time>
      </trkpt>
      <trkpt lat="42.42563" lon="2.32477">
        <ele>2446.21</ele>
        <time>2017-08-07T10:33:38Z</time>
      </trkpt>
      <trkpt lat="42.42559" lon="2.32467">
        <ele>2446.69</ele>
        <time>2017-08-07T10:33:51Z</time>
      </trkpt>
      <trkpt lat="42.42557" lon="2.32461">
        <ele>2449.1</ele>
        <time>2017-08-07T10:34:06Z</time>
      </trkpt>
      <trkpt lat="42.42555" lon="2.32449">
        <ele>2450.54</ele>
        <time>2017-08-07T10:34:22Z</time>
      </trkpt>
      <trkpt lat="42.42553" lon="2.32445">
        <ele>2451.5</ele>
        <time>2017-08-07T10:34:26Z</time>
      </trkpt>
      <trkpt lat="42.42555" lon="2.32431">
        <ele>2452.94</ele>
        <time>2017-08-07T10:34:41Z</time>
      </trkpt>
      <trkpt lat="42.42554" lon="2.32424">
        <ele>2452.46</ele>
        <time>2017-08-07T10:34:49Z</time>
      </trkpt>
      <trkpt lat="42.42554" lon="2.32423">
        <ele>2453.42</ele>
        <time>2017-08-07T10:34:51Z</time>
      </trkpt>
      <trkpt lat="42.42552" lon="2.32409">
        <ele>2455.34</ele>
        <time>2017-08-07T10:35:07Z</time>
      </trkpt>
      <trkpt lat="42.42551" lon="2.32397">
        <ele>2457.27</ele>
        <time>2017-08-07T10:35:24Z</time>
      </trkpt>
      <trkpt lat="42.42551" lon="2.32385">
        <ele>2459.67</ele>
        <time>2017-08-07T10:35:39Z</time>
      </trkpt>
      <trkpt lat="42.42549" lon="2.32378">
        <ele>2459.67</ele>
        <time>2017-08-07T10:35:53Z</time>
      </trkpt>
      <trkpt lat="42.42549" lon="2.32373">
        <ele>2460.15</ele>
        <time>2017-08-07T10:35:58Z</time>
      </trkpt>
      <trkpt lat="42.42549" lon="2.32363">
        <ele>2461.59</ele>
        <time>2017-08-07T10:36:07Z</time>
      </trkpt>
      <trkpt lat="42.4255" lon="2.32352">
        <ele>2464.48</ele>
        <time>2017-08-07T10:36:22Z</time>
      </trkpt>
      <trkpt lat="42.4255" lon="2.32351">
        <ele>2462.55</ele>
        <time>2017-08-07T10:36:28Z</time>
      </trkpt>
      <trkpt lat="42.42551" lon="2.3235">
        <ele>2465.92</ele>
        <time>2017-08-07T10:36:50Z</time>
      </trkpt>
      <trkpt lat="42.42551" lon="2.3235">
        <ele>2464.48</ele>
        <time>2017-08-07T10:36:56Z</time>
      </trkpt>
      <trkpt lat="42.42551" lon="2.3235">
        <ele>2465.92</ele>
        <time>2017-08-07T10:37:02Z</time>
      </trkpt>
      <trkpt lat="42.42553" lon="2.32349">
        <ele>2466.88</ele>
        <time>2017-08-07T10:37:20Z</time>
      </trkpt>
      <trkpt lat="42.42551" lon="2.32346">
        <ele>2465.44</ele>
        <time>2017-08-07T10:37:23Z</time>
      </trkpt>
      <trkpt lat="42.4255" lon="2.32333">
        <ele>2467.84</ele>
        <time>2017-08-07T10:37:36Z</time>
      </trkpt>
      <trkpt lat="42.42549" lon="2.32315">
        <ele>2467.36</ele>
        <time>2017-08-07T10:37:50Z</time>
      </trkpt>
      <trkpt lat="42.42546" lon="2.32294">
        <ele>2468.8</ele>
        <time>2017-08-07T10:38:07Z</time>
      </trkpt>
      <trkpt lat="42.42545" lon="2.3229">
        <ele>2469.76</ele>
        <time>2017-08-07T10:38:11Z</time>
      </trkpt>
      <trkpt lat="42.42545" lon="2.32276">
        <ele>2471.69</ele>
        <time>2017-08-07T10:38:24Z</time>
      </trkpt>
      <trkpt lat="42.42545" lon="2.32256">
        <ele>2474.09</ele>
        <time>2017-08-07T10:38:42Z</time>
      </trkpt>
      <trkpt lat="42.42546" lon="2.32237">
        <ele>2476.01</ele>
        <time>2017-08-07T10:38:59Z</time>
      </trkpt>
      <trkpt lat="42.42547" lon="2.32221">
        <ele>2476.97</ele>
        <time>2017-08-07T10:39:14Z</time>
      </trkpt>
      <trkpt lat="42.42547" lon="2.32218">
        <ele>2476.97</ele>
        <time>2017-08-07T10:39:16Z</time>
      </trkpt>
      <trkpt lat="42.42543" lon="2.32196">
        <ele>2478.42</ele>
        <time>2017-08-07T10:39:32Z</time>
      </trkpt>
      <trkpt lat="42.4254" lon="2.32168">
        <ele>2480.34</ele>
        <time>2017-08-07T10:39:51Z</time>
      </trkpt>
      <trkpt lat="42.42537" lon="2.32147">
        <ele>2481.78</ele>
        <time>2017-08-07T10:40:06Z</time>
      </trkpt>
      <trkpt lat="42.42536" lon="2.32135">
        <ele>2482.26</ele>
        <time>2017-08-07T10:40:16Z</time>
      </trkpt>
      <trkpt lat="42.42533" lon="2.32123">
        <ele>2483.7</ele>
        <time>2017-08-07T10:40:30Z</time>
      </trkpt>
      <trkpt lat="42.42531" lon="2.32105">
        <ele>2485.63</ele>
        <time>2017-08-07T10:40:45Z</time>
      </trkpt>
      <trkpt lat="42.4253" lon="2.32081">
        <ele>2486.59</ele>
        <time>2017-08-07T10:41:01Z</time>
      </trkpt>
      <trkpt lat="42.42528" lon="2.32053">
        <ele>2486.59</ele>
        <time>2017-08-07T10:41:18Z</time>
      </trkpt>
      <trkpt lat="42.42527" lon="2.32037">
        <ele>2487.55</ele>
        <time>2017-08-07T10:41:28Z</time>
      </trkpt>
      <trkpt lat="42.42525" lon="2.32012">
        <ele>2488.99</ele>
        <time>2017-08-07T10:41:47Z</time>
      </trkpt>
      <trkpt lat="42.42526" lon="2.32007">
        <ele>2489.47</ele>
        <time>2017-08-07T10:41:50Z</time>
      </trkpt>
      <trkpt lat="42.42521" lon="2.31981">
        <ele>2489.95</ele>
        <time>2017-08-07T10:42:07Z</time>
      </trkpt>
      <trkpt lat="42.42517" lon="2.3196">
        <ele>2492.84</ele>
        <time>2017-08-07T10:42:22Z</time>
      </trkpt>
      <trkpt lat="42.42514" lon="2.31946">
        <ele>2494.28</ele>
        <time>2017-08-07T10:42:34Z</time>
      </trkpt>
      <trkpt lat="42.42509" lon="2.31928">
        <ele>2495.24</ele>
        <time>2017-08-07T10:42:49Z</time>
      </trkpt>
      <trkpt lat="42.42509" lon="2.31916">
        <ele>2496.68</ele>
        <time>2017-08-07T10:42:59Z</time>
      </trkpt>
      <trkpt lat="42.42511" lon="2.31897">
        <ele>2498.12</ele>
        <time>2017-08-07T10:43:17Z</time>
      </trkpt>
      <trkpt lat="42.42513" lon="2.31885">
        <ele>2500.53</ele>
        <time>2017-08-07T10:43:33Z</time>
      </trkpt>
      <trkpt lat="42.42513" lon="2.31885">
        <ele>2500.53</ele>
        <time>2017-08-07T10:43:34Z</time>
      </trkpt>
      <trkpt lat="42.42513" lon="2.31885">
        <ele>2499.08</ele>
        <time>2017-08-07T10:43:36Z</time>
      </trkpt>
      <trkpt lat="42.42512" lon="2.31882">
        <ele>2499.57</ele>
        <time>2017-08-07T10:43:49Z</time>
      </trkpt>
      <trkpt lat="42.42513" lon="2.31881">
        <ele>2501.01</ele>
        <time>2017-08-07T10:44:03Z</time>
      </trkpt>
      <trkpt lat="42.42513" lon="2.31881">
        <ele>2499.57</ele>
        <time>2017-08-07T10:44:14Z</time>
      </trkpt>
      <trkpt lat="42.42513" lon="2.31881">
        <ele>2501.01</ele>
        <time>2017-08-07T10:44:17Z</time>
      </trkpt>
      <trkpt lat="42.42513" lon="2.3188">
        <ele>2500.05</ele>
        <time>2017-08-07T10:44:22Z</time>
      </trkpt>
      <trkpt lat="42.42512" lon="2.31883">
        <ele>2501.49</ele>
        <time>2017-08-07T10:44:29Z</time>
      </trkpt>
      <trkpt lat="42.42514" lon="2.31884">
        <ele>2501.97</ele>
        <time>2017-08-07T10:44:47Z</time>
      </trkpt>
      <trkpt lat="42.42511" lon="2.31881">
        <ele>2500.53</ele>
        <time>2017-08-07T10:45:04Z</time>
      </trkpt>
      <trkpt lat="42.42511" lon="2.31879">
        <ele>2501.49</ele>
        <time>2017-08-07T10:45:17Z</time>
      </trkpt>
      <trkpt lat="42.42511" lon="2.31882">
        <ele>2501.49</ele>
        <time>2017-08-07T10:45:32Z</time>
      </trkpt>
      <trkpt lat="42.4251" lon="2.3188">
        <ele>2501.97</ele>
        <time>2017-08-07T10:45:57Z</time>
      </trkpt>
      <trkpt lat="42.42509" lon="2.31881">
        <ele>2500.53</ele>
        <time>2017-08-07T10:46:01Z</time>
      </trkpt>
      <trkpt lat="42.42509" lon="2.31881">
        <ele>2500.53</ele>
        <time>2017-08-07T10:46:15Z</time>
      </trkpt>
      <trkpt lat="42.42507" lon="2.31881">
        <ele>2500.53</ele>
        <time>2017-08-07T10:46:18Z</time>
      </trkpt>
      <trkpt lat="42.42505" lon="2.31878">
        <ele>2501.97</ele>
        <time>2017-08-07T10:46:25Z</time>
      </trkpt>
      <trkpt lat="42.42507" lon="2.3188">
        <ele>2501.97</ele>
        <time>2017-08-07T10:46:40Z</time>
      </trkpt>
      <trkpt lat="42.42504" lon="2.31882">
        <ele>2501.01</ele>
        <time>2017-08-07T10:46:52Z</time>
      </trkpt>
      <trkpt lat="42.42504" lon="2.31884">
        <ele>2501.01</ele>
        <time>2017-08-07T10:47:04Z</time>
      </trkpt>
      <trkpt lat="42.42505" lon="2.31886">
        <ele>2501.01</ele>
        <time>2017-08-07T10:47:08Z</time>
      </trkpt>
      <trkpt lat="42.42498" lon="2.31886">
        <ele>2500.53</ele>
        <time>2017-08-07T10:47:19Z</time>
      </trkpt>
      <trkpt lat="42.42498" lon="2.31888">
        <ele>2500.53</ele>
        <time>2017-08-07T10:47:31Z</time>
      </trkpt>
      <trkpt lat="42.42501" lon="2.31888">
        <ele>2500.53</ele>
        <time>2017-08-07T10:47:41Z</time>
      </trkpt>
      <trkpt lat="42.42502" lon="2.31886">
        <ele>2500.53</ele>
        <time>2017-08-07T10:47:49Z</time>
      </trkpt>
      <trkpt lat="42.42504" lon="2.31886">
        <ele>2500.53</ele>
        <time>2017-08-07T10:48:07Z</time>
      </trkpt>
      <trkpt lat="42.42502" lon="2.31884">
        <ele>2501.97</ele>
        <time>2017-08-07T10:48:24Z</time>
      </trkpt>
      <trkpt lat="42.42501" lon="2.31884">
        <ele>2501.97</ele>
        <time>2017-08-07T10:48:37Z</time>
      </trkpt>
      <trkpt lat="42.42502" lon="2.31888">
        <ele>2501.97</ele>
        <time>2017-08-07T10:48:55Z</time>
      </trkpt>
      <trkpt lat="42.42502" lon="2.31887">
        <ele>2502.45</ele>
        <time>2017-08-07T10:49:06Z</time>
      </trkpt>
      <trkpt lat="42.42501" lon="2.31888">
        <ele>2502.45</ele>
        <time>2017-08-07T10:49:23Z</time>
      </trkpt>
      <trkpt lat="42.42508" lon="2.31892">
        <ele>2502.45</ele>
        <time>2017-08-07T10:49:31Z</time>
      </trkpt>
      <trkpt lat="42.42507" lon="2.31893">
        <ele>2501.49</ele>
        <time>2017-08-07T10:49:46Z</time>
      </trkpt>
      <trkpt lat="42.42507" lon="2.3189">
        <ele>2501.49</ele>
        <time>2017-08-07T10:50:11Z</time>
      </trkpt>
      <trkpt lat="42.42505" lon="2.31889">
        <ele>2502.45</ele>
        <time>2017-08-07T10:50:24Z</time>
      </trkpt>
      <trkpt lat="42.42507" lon="2.31887">
        <ele>2502.45</ele>
        <time>2017-08-07T10:50:44Z</time>
      </trkpt>
      <trkpt lat="42.42509" lon="2.31885">
        <ele>2502.93</ele>
        <time>2017-08-07T10:50:54Z</time>
      </trkpt>
      <trkpt lat="42.42511" lon="2.31882">
        <ele>2503.41</ele>
        <time>2017-08-07T10:51:05Z</time>
      </trkpt>
      <trkpt lat="42.4251" lon="2.3188">
        <ele>2503.41</ele>
        <time>2017-08-07T10:51:15Z</time>
      </trkpt>
      <trkpt lat="42.4251" lon="2.3188">
        <ele>2503.41</ele>
        <time>2017-08-07T10:51:26Z</time>
      </trkpt>
      <trkpt lat="42.42511" lon="2.3188">
        <ele>2503.41</ele>
        <time>2017-08-07T10:51:38Z</time>
      </trkpt>
      <trkpt lat="42.42511" lon="2.31878">
        <ele>2503.89</ele>
        <time>2017-08-07T10:51:49Z</time>
      </trkpt>
      <trkpt lat="42.4251" lon="2.31878">
        <ele>2502.93</ele>
        <time>2017-08-07T10:52:00Z</time>
      </trkpt>
      <trkpt lat="42.42509" lon="2.31876">
        <ele>2502.93</ele>
        <time>2017-08-07T10:52:11Z</time>
      </trkpt>
      <trkpt lat="42.42508" lon="2.31872">
        <ele>2502.45</ele>
        <time>2017-08-07T10:52:22Z</time>
      </trkpt>
      <trkpt lat="42.42509" lon="2.31873">
        <ele>2502.45</ele>
        <time>2017-08-07T10:52:43Z</time>
      </trkpt>
      <trkpt lat="42.42509" lon="2.31865">
        <ele>2501.97</ele>
        <time>2017-08-07T10:52:56Z</time>
      </trkpt>
      <trkpt lat="42.4251" lon="2.31864">
        <ele>2502.45</ele>
        <time>2017-08-07T10:52:59Z</time>
      </trkpt>
      <trkpt lat="42.42507" lon="2.31859">
        <ele>2501.01</ele>
        <time>2017-08-07T10:53:11Z</time>
      </trkpt>
      <trkpt lat="42.42511" lon="2.31852">
        <ele>2500.53</ele>
        <time>2017-08-07T10:53:21Z</time>
      </trkpt>
      <trkpt lat="42.42512" lon="2.31851">
        <ele>2500.05</ele>
        <time>2017-08-07T10:53:23Z</time>
      </trkpt>
      <trkpt lat="42.42516" lon="2.31848">
        <ele>2498.6</ele>
        <time>2017-08-07T10:53:34Z</time>
      </trkpt>
      <trkpt lat="42.42521" lon="2.31844">
        <ele>2497.16</ele>
        <time>2017-08-07T10:53:44Z</time>
      </trkpt>
      <trkpt lat="42.42523" lon="2.3184">
        <ele>2496.68</ele>
        <time>2017-08-07T10:53:49Z</time>
      </trkpt>
      <trkpt lat="42.42524" lon="2.31839">
        <ele>2496.2</ele>
        <time>2017-08-07T10:53:51Z</time>
      </trkpt>
      <trkpt lat="42.4253" lon="2.31834">
        <ele>2494.76</ele>
        <time>2017-08-07T10:54:02Z</time>
      </trkpt>
      <trkpt lat="42.42536" lon="2.31823">
        <ele>2492.36</ele>
        <time>2017-08-07T10:54:16Z</time>
      </trkpt>
      <trkpt lat="42.4254" lon="2.31817">
        <ele>2491.87</ele>
        <time>2017-08-07T10:54:22Z</time>
      </trkpt>
      <trkpt lat="42.4255" lon="2.31806">
        <ele>2489.47</ele>
        <time>2017-08-07T10:54:36Z</time>
      </trkpt>
      <trkpt lat="42.42563" lon="2.31799">
        <ele>2488.03</ele>
        <time>2017-08-07T10:54:51Z</time>
      </trkpt>
      <trkpt lat="42.42573" lon="2.31792">
        <ele>2485.63</ele>
        <time>2017-08-07T10:55:07Z</time>
      </trkpt>
      <trkpt lat="42.42577" lon="2.31788">
        <ele>2483.22</ele>
        <time>2017-08-07T10:55:15Z</time>
      </trkpt>
      <trkpt lat="42.42583" lon="2.3177">
        <ele>2481.3</ele>
        <time>2017-08-07T10:55:32Z</time>
      </trkpt>
      <trkpt lat="42.42585" lon="2.31768">
        <ele>2480.82</ele>
        <time>2017-08-07T10:55:38Z</time>
      </trkpt>
      <trkpt lat="42.42591" lon="2.3176">
        <ele>2478.9</ele>
        <time>2017-08-07T10:55:52Z</time>
      </trkpt>
      <trkpt lat="42.42602" lon="2.31756">
        <ele>2476.01</ele>
        <time>2017-08-07T10:56:05Z</time>
      </trkpt>
      <trkpt lat="42.42607" lon="2.31748">
        <ele>2474.09</ele>
        <time>2017-08-07T10:56:20Z</time>
      </trkpt>
      <trkpt lat="42.42613" lon="2.31744">
        <ele>2470.73</ele>
        <time>2017-08-07T10:56:31Z</time>
      </trkpt>
      <trkpt lat="42.42623" lon="2.31731">
        <ele>2468.32</ele>
        <time>2017-08-07T10:56:47Z</time>
      </trkpt>
      <trkpt lat="42.42632" lon="2.31718">
        <ele>2464.48</ele>
        <time>2017-08-07T10:56:59Z</time>
      </trkpt>
      <trkpt lat="42.42639" lon="2.3171">
        <ele>2461.59</ele>
        <time>2017-08-07T10:57:12Z</time>
      </trkpt>
      <trkpt lat="42.4264" lon="2.31707">
        <ele>2461.11</ele>
        <time>2017-08-07T10:57:15Z</time>
      </trkpt>
      <trkpt lat="42.42646" lon="2.31693">
        <ele>2458.71</ele>
        <time>2017-08-07T10:57:29Z</time>
      </trkpt>
      <trkpt lat="42.42649" lon="2.3169">
        <ele>2457.27</ele>
        <time>2017-08-07T10:57:43Z</time>
      </trkpt>
      <trkpt lat="42.42655" lon="2.31679">
        <ele>2453.9</ele>
        <time>2017-08-07T10:57:54Z</time>
      </trkpt>
      <trkpt lat="42.42661" lon="2.31668">
        <ele>2452.46</ele>
        <time>2017-08-07T10:58:08Z</time>
      </trkpt>
      <trkpt lat="42.42666" lon="2.31658">
        <ele>2449.58</ele>
        <time>2017-08-07T10:58:21Z</time>
      </trkpt>
      <trkpt lat="42.4267" lon="2.31647">
        <ele>2448.13</ele>
        <time>2017-08-07T10:58:37Z</time>
      </trkpt>
      <trkpt lat="42.42671" lon="2.31645">
        <ele>2444.77</ele>
        <time>2017-08-07T10:58:42Z</time>
      </trkpt>
      <trkpt lat="42.42677" lon="2.3164">
        <ele>2445.73</ele>
        <time>2017-08-07T10:58:55Z</time>
      </trkpt>
      <trkpt lat="42.42683" lon="2.31634">
        <ele>2443.33</ele>
        <time>2017-08-07T10:59:10Z</time>
      </trkpt>
      <trkpt lat="42.42684" lon="2.31628">
        <ele>2439</ele>
        <time>2017-08-07T10:59:17Z</time>
      </trkpt>
      <trkpt lat="42.42684" lon="2.31628">
        <ele>2442.37</ele>
        <time>2017-08-07T10:59:19Z</time>
      </trkpt>
      <trkpt lat="42.42684" lon="2.31623">
        <ele>2440.92</ele>
        <time>2017-08-07T10:59:24Z</time>
      </trkpt>
      <trkpt lat="42.42687" lon="2.31613">
        <ele>2438.04</ele>
        <time>2017-08-07T10:59:35Z</time>
      </trkpt>
      <trkpt lat="42.42688" lon="2.31594">
        <ele>2436.12</ele>
        <time>2017-08-07T10:59:52Z</time>
      </trkpt>
      <trkpt lat="42.42695" lon="2.31578">
        <ele>2433.23</ele>
        <time>2017-08-07T11:00:10Z</time>
      </trkpt>
      <trkpt lat="42.42703" lon="2.31559">
        <ele>2430.35</ele>
        <time>2017-08-07T11:00:30Z</time>
      </trkpt>
      <trkpt lat="42.42708" lon="2.31547">
        <ele>2427.95</ele>
        <time>2017-08-07T11:00:46Z</time>
      </trkpt>
      <trkpt lat="42.4271" lon="2.31534">
        <ele>2426.5</ele>
        <time>2017-08-07T11:01:00Z</time>
      </trkpt>
      <trkpt lat="42.42713" lon="2.31515">
        <ele>2424.58</ele>
        <time>2017-08-07T11:01:18Z</time>
      </trkpt>
      <trkpt lat="42.42719" lon="2.31505">
        <ele>2422.18</ele>
        <time>2017-08-07T11:01:34Z</time>
      </trkpt>
      <trkpt lat="42.42721" lon="2.31499">
        <ele>2420.26</ele>
        <time>2017-08-07T11:01:42Z</time>
      </trkpt>
      <trkpt lat="42.42726" lon="2.31487">
        <ele>2418.33</ele>
        <time>2017-08-07T11:01:58Z</time>
      </trkpt>
      <trkpt lat="42.4273" lon="2.31481">
        <ele>2416.41</ele>
        <time>2017-08-07T11:02:11Z</time>
      </trkpt>
      <trkpt lat="42.42732" lon="2.31483">
        <ele>2416.41</ele>
        <time>2017-08-07T11:02:27Z</time>
      </trkpt>
      <trkpt lat="42.42733" lon="2.31479">
        <ele>2416.41</ele>
        <time>2017-08-07T11:02:52Z</time>
      </trkpt>
      <trkpt lat="42.42733" lon="2.31476">
        <ele>2415.93</ele>
        <time>2017-08-07T11:03:07Z</time>
      </trkpt>
      <trkpt lat="42.42735" lon="2.31468">
        <ele>2414.49</ele>
        <time>2017-08-07T11:03:19Z</time>
      </trkpt>
      <trkpt lat="42.42735" lon="2.31466">
        <ele>2414.01</ele>
        <time>2017-08-07T11:03:32Z</time>
      </trkpt>
      <trkpt lat="42.42733" lon="2.31464">
        <ele>2415.45</ele>
        <time>2017-08-07T11:03:43Z</time>
      </trkpt>
      <trkpt lat="42.42731" lon="2.31465">
        <ele>2414.01</ele>
        <time>2017-08-07T11:03:54Z</time>
      </trkpt>
      <trkpt lat="42.42733" lon="2.31465">
        <ele>2416.41</ele>
        <time>2017-08-07T11:04:07Z</time>
      </trkpt>
      <trkpt lat="42.42733" lon="2.31462">
        <ele>2414.01</ele>
        <time>2017-08-07T11:04:19Z</time>
      </trkpt>
      <trkpt lat="42.42733" lon="2.31463">
        <ele>2413.53</ele>
        <time>2017-08-07T11:04:27Z</time>
      </trkpt>
      <trkpt lat="42.42732" lon="2.31463">
        <ele>2359.21</ele>
        <time>2017-08-07T11:27:41Z</time>
      </trkpt>
      <trkpt lat="42.42742" lon="2.31458">
        <ele>2361.14</ele>
        <time>2017-08-07T11:27:43Z</time>
      </trkpt>
      <trkpt lat="42.42743" lon="2.31458">
        <ele>2358.73</ele>
        <time>2017-08-07T11:27:45Z</time>
      </trkpt>
      <trkpt lat="42.42737" lon="2.31456">
        <ele>2358.73</ele>
        <time>2017-08-07T11:27:49Z</time>
      </trkpt>
      <trkpt lat="42.42744" lon="2.31459">
        <ele>2362.1</ele>
        <time>2017-08-07T11:27:54Z</time>
      </trkpt>
      <trkpt lat="42.42745" lon="2.31459">
        <ele>2365.94</ele>
        <time>2017-08-07T11:27:56Z</time>
      </trkpt>
      <trkpt lat="42.42746" lon="2.31459">
        <ele>2369.79</ele>
        <time>2017-08-07T11:27:58Z</time>
      </trkpt>
      <trkpt lat="42.42747" lon="2.31459">
        <ele>2373.15</ele>
        <time>2017-08-07T11:27:59Z</time>
      </trkpt>
      <trkpt lat="42.42743" lon="2.31458">
        <ele>2374.11</ele>
        <time>2017-08-07T11:28:01Z</time>
      </trkpt>
      <trkpt lat="42.42742" lon="2.31458">
        <ele>2377.96</ele>
        <time>2017-08-07T11:28:04Z</time>
      </trkpt>
      <trkpt lat="42.42742" lon="2.31458">
        <ele>2380.84</ele>
        <time>2017-08-07T11:28:07Z</time>
      </trkpt>
      <trkpt lat="42.42741" lon="2.31458">
        <ele>2384.69</ele>
        <time>2017-08-07T11:28:11Z</time>
      </trkpt>
      <trkpt lat="42.4274" lon="2.3146">
        <ele>2389.49</ele>
        <time>2017-08-07T11:28:15Z</time>
      </trkpt>
      <trkpt lat="42.4274" lon="2.31461">
        <ele>2392.86</ele>
        <time>2017-08-07T11:28:20Z</time>
      </trkpt>
      <trkpt lat="42.4274" lon="2.31462">
        <ele>2396.22</ele>
        <time>2017-08-07T11:28:26Z</time>
      </trkpt>
      <trkpt lat="42.42739" lon="2.31463">
        <ele>2393.34</ele>
        <time>2017-08-07T11:28:28Z</time>
      </trkpt>
      <trkpt lat="42.42738" lon="2.31463">
        <ele>2396.7</ele>
        <time>2017-08-07T11:28:32Z</time>
      </trkpt>
      <trkpt lat="42.42737" lon="2.31464">
        <ele>2399.59</ele>
        <time>2017-08-07T11:28:39Z</time>
      </trkpt>
      <trkpt lat="42.42737" lon="2.31463">
        <ele>2401.99</ele>
        <time>2017-08-07T11:28:49Z</time>
      </trkpt>
      <trkpt lat="42.42738" lon="2.31464">
        <ele>2401.51</ele>
        <time>2017-08-07T11:29:07Z</time>
      </trkpt>
      <trkpt lat="42.42739" lon="2.3146">
        <ele>2397.67</ele>
        <time>2017-08-07T11:29:15Z</time>
      </trkpt>
      <trkpt lat="42.42739" lon="2.3146">
        <ele>2397.67</ele>
        <time>2017-08-07T11:29:16Z</time>
      </trkpt>
      <trkpt lat="42.42738" lon="2.3146">
        <ele>2399.11</ele>
        <time>2017-08-07T11:29:18Z</time>
      </trkpt>
      <trkpt lat="42.42738" lon="2.3146">
        <ele>2396.7</ele>
        <time>2017-08-07T11:29:20Z</time>
      </trkpt>
      <trkpt lat="42.42739" lon="2.31459">
        <ele>2398.15</ele>
        <time>2017-08-07T11:29:22Z</time>
      </trkpt>
      <trkpt lat="42.42738" lon="2.31458">
        <ele>2400.07</ele>
        <time>2017-08-07T11:29:30Z</time>
      </trkpt>
      <trkpt lat="42.4274" lon="2.31456">
        <ele>2402.47</ele>
        <time>2017-08-07T11:29:40Z</time>
      </trkpt>
      <trkpt lat="42.42745" lon="2.31447">
        <ele>2400.55</ele>
        <time>2017-08-07T11:29:54Z</time>
      </trkpt>
      <trkpt lat="42.4275" lon="2.31436">
        <ele>2399.59</ele>
        <time>2017-08-07T11:30:08Z</time>
      </trkpt>
      <trkpt lat="42.42759" lon="2.31423">
        <ele>2395.74</ele>
        <time>2017-08-07T11:30:24Z</time>
      </trkpt>
      <trkpt lat="42.4276" lon="2.31422">
        <ele>2395.74</ele>
        <time>2017-08-07T11:30:25Z</time>
      </trkpt>
      <trkpt lat="42.42761" lon="2.31408">
        <ele>2394.3</ele>
        <time>2017-08-07T11:30:38Z</time>
      </trkpt>
      <trkpt lat="42.42763" lon="2.31406">
        <ele>2392.86</ele>
        <time>2017-08-07T11:30:41Z</time>
      </trkpt>
      <trkpt lat="42.42772" lon="2.31401">
        <ele>2390.94</ele>
        <time>2017-08-07T11:30:51Z</time>
      </trkpt>
      <trkpt lat="42.42777" lon="2.31397">
        <ele>2390.46</ele>
        <time>2017-08-07T11:30:58Z</time>
      </trkpt>
      <trkpt lat="42.42789" lon="2.31388">
        <ele>2387.57</ele>
        <time>2017-08-07T11:31:15Z</time>
      </trkpt>
      <trkpt lat="42.42794" lon="2.31387">
        <ele>2387.09</ele>
        <time>2017-08-07T11:31:27Z</time>
      </trkpt>
      <trkpt lat="42.42793" lon="2.31384">
        <ele>2386.13</ele>
        <time>2017-08-07T11:31:43Z</time>
      </trkpt>
      <trkpt lat="42.42794" lon="2.31385">
        <ele>2388.05</ele>
        <time>2017-08-07T11:31:56Z</time>
      </trkpt>
      <trkpt lat="42.42793" lon="2.31384">
        <ele>2388.53</ele>
        <time>2017-08-07T11:32:13Z</time>
      </trkpt>
      <trkpt lat="42.42791" lon="2.31383">
        <ele>2387.57</ele>
        <time>2017-08-07T11:32:17Z</time>
      </trkpt>
      <trkpt lat="42.42791" lon="2.31383">
        <ele>2387.09</ele>
        <time>2017-08-07T11:32:22Z</time>
      </trkpt>
      <trkpt lat="42.42796" lon="2.31373">
        <ele>2385.17</ele>
        <time>2017-08-07T11:32:36Z</time>
      </trkpt>
      <trkpt lat="42.42798" lon="2.31364">
        <ele>2384.69</ele>
        <time>2017-08-07T11:32:42Z</time>
      </trkpt>
      <trkpt lat="42.42802" lon="2.31354">
        <ele>2383.25</ele>
        <time>2017-08-07T11:32:50Z</time>
      </trkpt>
      <trkpt lat="42.42808" lon="2.31329">
        <ele>2381.32</ele>
        <time>2017-08-07T11:33:06Z</time>
      </trkpt>
      <trkpt lat="42.42814" lon="2.31313">
        <ele>2380.84</ele>
        <time>2017-08-07T11:33:21Z</time>
      </trkpt>
      <trkpt lat="42.42815" lon="2.31309">
        <ele>2379.88</ele>
        <time>2017-08-07T11:33:24Z</time>
      </trkpt>
      <trkpt lat="42.42823" lon="2.31291">
        <ele>2378.44</ele>
        <time>2017-08-07T11:33:39Z</time>
      </trkpt>
      <trkpt lat="42.42827" lon="2.31285">
        <ele>2378.44</ele>
        <time>2017-08-07T11:33:45Z</time>
      </trkpt>
      <trkpt lat="42.42828" lon="2.31284">
        <ele>2377.96</ele>
        <time>2017-08-07T11:33:47Z</time>
      </trkpt>
      <trkpt lat="42.42831" lon="2.31279">
        <ele>2377.96</ele>
        <time>2017-08-07T11:33:51Z</time>
      </trkpt>
      <trkpt lat="42.42836" lon="2.3127">
        <ele>2377.48</ele>
        <time>2017-08-07T11:33:59Z</time>
      </trkpt>
      <trkpt lat="42.42838" lon="2.31264">
        <ele>2377</ele>
        <time>2017-08-07T11:34:04Z</time>
      </trkpt>
      <trkpt lat="42.42841" lon="2.31258">
        <ele>2376.52</ele>
        <time>2017-08-07T11:34:14Z</time>
      </trkpt>
      <trkpt lat="42.42844" lon="2.31255">
        <ele>2376.52</ele>
        <time>2017-08-07T11:34:17Z</time>
      </trkpt>
      <trkpt lat="42.42847" lon="2.31249">
        <ele>2375.55</ele>
        <time>2017-08-07T11:34:22Z</time>
      </trkpt>
      <trkpt lat="42.42852" lon="2.31235">
        <ele>2375.55</ele>
        <time>2017-08-07T11:34:35Z</time>
      </trkpt>
      <trkpt lat="42.42863" lon="2.31211">
        <ele>2375.55</ele>
        <time>2017-08-07T11:34:52Z</time>
      </trkpt>
      <trkpt lat="42.42875" lon="2.31196">
        <ele>2375.07</ele>
        <time>2017-08-07T11:35:08Z</time>
      </trkpt>
      <trkpt lat="42.42884" lon="2.31183">
        <ele>2375.07</ele>
        <time>2017-08-07T11:35:20Z</time>
      </trkpt>
      <trkpt lat="42.4289" lon="2.3117">
        <ele>2375.07</ele>
        <time>2017-08-07T11:35:30Z</time>
      </trkpt>
      <trkpt lat="42.42893" lon="2.31166">
        <ele>2375.07</ele>
        <time>2017-08-07T11:35:34Z</time>
      </trkpt>
      <trkpt lat="42.429" lon="2.31158">
        <ele>2376.04</ele>
        <time>2017-08-07T11:35:41Z</time>
      </trkpt>
      <trkpt lat="42.42909" lon="2.31149">
        <ele>2377</ele>
        <time>2017-08-07T11:35:50Z</time>
      </trkpt>
      <trkpt lat="42.42913" lon="2.31145">
        <ele>2375.55</ele>
        <time>2017-08-07T11:35:53Z</time>
      </trkpt>
      <trkpt lat="42.42928" lon="2.31128">
        <ele>2375.55</ele>
        <time>2017-08-07T11:36:09Z</time>
      </trkpt>
      <trkpt lat="42.42941" lon="2.31108">
        <ele>2375.55</ele>
        <time>2017-08-07T11:36:27Z</time>
      </trkpt>
      <trkpt lat="42.42953" lon="2.31091">
        <ele>2375.07</ele>
        <time>2017-08-07T11:36:43Z</time>
      </trkpt>
      <trkpt lat="42.42965" lon="2.31082">
        <ele>2376.52</ele>
        <time>2017-08-07T11:36:54Z</time>
      </trkpt>
      <trkpt lat="42.42981" lon="2.31066">
        <ele>2377.48</ele>
        <time>2017-08-07T11:37:13Z</time>
      </trkpt>
      <trkpt lat="42.42994" lon="2.31052">
        <ele>2377.48</ele>
        <time>2017-08-07T11:37:27Z</time>
      </trkpt>
      <trkpt lat="42.43006" lon="2.31036">
        <ele>2378.44</ele>
        <time>2017-08-07T11:37:42Z</time>
      </trkpt>
      <trkpt lat="42.43013" lon="2.31024">
        <ele>2378.44</ele>
        <time>2017-08-07T11:37:53Z</time>
      </trkpt>
      <trkpt lat="42.43019" lon="2.31012">
        <ele>2378.92</ele>
        <time>2017-08-07T11:38:03Z</time>
      </trkpt>
      <trkpt lat="42.43033" lon="2.30995">
        <ele>2380.84</ele>
        <time>2017-08-07T11:38:20Z</time>
      </trkpt>
      <trkpt lat="42.43035" lon="2.30993">
        <ele>2380.84</ele>
        <time>2017-08-07T11:38:22Z</time>
      </trkpt>
      <trkpt lat="42.43041" lon="2.30986">
        <ele>2379.4</ele>
        <time>2017-08-07T11:38:29Z</time>
      </trkpt>
      <trkpt lat="42.4305" lon="2.30971">
        <ele>2379.4</ele>
        <time>2017-08-07T11:38:43Z</time>
      </trkpt>
      <trkpt lat="42.43051" lon="2.3097">
        <ele>2379.4</ele>
        <time>2017-08-07T11:38:45Z</time>
      </trkpt>
      <trkpt lat="42.43057" lon="2.30967">
        <ele>2380.84</ele>
        <time>2017-08-07T11:38:52Z</time>
      </trkpt>
      <trkpt lat="42.43064" lon="2.3096">
        <ele>2381.32</ele>
        <time>2017-08-07T11:39:00Z</time>
      </trkpt>
      <trkpt lat="42.43071" lon="2.30943">
        <ele>2381.32</ele>
        <time>2017-08-07T11:39:16Z</time>
      </trkpt>
      <trkpt lat="42.43078" lon="2.30926">
        <ele>2383.25</ele>
        <time>2017-08-07T11:39:33Z</time>
      </trkpt>
      <trkpt lat="42.43087" lon="2.30909">
        <ele>2384.69</ele>
        <time>2017-08-07T11:39:49Z</time>
      </trkpt>
      <trkpt lat="42.43091" lon="2.30895">
        <ele>2391.133789</ele>
        <time>2017-08-07T11:40:03Z</time>
      </trkpt>
      <trkpt lat="42.43098" lon="2.30883">
        <ele>2391.554443</ele>
        <time>2017-08-07T11:40:16Z</time>
      </trkpt>
      <trkpt lat="42.43102" lon="2.30873">
        <ele>2392.188721</ele>
        <time>2017-08-07T11:40:31Z</time>
      </trkpt>
      <trkpt lat="42.43102" lon="2.30857">
        <ele>2394.452637</ele>
        <time>2017-08-07T11:40:43Z</time>
      </trkpt>
      <trkpt lat="42.43106" lon="2.30848">
        <ele>2394.942139</ele>
        <time>2017-08-07T11:40:49Z</time>
      </trkpt>
      <trkpt lat="42.43111" lon="2.30839">
        <ele>2394.832764</ele>
        <time>2017-08-07T11:41:04Z</time>
      </trkpt>
      <trkpt lat="42.43118" lon="2.30824">
        <ele>2395.254395</ele>
        <time>2017-08-07T11:41:20Z</time>
      </trkpt>
      <trkpt lat="42.43117" lon="2.30813">
        <ele>2397.058105</ele>
        <time>2017-08-07T11:41:33Z</time>
      </trkpt>
      <trkpt lat="42.4312" lon="2.30798">
        <ele>2398.388672</ele>
        <time>2017-08-07T11:41:38Z</time>
      </trkpt>
      <trkpt lat="42.43126" lon="2.30789">
        <ele>2398.23877</ele>
        <time>2017-08-07T11:41:54Z</time>
      </trkpt>
      <trkpt lat="42.43129" lon="2.30779">
        <ele>2398.913818</ele>
        <time>2017-08-07T11:42:08Z</time>
      </trkpt>
      <trkpt lat="42.43131" lon="2.3077">
        <ele>2399.663818</ele>
        <time>2017-08-07T11:42:22Z</time>
      </trkpt>
      <trkpt lat="42.43132" lon="2.30754">
        <ele>2401.61377</ele>
        <time>2017-08-07T11:42:23Z</time>
      </trkpt>
      <trkpt lat="42.43138" lon="2.30738">
        <ele>2402.300537</ele>
        <time>2017-08-07T11:42:36Z</time>
      </trkpt>
      <trkpt lat="42.43144" lon="2.3072">
        <ele>2403.252686</ele>
        <time>2017-08-07T11:42:50Z</time>
      </trkpt>
      <trkpt lat="42.43148" lon="2.30707">
        <ele>2403.66748</ele>
        <time>2017-08-07T11:43:05Z</time>
      </trkpt>
      <trkpt lat="42.43152" lon="2.30688">
        <ele>2405.360352</ele>
        <time>2017-08-07T11:43:19Z</time>
      </trkpt>
      <trkpt lat="42.43154" lon="2.30674">
        <ele>2406.341309</ele>
        <time>2017-08-07T11:43:35Z</time>
      </trkpt>
      <trkpt lat="42.43155" lon="2.30656">
        <ele>2408.209717</ele>
        <time>2017-08-07T11:43:52Z</time>
      </trkpt>
      <trkpt lat="42.43158" lon="2.30645">
        <ele>2408.828125</ele>
        <time>2017-08-07T11:44:08Z</time>
      </trkpt>
      <trkpt lat="42.43159" lon="2.3063">
        <ele>2410.524902</ele>
        <time>2017-08-07T11:44:22Z</time>
      </trkpt>
      <trkpt lat="42.43157" lon="2.30618">
        <ele>2411.661377</ele>
        <time>2017-08-07T11:44:40Z</time>
      </trkpt>
      <trkpt lat="42.43156" lon="2.30607">
        <ele>2412.383545</ele>
        <time>2017-08-07T11:44:54Z</time>
      </trkpt>
      <trkpt lat="42.43155" lon="2.30595">
        <ele>2413.139893</ele>
        <time>2017-08-07T11:45:10Z</time>
      </trkpt>
      <trkpt lat="42.4315" lon="2.30585">
        <ele>2414.024902</ele>
        <time>2017-08-07T11:45:19Z</time>
      </trkpt>
      <trkpt lat="42.43149" lon="2.30571">
        <ele>2414.671875</ele>
        <time>2017-08-07T11:45:33Z</time>
      </trkpt>
      <trkpt lat="42.43143" lon="2.30562">
        <ele>2415.094971</ele>
        <time>2017-08-07T11:45:46Z</time>
      </trkpt>
      <trkpt lat="42.43139" lon="2.3055">
        <ele>2415.212646</ele>
        <time>2017-08-07T11:45:59Z</time>
      </trkpt>
      <trkpt lat="42.43132" lon="2.30535">
        <ele>2415.39917</ele>
        <time>2017-08-07T11:46:15Z</time>
      </trkpt>
      <trkpt lat="42.43123" lon="2.3052">
        <ele>2415.570557</ele>
        <time>2017-08-07T11:46:31Z</time>
      </trkpt>
      <trkpt lat="42.43114" lon="2.30507">
        <ele>2415.675781</ele>
        <time>2017-08-07T11:46:46Z</time>
      </trkpt>
      <trkpt lat="42.43108" lon="2.30497">
        <ele>2415.01709</ele>
        <time>2017-08-07T11:47:03Z</time>
      </trkpt>
      <trkpt lat="42.43096" lon="2.30483">
        <ele>2414.006348</ele>
        <time>2017-08-07T11:47:18Z</time>
      </trkpt>
      <trkpt lat="42.43093" lon="2.30473">
        <ele>2413.131348</ele>
        <time>2017-08-07T11:47:33Z</time>
      </trkpt>
      <trkpt lat="42.43084" lon="2.30456">
        <ele>2411.756348</ele>
        <time>2017-08-07T11:47:49Z</time>
      </trkpt>
      <trkpt lat="42.43076" lon="2.30448">
        <ele>2411.131348</ele>
        <time>2017-08-07T11:48:01Z</time>
      </trkpt>
      <trkpt lat="42.43061" lon="2.3043">
        <ele>2409.08374</ele>
        <time>2017-08-07T11:48:07Z</time>
      </trkpt>
      <trkpt lat="42.43053" lon="2.3042">
        <ele>2407.95874</ele>
        <time>2017-08-07T11:48:24Z</time>
      </trkpt>
      <trkpt lat="42.43044" lon="2.30411">
        <ele>2407.308838</ele>
        <time>2017-08-07T11:48:27Z</time>
      </trkpt>
      <trkpt lat="42.43031" lon="2.30389">
        <ele>2405.408691</ele>
        <time>2017-08-07T11:48:29Z</time>
      </trkpt>
      <trkpt lat="42.43021" lon="2.30377">
        <ele>2404.235596</ele>
        <time>2017-08-07T11:48:37Z</time>
      </trkpt>
      <trkpt lat="42.43013" lon="2.30371">
        <ele>2403.822754</ele>
        <time>2017-08-07T11:48:53Z</time>
      </trkpt>
      <trkpt lat="42.43001" lon="2.30361">
        <ele>2403.094727</ele>
        <time>2017-08-07T11:49:08Z</time>
      </trkpt>
      <trkpt lat="42.42994" lon="2.30345">
        <ele>2401.545898</ele>
        <time>2017-08-07T11:49:15Z</time>
      </trkpt>
      <trkpt lat="42.42988" lon="2.30333">
        <ele>2400.446777</ele>
        <time>2017-08-07T11:49:25Z</time>
      </trkpt>
      <trkpt lat="42.42981" lon="2.30324">
        <ele>2399.712402</ele>
        <time>2017-08-07T11:49:48Z</time>
      </trkpt>
      <trkpt lat="42.42971" lon="2.30314">
        <ele>2398.637451</ele>
        <time>2017-08-07T11:50:07Z</time>
      </trkpt>
      <trkpt lat="42.42963" lon="2.30302">
        <ele>2397.182373</ele>
        <time>2017-08-07T11:50:23Z</time>
      </trkpt>
      <trkpt lat="42.4296" lon="2.30283">
        <ele>2390.94</ele>
        <time>2017-08-07T11:56:02Z</time>
      </trkpt>
      <trkpt lat="42.42957" lon="2.30283">
        <ele>2391.9</ele>
        <time>2017-08-07T11:56:05Z</time>
      </trkpt>
      <trkpt lat="42.42942" lon="2.30274">
        <ele>2392.38</ele>
        <time>2017-08-07T11:56:19Z</time>
      </trkpt>
      <trkpt lat="42.4294" lon="2.30275">
        <ele>2392.38</ele>
        <time>2017-08-07T11:56:21Z</time>
      </trkpt>
      <trkpt lat="42.42931" lon="2.30276">
        <ele>2392.86</ele>
        <time>2017-08-07T11:56:31Z</time>
      </trkpt>
      <trkpt lat="42.42929" lon="2.30274">
        <ele>2392.86</ele>
        <time>2017-08-07T11:56:33Z</time>
      </trkpt>
      <trkpt lat="42.42915" lon="2.30261">
        <ele>2390.94</ele>
        <time>2017-08-07T11:56:46Z</time>
      </trkpt>
      <trkpt lat="42.42914" lon="2.3026">
        <ele>2390.94</ele>
        <time>2017-08-07T11:56:47Z</time>
      </trkpt>
      <trkpt lat="42.4291" lon="2.30254">
        <ele>2390.46</ele>
        <time>2017-08-07T11:56:52Z</time>
      </trkpt>
      <trkpt lat="42.42903" lon="2.30251">
        <ele>2390.46</ele>
        <time>2017-08-07T11:56:57Z</time>
      </trkpt>
      <trkpt lat="42.42899" lon="2.30249">
        <ele>2389.97</ele>
        <time>2017-08-07T11:57:00Z</time>
      </trkpt>
      <trkpt lat="42.42894" lon="2.30243">
        <ele>2389.49</ele>
        <time>2017-08-07T11:57:07Z</time>
      </trkpt>
      <trkpt lat="42.42892" lon="2.30238">
        <ele>2389.01</ele>
        <time>2017-08-07T11:57:11Z</time>
      </trkpt>
      <trkpt lat="42.42888" lon="2.3023">
        <ele>2387.57</ele>
        <time>2017-08-07T11:57:17Z</time>
      </trkpt>
      <trkpt lat="42.42878" lon="2.30217">
        <ele>2385.65</ele>
        <time>2017-08-07T11:57:29Z</time>
      </trkpt>
      <trkpt lat="42.42872" lon="2.30212">
        <ele>2385.65</ele>
        <time>2017-08-07T11:57:34Z</time>
      </trkpt>
      <trkpt lat="42.42868" lon="2.3021">
        <ele>2384.69</ele>
        <time>2017-08-07T11:57:39Z</time>
      </trkpt>
      <trkpt lat="42.42854" lon="2.30197">
        <ele>2384.21</ele>
        <time>2017-08-07T11:57:53Z</time>
      </trkpt>
      <trkpt lat="42.42851" lon="2.30194">
        <ele>2384.21</ele>
        <time>2017-08-07T11:57:56Z</time>
      </trkpt>
      <trkpt lat="42.42848" lon="2.3019">
        <ele>2384.21</ele>
        <time>2017-08-07T11:57:59Z</time>
      </trkpt>
      <trkpt lat="42.42845" lon="2.30187">
        <ele>2384.21</ele>
        <time>2017-08-07T11:58:02Z</time>
      </trkpt>
      <trkpt lat="42.42834" lon="2.30175">
        <ele>2384.21</ele>
        <time>2017-08-07T11:58:16Z</time>
      </trkpt>
      <trkpt lat="42.42833" lon="2.30173">
        <ele>2384.21</ele>
        <time>2017-08-07T11:58:18Z</time>
      </trkpt>
      <trkpt lat="42.42829" lon="2.30165">
        <ele>2384.21</ele>
        <time>2017-08-07T11:58:23Z</time>
      </trkpt>
      <trkpt lat="42.42826" lon="2.30157">
        <ele>2383.73</ele>
        <time>2017-08-07T11:58:29Z</time>
      </trkpt>
      <trkpt lat="42.42821" lon="2.30153">
        <ele>2383.73</ele>
        <time>2017-08-07T11:58:34Z</time>
      </trkpt>
      <trkpt lat="42.42819" lon="2.30147">
        <ele>2383.73</ele>
        <time>2017-08-07T11:58:38Z</time>
      </trkpt>
      <trkpt lat="42.42816" lon="2.30143">
        <ele>2382.28</ele>
        <time>2017-08-07T11:58:42Z</time>
      </trkpt>
      <trkpt lat="42.42814" lon="2.30139">
        <ele>2382.28</ele>
        <time>2017-08-07T11:58:46Z</time>
      </trkpt>
      <trkpt lat="42.42812" lon="2.30136">
        <ele>2382.28</ele>
        <time>2017-08-07T11:58:48Z</time>
      </trkpt>
      <trkpt lat="42.42802" lon="2.30121">
        <ele>2381.8</ele>
        <time>2017-08-07T11:59:01Z</time>
      </trkpt>
      <trkpt lat="42.428" lon="2.30118">
        <ele>2381.8</ele>
        <time>2017-08-07T11:59:03Z</time>
      </trkpt>
      <trkpt lat="42.42795" lon="2.30114">
        <ele>2383.25</ele>
        <time>2017-08-07T11:59:17Z</time>
      </trkpt>
      <trkpt lat="42.42795" lon="2.30115">
        <ele>2383.25</ele>
        <time>2017-08-07T11:59:18Z</time>
      </trkpt>
      <trkpt lat="42.42799" lon="2.30115">
        <ele>2381.32</ele>
        <time>2017-08-07T11:59:31Z</time>
      </trkpt>
      <trkpt lat="42.42801" lon="2.30118">
        <ele>2381.8</ele>
        <time>2017-08-07T11:59:46Z</time>
      </trkpt>
      <trkpt lat="42.42801" lon="2.30117">
        <ele>2381.32</ele>
        <time>2017-08-07T12:00:07Z</time>
      </trkpt>
      <trkpt lat="42.428" lon="2.30116">
        <ele>2380.84</ele>
        <time>2017-08-07T12:00:33Z</time>
      </trkpt>
      <trkpt lat="42.42797" lon="2.30112">
        <ele>2380.84</ele>
        <time>2017-08-07T12:00:52Z</time>
      </trkpt>
      <trkpt lat="42.42786" lon="2.30095">
        <ele>2380.84</ele>
        <time>2017-08-07T12:01:07Z</time>
      </trkpt>
      <trkpt lat="42.42786" lon="2.30094">
        <ele>2380.84</ele>
        <time>2017-08-07T12:01:08Z</time>
      </trkpt>
      <trkpt lat="42.42771" lon="2.30075">
        <ele>2380.36</ele>
        <time>2017-08-07T12:01:27Z</time>
      </trkpt>
      <trkpt lat="42.42763" lon="2.30063">
        <ele>2380.36</ele>
        <time>2017-08-07T12:01:41Z</time>
      </trkpt>
      <trkpt lat="42.42761" lon="2.30063">
        <ele>2380.84</ele>
        <time>2017-08-07T12:01:52Z</time>
      </trkpt>
      <trkpt lat="42.42757" lon="2.30056">
        <ele>2379.88</ele>
        <time>2017-08-07T12:02:07Z</time>
      </trkpt>
      <trkpt lat="42.42756" lon="2.30054">
        <ele>2379.88</ele>
        <time>2017-08-07T12:02:09Z</time>
      </trkpt>
      <trkpt lat="42.42752" lon="2.30046">
        <ele>2379.88</ele>
        <time>2017-08-07T12:02:17Z</time>
      </trkpt>
      <trkpt lat="42.42751" lon="2.30037">
        <ele>2379.88</ele>
        <time>2017-08-07T12:02:33Z</time>
      </trkpt>
      <trkpt lat="42.42749" lon="2.30026">
        <ele>2380.84</ele>
        <time>2017-08-07T12:02:41Z</time>
      </trkpt>
      <trkpt lat="42.42745" lon="2.30015">
        <ele>2381.32</ele>
        <time>2017-08-07T12:02:50Z</time>
      </trkpt>
      <trkpt lat="42.42737" lon="2.29996">
        <ele>2382.28</ele>
        <time>2017-08-07T12:03:04Z</time>
      </trkpt>
      <trkpt lat="42.42724" lon="2.29978">
        <ele>2382.76</ele>
        <time>2017-08-07T12:03:21Z</time>
      </trkpt>
      <trkpt lat="42.42717" lon="2.29951">
        <ele>2383.73</ele>
        <time>2017-08-07T12:03:38Z</time>
      </trkpt>
      <trkpt lat="42.42712" lon="2.29937">
        <ele>2384.21</ele>
        <time>2017-08-07T12:03:48Z</time>
      </trkpt>
      <trkpt lat="42.42712" lon="2.29933">
        <ele>2384.21</ele>
        <time>2017-08-07T12:03:51Z</time>
      </trkpt>
      <trkpt lat="42.4271" lon="2.29911">
        <ele>2384.21</ele>
        <time>2017-08-07T12:04:07Z</time>
      </trkpt>
      <trkpt lat="42.42709" lon="2.29901">
        <ele>2384.21</ele>
        <time>2017-08-07T12:04:15Z</time>
      </trkpt>
      <trkpt lat="42.42702" lon="2.29887">
        <ele>2384.21</ele>
        <time>2017-08-07T12:04:27Z</time>
      </trkpt>
      <trkpt lat="42.42699" lon="2.29884">
        <ele>2384.21</ele>
        <time>2017-08-07T12:04:30Z</time>
      </trkpt>
      <trkpt lat="42.42698" lon="2.2988">
        <ele>2384.21</ele>
        <time>2017-08-07T12:04:32Z</time>
      </trkpt>
      <trkpt lat="42.42698" lon="2.29878">
        <ele>2384.21</ele>
        <time>2017-08-07T12:04:34Z</time>
      </trkpt>
      <trkpt lat="42.42697" lon="2.29862">
        <ele>2384.21</ele>
        <time>2017-08-07T12:04:45Z</time>
      </trkpt>
      <trkpt lat="42.42695" lon="2.29858">
        <ele>2384.21</ele>
        <time>2017-08-07T12:04:49Z</time>
      </trkpt>
      <trkpt lat="42.42693" lon="2.29855">
        <ele>2384.21</ele>
        <time>2017-08-07T12:04:53Z</time>
      </trkpt>
      <trkpt lat="42.42693" lon="2.29838">
        <ele>2382.28</ele>
        <time>2017-08-07T12:05:07Z</time>
      </trkpt>
      <trkpt lat="42.42693" lon="2.29836">
        <ele>2383.73</ele>
        <time>2017-08-07T12:05:09Z</time>
      </trkpt>
      <trkpt lat="42.42693" lon="2.29835">
        <ele>2384.69</ele>
        <time>2017-08-07T12:05:22Z</time>
      </trkpt>
      <trkpt lat="42.42694" lon="2.29835">
        <ele>2383.25</ele>
        <time>2017-08-07T12:05:36Z</time>
      </trkpt>
      <trkpt lat="42.42694" lon="2.29835">
        <ele>2383.25</ele>
        <time>2017-08-07T12:05:37Z</time>
      </trkpt>
      <trkpt lat="42.42694" lon="2.29835">
        <ele>2383.25</ele>
        <time>2017-08-07T12:06:21Z</time>
      </trkpt>
      <trkpt lat="42.42693" lon="2.29834">
        <ele>2383.25</ele>
        <time>2017-08-07T12:06:46Z</time>
      </trkpt>
      <trkpt lat="42.42692" lon="2.29834">
        <ele>2383.25</ele>
        <time>2017-08-07T12:07:02Z</time>
      </trkpt>
      <trkpt lat="42.42693" lon="2.29834">
        <ele>2382.76</ele>
        <time>2017-08-07T12:07:15Z</time>
      </trkpt>
      <trkpt lat="42.42693" lon="2.29834">
        <ele>2384.21</ele>
        <time>2017-08-07T12:07:28Z</time>
      </trkpt>
      <trkpt lat="42.42692" lon="2.29837">
        <ele>2384.21</ele>
        <time>2017-08-07T12:07:42Z</time>
      </trkpt>
      <trkpt lat="42.42692" lon="2.29836">
        <ele>2383.25</ele>
        <time>2017-08-07T12:07:54Z</time>
      </trkpt>
      <trkpt lat="42.42693" lon="2.29834">
        <ele>2383.25</ele>
        <time>2017-08-07T12:07:56Z</time>
      </trkpt>
      <trkpt lat="42.42697" lon="2.29818">
        <ele>2384.69</ele>
        <time>2017-08-07T12:08:10Z</time>
      </trkpt>
      <trkpt lat="42.427" lon="2.29809">
        <ele>2384.69</ele>
        <time>2017-08-07T12:08:23Z</time>
      </trkpt>
      <trkpt lat="42.42701" lon="2.298">
        <ele>2384.69</ele>
        <time>2017-08-07T12:08:37Z</time>
      </trkpt>
      <trkpt lat="42.42703" lon="2.29795">
        <ele>2384.69</ele>
        <time>2017-08-07T12:08:50Z</time>
      </trkpt>
      <trkpt lat="42.42705" lon="2.29794">
        <ele>2384.69</ele>
        <time>2017-08-07T12:09:08Z</time>
      </trkpt>
      <trkpt lat="42.42707" lon="2.29779">
        <ele>2384.69</ele>
        <time>2017-08-07T12:09:22Z</time>
      </trkpt>
      <trkpt lat="42.42709" lon="2.29761">
        <ele>2384.69</ele>
        <time>2017-08-07T12:09:35Z</time>
      </trkpt>
      <trkpt lat="42.42715" lon="2.29735">
        <ele>2385.17</ele>
        <time>2017-08-07T12:09:52Z</time>
      </trkpt>
      <trkpt lat="42.42715" lon="2.29714">
        <ele>2385.65</ele>
        <time>2017-08-07T12:10:06Z</time>
      </trkpt>
      <trkpt lat="42.42719" lon="2.29687">
        <ele>2385.65</ele>
        <time>2017-08-07T12:10:24Z</time>
      </trkpt>
      <trkpt lat="42.42722" lon="2.29658">
        <ele>2386.13</ele>
        <time>2017-08-07T12:10:42Z</time>
      </trkpt>
      <trkpt lat="42.42722" lon="2.29644">
        <ele>2386.13</ele>
        <time>2017-08-07T12:10:50Z</time>
      </trkpt>
      <trkpt lat="42.42727" lon="2.29614">
        <ele>2386.13</ele>
        <time>2017-08-07T12:11:08Z</time>
      </trkpt>
      <trkpt lat="42.42737" lon="2.29583">
        <ele>2386.13</ele>
        <time>2017-08-07T12:11:27Z</time>
      </trkpt>
      <trkpt lat="42.4274" lon="2.29567">
        <ele>2386.61</ele>
        <time>2017-08-07T12:11:37Z</time>
      </trkpt>
      <trkpt lat="42.42744" lon="2.29537">
        <ele>2388.05</ele>
        <time>2017-08-07T12:11:57Z</time>
      </trkpt>
      <trkpt lat="42.42747" lon="2.29503">
        <ele>2388.05</ele>
        <time>2017-08-07T12:12:17Z</time>
      </trkpt>
      <trkpt lat="42.42755" lon="2.2948">
        <ele>2388.53</ele>
        <time>2017-08-07T12:12:32Z</time>
      </trkpt>
      <trkpt lat="42.42766" lon="2.29455">
        <ele>2388.53</ele>
        <time>2017-08-07T12:12:49Z</time>
      </trkpt>
      <trkpt lat="42.42774" lon="2.29433">
        <ele>2389.49</ele>
        <time>2017-08-07T12:13:05Z</time>
      </trkpt>
      <trkpt lat="42.42779" lon="2.29421">
        <ele>2389.97</ele>
        <time>2017-08-07T12:13:12Z</time>
      </trkpt>
      <trkpt lat="42.42786" lon="2.29395">
        <ele>2390.94</ele>
        <time>2017-08-07T12:13:29Z</time>
      </trkpt>
      <trkpt lat="42.42793" lon="2.29364">
        <ele>2391.42</ele>
        <time>2017-08-07T12:13:47Z</time>
      </trkpt>
      <trkpt lat="42.428" lon="2.29339">
        <ele>2391.9</ele>
        <time>2017-08-07T12:14:02Z</time>
      </trkpt>
      <trkpt lat="42.4281" lon="2.29308">
        <ele>2392.86</ele>
        <time>2017-08-07T12:14:20Z</time>
      </trkpt>
      <trkpt lat="42.42819" lon="2.29279">
        <ele>2393.82</ele>
        <time>2017-08-07T12:14:38Z</time>
      </trkpt>
      <trkpt lat="42.42823" lon="2.29269">
        <ele>2393.82</ele>
        <time>2017-08-07T12:14:46Z</time>
      </trkpt>
      <trkpt lat="42.4283" lon="2.29256">
        <ele>2393.82</ele>
        <time>2017-08-07T12:14:54Z</time>
      </trkpt>
      <trkpt lat="42.4283" lon="2.29253">
        <ele>2393.82</ele>
        <time>2017-08-07T12:14:56Z</time>
      </trkpt>
      <trkpt lat="42.42839" lon="2.29222">
        <ele>2394.78</ele>
        <time>2017-08-07T12:15:14Z</time>
      </trkpt>
      <trkpt lat="42.42847" lon="2.29191">
        <ele>2394.78</ele>
        <time>2017-08-07T12:15:32Z</time>
      </trkpt>
      <trkpt lat="42.42858" lon="2.2917">
        <ele>2395.26</ele>
        <time>2017-08-07T12:15:46Z</time>
      </trkpt>
      <trkpt lat="42.42869" lon="2.29145">
        <ele>2395.74</ele>
        <time>2017-08-07T12:16:03Z</time>
      </trkpt>
      <trkpt lat="42.42879" lon="2.29122">
        <ele>2396.22</ele>
        <time>2017-08-07T12:16:20Z</time>
      </trkpt>
      <trkpt lat="42.42887" lon="2.29103">
        <ele>2396.7</ele>
        <time>2017-08-07T12:16:34Z</time>
      </trkpt>
      <trkpt lat="42.42897" lon="2.29078">
        <ele>2397.67</ele>
        <time>2017-08-07T12:16:51Z</time>
      </trkpt>
      <trkpt lat="42.42904" lon="2.29048">
        <ele>2398.63</ele>
        <time>2017-08-07T12:17:11Z</time>
      </trkpt>
      <trkpt lat="42.42917" lon="2.2902">
        <ele>2399.59</ele>
        <time>2017-08-07T12:17:31Z</time>
      </trkpt>
      <trkpt lat="42.42928" lon="2.28993">
        <ele>2400.55</ele>
        <time>2017-08-07T12:17:50Z</time>
      </trkpt>
      <trkpt lat="42.4293" lon="2.28991">
        <ele>2400.07</ele>
        <time>2017-08-07T12:18:02Z</time>
      </trkpt>
      <trkpt lat="42.42932" lon="2.28985">
        <ele>2400.07</ele>
        <time>2017-08-07T12:18:16Z</time>
      </trkpt>
      <trkpt lat="42.42942" lon="2.28955">
        <ele>2401.99</ele>
        <time>2017-08-07T12:18:35Z</time>
      </trkpt>
      <trkpt lat="42.42951" lon="2.28933">
        <ele>2402.95</ele>
        <time>2017-08-07T12:18:51Z</time>
      </trkpt>
      <trkpt lat="42.42963" lon="2.28909">
        <ele>2403.43</ele>
        <time>2017-08-07T12:19:07Z</time>
      </trkpt>
      <trkpt lat="42.42976" lon="2.28877">
        <ele>2403.43</ele>
        <time>2017-08-07T12:19:27Z</time>
      </trkpt>
      <trkpt lat="42.42979" lon="2.28868">
        <ele>2401.99</ele>
        <time>2017-08-07T12:19:32Z</time>
      </trkpt>
      <trkpt lat="42.42984" lon="2.28855">
        <ele>2401.99</ele>
        <time>2017-08-07T12:19:43Z</time>
      </trkpt>
      <trkpt lat="42.42997" lon="2.2882">
        <ele>2401.51</ele>
        <time>2017-08-07T12:20:04Z</time>
      </trkpt>
      <trkpt lat="42.43001" lon="2.28806">
        <ele>2401.51</ele>
        <time>2017-08-07T12:20:12Z</time>
      </trkpt>
      <trkpt lat="42.43008" lon="2.28773">
        <ele>2401.51</ele>
        <time>2017-08-07T12:20:31Z</time>
      </trkpt>
      <trkpt lat="42.43012" lon="2.2874">
        <ele>2401.51</ele>
        <time>2017-08-07T12:20:49Z</time>
      </trkpt>
      <trkpt lat="42.43018" lon="2.28708">
        <ele>2401.51</ele>
        <time>2017-08-07T12:21:07Z</time>
      </trkpt>
      <trkpt lat="42.43022" lon="2.28682">
        <ele>2402.47</ele>
        <time>2017-08-07T12:21:22Z</time>
      </trkpt>
      <trkpt lat="42.43026" lon="2.2865">
        <ele>2402.47</ele>
        <time>2017-08-07T12:21:40Z</time>
      </trkpt>
      <trkpt lat="42.4303" lon="2.28617">
        <ele>2403.43</ele>
        <time>2017-08-07T12:21:59Z</time>
      </trkpt>
      <trkpt lat="42.4303" lon="2.2861">
        <ele>2402.47</ele>
        <time>2017-08-07T12:22:03Z</time>
      </trkpt>
      <trkpt lat="42.43032" lon="2.2858">
        <ele>2403.43</ele>
        <time>2017-08-07T12:22:20Z</time>
      </trkpt>
      <trkpt lat="42.43034" lon="2.28552">
        <ele>2403.43</ele>
        <time>2017-08-07T12:22:37Z</time>
      </trkpt>
      <trkpt lat="42.43034" lon="2.28546">
        <ele>2401.99</ele>
        <time>2017-08-07T12:22:43Z</time>
      </trkpt>
      <trkpt lat="42.43035" lon="2.28542">
        <ele>2403.43</ele>
        <time>2017-08-07T12:22:46Z</time>
      </trkpt>
      <trkpt lat="42.43038" lon="2.28518">
        <ele>2401.99</ele>
        <time>2017-08-07T12:23:01Z</time>
      </trkpt>
      <trkpt lat="42.43036" lon="2.28491">
        <ele>2401.03</ele>
        <time>2017-08-07T12:23:17Z</time>
      </trkpt>
      <trkpt lat="42.43035" lon="2.28468">
        <ele>2401.03</ele>
        <time>2017-08-07T12:23:30Z</time>
      </trkpt>
      <trkpt lat="42.43032" lon="2.28444">
        <ele>2400.07</ele>
        <time>2017-08-07T12:23:45Z</time>
      </trkpt>
      <trkpt lat="42.43029" lon="2.28423">
        <ele>2398.15</ele>
        <time>2017-08-07T12:23:58Z</time>
      </trkpt>
      <trkpt lat="42.43028" lon="2.28418">
        <ele>2398.15</ele>
        <time>2017-08-07T12:24:13Z</time>
      </trkpt>
      <trkpt lat="42.43028" lon="2.28418">
        <ele>2399.11</ele>
        <time>2017-08-07T12:24:25Z</time>
      </trkpt>
      <trkpt lat="42.4303" lon="2.28417">
        <ele>2397.67</ele>
        <time>2017-08-07T12:24:44Z</time>
      </trkpt>
      <trkpt lat="42.43029" lon="2.28415">
        <ele>2397.18</ele>
        <time>2017-08-07T12:24:59Z</time>
      </trkpt>
      <trkpt lat="42.43029" lon="2.28415">
        <ele>2398.63</ele>
        <time>2017-08-07T12:25:02Z</time>
      </trkpt>
      <trkpt lat="42.43029" lon="2.28416">
        <ele>2399.11</ele>
        <time>2017-08-07T12:25:22Z</time>
      </trkpt>
      <trkpt lat="42.43029" lon="2.28416">
        <ele>2397.18</ele>
        <time>2017-08-07T12:25:28Z</time>
      </trkpt>
      <trkpt lat="42.4303" lon="2.28416">
        <ele>2398.63</ele>
        <time>2017-08-07T12:25:38Z</time>
      </trkpt>
      <trkpt lat="42.43031" lon="2.28417">
        <ele>2398.63</ele>
        <time>2017-08-07T12:25:59Z</time>
      </trkpt>
      <trkpt lat="42.43031" lon="2.28415">
        <ele>2398.63</ele>
        <time>2017-08-07T12:26:11Z</time>
      </trkpt>
      <trkpt lat="42.43029" lon="2.28418">
        <ele>2397.18</ele>
        <time>2017-08-07T12:26:29Z</time>
      </trkpt>
      <trkpt lat="42.43029" lon="2.28418">
        <ele>2397.18</ele>
        <time>2017-08-07T12:26:46Z</time>
      </trkpt>
      <trkpt lat="42.4303" lon="2.28419">
        <ele>2397.18</ele>
        <time>2017-08-07T12:26:56Z</time>
      </trkpt>
      <trkpt lat="42.43029" lon="2.28421">
        <ele>2397.18</ele>
        <time>2017-08-07T12:27:12Z</time>
      </trkpt>
      <trkpt lat="42.43031" lon="2.28418">
        <ele>2396.7</ele>
        <time>2017-08-07T12:27:41Z</time>
      </trkpt>
      <trkpt lat="42.43032" lon="2.28417">
        <ele>2396.7</ele>
        <time>2017-08-07T12:28:03Z</time>
      </trkpt>
      <trkpt lat="42.43035" lon="2.2842">
        <ele>2396.7</ele>
        <time>2017-08-07T12:28:20Z</time>
      </trkpt>
      <trkpt lat="42.43033" lon="2.28421">
        <ele>2396.7</ele>
        <time>2017-08-07T12:28:44Z</time>
      </trkpt>
      <trkpt lat="42.43032" lon="2.28422">
        <ele>2396.7</ele>
        <time>2017-08-07T12:29:09Z</time>
      </trkpt>
      <trkpt lat="42.43032" lon="2.28419">
        <ele>2396.7</ele>
        <time>2017-08-07T12:29:40Z</time>
      </trkpt>
      <trkpt lat="42.43032" lon="2.28419">
        <ele>2398.15</ele>
        <time>2017-08-07T12:29:52Z</time>
      </trkpt>
      <trkpt lat="42.43032" lon="2.28418">
        <ele>2398.15</ele>
        <time>2017-08-07T12:30:23Z</time>
      </trkpt>
      <trkpt lat="42.43032" lon="2.28416">
        <ele>2397.18</ele>
        <time>2017-08-07T12:30:56Z</time>
      </trkpt>
      <trkpt lat="42.43031" lon="2.28416">
        <ele>2397.18</ele>
        <time>2017-08-07T12:31:23Z</time>
      </trkpt>
      <trkpt lat="42.4303" lon="2.28415">
        <ele>2399.11</ele>
        <time>2017-08-07T12:31:47Z</time>
      </trkpt>
      <trkpt lat="42.43029" lon="2.28413">
        <ele>2397.18</ele>
        <time>2017-08-07T12:32:08Z</time>
      </trkpt>
      <trkpt lat="42.43029" lon="2.28413">
        <ele>2397.67</ele>
        <time>2017-08-07T12:32:32Z</time>
      </trkpt>
      <trkpt lat="42.43028" lon="2.28414">
        <ele>2397.18</ele>
        <time>2017-08-07T12:32:52Z</time>
      </trkpt>
      <trkpt lat="42.43028" lon="2.28414">
        <ele>2398.63</ele>
        <time>2017-08-07T12:33:00Z</time>
      </trkpt>
      <trkpt lat="42.43028" lon="2.28415">
        <ele>2399.11</ele>
        <time>2017-08-07T12:33:18Z</time>
      </trkpt>
      <trkpt lat="42.43028" lon="2.28414">
        <ele>2399.11</ele>
        <time>2017-08-07T12:33:41Z</time>
      </trkpt>
      <trkpt lat="42.43028" lon="2.28413">
        <ele>2397.67</ele>
        <time>2017-08-07T12:34:01Z</time>
      </trkpt>
      <trkpt lat="42.43028" lon="2.28414">
        <ele>2396.7</ele>
        <time>2017-08-07T12:34:30Z</time>
      </trkpt>
      <trkpt lat="42.43028" lon="2.28415">
        <ele>2396.22</ele>
        <time>2017-08-07T12:34:50Z</time>
      </trkpt>
      <trkpt lat="42.43029" lon="2.28414">
        <ele>2397.18</ele>
        <time>2017-08-07T12:35:14Z</time>
      </trkpt>
      <trkpt lat="42.4303" lon="2.28408">
        <ele>2396.22</ele>
        <time>2017-08-07T12:35:21Z</time>
      </trkpt>
      <trkpt lat="42.43031" lon="2.28399">
        <ele>2394.3</ele>
        <time>2017-08-07T12:35:31Z</time>
      </trkpt>
      <trkpt lat="42.43033" lon="2.2839">
        <ele>2393.82</ele>
        <time>2017-08-07T12:35:38Z</time>
      </trkpt>
      <trkpt lat="42.43033" lon="2.28386">
        <ele>2393.34</ele>
        <time>2017-08-07T12:35:41Z</time>
      </trkpt>
      <trkpt lat="42.43033" lon="2.28382">
        <ele>2393.34</ele>
        <time>2017-08-07T12:35:44Z</time>
      </trkpt>
      <trkpt lat="42.43032" lon="2.28375">
        <ele>2390.94</ele>
        <time>2017-08-07T12:35:49Z</time>
      </trkpt>
      <trkpt lat="42.43032" lon="2.28371">
        <ele>2390.94</ele>
        <time>2017-08-07T12:35:53Z</time>
      </trkpt>
      <trkpt lat="42.43031" lon="2.28364">
        <ele>2390.94</ele>
        <time>2017-08-07T12:35:57Z</time>
      </trkpt>
      <trkpt lat="42.43031" lon="2.28362">
        <ele>2392.38</ele>
        <time>2017-08-07T12:35:59Z</time>
      </trkpt>
      <trkpt lat="42.4303" lon="2.28355">
        <ele>2390.46</ele>
        <time>2017-08-07T12:36:04Z</time>
      </trkpt>
      <trkpt lat="42.43029" lon="2.28342">
        <ele>2390.46</ele>
        <time>2017-08-07T12:36:13Z</time>
      </trkpt>
      <trkpt lat="42.43025" lon="2.28322">
        <ele>2389.49</ele>
        <time>2017-08-07T12:36:27Z</time>
      </trkpt>
      <trkpt lat="42.43024" lon="2.28316">
        <ele>2389.49</ele>
        <time>2017-08-07T12:36:31Z</time>
      </trkpt>
      <trkpt lat="42.43023" lon="2.28312">
        <ele>2389.49</ele>
        <time>2017-08-07T12:36:34Z</time>
      </trkpt>
      <trkpt lat="42.43021" lon="2.283">
        <ele>2389.49</ele>
        <time>2017-08-07T12:36:42Z</time>
      </trkpt>
      <trkpt lat="42.43019" lon="2.28296">
        <ele>2387.57</ele>
        <time>2017-08-07T12:36:45Z</time>
      </trkpt>
      <trkpt lat="42.43018" lon="2.28285">
        <ele>2388.05</ele>
        <time>2017-08-07T12:36:52Z</time>
      </trkpt>
      <trkpt lat="42.43015" lon="2.28258">
        <ele>2386.61</ele>
        <time>2017-08-07T12:37:09Z</time>
      </trkpt>
      <trkpt lat="42.43011" lon="2.28234">
        <ele>2385.65</ele>
        <time>2017-08-07T12:37:24Z</time>
      </trkpt>
      <trkpt lat="42.43011" lon="2.28228">
        <ele>2382.76</ele>
        <time>2017-08-07T12:37:28Z</time>
      </trkpt>
      <trkpt lat="42.43007" lon="2.28203">
        <ele>2381.8</ele>
        <time>2017-08-07T12:37:45Z</time>
      </trkpt>
      <trkpt lat="42.43002" lon="2.28175">
        <ele>2381.32</ele>
        <time>2017-08-07T12:38:03Z</time>
      </trkpt>
      <trkpt lat="42.42996" lon="2.28148">
        <ele>2378.44</ele>
        <time>2017-08-07T12:38:20Z</time>
      </trkpt>
      <trkpt lat="42.42987" lon="2.2812">
        <ele>2377</ele>
        <time>2017-08-07T12:38:38Z</time>
      </trkpt>
      <trkpt lat="42.42987" lon="2.28117">
        <ele>2378.44</ele>
        <time>2017-08-07T12:38:40Z</time>
      </trkpt>
      <trkpt lat="42.42985" lon="2.28108">
        <ele>2378.44</ele>
        <time>2017-08-07T12:38:46Z</time>
      </trkpt>
      <trkpt lat="42.42984" lon="2.28102">
        <ele>2377</ele>
        <time>2017-08-07T12:38:50Z</time>
      </trkpt>
      <trkpt lat="42.42979" lon="2.28076">
        <ele>2377.96</ele>
        <time>2017-08-07T12:39:07Z</time>
      </trkpt>
      <trkpt lat="42.42978" lon="2.28073">
        <ele>2377</ele>
        <time>2017-08-07T12:39:09Z</time>
      </trkpt>
      <trkpt lat="42.42973" lon="2.28063">
        <ele>2376.52</ele>
        <time>2017-08-07T12:39:22Z</time>
      </trkpt>
      <trkpt lat="42.42972" lon="2.28061">
        <ele>2377.96</ele>
        <time>2017-08-07T12:39:24Z</time>
      </trkpt>
      <trkpt lat="42.4297" lon="2.28052">
        <ele>2377</ele>
        <time>2017-08-07T12:39:33Z</time>
      </trkpt>
      <trkpt lat="42.42974" lon="2.28025">
        <ele>2377.96</ele>
        <time>2017-08-07T12:39:51Z</time>
      </trkpt>
      <trkpt lat="42.42975" lon="2.28023">
        <ele>2377.96</ele>
        <time>2017-08-07T12:39:53Z</time>
      </trkpt>
      <trkpt lat="42.42981" lon="2.28015">
        <ele>2377.96</ele>
        <time>2017-08-07T12:40:02Z</time>
      </trkpt>
      <trkpt lat="42.42982" lon="2.28009">
        <ele>2376.52</ele>
        <time>2017-08-07T12:40:06Z</time>
      </trkpt>
      <trkpt lat="42.42984" lon="2.28004">
        <ele>2377.96</ele>
        <time>2017-08-07T12:40:09Z</time>
      </trkpt>
      <trkpt lat="42.42995" lon="2.27984">
        <ele>2377.96</ele>
        <time>2017-08-07T12:40:25Z</time>
      </trkpt>
      <trkpt lat="42.43006" lon="2.27962">
        <ele>2379.88</ele>
        <time>2017-08-07T12:40:42Z</time>
      </trkpt>
      <trkpt lat="42.43014" lon="2.27944">
        <ele>2381.8</ele>
        <time>2017-08-07T12:40:57Z</time>
      </trkpt>
      <trkpt lat="42.43022" lon="2.27929">
        <ele>2383.73</ele>
        <time>2017-08-07T12:41:12Z</time>
      </trkpt>
      <trkpt lat="42.43031" lon="2.27914">
        <ele>2385.17</ele>
        <time>2017-08-07T12:41:27Z</time>
      </trkpt>
      <trkpt lat="42.43038" lon="2.27897">
        <ele>2386.61</ele>
        <time>2017-08-07T12:41:43Z</time>
      </trkpt>
      <trkpt lat="42.43043" lon="2.27884">
        <ele>2388.53</ele>
        <time>2017-08-07T12:41:59Z</time>
      </trkpt>
      <trkpt lat="42.43051" lon="2.27873">
        <ele>2390.46</ele>
        <time>2017-08-07T12:42:15Z</time>
      </trkpt>
      <trkpt lat="42.43057" lon="2.27862">
        <ele>2391.9</ele>
        <time>2017-08-07T12:42:30Z</time>
      </trkpt>
      <trkpt lat="42.43065" lon="2.2785">
        <ele>2393.82</ele>
        <time>2017-08-07T12:42:47Z</time>
      </trkpt>
      <trkpt lat="42.43073" lon="2.2784">
        <ele>2395.74</ele>
        <time>2017-08-07T12:43:04Z</time>
      </trkpt>
      <trkpt lat="42.43083" lon="2.27832">
        <ele>2397.67</ele>
        <time>2017-08-07T12:43:20Z</time>
      </trkpt>
      <trkpt lat="42.43092" lon="2.27824">
        <ele>2400.07</ele>
        <time>2017-08-07T12:43:35Z</time>
      </trkpt>
      <trkpt lat="42.43102" lon="2.27816">
        <ele>2403.43</ele>
        <time>2017-08-07T12:43:53Z</time>
      </trkpt>
      <trkpt lat="42.43111" lon="2.27811">
        <ele>2405.84</ele>
        <time>2017-08-07T12:44:09Z</time>
      </trkpt>
      <trkpt lat="42.43113" lon="2.2781">
        <ele>2407.76</ele>
        <time>2017-08-07T12:44:12Z</time>
      </trkpt>
      <trkpt lat="42.4312" lon="2.27803">
        <ele>2410.16</ele>
        <time>2017-08-07T12:44:28Z</time>
      </trkpt>
      <trkpt lat="42.43125" lon="2.27794">
        <ele>2411.12</ele>
        <time>2017-08-07T12:44:42Z</time>
      </trkpt>
      <trkpt lat="42.43126" lon="2.27792">
        <ele>2409.2</ele>
        <time>2017-08-07T12:44:44Z</time>
      </trkpt>
      <trkpt lat="42.43128" lon="2.27784">
        <ele>2413.53</ele>
        <time>2017-08-07T12:44:52Z</time>
      </trkpt>
      <trkpt lat="42.43129" lon="2.2778">
        <ele>2412.09</ele>
        <time>2017-08-07T12:44:55Z</time>
      </trkpt>
      <trkpt lat="42.4313" lon="2.27776">
        <ele>2413.53</ele>
        <time>2017-08-07T12:44:59Z</time>
      </trkpt>
      <trkpt lat="42.43133" lon="2.27768">
        <ele>2410.64</ele>
        <time>2017-08-07T12:45:14Z</time>
      </trkpt>
      <trkpt lat="42.43133" lon="2.27766">
        <ele>2413.05</ele>
        <time>2017-08-07T12:45:17Z</time>
      </trkpt>
      <trkpt lat="42.43132" lon="2.27763">
        <ele>2412.57</ele>
        <time>2017-08-07T12:45:32Z</time>
      </trkpt>
      <trkpt lat="42.43134" lon="2.2776">
        <ele>2414.49</ele>
        <time>2017-08-07T12:45:35Z</time>
      </trkpt>
      <trkpt lat="42.43134" lon="2.27759">
        <ele>2414.49</ele>
        <time>2017-08-07T12:45:36Z</time>
      </trkpt>
      <trkpt lat="42.43138" lon="2.27748">
        <ele>2417.37</ele>
        <time>2017-08-07T12:45:48Z</time>
      </trkpt>
      <trkpt lat="42.43144" lon="2.27735">
        <ele>2419.3</ele>
        <time>2017-08-07T12:45:59Z</time>
      </trkpt>
      <trkpt lat="42.43151" lon="2.27716">
        <ele>2422.18</ele>
        <time>2017-08-07T12:46:14Z</time>
      </trkpt>
      <trkpt lat="42.43161" lon="2.27696">
        <ele>2424.1</ele>
        <time>2017-08-07T12:46:31Z</time>
      </trkpt>
      <trkpt lat="42.43171" lon="2.27681">
        <ele>2426.02</ele>
        <time>2017-08-07T12:46:45Z</time>
      </trkpt>
      <trkpt lat="42.43182" lon="2.27666">
        <ele>2428.43</ele>
        <time>2017-08-07T12:46:59Z</time>
      </trkpt>
      <trkpt lat="42.43184" lon="2.27661">
        <ele>2428.43</ele>
        <time>2017-08-07T12:47:04Z</time>
      </trkpt>
      <trkpt lat="42.43185" lon="2.27657">
        <ele>2425.54</ele>
        <time>2017-08-07T12:47:07Z</time>
      </trkpt>
      <trkpt lat="42.43187" lon="2.27654">
        <ele>2427.95</ele>
        <time>2017-08-07T12:47:10Z</time>
      </trkpt>
      <trkpt lat="42.43191" lon="2.27631">
        <ele>2427.47</ele>
        <time>2017-08-07T12:47:28Z</time>
      </trkpt>
      <trkpt lat="42.43191" lon="2.27628">
        <ele>2428.91</ele>
        <time>2017-08-07T12:47:30Z</time>
      </trkpt>
      <trkpt lat="42.43199" lon="2.27604">
        <ele>2429.39</ele>
        <time>2017-08-07T12:47:46Z</time>
      </trkpt>
      <trkpt lat="42.43203" lon="2.27599">
        <ele>2427.95</ele>
        <time>2017-08-07T12:47:59Z</time>
      </trkpt>
      <trkpt lat="42.43203" lon="2.27599">
        <ele>2429.39</ele>
        <time>2017-08-07T12:48:01Z</time>
      </trkpt>
      <trkpt lat="42.43203" lon="2.27598">
        <ele>2428.91</ele>
        <time>2017-08-07T12:48:30Z</time>
      </trkpt>
      <trkpt lat="42.43204" lon="2.27599">
        <ele>2427.47</ele>
        <time>2017-08-07T12:48:50Z</time>
      </trkpt>
      <trkpt lat="42.43205" lon="2.27595">
        <ele>2429.39</ele>
        <time>2017-08-07T12:48:54Z</time>
      </trkpt>
      <trkpt lat="42.43206" lon="2.27589">
        <ele>2427.95</ele>
        <time>2017-08-07T12:48:59Z</time>
      </trkpt>
      <trkpt lat="42.43206" lon="2.27588">
        <ele>2426.99</ele>
        <time>2017-08-07T12:49:00Z</time>
      </trkpt>
      <trkpt lat="42.43206" lon="2.27585">
        <ele>2425.54</ele>
        <time>2017-08-07T12:49:02Z</time>
      </trkpt>
      <trkpt lat="42.43206" lon="2.27583">
        <ele>2428.91</ele>
        <time>2017-08-07T12:49:04Z</time>
      </trkpt>
      <trkpt lat="42.43206" lon="2.27581">
        <ele>2428.91</ele>
        <time>2017-08-07T12:49:05Z</time>
      </trkpt>
      <trkpt lat="42.43209" lon="2.27567">
        <ele>2427.47</ele>
        <time>2017-08-07T12:49:17Z</time>
      </trkpt>
      <trkpt lat="42.43209" lon="2.27562">
        <ele>2427.47</ele>
        <time>2017-08-07T12:49:26Z</time>
      </trkpt>
      <trkpt lat="42.43206" lon="2.27556">
        <ele>2429.39</ele>
        <time>2017-08-07T12:49:38Z</time>
      </trkpt>
      <trkpt lat="42.43208" lon="2.27554">
        <ele>2429.87</ele>
        <time>2017-08-07T12:49:53Z</time>
      </trkpt>
      <trkpt lat="42.43208" lon="2.27555">
        <ele>2428.91</ele>
        <time>2017-08-07T12:49:56Z</time>
      </trkpt>
      <trkpt lat="42.43206" lon="2.27555">
        <ele>2428.91</ele>
        <time>2017-08-07T12:50:09Z</time>
      </trkpt>
      <trkpt lat="42.43206" lon="2.27556">
        <ele>2428.91</ele>
        <time>2017-08-07T12:50:15Z</time>
      </trkpt>
      <trkpt lat="42.43207" lon="2.27555">
        <ele>2426.5</ele>
        <time>2017-08-07T12:50:24Z</time>
      </trkpt>
      <trkpt lat="42.43208" lon="2.27553">
        <ele>2428.91</ele>
        <time>2017-08-07T12:50:26Z</time>
      </trkpt>
      <trkpt lat="42.43211" lon="2.27551">
        <ele>2427.47</ele>
        <time>2017-08-07T12:50:31Z</time>
      </trkpt>
      <trkpt lat="42.43217" lon="2.27527">
        <ele>2426.5</ele>
        <time>2017-08-07T12:50:49Z</time>
      </trkpt>
      <trkpt lat="42.43217" lon="2.27523">
        <ele>2425.54</ele>
        <time>2017-08-07T12:50:52Z</time>
      </trkpt>
      <trkpt lat="42.43224" lon="2.27499">
        <ele>2425.54</ele>
        <time>2017-08-07T12:51:09Z</time>
      </trkpt>
      <trkpt lat="42.43224" lon="2.27495">
        <ele>2424.1</ele>
        <time>2017-08-07T12:51:12Z</time>
      </trkpt>
      <trkpt lat="42.43229" lon="2.27485">
        <ele>2423.62</ele>
        <time>2017-08-07T12:51:20Z</time>
      </trkpt>
      <trkpt lat="42.43239" lon="2.27458">
        <ele>2422.18</ele>
        <time>2017-08-07T12:51:40Z</time>
      </trkpt>
      <trkpt lat="42.43241" lon="2.27446">
        <ele>2417.85</ele>
        <time>2017-08-07T12:51:50Z</time>
      </trkpt>
      <trkpt lat="42.43241" lon="2.27446">
        <ele>2417.85</ele>
        <time>2017-08-07T12:51:51Z</time>
      </trkpt>
      <trkpt lat="42.43241" lon="2.2744">
        <ele>2422.18</ele>
        <time>2017-08-07T12:52:06Z</time>
      </trkpt>
      <trkpt lat="42.43246" lon="2.27434">
        <ele>2422.18</ele>
        <time>2017-08-07T12:52:13Z</time>
      </trkpt>
      <trkpt lat="42.43248" lon="2.27432">
        <ele>2420.74</ele>
        <time>2017-08-07T12:52:15Z</time>
      </trkpt>
      <trkpt lat="42.43258" lon="2.27419">
        <ele>2418.33</ele>
        <time>2017-08-07T12:52:30Z</time>
      </trkpt>
      <trkpt lat="42.43266" lon="2.27407">
        <ele>2415.45</ele>
        <time>2017-08-07T12:52:45Z</time>
      </trkpt>
      <trkpt lat="42.43268" lon="2.27402">
        <ele>2414.49</ele>
        <time>2017-08-07T12:52:49Z</time>
      </trkpt>
      <trkpt lat="42.43273" lon="2.27386">
        <ele>2414.49</ele>
        <time>2017-08-07T12:53:04Z</time>
      </trkpt>
      <trkpt lat="42.43276" lon="2.27383">
        <ele>2413.05</ele>
        <time>2017-08-07T12:53:07Z</time>
      </trkpt>
      <trkpt lat="42.4328" lon="2.27375">
        <ele>2411.12</ele>
        <time>2017-08-07T12:53:16Z</time>
      </trkpt>
      <trkpt lat="42.43281" lon="2.27373">
        <ele>2409.2</ele>
        <time>2017-08-07T12:53:18Z</time>
      </trkpt>
      <trkpt lat="42.4329" lon="2.27365">
        <ele>2411.6</ele>
        <time>2017-08-07T12:53:32Z</time>
      </trkpt>
      <trkpt lat="42.4329" lon="2.27362">
        <ele>2411.12</ele>
        <time>2017-08-07T12:53:46Z</time>
      </trkpt>
      <trkpt lat="42.43291" lon="2.27365">
        <ele>2412.57</ele>
        <time>2017-08-07T12:53:51Z</time>
      </trkpt>
      <trkpt lat="42.43295" lon="2.27367">
        <ele>2407.76</ele>
        <time>2017-08-07T12:54:05Z</time>
      </trkpt>
      <trkpt lat="42.43294" lon="2.27367">
        <ele>2405.36</ele>
        <time>2017-08-07T12:54:07Z</time>
      </trkpt>
      <trkpt lat="42.43295" lon="2.27367">
        <ele>2407.28</ele>
        <time>2017-08-07T12:54:11Z</time>
      </trkpt>
      <trkpt lat="42.43293" lon="2.27368">
        <ele>2405.84</ele>
        <time>2017-08-07T12:54:19Z</time>
      </trkpt>
      <trkpt lat="42.43293" lon="2.27368">
        <ele>2409.68</ele>
        <time>2017-08-07T12:54:25Z</time>
      </trkpt>
      <trkpt lat="42.43294" lon="2.27368">
        <ele>2410.16</ele>
        <time>2017-08-07T12:54:27Z</time>
      </trkpt>
      <trkpt lat="42.43295" lon="2.27366">
        <ele>2408.24</ele>
        <time>2017-08-07T12:54:42Z</time>
      </trkpt>
      <trkpt lat="42.43293" lon="2.27366">
        <ele>2405.84</ele>
        <time>2017-08-07T12:54:47Z</time>
      </trkpt>
      <trkpt lat="42.43293" lon="2.27366">
        <ele>2404.88</ele>
        <time>2017-08-07T12:54:51Z</time>
      </trkpt>
      <trkpt lat="42.43293" lon="2.27367">
        <ele>2407.28</ele>
        <time>2017-08-07T12:54:53Z</time>
      </trkpt>
      <trkpt lat="42.43293" lon="2.27367">
        <ele>2408.24</ele>
        <time>2017-08-07T12:54:58Z</time>
      </trkpt>
      <trkpt lat="42.43294" lon="2.27367">
        <ele>2406.8</ele>
        <time>2017-08-07T12:55:02Z</time>
      </trkpt>
      <trkpt lat="42.43293" lon="2.27367">
        <ele>2408.24</ele>
        <time>2017-08-07T12:55:04Z</time>
      </trkpt>
      <trkpt lat="42.43293" lon="2.27367">
        <ele>2408.24</ele>
        <time>2017-08-07T12:55:19Z</time>
      </trkpt>
      <trkpt lat="42.43295" lon="2.27366">
        <ele>2408.24</ele>
        <time>2017-08-07T12:56:01Z</time>
      </trkpt>
      <trkpt lat="42.43295" lon="2.27365">
        <ele>2411.12</ele>
        <time>2017-08-07T12:56:39Z</time>
      </trkpt>
      <trkpt lat="42.43297" lon="2.27364">
        <ele>2410.64</ele>
        <time>2017-08-07T12:56:59Z</time>
      </trkpt>
      <trkpt lat="42.43296" lon="2.27365">
        <ele>2411.6</ele>
        <time>2017-08-07T12:57:20Z</time>
      </trkpt>
      <trkpt lat="42.43296" lon="2.27365">
        <ele>2410.16</ele>
        <time>2017-08-07T12:57:37Z</time>
      </trkpt>
      <trkpt lat="42.43296" lon="2.27364">
        <ele>2410.16</ele>
        <time>2017-08-07T12:58:11Z</time>
      </trkpt>
      <trkpt lat="42.43296" lon="2.27364">
        <ele>2413.05</ele>
        <time>2017-08-07T12:58:26Z</time>
      </trkpt>
      <trkpt lat="42.43296" lon="2.27364">
        <ele>2413.05</ele>
        <time>2017-08-07T12:58:27Z</time>
      </trkpt>
      <trkpt lat="42.43296" lon="2.27365">
        <ele>2411.6</ele>
        <time>2017-08-07T12:59:02Z</time>
      </trkpt>
      <trkpt lat="42.43296" lon="2.27365">
        <ele>2411.6</ele>
        <time>2017-08-07T12:59:40Z</time>
      </trkpt>
      <trkpt lat="42.43296" lon="2.27365">
        <ele>2412.09</ele>
        <time>2017-08-07T12:59:56Z</time>
      </trkpt>
      <trkpt lat="42.43298" lon="2.27365">
        <ele>2413.53</ele>
        <time>2017-08-07T13:00:21Z</time>
      </trkpt>
      <trkpt lat="42.43296" lon="2.27364">
        <ele>2414.97</ele>
        <time>2017-08-07T13:00:55Z</time>
      </trkpt>
      <trkpt lat="42.43296" lon="2.27364">
        <ele>2414.97</ele>
        <time>2017-08-07T13:01:11Z</time>
      </trkpt>
      <trkpt lat="42.43295" lon="2.27363">
        <ele>2414.01</ele>
        <time>2017-08-07T13:01:45Z</time>
      </trkpt>
      <trkpt lat="42.43296" lon="2.27365">
        <ele>2412.57</ele>
        <time>2017-08-07T13:02:21Z</time>
      </trkpt>
      <trkpt lat="42.43297" lon="2.27366">
        <ele>2411.12</ele>
        <time>2017-08-07T13:03:01Z</time>
      </trkpt>
      <trkpt lat="42.43297" lon="2.27364">
        <ele>2410.64</ele>
        <time>2017-08-07T13:03:35Z</time>
      </trkpt>
      <trkpt lat="42.43296" lon="2.27365">
        <ele>2408.24</ele>
        <time>2017-08-07T13:03:55Z</time>
      </trkpt>
      <trkpt lat="42.43295" lon="2.27365">
        <ele>2410.16</ele>
        <time>2017-08-07T13:03:58Z</time>
      </trkpt>
      <trkpt lat="42.43294" lon="2.27364">
        <ele>2408.24</ele>
        <time>2017-08-07T13:04:04Z</time>
      </trkpt>
      <trkpt lat="42.43294" lon="2.27364">
        <ele>2409.68</ele>
        <time>2017-08-07T13:04:11Z</time>
      </trkpt>
      <trkpt lat="42.43294" lon="2.27366">
        <ele>2408.24</ele>
        <time>2017-08-07T13:04:14Z</time>
      </trkpt>
      <trkpt lat="42.43294" lon="2.27365">
        <ele>2411.12</ele>
        <time>2017-08-07T13:04:19Z</time>
      </trkpt>
      <trkpt lat="42.43294" lon="2.27365">
        <ele>2411.12</ele>
        <time>2017-08-07T13:04:20Z</time>
      </trkpt>
      <trkpt lat="42.43293" lon="2.27364">
        <ele>2410.16</ele>
        <time>2017-08-07T13:04:38Z</time>
      </trkpt>
      <trkpt lat="42.43293" lon="2.27364">
        <ele>2408.72</ele>
        <time>2017-08-07T13:04:40Z</time>
      </trkpt>
      <trkpt lat="42.43293" lon="2.27365">
        <ele>2407.76</ele>
        <time>2017-08-07T13:04:43Z</time>
      </trkpt>
      <trkpt lat="42.43293" lon="2.27367">
        <ele>2411.6</ele>
        <time>2017-08-07T13:05:01Z</time>
      </trkpt>
      <trkpt lat="42.43293" lon="2.27367">
        <ele>2407.28</ele>
        <time>2017-08-07T13:05:03Z</time>
      </trkpt>
      <trkpt lat="42.43293" lon="2.27367">
        <ele>2410.64</ele>
        <time>2017-08-07T13:05:04Z</time>
      </trkpt>
      <trkpt lat="42.43293" lon="2.27367">
        <ele>2410.64</ele>
        <time>2017-08-07T13:05:05Z</time>
      </trkpt>
      <trkpt lat="42.43293" lon="2.27368">
        <ele>2409.68</ele>
        <time>2017-08-07T13:05:14Z</time>
      </trkpt>
      <trkpt lat="42.43291" lon="2.27367">
        <ele>2406.8</ele>
        <time>2017-08-07T13:05:26Z</time>
      </trkpt>
      <trkpt lat="42.43292" lon="2.27367">
        <ele>2410.16</ele>
        <time>2017-08-07T13:05:27Z</time>
      </trkpt>
      <trkpt lat="42.43291" lon="2.27366">
        <ele>2412.09</ele>
        <time>2017-08-07T13:05:35Z</time>
      </trkpt>
      <trkpt lat="42.4329" lon="2.27365">
        <ele>2404.88</ele>
        <time>2017-08-07T13:05:37Z</time>
      </trkpt>
      <trkpt lat="42.4329" lon="2.27364">
        <ele>2404.88</ele>
        <time>2017-08-07T13:05:38Z</time>
      </trkpt>
      <trkpt lat="42.43289" lon="2.27363">
        <ele>2407.28</ele>
        <time>2017-08-07T13:05:44Z</time>
      </trkpt>
      <trkpt lat="42.43289" lon="2.27363">
        <ele>2405.84</ele>
        <time>2017-08-07T13:05:46Z</time>
      </trkpt>
      <trkpt lat="42.43289" lon="2.27363">
        <ele>2406.8</ele>
        <time>2017-08-07T13:05:48Z</time>
      </trkpt>
      <trkpt lat="42.43289" lon="2.27362">
        <ele>2413.05</ele>
        <time>2017-08-07T13:05:50Z</time>
      </trkpt>
      <trkpt lat="42.43289" lon="2.27362">
        <ele>2413.05</ele>
        <time>2017-08-07T13:05:51Z</time>
      </trkpt>
      <trkpt lat="42.43288" lon="2.27361">
        <ele>2407.28</ele>
        <time>2017-08-07T13:05:53Z</time>
      </trkpt>
      <trkpt lat="42.43287" lon="2.27362">
        <ele>2413.05</ele>
        <time>2017-08-07T13:05:54Z</time>
      </trkpt>
      <trkpt lat="42.43285" lon="2.27363">
        <ele>2408.72</ele>
        <time>2017-08-07T13:05:58Z</time>
      </trkpt>
      <trkpt lat="42.43285" lon="2.27366">
        <ele>2408.72</ele>
        <time>2017-08-07T13:06:16Z</time>
      </trkpt>
      <trkpt lat="42.43285" lon="2.27365">
        <ele>2410.16</ele>
        <time>2017-08-07T13:06:28Z</time>
      </trkpt>
      <trkpt lat="42.43285" lon="2.27365">
        <ele>2409.2</ele>
        <time>2017-08-07T13:06:30Z</time>
      </trkpt>
      <trkpt lat="42.43285" lon="2.27364">
        <ele>2411.12</ele>
        <time>2017-08-07T13:06:36Z</time>
      </trkpt>
      <trkpt lat="42.43285" lon="2.27363">
        <ele>2409.2</ele>
        <time>2017-08-07T13:06:39Z</time>
      </trkpt>
      <trkpt lat="42.43285" lon="2.27363">
        <ele>2406.8</ele>
        <time>2017-08-07T13:06:47Z</time>
      </trkpt>
      <trkpt lat="42.43285" lon="2.27364">
        <ele>2408.24</ele>
        <time>2017-08-07T13:06:56Z</time>
      </trkpt>
      <trkpt lat="42.43286" lon="2.27365">
        <ele>2406.32</ele>
        <time>2017-08-07T13:06:58Z</time>
      </trkpt>
      <trkpt lat="42.43283" lon="2.27365">
        <ele>2409.2</ele>
        <time>2017-08-07T13:07:03Z</time>
      </trkpt>
      <trkpt lat="42.43282" lon="2.27366">
        <ele>2406.8</ele>
        <time>2017-08-07T13:07:05Z</time>
      </trkpt>
      <trkpt lat="42.43281" lon="2.27365">
        <ele>2406.8</ele>
        <time>2017-08-07T13:07:26Z</time>
      </trkpt>
      <trkpt lat="42.43283" lon="2.27364">
        <ele>2408.72</ele>
        <time>2017-08-07T13:07:30Z</time>
      </trkpt>
      <trkpt lat="42.43289" lon="2.27365">
        <ele>2408.24</ele>
        <time>2017-08-07T13:07:43Z</time>
      </trkpt>
      <trkpt lat="42.43294" lon="2.27365">
        <ele>2405.84</ele>
        <time>2017-08-07T13:07:56Z</time>
      </trkpt>
      <trkpt lat="42.43292" lon="2.27365">
        <ele>2407.76</ele>
        <time>2017-08-07T13:08:01Z</time>
      </trkpt>
      <trkpt lat="42.43292" lon="2.27366">
        <ele>2406.8</ele>
        <time>2017-08-07T13:08:08Z</time>
      </trkpt>
      <trkpt lat="42.43292" lon="2.27367">
        <ele>2407.28</ele>
        <time>2017-08-07T13:08:21Z</time>
      </trkpt>
      <trkpt lat="42.43292" lon="2.27367">
        <ele>2406.32</ele>
        <time>2017-08-07T13:08:39Z</time>
      </trkpt>
      <trkpt lat="42.43292" lon="2.27366">
        <ele>2406.32</ele>
        <time>2017-08-07T13:09:04Z</time>
      </trkpt>
      <trkpt lat="42.43291" lon="2.27365">
        <ele>2404.88</ele>
        <time>2017-08-07T13:09:08Z</time>
      </trkpt>
      <trkpt lat="42.43292" lon="2.27365">
        <ele>2405.84</ele>
        <time>2017-08-07T13:09:12Z</time>
      </trkpt>
      <trkpt lat="42.43294" lon="2.27365">
        <ele>2406.32</ele>
        <time>2017-08-07T13:09:28Z</time>
      </trkpt>
      <trkpt lat="42.43296" lon="2.27368">
        <ele>2405.36</ele>
        <time>2017-08-07T13:09:41Z</time>
      </trkpt>
      <trkpt lat="42.43303" lon="2.27372">
        <ele>2401.99</ele>
        <time>2017-08-07T13:09:57Z</time>
      </trkpt>
      <trkpt lat="42.43304" lon="2.27378">
        <ele>2400.07</ele>
        <time>2017-08-07T13:10:08Z</time>
      </trkpt>
      <trkpt lat="42.43305" lon="2.27382">
        <ele>2398.63</ele>
        <time>2017-08-07T13:10:18Z</time>
      </trkpt>
      <trkpt lat="42.43311" lon="2.27392">
        <ele>2396.22</ele>
        <time>2017-08-07T13:10:31Z</time>
      </trkpt>
      <trkpt lat="42.43319" lon="2.27392">
        <ele>2392.38</ele>
        <time>2017-08-07T13:10:44Z</time>
      </trkpt>
      <trkpt lat="42.43327" lon="2.27394">
        <ele>2390.46</ele>
        <time>2017-08-07T13:10:56Z</time>
      </trkpt>
      <trkpt lat="42.43334" lon="2.27402">
        <ele>2387.09</ele>
        <time>2017-08-07T13:11:11Z</time>
      </trkpt>
      <trkpt lat="42.43343" lon="2.27407">
        <ele>2384.69</ele>
        <time>2017-08-07T13:11:25Z</time>
      </trkpt>
      <trkpt lat="42.43349" lon="2.27408">
        <ele>2383.25</ele>
        <time>2017-08-07T13:11:37Z</time>
      </trkpt>
      <trkpt lat="42.43354" lon="2.27408">
        <ele>2381.32</ele>
        <time>2017-08-07T13:11:48Z</time>
      </trkpt>
      <trkpt lat="42.43359" lon="2.27408">
        <ele>2379.88</ele>
        <time>2017-08-07T13:11:59Z</time>
      </trkpt>
      <trkpt lat="42.43362" lon="2.27407">
        <ele>2377.48</ele>
        <time>2017-08-07T13:12:12Z</time>
      </trkpt>
      <trkpt lat="42.43366" lon="2.27411">
        <ele>2376.04</ele>
        <time>2017-08-07T13:12:25Z</time>
      </trkpt>
      <trkpt lat="42.43371" lon="2.27415">
        <ele>2373.15</ele>
        <time>2017-08-07T13:12:37Z</time>
      </trkpt>
      <trkpt lat="42.43377" lon="2.27419">
        <ele>2370.27</ele>
        <time>2017-08-07T13:12:49Z</time>
      </trkpt>
      <trkpt lat="42.43383" lon="2.27424">
        <ele>2367.86</ele>
        <time>2017-08-07T13:13:03Z</time>
      </trkpt>
      <trkpt lat="42.43385" lon="2.27418">
        <ele>2364.98</ele>
        <time>2017-08-07T13:13:14Z</time>
      </trkpt>
      <trkpt lat="42.43387" lon="2.27419">
        <ele>2364.98</ele>
        <time>2017-08-07T13:13:28Z</time>
      </trkpt>
      <trkpt lat="42.43391" lon="2.27426">
        <ele>2363.06</ele>
        <time>2017-08-07T13:13:39Z</time>
      </trkpt>
      <trkpt lat="42.43397" lon="2.27419">
        <ele>2360.17</ele>
        <time>2017-08-07T13:13:54Z</time>
      </trkpt>
      <trkpt lat="42.43401" lon="2.27425">
        <ele>2357.77</ele>
        <time>2017-08-07T13:14:07Z</time>
      </trkpt>
      <trkpt lat="42.43402" lon="2.27432">
        <ele>2355.85</ele>
        <time>2017-08-07T13:14:19Z</time>
      </trkpt>
      <trkpt lat="42.43401" lon="2.27436">
        <ele>2355.37</ele>
        <time>2017-08-07T13:14:31Z</time>
      </trkpt>
      <trkpt lat="42.43407" lon="2.27438">
        <ele>2353.44</ele>
        <time>2017-08-07T13:14:43Z</time>
      </trkpt>
      <trkpt lat="42.43409" lon="2.27446">
        <ele>2351.04</ele>
        <time>2017-08-07T13:14:57Z</time>
      </trkpt>
      <trkpt lat="42.43414" lon="2.27454">
        <ele>2348.16</ele>
        <time>2017-08-07T13:15:09Z</time>
      </trkpt>
      <trkpt lat="42.43418" lon="2.27465">
        <ele>2345.75</ele>
        <time>2017-08-07T13:15:23Z</time>
      </trkpt>
      <trkpt lat="42.43422" lon="2.27473">
        <ele>2343.83</ele>
        <time>2017-08-07T13:15:36Z</time>
      </trkpt>
      <trkpt lat="42.43426" lon="2.27478">
        <ele>2340.47</ele>
        <time>2017-08-07T13:15:47Z</time>
      </trkpt>
      <trkpt lat="42.43432" lon="2.27478">
        <ele>2339.51</ele>
        <time>2017-08-07T13:15:59Z</time>
      </trkpt>
      <trkpt lat="42.43439" lon="2.27484">
        <ele>2336.14</ele>
        <time>2017-08-07T13:16:13Z</time>
      </trkpt>
      <trkpt lat="42.43445" lon="2.27493">
        <ele>2333.26</ele>
        <time>2017-08-07T13:16:28Z</time>
      </trkpt>
      <trkpt lat="42.43452" lon="2.27491">
        <ele>2330.37</ele>
        <time>2017-08-07T13:16:41Z</time>
      </trkpt>
      <trkpt lat="42.43457" lon="2.27491">
        <ele>2327.49</ele>
        <time>2017-08-07T13:16:54Z</time>
      </trkpt>
      <trkpt lat="42.43457" lon="2.2749">
        <ele>2327.49</ele>
        <time>2017-08-07T13:16:55Z</time>
      </trkpt>
      <trkpt lat="42.43461" lon="2.27489">
        <ele>2325.09</ele>
        <time>2017-08-07T13:17:10Z</time>
      </trkpt>
      <trkpt lat="42.43469" lon="2.27486">
        <ele>2322.68</ele>
        <time>2017-08-07T13:17:23Z</time>
      </trkpt>
      <trkpt lat="42.43467" lon="2.27485">
        <ele>2322.2</ele>
        <time>2017-08-07T13:17:38Z</time>
      </trkpt>
      <trkpt lat="42.43475" lon="2.27484">
        <ele>2320.76</ele>
        <time>2017-08-07T13:17:52Z</time>
      </trkpt>
      <trkpt lat="42.43481" lon="2.27484">
        <ele>2317.88</ele>
        <time>2017-08-07T13:18:02Z</time>
      </trkpt>
      <trkpt lat="42.43488" lon="2.27483">
        <ele>2315.95</ele>
        <time>2017-08-07T13:18:14Z</time>
      </trkpt>
      <trkpt lat="42.43492" lon="2.27489">
        <ele>2314.03</ele>
        <time>2017-08-07T13:18:26Z</time>
      </trkpt>
      <trkpt lat="42.43496" lon="2.27494">
        <ele>2312.11</ele>
        <time>2017-08-07T13:18:40Z</time>
      </trkpt>
      <trkpt lat="42.43506" lon="2.27493">
        <ele>2308.74</ele>
        <time>2017-08-07T13:18:54Z</time>
      </trkpt>
      <trkpt lat="42.43511" lon="2.275">
        <ele>2305.86</ele>
        <time>2017-08-07T13:19:06Z</time>
      </trkpt>
      <trkpt lat="42.43519" lon="2.27507">
        <ele>2302.49</ele>
        <time>2017-08-07T13:19:19Z</time>
      </trkpt>
      <trkpt lat="42.43524" lon="2.27516">
        <ele>2300.57</ele>
        <time>2017-08-07T13:19:33Z</time>
      </trkpt>
      <trkpt lat="42.43524" lon="2.27525">
        <ele>2298.17</ele>
        <time>2017-08-07T13:19:46Z</time>
      </trkpt>
      <trkpt lat="42.43524" lon="2.27522">
        <ele>2298.17</ele>
        <time>2017-08-07T13:20:07Z</time>
      </trkpt>
      <trkpt lat="42.43526" lon="2.27521">
        <ele>2297.69</ele>
        <time>2017-08-07T13:20:24Z</time>
      </trkpt>
      <trkpt lat="42.43528" lon="2.27521">
        <ele>2296.73</ele>
        <time>2017-08-07T13:20:41Z</time>
      </trkpt>
      <trkpt lat="42.43529" lon="2.27523">
        <ele>2296.25</ele>
        <time>2017-08-07T13:21:11Z</time>
      </trkpt>
      <trkpt lat="42.43531" lon="2.27521">
        <ele>2296.25</ele>
        <time>2017-08-07T13:21:35Z</time>
      </trkpt>
      <trkpt lat="42.4353" lon="2.27521">
        <ele>2297.69</ele>
        <time>2017-08-07T13:21:59Z</time>
      </trkpt>
      <trkpt lat="42.4353" lon="2.27522">
        <ele>2296.73</ele>
        <time>2017-08-07T13:22:24Z</time>
      </trkpt>
      <trkpt lat="42.43528" lon="2.2752">
        <ele>2296.73</ele>
        <time>2017-08-07T13:22:49Z</time>
      </trkpt>
      <trkpt lat="42.43529" lon="2.2752">
        <ele>2296.73</ele>
        <time>2017-08-07T13:23:18Z</time>
      </trkpt>
      <trkpt lat="42.4353" lon="2.27522">
        <ele>2297.69</ele>
        <time>2017-08-07T13:23:42Z</time>
      </trkpt>
      <trkpt lat="42.43526" lon="2.27522">
        <ele>2297.69</ele>
        <time>2017-08-07T13:24:09Z</time>
      </trkpt>
      <trkpt lat="42.43525" lon="2.27521">
        <ele>2297.69</ele>
        <time>2017-08-07T13:24:35Z</time>
      </trkpt>
      <trkpt lat="42.43526" lon="2.27522">
        <ele>2297.69</ele>
        <time>2017-08-07T13:24:52Z</time>
      </trkpt>
      <trkpt lat="42.43528" lon="2.2752">
        <ele>2298.17</ele>
        <time>2017-08-07T13:25:15Z</time>
      </trkpt>
      <trkpt lat="42.43527" lon="2.27522">
        <ele>2298.65</ele>
        <time>2017-08-07T13:25:38Z</time>
      </trkpt>
      <trkpt lat="42.43534" lon="2.27521">
        <ele>2297.21</ele>
        <time>2017-08-07T13:25:49Z</time>
      </trkpt>
      <trkpt lat="42.43539" lon="2.27531">
        <ele>2293.36</ele>
        <time>2017-08-07T13:26:02Z</time>
      </trkpt>
      <trkpt lat="42.43547" lon="2.27537">
        <ele>2290</ele>
        <time>2017-08-07T13:26:17Z</time>
      </trkpt>
      <trkpt lat="42.43551" lon="2.27543">
        <ele>2288.08</ele>
        <time>2017-08-07T13:26:28Z</time>
      </trkpt>
      <trkpt lat="42.4356" lon="2.27552">
        <ele>2284.71</ele>
        <time>2017-08-07T13:26:43Z</time>
      </trkpt>
      <trkpt lat="42.43572" lon="2.27558">
        <ele>2282.31</ele>
        <time>2017-08-07T13:26:58Z</time>
      </trkpt>
      <trkpt lat="42.43577" lon="2.27562">
        <ele>2280.87</ele>
        <time>2017-08-07T13:27:06Z</time>
      </trkpt>
      <trkpt lat="42.43585" lon="2.27572">
        <ele>2278.46</ele>
        <time>2017-08-07T13:27:21Z</time>
      </trkpt>
      <trkpt lat="42.43595" lon="2.27581">
        <ele>2275.1</ele>
        <time>2017-08-07T13:27:37Z</time>
      </trkpt>
      <trkpt lat="42.43605" lon="2.27586">
        <ele>2273.17</ele>
        <time>2017-08-07T13:27:54Z</time>
      </trkpt>
      <trkpt lat="42.43611" lon="2.27591">
        <ele>2271.73</ele>
        <time>2017-08-07T13:28:03Z</time>
      </trkpt>
      <trkpt lat="42.43622" lon="2.27596">
        <ele>2269.33</ele>
        <time>2017-08-07T13:28:18Z</time>
      </trkpt>
      <trkpt lat="42.43627" lon="2.27597">
        <ele>2267.89</ele>
        <time>2017-08-07T13:28:29Z</time>
      </trkpt>
      <trkpt lat="42.43639" lon="2.27603">
        <ele>2265</ele>
        <time>2017-08-07T13:28:44Z</time>
      </trkpt>
      <trkpt lat="42.43649" lon="2.27609">
        <ele>2262.6</ele>
        <time>2017-08-07T13:28:58Z</time>
      </trkpt>
      <trkpt lat="42.43655" lon="2.27608">
        <ele>2261.64</ele>
        <time>2017-08-07T13:29:15Z</time>
      </trkpt>
      <trkpt lat="42.43659" lon="2.27606">
        <ele>2261.16</ele>
        <time>2017-08-07T13:29:41Z</time>
      </trkpt>
      <trkpt lat="42.43664" lon="2.27607">
        <ele>2260.2</ele>
        <time>2017-08-07T13:29:48Z</time>
      </trkpt>
      <trkpt lat="42.43674" lon="2.27609">
        <ele>2258.27</ele>
        <time>2017-08-07T13:30:01Z</time>
      </trkpt>
      <trkpt lat="42.43683" lon="2.27614">
        <ele>2255.87</ele>
        <time>2017-08-07T13:30:14Z</time>
      </trkpt>
      <trkpt lat="42.43693" lon="2.27619">
        <ele>2253.95</ele>
        <time>2017-08-07T13:30:29Z</time>
      </trkpt>
      <trkpt lat="42.437" lon="2.27624">
        <ele>2252.99</ele>
        <time>2017-08-07T13:30:45Z</time>
      </trkpt>
      <trkpt lat="42.4371" lon="2.27632">
        <ele>2250.58</ele>
        <time>2017-08-07T13:30:59Z</time>
      </trkpt>
      <trkpt lat="42.43711" lon="2.27635">
        <ele>2250.1</ele>
        <time>2017-08-07T13:31:02Z</time>
      </trkpt>
      <trkpt lat="42.43726" lon="2.27642">
        <ele>2247.7</ele>
        <time>2017-08-07T13:31:18Z</time>
      </trkpt>
      <trkpt lat="42.43727" lon="2.27644">
        <ele>2247.22</ele>
        <time>2017-08-07T13:31:20Z</time>
      </trkpt>
      <trkpt lat="42.43736" lon="2.27657">
        <ele>2245.3</ele>
        <time>2017-08-07T13:31:35Z</time>
      </trkpt>
      <trkpt lat="42.43751" lon="2.27659">
        <ele>2242.89</ele>
        <time>2017-08-07T13:31:49Z</time>
      </trkpt>
      <trkpt lat="42.43755" lon="2.27663">
        <ele>2242.41</ele>
        <time>2017-08-07T13:32:01Z</time>
      </trkpt>
      <trkpt lat="42.4376" lon="2.27667">
        <ele>2241.45</ele>
        <time>2017-08-07T13:32:12Z</time>
      </trkpt>
      <trkpt lat="42.43771" lon="2.27669">
        <ele>2240.01</ele>
        <time>2017-08-07T13:32:25Z</time>
      </trkpt>
      <trkpt lat="42.43783" lon="2.27674">
        <ele>2238.09</ele>
        <time>2017-08-07T13:32:38Z</time>
      </trkpt>
      <trkpt lat="42.43792" lon="2.27678">
        <ele>2236.16</ele>
        <time>2017-08-07T13:32:54Z</time>
      </trkpt>
      <trkpt lat="42.43799" lon="2.27685">
        <ele>2234.72</ele>
        <time>2017-08-07T13:33:04Z</time>
      </trkpt>
      <trkpt lat="42.43807" lon="2.27693">
        <ele>2232.32</ele>
        <time>2017-08-07T13:33:19Z</time>
      </trkpt>
      <trkpt lat="42.43811" lon="2.277">
        <ele>2230.88</ele>
        <time>2017-08-07T13:33:36Z</time>
      </trkpt>
      <trkpt lat="42.43816" lon="2.27704">
        <ele>2229.43</ele>
        <time>2017-08-07T13:33:44Z</time>
      </trkpt>
      <trkpt lat="42.43826" lon="2.27708">
        <ele>2227.03</ele>
        <time>2017-08-07T13:33:57Z</time>
      </trkpt>
      <trkpt lat="42.43833" lon="2.27712">
        <ele>2226.55</ele>
        <time>2017-08-07T13:34:14Z</time>
      </trkpt>
      <trkpt lat="42.4384" lon="2.27717">
        <ele>2225.11</ele>
        <time>2017-08-07T13:34:28Z</time>
      </trkpt>
      <trkpt lat="42.43843" lon="2.27719">
        <ele>2225.11</ele>
        <time>2017-08-07T13:34:33Z</time>
      </trkpt>
      <trkpt lat="42.43855" lon="2.27728">
        <ele>2221.74</ele>
        <time>2017-08-07T13:34:49Z</time>
      </trkpt>
      <trkpt lat="42.43866" lon="2.27736">
        <ele>2219.34</ele>
        <time>2017-08-07T13:35:04Z</time>
      </trkpt>
      <trkpt lat="42.43879" lon="2.27738">
        <ele>2216.94</ele>
        <time>2017-08-07T13:35:18Z</time>
      </trkpt>
      <trkpt lat="42.43887" lon="2.27748">
        <ele>2215.01</ele>
        <time>2017-08-07T13:35:32Z</time>
      </trkpt>
      <trkpt lat="42.43893" lon="2.27749">
        <ele>2214.53</ele>
        <time>2017-08-07T13:35:44Z</time>
      </trkpt>
      <trkpt lat="42.43904" lon="2.27762">
        <ele>2210.69</ele>
        <time>2017-08-07T13:36:01Z</time>
      </trkpt>
      <trkpt lat="42.43914" lon="2.27771">
        <ele>2208.29</ele>
        <time>2017-08-07T13:36:16Z</time>
      </trkpt>
      <trkpt lat="42.43915" lon="2.27775">
        <ele>2207.81</ele>
        <time>2017-08-07T13:36:28Z</time>
      </trkpt>
      <trkpt lat="42.43921" lon="2.2778">
        <ele>2206.36</ele>
        <time>2017-08-07T13:36:41Z</time>
      </trkpt>
      <trkpt lat="42.43933" lon="2.27787">
        <ele>2203.96</ele>
        <time>2017-08-07T13:36:57Z</time>
      </trkpt>
      <trkpt lat="42.43946" lon="2.27797">
        <ele>2202.04</ele>
        <time>2017-08-07T13:37:13Z</time>
      </trkpt>
      <trkpt lat="42.4395" lon="2.27799">
        <ele>2201.56</ele>
        <time>2017-08-07T13:37:17Z</time>
      </trkpt>
      <trkpt lat="42.4396" lon="2.27806">
        <ele>2199.15</ele>
        <time>2017-08-07T13:37:29Z</time>
      </trkpt>
      <trkpt lat="42.43961" lon="2.27808">
        <ele>2199.15</ele>
        <time>2017-08-07T13:37:31Z</time>
      </trkpt>
      <trkpt lat="42.4397" lon="2.27822">
        <ele>2196.75</ele>
        <time>2017-08-07T13:37:46Z</time>
      </trkpt>
      <trkpt lat="42.4398" lon="2.27835">
        <ele>2194.35</ele>
        <time>2017-08-07T13:38:01Z</time>
      </trkpt>
      <trkpt lat="42.4399" lon="2.27844">
        <ele>2191.46</ele>
        <time>2017-08-07T13:38:15Z</time>
      </trkpt>
      <trkpt lat="42.44" lon="2.27857">
        <ele>2189.06</ele>
        <time>2017-08-07T13:38:32Z</time>
      </trkpt>
      <trkpt lat="42.4401" lon="2.27868">
        <ele>2185.69</ele>
        <time>2017-08-07T13:38:48Z</time>
      </trkpt>
      <trkpt lat="42.44015" lon="2.27881">
        <ele>2182.33</ele>
        <time>2017-08-07T13:39:02Z</time>
      </trkpt>
      <trkpt lat="42.44024" lon="2.27891">
        <ele>2180.41</ele>
        <time>2017-08-07T13:39:16Z</time>
      </trkpt>
      <trkpt lat="42.44027" lon="2.27893">
        <ele>2179.45</ele>
        <time>2017-08-07T13:39:19Z</time>
      </trkpt>
      <trkpt lat="42.44036" lon="2.27903">
        <ele>2177.04</ele>
        <time>2017-08-07T13:39:34Z</time>
      </trkpt>
      <trkpt lat="42.44038" lon="2.27907">
        <ele>2176.56</ele>
        <time>2017-08-07T13:39:39Z</time>
      </trkpt>
      <trkpt lat="42.4405" lon="2.27913">
        <ele>2173.68</ele>
        <time>2017-08-07T13:39:55Z</time>
      </trkpt>
      <trkpt lat="42.44063" lon="2.27917">
        <ele>2171.76</ele>
        <time>2017-08-07T13:40:08Z</time>
      </trkpt>
      <trkpt lat="42.44071" lon="2.27924">
        <ele>2168.87</ele>
        <time>2017-08-07T13:40:22Z</time>
      </trkpt>
      <trkpt lat="42.44081" lon="2.27928">
        <ele>2165.99</ele>
        <time>2017-08-07T13:40:37Z</time>
      </trkpt>
      <trkpt lat="42.44088" lon="2.27932">
        <ele>2164.06</ele>
        <time>2017-08-07T13:40:50Z</time>
      </trkpt>
      <trkpt lat="42.44095" lon="2.27933">
        <ele>2161.18</ele>
        <time>2017-08-07T13:41:03Z</time>
      </trkpt>
      <trkpt lat="42.441" lon="2.27939">
        <ele>2159.26</ele>
        <time>2017-08-07T13:41:15Z</time>
      </trkpt>
      <trkpt lat="42.44105" lon="2.27943">
        <ele>2158.3</ele>
        <time>2017-08-07T13:41:27Z</time>
      </trkpt>
      <trkpt lat="42.44109" lon="2.27951">
        <ele>2158.3</ele>
        <time>2017-08-07T13:41:39Z</time>
      </trkpt>
      <trkpt lat="42.44115" lon="2.27955">
        <ele>2156.37</ele>
        <time>2017-08-07T13:41:50Z</time>
      </trkpt>
      <trkpt lat="42.44124" lon="2.27966">
        <ele>2153.49</ele>
        <time>2017-08-07T13:42:04Z</time>
      </trkpt>
      <trkpt lat="42.44132" lon="2.2798">
        <ele>2151.57</ele>
        <time>2017-08-07T13:42:19Z</time>
      </trkpt>
      <trkpt lat="42.4414" lon="2.27991">
        <ele>2150.13</ele>
        <time>2017-08-07T13:42:33Z</time>
      </trkpt>
      <trkpt lat="42.44145" lon="2.27996">
        <ele>2147.72</ele>
        <time>2017-08-07T13:42:45Z</time>
      </trkpt>
      <trkpt lat="42.44146" lon="2.27998">
        <ele>2145.8</ele>
        <time>2017-08-07T13:42:57Z</time>
      </trkpt>
      <trkpt lat="42.44147" lon="2.27998">
        <ele>2145.8</ele>
        <time>2017-08-07T13:43:01Z</time>
      </trkpt>
      <trkpt lat="42.44148" lon="2.27998">
        <ele>2149.65</ele>
        <time>2017-08-07T13:43:04Z</time>
      </trkpt>
      <trkpt lat="42.44148" lon="2.27998">
        <ele>2146.28</ele>
        <time>2017-08-07T13:43:05Z</time>
      </trkpt>
      <trkpt lat="42.44147" lon="2.27998">
        <ele>2146.28</ele>
        <time>2017-08-07T13:43:18Z</time>
      </trkpt>
      <trkpt lat="42.44147" lon="2.27998">
        <ele>2146.28</ele>
        <time>2017-08-07T13:43:38Z</time>
      </trkpt>
      <trkpt lat="42.44146" lon="2.27999">
        <ele>2145.32</ele>
        <time>2017-08-07T13:44:03Z</time>
      </trkpt>
      <trkpt lat="42.44144" lon="2.28001">
        <ele>2146.76</ele>
        <time>2017-08-07T13:44:19Z</time>
      </trkpt>
      <trkpt lat="42.44147" lon="2.27997">
        <ele>2146.76</ele>
        <time>2017-08-07T13:44:36Z</time>
      </trkpt>
      <trkpt lat="42.4415" lon="2.27998">
        <ele>2146.28</ele>
        <time>2017-08-07T13:44:59Z</time>
      </trkpt>
      <trkpt lat="42.44149" lon="2.27997">
        <ele>2146.28</ele>
        <time>2017-08-07T13:45:13Z</time>
      </trkpt>
      <trkpt lat="42.44149" lon="2.27996">
        <ele>2145.8</ele>
        <time>2017-08-07T13:45:34Z</time>
      </trkpt>
      <trkpt lat="42.44147" lon="2.27997">
        <ele>2144.84</ele>
        <time>2017-08-07T13:46:01Z</time>
      </trkpt>
      <trkpt lat="42.44142" lon="2.28003">
        <ele>2144.84</ele>
        <time>2017-08-07T13:46:19Z</time>
      </trkpt>
      <trkpt lat="42.44146" lon="2.27998">
        <ele>2144.84</ele>
        <time>2017-08-07T13:46:38Z</time>
      </trkpt>
      <trkpt lat="42.44152" lon="2.27994">
        <ele>2144.84</ele>
        <time>2017-08-07T13:47:11Z</time>
      </trkpt>
      <trkpt lat="42.44152" lon="2.27991">
        <ele>2144.36</ele>
        <time>2017-08-07T13:47:46Z</time>
      </trkpt>
      <trkpt lat="42.44151" lon="2.27997">
        <ele>2144.36</ele>
        <time>2017-08-07T13:48:05Z</time>
      </trkpt>
      <trkpt lat="42.44148" lon="2.28">
        <ele>2144.36</ele>
        <time>2017-08-07T13:48:19Z</time>
      </trkpt>
      <trkpt lat="42.44147" lon="2.27999">
        <ele>2143.88</ele>
        <time>2017-08-07T13:48:32Z</time>
      </trkpt>
      <trkpt lat="42.44146" lon="2.27998">
        <ele>2143.88</ele>
        <time>2017-08-07T13:48:59Z</time>
      </trkpt>
      <trkpt lat="42.44147" lon="2.27998">
        <ele>2143.88</ele>
        <time>2017-08-07T13:49:29Z</time>
      </trkpt>
      <trkpt lat="42.44146" lon="2.27997">
        <ele>2143.88</ele>
        <time>2017-08-07T13:49:56Z</time>
      </trkpt>
      <trkpt lat="42.44145" lon="2.27998">
        <ele>2143.88</ele>
        <time>2017-08-07T13:50:24Z</time>
      </trkpt>
      <trkpt lat="42.44144" lon="2.27997">
        <ele>2143.88</ele>
        <time>2017-08-07T13:51:00Z</time>
      </trkpt>
      <trkpt lat="42.44145" lon="2.27996">
        <ele>2143.88</ele>
        <time>2017-08-07T13:51:30Z</time>
      </trkpt>
      <trkpt lat="42.44146" lon="2.27998">
        <ele>2143.88</ele>
        <time>2017-08-07T13:51:56Z</time>
      </trkpt>
      <trkpt lat="42.44145" lon="2.27999">
        <ele>2143.88</ele>
        <time>2017-08-07T13:52:26Z</time>
      </trkpt>
      <trkpt lat="42.44146" lon="2.27999">
        <ele>2143.88</ele>
        <time>2017-08-07T13:52:51Z</time>
      </trkpt>
      <trkpt lat="42.44146" lon="2.27998">
        <ele>2143.88</ele>
        <time>2017-08-07T13:53:17Z</time>
      </trkpt>
      <trkpt lat="42.44147" lon="2.27998">
        <ele>2143.88</ele>
        <time>2017-08-07T13:53:43Z</time>
      </trkpt>
      <trkpt lat="42.44147" lon="2.27998">
        <ele>2143.88</ele>
        <time>2017-08-07T13:54:14Z</time>
      </trkpt>
      <trkpt lat="42.44147" lon="2.28001">
        <ele>2143.88</ele>
        <time>2017-08-07T13:54:42Z</time>
      </trkpt>
      <trkpt lat="42.44145" lon="2.28">
        <ele>2143.88</ele>
        <time>2017-08-07T13:55:10Z</time>
      </trkpt>
      <trkpt lat="42.44147" lon="2.27998">
        <ele>2143.88</ele>
        <time>2017-08-07T13:55:41Z</time>
      </trkpt>
      <trkpt lat="42.44148" lon="2.27998">
        <ele>2145.32</ele>
        <time>2017-08-07T13:56:03Z</time>
      </trkpt>
      <trkpt lat="42.44149" lon="2.27996">
        <ele>2145.32</ele>
        <time>2017-08-07T13:56:38Z</time>
      </trkpt>
      <trkpt lat="42.44142" lon="2.27998">
        <ele>2145.32</ele>
        <time>2017-08-07T13:57:10Z</time>
      </trkpt>
      <trkpt lat="42.4414" lon="2.27997">
        <ele>2145.32</ele>
        <time>2017-08-07T13:57:40Z</time>
      </trkpt>
      <trkpt lat="42.44145" lon="2.27999">
        <ele>2145.32</ele>
        <time>2017-08-07T13:58:14Z</time>
      </trkpt>
      <trkpt lat="42.44147" lon="2.27997">
        <ele>2143.88</ele>
        <time>2017-08-07T13:58:43Z</time>
      </trkpt>
      <trkpt lat="42.44148" lon="2.27995">
        <ele>2143.88</ele>
        <time>2017-08-07T13:59:15Z</time>
      </trkpt>
      <trkpt lat="42.44151" lon="2.27994">
        <ele>2143.88</ele>
        <time>2017-08-07T13:59:47Z</time>
      </trkpt>
      <trkpt lat="42.44152" lon="2.27995">
        <ele>2143.88</ele>
        <time>2017-08-07T14:00:19Z</time>
      </trkpt>
      <trkpt lat="42.44147" lon="2.27996">
        <ele>2143.4</ele>
        <time>2017-08-07T14:00:55Z</time>
      </trkpt>
      <trkpt lat="42.44147" lon="2.27996">
        <ele>2143.4</ele>
        <time>2017-08-07T14:01:24Z</time>
      </trkpt>
      <trkpt lat="42.44146" lon="2.27996">
        <ele>2144.84</ele>
        <time>2017-08-07T14:01:55Z</time>
      </trkpt>
      <trkpt lat="42.44145" lon="2.28">
        <ele>2144.84</ele>
        <time>2017-08-07T14:02:25Z</time>
      </trkpt>
      <trkpt lat="42.44147" lon="2.27997">
        <ele>2144.84</ele>
        <time>2017-08-07T14:02:51Z</time>
      </trkpt>
      <trkpt lat="42.44147" lon="2.27996">
        <ele>2144.84</ele>
        <time>2017-08-07T14:03:22Z</time>
      </trkpt>
      <trkpt lat="42.44147" lon="2.27997">
        <ele>2144.84</ele>
        <time>2017-08-07T14:03:57Z</time>
      </trkpt>
      <trkpt lat="42.44146" lon="2.28">
        <ele>2144.84</ele>
        <time>2017-08-07T14:04:27Z</time>
      </trkpt>
      <trkpt lat="42.44144" lon="2.27999">
        <ele>2145.32</ele>
        <time>2017-08-07T14:04:53Z</time>
      </trkpt>
      <trkpt lat="42.44143" lon="2.27999">
        <ele>2145.32</ele>
        <time>2017-08-07T14:05:20Z</time>
      </trkpt>
      <trkpt lat="42.44145" lon="2.27997">
        <ele>2145.32</ele>
        <time>2017-08-07T14:05:56Z</time>
      </trkpt>
      <trkpt lat="42.44145" lon="2.28">
        <ele>2145.8</ele>
        <time>2017-08-07T14:06:19Z</time>
      </trkpt>
      <trkpt lat="42.44144" lon="2.28">
        <ele>2145.8</ele>
        <time>2017-08-07T14:06:45Z</time>
      </trkpt>
      <trkpt lat="42.44144" lon="2.27998">
        <ele>2145.8</ele>
        <time>2017-08-07T14:07:12Z</time>
      </trkpt>
      <trkpt lat="42.44142" lon="2.27999">
        <ele>2145.8</ele>
        <time>2017-08-07T14:07:35Z</time>
      </trkpt>
      <trkpt lat="42.44143" lon="2.28001">
        <ele>2145.8</ele>
        <time>2017-08-07T14:08:03Z</time>
      </trkpt>
      <trkpt lat="42.44146" lon="2.27999">
        <ele>2145.8</ele>
        <time>2017-08-07T14:08:30Z</time>
      </trkpt>
      <trkpt lat="42.44147" lon="2.27999">
        <ele>2145.8</ele>
        <time>2017-08-07T14:08:54Z</time>
      </trkpt>
      <trkpt lat="42.44147" lon="2.27997">
        <ele>2145.8</ele>
        <time>2017-08-07T14:09:14Z</time>
      </trkpt>
      <trkpt lat="42.44148" lon="2.27996">
        <ele>2145.8</ele>
        <time>2017-08-07T14:09:37Z</time>
      </trkpt>
      <trkpt lat="42.44146" lon="2.27998">
        <ele>2145.32</ele>
        <time>2017-08-07T14:09:55Z</time>
      </trkpt>
      <trkpt lat="42.44143" lon="2.27996">
        <ele>2145.32</ele>
        <time>2017-08-07T14:10:20Z</time>
      </trkpt>
      <trkpt lat="42.4414" lon="2.27996">
        <ele>2145.32</ele>
        <time>2017-08-07T14:10:49Z</time>
      </trkpt>
      <trkpt lat="42.4414" lon="2.27999">
        <ele>2145.8</ele>
        <time>2017-08-07T14:11:13Z</time>
      </trkpt>
      <trkpt lat="42.44142" lon="2.27999">
        <ele>2145.32</ele>
        <time>2017-08-07T14:11:41Z</time>
      </trkpt>
      <trkpt lat="42.4414" lon="2.27998">
        <ele>2145.32</ele>
        <time>2017-08-07T14:12:08Z</time>
      </trkpt>
      <trkpt lat="42.44139" lon="2.27998">
        <ele>2145.32</ele>
        <time>2017-08-07T14:12:33Z</time>
      </trkpt>
      <trkpt lat="42.44143" lon="2.27999">
        <ele>2145.32</ele>
        <time>2017-08-07T14:13:08Z</time>
      </trkpt>
      <trkpt lat="42.44142" lon="2.28">
        <ele>2145.32</ele>
        <time>2017-08-07T14:13:35Z</time>
      </trkpt>
      <trkpt lat="42.4414" lon="2.27997">
        <ele>2145.32</ele>
        <time>2017-08-07T14:14:06Z</time>
      </trkpt>
      <trkpt lat="42.44145" lon="2.28">
        <ele>2145.32</ele>
        <time>2017-08-07T14:14:33Z</time>
      </trkpt>
      <trkpt lat="42.44145" lon="2.28">
        <ele>2144.84</ele>
        <time>2017-08-07T14:15:02Z</time>
      </trkpt>
      <trkpt lat="42.44144" lon="2.27999">
        <ele>2144.84</ele>
        <time>2017-08-07T14:15:33Z</time>
      </trkpt>
      <trkpt lat="42.44142" lon="2.27996">
        <ele>2144.84</ele>
        <time>2017-08-07T14:16:08Z</time>
      </trkpt>
      <trkpt lat="42.4414" lon="2.28">
        <ele>2144.84</ele>
        <time>2017-08-07T14:16:38Z</time>
      </trkpt>
      <trkpt lat="42.44141" lon="2.27999">
        <ele>2144.84</ele>
        <time>2017-08-07T14:17:01Z</time>
      </trkpt>
      <trkpt lat="42.44141" lon="2.27999">
        <ele>2144.84</ele>
        <time>2017-08-07T14:17:11Z</time>
      </trkpt>
      <trkpt lat="42.44139" lon="2.27998">
        <ele>2145.32</ele>
        <time>2017-08-07T14:17:21Z</time>
      </trkpt>
      <trkpt lat="42.4414" lon="2.28">
        <ele>2144.84</ele>
        <time>2017-08-07T14:17:36Z</time>
      </trkpt>
      <trkpt lat="42.44141" lon="2.28001">
        <ele>2145.32</ele>
        <time>2017-08-07T14:17:58Z</time>
      </trkpt>
      <trkpt lat="42.44143" lon="2.28001">
        <ele>2145.32</ele>
        <time>2017-08-07T14:18:24Z</time>
      </trkpt>
      <trkpt lat="42.44144" lon="2.28001">
        <ele>2144.84</ele>
        <time>2017-08-07T14:18:50Z</time>
      </trkpt>
      <trkpt lat="42.44144" lon="2.28001">
        <ele>2144.84</ele>
        <time>2017-08-07T14:19:15Z</time>
      </trkpt>
      <trkpt lat="42.44145" lon="2.27999">
        <ele>2144.84</ele>
        <time>2017-08-07T14:19:27Z</time>
      </trkpt>
      <trkpt lat="42.44151" lon="2.28001">
        <ele>2144.84</ele>
        <time>2017-08-07T14:19:40Z</time>
      </trkpt>
      <trkpt lat="42.44153" lon="2.27999">
        <ele>2143.4</ele>
        <time>2017-08-07T14:19:44Z</time>
      </trkpt>
      <trkpt lat="42.4416" lon="2.27999">
        <ele>2142.44</ele>
        <time>2017-08-07T14:19:54Z</time>
      </trkpt>
      <trkpt lat="42.44169" lon="2.27994">
        <ele>2140.51</ele>
        <time>2017-08-07T14:20:09Z</time>
      </trkpt>
      <trkpt lat="42.44169" lon="2.27994">
        <ele>2140.51</ele>
        <time>2017-08-07T14:20:10Z</time>
      </trkpt>
      <trkpt lat="42.44182" lon="2.27997">
        <ele>2139.55</ele>
        <time>2017-08-07T14:20:24Z</time>
      </trkpt>
      <trkpt lat="42.44193" lon="2.28003">
        <ele>2137.63</ele>
        <time>2017-08-07T14:20:39Z</time>
      </trkpt>
      <trkpt lat="42.442" lon="2.2801">
        <ele>2136.67</ele>
        <time>2017-08-07T14:20:53Z</time>
      </trkpt>
      <trkpt lat="42.4421" lon="2.28016">
        <ele>2134.74</ele>
        <time>2017-08-07T14:21:06Z</time>
      </trkpt>
      <trkpt lat="42.44218" lon="2.28018">
        <ele>2133.3</ele>
        <time>2017-08-07T14:21:15Z</time>
      </trkpt>
      <trkpt lat="42.44218" lon="2.28027">
        <ele>2131.38</ele>
        <time>2017-08-07T14:21:28Z</time>
      </trkpt>
      <trkpt lat="42.4422" lon="2.28034">
        <ele>2128.02</ele>
        <time>2017-08-07T14:21:40Z</time>
      </trkpt>
      <trkpt lat="42.44223" lon="2.28044">
        <ele>2125.61</ele>
        <time>2017-08-07T14:21:52Z</time>
      </trkpt>
      <trkpt lat="42.44231" lon="2.28053">
        <ele>2123.69</ele>
        <time>2017-08-07T14:22:04Z</time>
      </trkpt>
      <trkpt lat="42.4424" lon="2.28059">
        <ele>2122.25</ele>
        <time>2017-08-07T14:22:20Z</time>
      </trkpt>
      <trkpt lat="42.4425" lon="2.28065">
        <ele>2119.84</ele>
        <time>2017-08-07T14:22:33Z</time>
      </trkpt>
      <trkpt lat="42.44258" lon="2.28067">
        <ele>2118.4</ele>
        <time>2017-08-07T14:22:45Z</time>
      </trkpt>
      <trkpt lat="42.4427" lon="2.28065">
        <ele>2117.92</ele>
        <time>2017-08-07T14:22:59Z</time>
      </trkpt>
      <trkpt lat="42.44278" lon="2.28067">
        <ele>2116</ele>
        <time>2017-08-07T14:23:15Z</time>
      </trkpt>
      <trkpt lat="42.44296" lon="2.28066">
        <ele>2113.6</ele>
        <time>2017-08-07T14:23:30Z</time>
      </trkpt>
      <trkpt lat="42.44307" lon="2.28065">
        <ele>2111.67</ele>
        <time>2017-08-07T14:23:42Z</time>
      </trkpt>
      <trkpt lat="42.44319" lon="2.28067">
        <ele>2110.23</ele>
        <time>2017-08-07T14:23:56Z</time>
      </trkpt>
      <trkpt lat="42.44328" lon="2.28067">
        <ele>2108.31</ele>
        <time>2017-08-07T14:24:10Z</time>
      </trkpt>
      <trkpt lat="42.44341" lon="2.28069">
        <ele>2106.87</ele>
        <time>2017-08-07T14:24:25Z</time>
      </trkpt>
      <trkpt lat="42.44346" lon="2.28067">
        <ele>2104.94</ele>
        <time>2017-08-07T14:24:39Z</time>
      </trkpt>
      <trkpt lat="42.44355" lon="2.2807">
        <ele>2103.98</ele>
        <time>2017-08-07T14:24:53Z</time>
      </trkpt>
      <trkpt lat="42.44356" lon="2.28072">
        <ele>2103.5</ele>
        <time>2017-08-07T14:25:10Z</time>
      </trkpt>
      <trkpt lat="42.44362" lon="2.28071">
        <ele>2103.02</ele>
        <time>2017-08-07T14:25:21Z</time>
      </trkpt>
      <trkpt lat="42.44373" lon="2.28066">
        <ele>2102.54</ele>
        <time>2017-08-07T14:25:34Z</time>
      </trkpt>
      <trkpt lat="42.44381" lon="2.28062">
        <ele>2102.54</ele>
        <time>2017-08-07T14:25:47Z</time>
      </trkpt>
      <trkpt lat="42.44392" lon="2.28064">
        <ele>2101.1</ele>
        <time>2017-08-07T14:25:59Z</time>
      </trkpt>
      <trkpt lat="42.44398" lon="2.28064">
        <ele>2102.54</ele>
        <time>2017-08-07T14:26:07Z</time>
      </trkpt>
      <trkpt lat="42.44409" lon="2.28066">
        <ele>2102.54</ele>
        <time>2017-08-07T14:26:20Z</time>
      </trkpt>
      <trkpt lat="42.44423" lon="2.28062">
        <ele>2101.1</ele>
        <time>2017-08-07T14:26:33Z</time>
      </trkpt>
      <trkpt lat="42.44433" lon="2.28062">
        <ele>2101.1</ele>
        <time>2017-08-07T14:26:48Z</time>
      </trkpt>
      <trkpt lat="42.4445" lon="2.28059">
        <ele>2100.62</ele>
        <time>2017-08-07T14:27:02Z</time>
      </trkpt>
      <trkpt lat="42.44465" lon="2.28049">
        <ele>2098.21</ele>
        <time>2017-08-07T14:27:15Z</time>
      </trkpt>
      <trkpt lat="42.44475" lon="2.28046">
        <ele>2096.77</ele>
        <time>2017-08-07T14:27:29Z</time>
      </trkpt>
      <trkpt lat="42.44481" lon="2.28051">
        <ele>2095.81</ele>
        <time>2017-08-07T14:27:42Z</time>
      </trkpt>
      <trkpt lat="42.44486" lon="2.28052">
        <ele>2094.85</ele>
        <time>2017-08-07T14:28:02Z</time>
      </trkpt>
      <trkpt lat="42.44492" lon="2.28051">
        <ele>2093.89</ele>
        <time>2017-08-07T14:28:09Z</time>
      </trkpt>
      <trkpt lat="42.44496" lon="2.28051">
        <ele>2092.93</ele>
        <time>2017-08-07T14:28:13Z</time>
      </trkpt>
      <trkpt lat="42.4451" lon="2.28056">
        <ele>2091.97</ele>
        <time>2017-08-07T14:28:29Z</time>
      </trkpt>
      <trkpt lat="42.44518" lon="2.28063">
        <ele>2091.49</ele>
        <time>2017-08-07T14:28:41Z</time>
      </trkpt>
      <trkpt lat="42.44519" lon="2.28077">
        <ele>2088.6</ele>
        <time>2017-08-07T14:28:56Z</time>
      </trkpt>
      <trkpt lat="42.44523" lon="2.28089">
        <ele>2087.64</ele>
        <time>2017-08-07T14:29:09Z</time>
      </trkpt>
      <trkpt lat="42.44526" lon="2.28092">
        <ele>2087.16</ele>
        <time>2017-08-07T14:29:14Z</time>
      </trkpt>
      <trkpt lat="42.44527" lon="2.28095">
        <ele>2084.76</ele>
        <time>2017-08-07T14:29:18Z</time>
      </trkpt>
      <trkpt lat="42.44532" lon="2.28104">
        <ele>2082.83</ele>
        <time>2017-08-07T14:29:31Z</time>
      </trkpt>
      <trkpt lat="42.44541" lon="2.28115">
        <ele>2080.91</ele>
        <time>2017-08-07T14:29:45Z</time>
      </trkpt>
      <trkpt lat="42.44548" lon="2.28121">
        <ele>2079.47</ele>
        <time>2017-08-07T14:29:58Z</time>
      </trkpt>
      <trkpt lat="42.44555" lon="2.28126">
        <ele>2078.51</ele>
        <time>2017-08-07T14:30:13Z</time>
      </trkpt>
      <trkpt lat="42.4456" lon="2.28128">
        <ele>2077.07</ele>
        <time>2017-08-07T14:30:26Z</time>
      </trkpt>
      <trkpt lat="42.44565" lon="2.2813">
        <ele>2075.14</ele>
        <time>2017-08-07T14:30:40Z</time>
      </trkpt>
      <trkpt lat="42.44572" lon="2.28131">
        <ele>2073.7</ele>
        <time>2017-08-07T14:30:51Z</time>
      </trkpt>
      <trkpt lat="42.44581" lon="2.28136">
        <ele>2072.26</ele>
        <time>2017-08-07T14:31:03Z</time>
      </trkpt>
      <trkpt lat="42.44586" lon="2.28141">
        <ele>2070.34</ele>
        <time>2017-08-07T14:31:16Z</time>
      </trkpt>
      <trkpt lat="42.4459" lon="2.28151">
        <ele>2068.89</ele>
        <time>2017-08-07T14:31:28Z</time>
      </trkpt>
      <trkpt lat="42.44601" lon="2.28153">
        <ele>2067.45</ele>
        <time>2017-08-07T14:31:45Z</time>
      </trkpt>
      <trkpt lat="42.44609" lon="2.28156">
        <ele>2065.53</ele>
        <time>2017-08-07T14:31:55Z</time>
      </trkpt>
      <trkpt lat="42.44618" lon="2.28163">
        <ele>2065.05</ele>
        <time>2017-08-07T14:32:12Z</time>
      </trkpt>
      <trkpt lat="42.44628" lon="2.28166">
        <ele>2064.57</ele>
        <time>2017-08-07T14:32:24Z</time>
      </trkpt>
      <trkpt lat="42.44634" lon="2.28172">
        <ele>2062.17</ele>
        <time>2017-08-07T14:32:38Z</time>
      </trkpt>
      <trkpt lat="42.44642" lon="2.28166">
        <ele>2061.2</ele>
        <time>2017-08-07T14:32:51Z</time>
      </trkpt>
      <trkpt lat="42.44648" lon="2.28164">
        <ele>2061.2</ele>
        <time>2017-08-07T14:33:13Z</time>
      </trkpt>
      <trkpt lat="42.44646" lon="2.28171">
        <ele>2061.2</ele>
        <time>2017-08-07T14:33:42Z</time>
      </trkpt>
      <trkpt lat="42.44655" lon="2.28172">
        <ele>2059.28</ele>
        <time>2017-08-07T14:33:56Z</time>
      </trkpt>
      <trkpt lat="42.44666" lon="2.28175">
        <ele>2057.84</ele>
        <time>2017-08-07T14:34:07Z</time>
      </trkpt>
      <trkpt lat="42.44679" lon="2.28175">
        <ele>2057.36</ele>
        <time>2017-08-07T14:34:20Z</time>
      </trkpt>
      <trkpt lat="42.44689" lon="2.28171">
        <ele>2056.4</ele>
        <time>2017-08-07T14:34:33Z</time>
      </trkpt>
      <trkpt lat="42.44697" lon="2.28166">
        <ele>2055.44</ele>
        <time>2017-08-07T14:34:48Z</time>
      </trkpt>
      <trkpt lat="42.44706" lon="2.28161">
        <ele>2054.47</ele>
        <time>2017-08-07T14:35:00Z</time>
      </trkpt>
      <trkpt lat="42.44713" lon="2.28154">
        <ele>2053.99</ele>
        <time>2017-08-07T14:35:13Z</time>
      </trkpt>
      <trkpt lat="42.44724" lon="2.28147">
        <ele>2053.51</ele>
        <time>2017-08-07T14:35:26Z</time>
      </trkpt>
      <trkpt lat="42.44739" lon="2.28147">
        <ele>2053.03</ele>
        <time>2017-08-07T14:35:41Z</time>
      </trkpt>
      <trkpt lat="42.44754" lon="2.2815">
        <ele>2051.11</ele>
        <time>2017-08-07T14:35:55Z</time>
      </trkpt>
      <trkpt lat="42.44764" lon="2.28148">
        <ele>2050.63</ele>
        <time>2017-08-07T14:36:08Z</time>
      </trkpt>
      <trkpt lat="42.44772" lon="2.28145">
        <ele>2050.63</ele>
        <time>2017-08-07T14:36:21Z</time>
      </trkpt>
      <trkpt lat="42.44778" lon="2.28143">
        <ele>2050.15</ele>
        <time>2017-08-07T14:36:33Z</time>
      </trkpt>
      <trkpt lat="42.44786" lon="2.28138">
        <ele>2049.19</ele>
        <time>2017-08-07T14:36:47Z</time>
      </trkpt>
      <trkpt lat="42.44791" lon="2.28135">
        <ele>2047.26</ele>
        <time>2017-08-07T14:36:56Z</time>
      </trkpt>
      <trkpt lat="42.44802" lon="2.28131">
        <ele>2045.34</ele>
        <time>2017-08-07T14:37:10Z</time>
      </trkpt>
      <trkpt lat="42.4481" lon="2.28122">
        <ele>2045.34</ele>
        <time>2017-08-07T14:37:24Z</time>
      </trkpt>
      <trkpt lat="42.44816" lon="2.28119">
        <ele>2043.9</ele>
        <time>2017-08-07T14:37:35Z</time>
      </trkpt>
      <trkpt lat="42.44822" lon="2.28119">
        <ele>2042.46</ele>
        <time>2017-08-07T14:37:40Z</time>
      </trkpt>
      <trkpt lat="42.44837" lon="2.28122">
        <ele>2040.54</ele>
        <time>2017-08-07T14:37:56Z</time>
      </trkpt>
      <trkpt lat="42.44855" lon="2.28125">
        <ele>2038.61</ele>
        <time>2017-08-07T14:38:12Z</time>
      </trkpt>
      <trkpt lat="42.44868" lon="2.28126">
        <ele>2036.69</ele>
        <time>2017-08-07T14:38:26Z</time>
      </trkpt>
      <trkpt lat="42.44889" lon="2.28129">
        <ele>2034.29</ele>
        <time>2017-08-07T14:38:45Z</time>
      </trkpt>
      <trkpt lat="42.44896" lon="2.28129">
        <ele>2032.36</ele>
        <time>2017-08-07T14:38:54Z</time>
      </trkpt>
      <trkpt lat="42.44913" lon="2.28127">
        <ele>2029.96</ele>
        <time>2017-08-07T14:39:13Z</time>
      </trkpt>
      <trkpt lat="42.44914" lon="2.28127">
        <ele>2029.48</ele>
        <time>2017-08-07T14:39:14Z</time>
      </trkpt>
      <trkpt lat="42.44919" lon="2.28126">
        <ele>2028.04</ele>
        <time>2017-08-07T14:39:19Z</time>
      </trkpt>
      <trkpt lat="42.44935" lon="2.28122">
        <ele>2026.12</ele>
        <time>2017-08-07T14:39:34Z</time>
      </trkpt>
      <trkpt lat="42.44946" lon="2.28121">
        <ele>2024.67</ele>
        <time>2017-08-07T14:39:48Z</time>
      </trkpt>
      <trkpt lat="42.44961" lon="2.28125">
        <ele>2022.27</ele>
        <time>2017-08-07T14:40:04Z</time>
      </trkpt>
      <trkpt lat="42.44971" lon="2.28125">
        <ele>2020.83</ele>
        <time>2017-08-07T14:40:18Z</time>
      </trkpt>
      <trkpt lat="42.44981" lon="2.28129">
        <ele>2018.91</ele>
        <time>2017-08-07T14:40:33Z</time>
      </trkpt>
      <trkpt lat="42.4499" lon="2.28132">
        <ele>2016.98</ele>
        <time>2017-08-07T14:40:50Z</time>
      </trkpt>
      <trkpt lat="42.45001" lon="2.2813">
        <ele>2015.06</ele>
        <time>2017-08-07T14:41:06Z</time>
      </trkpt>
      <trkpt lat="42.45009" lon="2.28129">
        <ele>2014.58</ele>
        <time>2017-08-07T14:41:30Z</time>
      </trkpt>
      <trkpt lat="42.45018" lon="2.28126">
        <ele>2013.62</ele>
        <time>2017-08-07T14:41:44Z</time>
      </trkpt>
      <trkpt lat="42.45031" lon="2.2813">
        <ele>2011.22</ele>
        <time>2017-08-07T14:42:00Z</time>
      </trkpt>
      <trkpt lat="42.45044" lon="2.2813">
        <ele>2009.29</ele>
        <time>2017-08-07T14:42:14Z</time>
      </trkpt>
      <trkpt lat="42.45054" lon="2.28133">
        <ele>2007.37</ele>
        <time>2017-08-07T14:42:27Z</time>
      </trkpt>
      <trkpt lat="42.45064" lon="2.28131">
        <ele>2005.45</ele>
        <time>2017-08-07T14:42:39Z</time>
      </trkpt>
      <trkpt lat="42.45076" lon="2.28136">
        <ele>2003.04</ele>
        <time>2017-08-07T14:42:55Z</time>
      </trkpt>
      <trkpt lat="42.45086" lon="2.28144">
        <ele>2000.64</ele>
        <time>2017-08-07T14:43:10Z</time>
      </trkpt>
      <trkpt lat="42.45094" lon="2.2814">
        <ele>1998.24</ele>
        <time>2017-08-07T14:43:24Z</time>
      </trkpt>
      <trkpt lat="42.45106" lon="2.28142">
        <ele>1995.35</ele>
        <time>2017-08-07T14:43:38Z</time>
      </trkpt>
      <trkpt lat="42.45117" lon="2.2815">
        <ele>1993.43</ele>
        <time>2017-08-07T14:43:51Z</time>
      </trkpt>
      <trkpt lat="42.45129" lon="2.28164">
        <ele>1991.99</ele>
        <time>2017-08-07T14:44:05Z</time>
      </trkpt>
      <trkpt lat="42.45136" lon="2.28184">
        <ele>1988.62</ele>
        <time>2017-08-07T14:44:22Z</time>
      </trkpt>
      <trkpt lat="42.45138" lon="2.28189">
        <ele>1988.14</ele>
        <time>2017-08-07T14:44:38Z</time>
      </trkpt>
      <trkpt lat="42.45144" lon="2.28205">
        <ele>1987.18</ele>
        <time>2017-08-07T14:44:54Z</time>
      </trkpt>
      <trkpt lat="42.45149" lon="2.28222">
        <ele>1984.78</ele>
        <time>2017-08-07T14:45:11Z</time>
      </trkpt>
      <trkpt lat="42.45154" lon="2.28228">
        <ele>1982.86</ele>
        <time>2017-08-07T14:45:21Z</time>
      </trkpt>
      <trkpt lat="42.45155" lon="2.28229">
        <ele>1982.86</ele>
        <time>2017-08-07T14:45:38Z</time>
      </trkpt>
      <trkpt lat="42.45157" lon="2.28225">
        <ele>1982.86</ele>
        <time>2017-08-07T14:45:55Z</time>
      </trkpt>
      <trkpt lat="42.45161" lon="2.28219">
        <ele>1983.82</ele>
        <time>2017-08-07T14:46:04Z</time>
      </trkpt>
      <trkpt lat="42.45172" lon="2.28207">
        <ele>1983.82</ele>
        <time>2017-08-07T14:46:19Z</time>
      </trkpt>
      <trkpt lat="42.45173" lon="2.28206">
        <ele>1982.38</ele>
        <time>2017-08-07T14:46:21Z</time>
      </trkpt>
      <trkpt lat="42.45176" lon="2.28198">
        <ele>1980.93</ele>
        <time>2017-08-07T14:46:30Z</time>
      </trkpt>
      <trkpt lat="42.45181" lon="2.28184">
        <ele>1980.45</ele>
        <time>2017-08-07T14:46:44Z</time>
      </trkpt>
      <trkpt lat="42.45183" lon="2.28175">
        <ele>1980.45</ele>
        <time>2017-08-07T14:47:00Z</time>
      </trkpt>
      <trkpt lat="42.4519" lon="2.28164">
        <ele>1980.45</ele>
        <time>2017-08-07T14:47:15Z</time>
      </trkpt>
      <trkpt lat="42.45196" lon="2.28161">
        <ele>1979.01</ele>
        <time>2017-08-07T14:47:27Z</time>
      </trkpt>
      <trkpt lat="42.45198" lon="2.2816">
        <ele>1978.53</ele>
        <time>2017-08-07T14:47:30Z</time>
      </trkpt>
      <trkpt lat="42.45205" lon="2.28148">
        <ele>1979.49</ele>
        <time>2017-08-07T14:47:43Z</time>
      </trkpt>
      <trkpt lat="42.45211" lon="2.2814">
        <ele>1979.97</ele>
        <time>2017-08-07T14:47:53Z</time>
      </trkpt>
      <trkpt lat="42.45221" lon="2.28131">
        <ele>1980.45</ele>
        <time>2017-08-07T14:48:07Z</time>
      </trkpt>
      <trkpt lat="42.45226" lon="2.28123">
        <ele>1980.45</ele>
        <time>2017-08-07T14:48:20Z</time>
      </trkpt>
      <trkpt lat="42.4523" lon="2.28118">
        <ele>1979.01</ele>
        <time>2017-08-07T14:48:26Z</time>
      </trkpt>
      <trkpt lat="42.45239" lon="2.28113">
        <ele>1979.01</ele>
        <time>2017-08-07T14:48:39Z</time>
      </trkpt>
      <trkpt lat="42.45247" lon="2.28109">
        <ele>1979.01</ele>
        <time>2017-08-07T14:48:51Z</time>
      </trkpt>
      <trkpt lat="42.45252" lon="2.28106">
        <ele>1979.01</ele>
        <time>2017-08-07T14:49:03Z</time>
      </trkpt>
      <trkpt lat="42.45254" lon="2.28105">
        <ele>1980.93</ele>
        <time>2017-08-07T14:49:08Z</time>
      </trkpt>
      <trkpt lat="42.45256" lon="2.28104">
        <ele>1979.49</ele>
        <time>2017-08-07T14:49:10Z</time>
      </trkpt>
      <trkpt lat="42.45262" lon="2.28105">
        <ele>1979.49</ele>
        <time>2017-08-07T14:49:22Z</time>
      </trkpt>
      <trkpt lat="42.45269" lon="2.28102">
        <ele>1979.49</ele>
        <time>2017-08-07T14:49:40Z</time>
      </trkpt>
      <trkpt lat="42.4528" lon="2.28095">
        <ele>1980.93</ele>
        <time>2017-08-07T14:49:54Z</time>
      </trkpt>
      <trkpt lat="42.45282" lon="2.28095">
        <ele>1981.41</ele>
        <time>2017-08-07T14:49:56Z</time>
      </trkpt>
      <trkpt lat="42.45285" lon="2.28095">
        <ele>1981.41</ele>
        <time>2017-08-07T14:49:59Z</time>
      </trkpt>
      <trkpt lat="42.45297" lon="2.28096">
        <ele>1981.41</ele>
        <time>2017-08-07T14:50:14Z</time>
      </trkpt>
      <trkpt lat="42.45297" lon="2.28094">
        <ele>1980.93</ele>
        <time>2017-08-07T14:50:30Z</time>
      </trkpt>
      <trkpt lat="42.45306" lon="2.281">
        <ele>1980.93</ele>
        <time>2017-08-07T14:50:48Z</time>
      </trkpt>
      <trkpt lat="42.45316" lon="2.281">
        <ele>1980.93</ele>
        <time>2017-08-07T14:51:01Z</time>
      </trkpt>
      <trkpt lat="42.45317" lon="2.281">
        <ele>1981.41</ele>
        <time>2017-08-07T14:51:03Z</time>
      </trkpt>
      <trkpt lat="42.45318" lon="2.28103">
        <ele>1979.97</ele>
        <time>2017-08-07T14:51:08Z</time>
      </trkpt>
      <trkpt lat="42.4532" lon="2.28103">
        <ele>1979.49</ele>
        <time>2017-08-07T14:51:14Z</time>
      </trkpt>
      <trkpt lat="42.45323" lon="2.28103">
        <ele>1979.01</ele>
        <time>2017-08-07T14:51:19Z</time>
      </trkpt>
      <trkpt lat="42.4533" lon="2.28105">
        <ele>1980.93</ele>
        <time>2017-08-07T14:51:28Z</time>
      </trkpt>
      <trkpt lat="42.45333" lon="2.28106">
        <ele>1979.49</ele>
        <time>2017-08-07T14:51:31Z</time>
      </trkpt>
      <trkpt lat="42.45347" lon="2.28112">
        <ele>1979.01</ele>
        <time>2017-08-07T14:51:46Z</time>
      </trkpt>
      <trkpt lat="42.45351" lon="2.28113">
        <ele>1979.01</ele>
        <time>2017-08-07T14:51:50Z</time>
      </trkpt>
      <trkpt lat="42.45357" lon="2.28116">
        <ele>1978.05</ele>
        <time>2017-08-07T14:52:05Z</time>
      </trkpt>
      <trkpt lat="42.45372" lon="2.28127">
        <ele>1977.57</ele>
        <time>2017-08-07T14:52:20Z</time>
      </trkpt>
      <trkpt lat="42.45381" lon="2.28133">
        <ele>1979.01</ele>
        <time>2017-08-07T14:52:30Z</time>
      </trkpt>
      <trkpt lat="42.45385" lon="2.28134">
        <ele>1979.49</ele>
        <time>2017-08-07T14:52:35Z</time>
      </trkpt>
      <trkpt lat="42.45397" lon="2.28127">
        <ele>1978.53</ele>
        <time>2017-08-07T14:52:48Z</time>
      </trkpt>
      <trkpt lat="42.45411" lon="2.28139">
        <ele>1978.05</ele>
        <time>2017-08-07T14:53:06Z</time>
      </trkpt>
      <trkpt lat="42.45414" lon="2.28146">
        <ele>1978.05</ele>
        <time>2017-08-07T14:53:19Z</time>
      </trkpt>
      <trkpt lat="42.45419" lon="2.28148">
        <ele>1978.05</ele>
        <time>2017-08-07T14:53:31Z</time>
      </trkpt>
      <trkpt lat="42.45429" lon="2.2815">
        <ele>1979.01</ele>
        <time>2017-08-07T14:53:45Z</time>
      </trkpt>
      <trkpt lat="42.45437" lon="2.28147">
        <ele>1978.05</ele>
        <time>2017-08-07T14:53:58Z</time>
      </trkpt>
      <trkpt lat="42.45443" lon="2.2814">
        <ele>1977.57</ele>
        <time>2017-08-07T14:54:16Z</time>
      </trkpt>
      <trkpt lat="42.45453" lon="2.28134">
        <ele>1979.01</ele>
        <time>2017-08-07T14:54:29Z</time>
      </trkpt>
      <trkpt lat="42.45467" lon="2.28137">
        <ele>1979.01</ele>
        <time>2017-08-07T14:54:43Z</time>
      </trkpt>
      <trkpt lat="42.45474" lon="2.28137">
        <ele>1979.01</ele>
        <time>2017-08-07T14:54:53Z</time>
      </trkpt>
      <trkpt lat="42.4549" lon="2.2813">
        <ele>1977.57</ele>
        <time>2017-08-07T14:55:10Z</time>
      </trkpt>
      <trkpt lat="42.45499" lon="2.2813">
        <ele>1977.57</ele>
        <time>2017-08-07T14:55:23Z</time>
      </trkpt>
      <trkpt lat="42.45506" lon="2.28131">
        <ele>1977.57</ele>
        <time>2017-08-07T14:55:36Z</time>
      </trkpt>
      <trkpt lat="42.45514" lon="2.28124">
        <ele>1976.61</ele>
        <time>2017-08-07T14:55:49Z</time>
      </trkpt>
      <trkpt lat="42.45524" lon="2.28124">
        <ele>1975.65</ele>
        <time>2017-08-07T14:56:08Z</time>
      </trkpt>
      <trkpt lat="42.45531" lon="2.28127">
        <ele>1975.17</ele>
        <time>2017-08-07T14:56:23Z</time>
      </trkpt>
      <trkpt lat="42.45538" lon="2.28122">
        <ele>1974.69</ele>
        <time>2017-08-07T14:56:34Z</time>
      </trkpt>
      <trkpt lat="42.45546" lon="2.28117">
        <ele>1973.24</ele>
        <time>2017-08-07T14:56:48Z</time>
      </trkpt>
      <trkpt lat="42.45552" lon="2.28111">
        <ele>1972.76</ele>
        <time>2017-08-07T14:57:03Z</time>
      </trkpt>
      <trkpt lat="42.45562" lon="2.28103">
        <ele>1972.76</ele>
        <time>2017-08-07T14:57:18Z</time>
      </trkpt>
      <trkpt lat="42.45573" lon="2.28098">
        <ele>1971.8</ele>
        <time>2017-08-07T14:57:31Z</time>
      </trkpt>
      <trkpt lat="42.45582" lon="2.28096">
        <ele>1971.32</ele>
        <time>2017-08-07T14:57:44Z</time>
      </trkpt>
      <trkpt lat="42.45592" lon="2.28097">
        <ele>1971.32</ele>
        <time>2017-08-07T14:57:57Z</time>
      </trkpt>
      <trkpt lat="42.45598" lon="2.28095">
        <ele>1972.28</ele>
        <time>2017-08-07T14:58:14Z</time>
      </trkpt>
      <trkpt lat="42.45606" lon="2.28092">
        <ele>1972.28</ele>
        <time>2017-08-07T14:58:26Z</time>
      </trkpt>
      <trkpt lat="42.45616" lon="2.28089">
        <ele>1971.8</ele>
        <time>2017-08-07T14:58:39Z</time>
      </trkpt>
      <trkpt lat="42.45625" lon="2.28093">
        <ele>1970.84</ele>
        <time>2017-08-07T14:58:51Z</time>
      </trkpt>
      <trkpt lat="42.45626" lon="2.28094">
        <ele>1970.84</ele>
        <time>2017-08-07T14:58:52Z</time>
      </trkpt>
      <trkpt lat="42.45636" lon="2.28092">
        <ele>1969.88</ele>
        <time>2017-08-07T14:59:04Z</time>
      </trkpt>
      <trkpt lat="42.45643" lon="2.28094">
        <ele>1969.4</ele>
        <time>2017-08-07T14:59:17Z</time>
      </trkpt>
      <trkpt lat="42.45658" lon="2.281">
        <ele>1968.44</ele>
        <time>2017-08-07T14:59:33Z</time>
      </trkpt>
      <trkpt lat="42.45675" lon="2.28111">
        <ele>1967.48</ele>
        <time>2017-08-07T14:59:51Z</time>
      </trkpt>
      <trkpt lat="42.4568" lon="2.2812">
        <ele>1965.55</ele>
        <time>2017-08-07T15:00:06Z</time>
      </trkpt>
      <trkpt lat="42.4568" lon="2.28123">
        <ele>1965.07</ele>
        <time>2017-08-07T15:00:27Z</time>
      </trkpt>
      <trkpt lat="42.45681" lon="2.28122">
        <ele>1964.59</ele>
        <time>2017-08-07T15:00:45Z</time>
      </trkpt>
      <trkpt lat="42.45681" lon="2.2812">
        <ele>1964.59</ele>
        <time>2017-08-07T15:00:57Z</time>
      </trkpt>
      <trkpt lat="42.4568" lon="2.2812">
        <ele>1965.55</ele>
        <time>2017-08-07T15:01:11Z</time>
      </trkpt>
      <trkpt lat="42.45685" lon="2.2812">
        <ele>1966.03</ele>
        <time>2017-08-07T15:01:24Z</time>
      </trkpt>
      <trkpt lat="42.45685" lon="2.28121">
        <ele>1966.03</ele>
        <time>2017-08-07T15:01:45Z</time>
      </trkpt>
      <trkpt lat="42.4568" lon="2.2813">
        <ele>1966.51</ele>
        <time>2017-08-07T15:02:03Z</time>
      </trkpt>
      <trkpt lat="42.45678" lon="2.28128">
        <ele>1966.03</ele>
        <time>2017-08-07T15:02:20Z</time>
      </trkpt>
      <trkpt lat="42.45684" lon="2.28136">
        <ele>1965.07</ele>
        <time>2017-08-07T15:02:36Z</time>
      </trkpt>
      <trkpt lat="42.45686" lon="2.28125">
        <ele>1964.11</ele>
        <time>2017-08-07T15:02:52Z</time>
      </trkpt>
      <trkpt lat="42.45688" lon="2.28121">
        <ele>1964.11</ele>
        <time>2017-08-07T15:03:11Z</time>
      </trkpt>
      <trkpt lat="42.45691" lon="2.28122">
        <ele>1963.63</ele>
        <time>2017-08-07T15:03:34Z</time>
      </trkpt>
      <trkpt lat="42.45701" lon="2.28126">
        <ele>1963.63</ele>
        <time>2017-08-07T15:03:46Z</time>
      </trkpt>
      <trkpt lat="42.45711" lon="2.2813">
        <ele>1963.63</ele>
        <time>2017-08-07T15:04:00Z</time>
      </trkpt>
      <trkpt lat="42.45715" lon="2.28131">
        <ele>1963.63</ele>
        <time>2017-08-07T15:04:19Z</time>
      </trkpt>
      <trkpt lat="42.45725" lon="2.28136">
        <ele>1963.63</ele>
        <time>2017-08-07T15:04:32Z</time>
      </trkpt>
      <trkpt lat="42.45737" lon="2.28144">
        <ele>1963.15</ele>
        <time>2017-08-07T15:04:46Z</time>
      </trkpt>
      <trkpt lat="42.45746" lon="2.28151">
        <ele>1964.11</ele>
        <time>2017-08-07T15:05:00Z</time>
      </trkpt>
      <trkpt lat="42.45753" lon="2.28153">
        <ele>1965.07</ele>
        <time>2017-08-07T15:05:10Z</time>
      </trkpt>
      <trkpt lat="42.45767" lon="2.28162">
        <ele>1965.07</ele>
        <time>2017-08-07T15:05:24Z</time>
      </trkpt>
      <trkpt lat="42.45771" lon="2.28166">
        <ele>1964.11</ele>
        <time>2017-08-07T15:05:29Z</time>
      </trkpt>
      <trkpt lat="42.45785" lon="2.28178">
        <ele>1962.67</ele>
        <time>2017-08-07T15:05:43Z</time>
      </trkpt>
      <trkpt lat="42.45794" lon="2.2818">
        <ele>1962.67</ele>
        <time>2017-08-07T15:05:50Z</time>
      </trkpt>
      <trkpt lat="42.45805" lon="2.28188">
        <ele>1961.71</ele>
        <time>2017-08-07T15:06:00Z</time>
      </trkpt>
      <trkpt lat="42.45809" lon="2.28191">
        <ele>1961.71</ele>
        <time>2017-08-07T15:06:04Z</time>
      </trkpt>
      <trkpt lat="42.45825" lon="2.28207">
        <ele>1963.15</ele>
        <time>2017-08-07T15:06:20Z</time>
      </trkpt>
      <trkpt lat="42.4583" lon="2.28208">
        <ele>1963.15</ele>
        <time>2017-08-07T15:06:34Z</time>
      </trkpt>
      <trkpt lat="42.45831" lon="2.28212">
        <ele>1963.63</ele>
        <time>2017-08-07T15:06:46Z</time>
      </trkpt>
      <trkpt lat="42.45831" lon="2.28213">
        <ele>1963.63</ele>
        <time>2017-08-07T15:07:09Z</time>
      </trkpt>
      <trkpt lat="42.45833" lon="2.28219">
        <ele>1963.63</ele>
        <time>2017-08-07T15:07:26Z</time>
      </trkpt>
      <trkpt lat="42.45835" lon="2.28222">
        <ele>1961.71</ele>
        <time>2017-08-07T15:07:30Z</time>
      </trkpt>
      <trkpt lat="42.45836" lon="2.2823">
        <ele>1961.23</ele>
        <time>2017-08-07T15:07:43Z</time>
      </trkpt>
      <trkpt lat="42.4584" lon="2.28237">
        <ele>1959.3</ele>
        <time>2017-08-07T15:07:57Z</time>
      </trkpt>
      <trkpt lat="42.45843" lon="2.28243">
        <ele>1958.82</ele>
        <time>2017-08-07T15:08:13Z</time>
      </trkpt>
      <trkpt lat="42.45851" lon="2.28247">
        <ele>1956.9</ele>
        <time>2017-08-07T15:08:26Z</time>
      </trkpt>
      <trkpt lat="42.45861" lon="2.2826">
        <ele>1956.42</ele>
        <time>2017-08-07T15:08:42Z</time>
      </trkpt>
      <trkpt lat="42.45863" lon="2.28267">
        <ele>1955.46</ele>
        <time>2017-08-07T15:08:57Z</time>
      </trkpt>
      <trkpt lat="42.45861" lon="2.28268">
        <ele>1955.46</ele>
        <time>2017-08-07T15:09:16Z</time>
      </trkpt>
      <trkpt lat="42.45863" lon="2.28272">
        <ele>1954.98</ele>
        <time>2017-08-07T15:09:33Z</time>
      </trkpt>
      <trkpt lat="42.45867" lon="2.28281">
        <ele>1953.54</ele>
        <time>2017-08-07T15:09:46Z</time>
      </trkpt>
      <trkpt lat="42.45869" lon="2.28287">
        <ele>1953.06</ele>
        <time>2017-08-07T15:10:03Z</time>
      </trkpt>
      <trkpt lat="42.45872" lon="2.28289">
        <ele>1952.09</ele>
        <time>2017-08-07T15:10:23Z</time>
      </trkpt>
      <trkpt lat="42.45879" lon="2.28302">
        <ele>1949.69</ele>
        <time>2017-08-07T15:10:38Z</time>
      </trkpt>
      <trkpt lat="42.45883" lon="2.28308">
        <ele>1949.21</ele>
        <time>2017-08-07T15:10:48Z</time>
      </trkpt>
      <trkpt lat="42.45884" lon="2.28315">
        <ele>1947.77</ele>
        <time>2017-08-07T15:11:05Z</time>
      </trkpt>
      <trkpt lat="42.45885" lon="2.28322">
        <ele>1947.29</ele>
        <time>2017-08-07T15:11:15Z</time>
      </trkpt>
      <trkpt lat="42.45886" lon="2.28331">
        <ele>1946.33</ele>
        <time>2017-08-07T15:11:30Z</time>
      </trkpt>
      <trkpt lat="42.45888" lon="2.28334">
        <ele>1945.85</ele>
        <time>2017-08-07T15:11:35Z</time>
      </trkpt>
      <trkpt lat="42.45893" lon="2.28348">
        <ele>1944.4</ele>
        <time>2017-08-07T15:11:50Z</time>
      </trkpt>
      <trkpt lat="42.45902" lon="2.28356">
        <ele>1943.44</ele>
        <time>2017-08-07T15:12:04Z</time>
      </trkpt>
      <trkpt lat="42.45903" lon="2.28358">
        <ele>1942.96</ele>
        <time>2017-08-07T15:12:17Z</time>
      </trkpt>
      <trkpt lat="42.45909" lon="2.28363">
        <ele>1942</ele>
        <time>2017-08-07T15:12:30Z</time>
      </trkpt>
      <trkpt lat="42.45915" lon="2.28373">
        <ele>1940.56</ele>
        <time>2017-08-07T15:12:45Z</time>
      </trkpt>
      <trkpt lat="42.45922" lon="2.28381">
        <ele>1938.16</ele>
        <time>2017-08-07T15:12:59Z</time>
      </trkpt>
      <trkpt lat="42.45924" lon="2.28387">
        <ele>1937.67</ele>
        <time>2017-08-07T15:13:11Z</time>
      </trkpt>
      <trkpt lat="42.45925" lon="2.28394">
        <ele>1937.19</ele>
        <time>2017-08-07T15:13:28Z</time>
      </trkpt>
      <trkpt lat="42.4593" lon="2.28404">
        <ele>1934.79</ele>
        <time>2017-08-07T15:13:42Z</time>
      </trkpt>
      <trkpt lat="42.45938" lon="2.28418">
        <ele>1933.35</ele>
        <time>2017-08-07T15:13:58Z</time>
      </trkpt>
      <trkpt lat="42.45941" lon="2.28427">
        <ele>1931.91</ele>
        <time>2017-08-07T15:14:12Z</time>
      </trkpt>
      <trkpt lat="42.45945" lon="2.28431">
        <ele>1931.43</ele>
        <time>2017-08-07T15:14:25Z</time>
      </trkpt>
      <trkpt lat="42.4595" lon="2.28438">
        <ele>1930.46</ele>
        <time>2017-08-07T15:14:37Z</time>
      </trkpt>
      <trkpt lat="42.45957" lon="2.2845">
        <ele>1928.06</ele>
        <time>2017-08-07T15:14:52Z</time>
      </trkpt>
      <trkpt lat="42.45964" lon="2.28457">
        <ele>1927.58</ele>
        <time>2017-08-07T15:15:07Z</time>
      </trkpt>
      <trkpt lat="42.4597" lon="2.28466">
        <ele>1926.14</ele>
        <time>2017-08-07T15:15:21Z</time>
      </trkpt>
      <trkpt lat="42.45972" lon="2.28474">
        <ele>1925.18</ele>
        <time>2017-08-07T15:15:40Z</time>
      </trkpt>
      <trkpt lat="42.45979" lon="2.28486">
        <ele>1923.25</ele>
        <time>2017-08-07T15:15:55Z</time>
      </trkpt>
      <trkpt lat="42.45981" lon="2.28497">
        <ele>1920.37</ele>
        <time>2017-08-07T15:16:09Z</time>
      </trkpt>
      <trkpt lat="42.45985" lon="2.28505">
        <ele>1919.41</ele>
        <time>2017-08-07T15:16:21Z</time>
      </trkpt>
      <trkpt lat="42.45988" lon="2.28506">
        <ele>1918.93</ele>
        <time>2017-08-07T15:16:40Z</time>
      </trkpt>
      <trkpt lat="42.45992" lon="2.28515">
        <ele>1917.97</ele>
        <time>2017-08-07T15:16:52Z</time>
      </trkpt>
      <trkpt lat="42.45995" lon="2.28519">
        <ele>1917.01</ele>
        <time>2017-08-07T15:17:07Z</time>
      </trkpt>
      <trkpt lat="42.46" lon="2.28528">
        <ele>1915.08</ele>
        <time>2017-08-07T15:17:20Z</time>
      </trkpt>
      <trkpt lat="42.46002" lon="2.28533">
        <ele>1914.6</ele>
        <time>2017-08-07T15:17:36Z</time>
      </trkpt>
      <trkpt lat="42.46002" lon="2.28533">
        <ele>1914.6</ele>
        <time>2017-08-07T15:18:03Z</time>
      </trkpt>
      <trkpt lat="42.46007" lon="2.28539">
        <ele>1913.16</ele>
        <time>2017-08-07T15:18:18Z</time>
      </trkpt>
      <trkpt lat="42.46015" lon="2.28548">
        <ele>1911.24</ele>
        <time>2017-08-07T15:18:32Z</time>
      </trkpt>
      <trkpt lat="42.46016" lon="2.28549">
        <ele>1910.76</ele>
        <time>2017-08-07T15:18:50Z</time>
      </trkpt>
      <trkpt lat="42.46022" lon="2.28552">
        <ele>1909.32</ele>
        <time>2017-08-07T15:19:06Z</time>
      </trkpt>
      <trkpt lat="42.46023" lon="2.28551">
        <ele>1909.32</ele>
        <time>2017-08-07T15:19:20Z</time>
      </trkpt>
      <trkpt lat="42.46025" lon="2.28551">
        <ele>1908.83</ele>
        <time>2017-08-07T15:19:38Z</time>
      </trkpt>
      <trkpt lat="42.4603" lon="2.2855">
        <ele>1907.87</ele>
        <time>2017-08-07T15:19:50Z</time>
      </trkpt>
      <trkpt lat="42.46038" lon="2.28546">
        <ele>1905.47</ele>
        <time>2017-08-07T15:20:05Z</time>
      </trkpt>
      <trkpt lat="42.46043" lon="2.28551">
        <ele>1904.99</ele>
        <time>2017-08-07T15:20:17Z</time>
      </trkpt>
      <trkpt lat="42.46049" lon="2.28553">
        <ele>1903.55</ele>
        <time>2017-08-07T15:20:31Z</time>
      </trkpt>
      <trkpt lat="42.46056" lon="2.2856">
        <ele>1901.63</ele>
        <time>2017-08-07T15:20:43Z</time>
      </trkpt>
      <trkpt lat="42.46061" lon="2.28557">
        <ele>1900.66</ele>
        <time>2017-08-07T15:20:49Z</time>
      </trkpt>
      <trkpt lat="42.4607" lon="2.28562">
        <ele>1899.22</ele>
        <time>2017-08-07T15:21:02Z</time>
      </trkpt>
      <trkpt lat="42.4608" lon="2.28572">
        <ele>1898.26</ele>
        <time>2017-08-07T15:21:16Z</time>
      </trkpt>
      <trkpt lat="42.46085" lon="2.28577">
        <ele>1896.82</ele>
        <time>2017-08-07T15:21:22Z</time>
      </trkpt>
      <trkpt lat="42.46097" lon="2.28592">
        <ele>1893.93</ele>
        <time>2017-08-07T15:21:40Z</time>
      </trkpt>
      <trkpt lat="42.4611" lon="2.28604">
        <ele>1891.53</ele>
        <time>2017-08-07T15:21:56Z</time>
      </trkpt>
      <trkpt lat="42.46122" lon="2.28611">
        <ele>1888.17</ele>
        <time>2017-08-07T15:22:12Z</time>
      </trkpt>
      <trkpt lat="42.46133" lon="2.28615">
        <ele>1886.24</ele>
        <time>2017-08-07T15:22:26Z</time>
      </trkpt>
      <trkpt lat="42.46135" lon="2.28618">
        <ele>1886.24</ele>
        <time>2017-08-07T15:22:42Z</time>
      </trkpt>
      <trkpt lat="42.46137" lon="2.2862">
        <ele>1884.8</ele>
        <time>2017-08-07T15:22:53Z</time>
      </trkpt>
      <trkpt lat="42.46138" lon="2.28622">
        <ele>1884.8</ele>
        <time>2017-08-07T15:23:16Z</time>
      </trkpt>
      <trkpt lat="42.46143" lon="2.28628">
        <ele>1883.36</ele>
        <time>2017-08-07T15:23:30Z</time>
      </trkpt>
      <trkpt lat="42.46148" lon="2.28632">
        <ele>1881.44</ele>
        <time>2017-08-07T15:23:44Z</time>
      </trkpt>
      <trkpt lat="42.46153" lon="2.28637">
        <ele>1879.03</ele>
        <time>2017-08-07T15:23:59Z</time>
      </trkpt>
      <trkpt lat="42.46155" lon="2.28641">
        <ele>1878.07</ele>
        <time>2017-08-07T15:24:23Z</time>
      </trkpt>
      <trkpt lat="42.46156" lon="2.28648">
        <ele>1876.63</ele>
        <time>2017-08-07T15:24:37Z</time>
      </trkpt>
      <trkpt lat="42.46163" lon="2.28652">
        <ele>1873.27</ele>
        <time>2017-08-07T15:24:50Z</time>
      </trkpt>
      <trkpt lat="42.46166" lon="2.2866">
        <ele>1871.82</ele>
        <time>2017-08-07T15:25:02Z</time>
      </trkpt>
      <trkpt lat="42.46169" lon="2.28667">
        <ele>1869.42</ele>
        <time>2017-08-07T15:25:16Z</time>
      </trkpt>
      <trkpt lat="42.46174" lon="2.2867">
        <ele>1867.98</ele>
        <time>2017-08-07T15:25:31Z</time>
      </trkpt>
      <trkpt lat="42.4618" lon="2.28676">
        <ele>1866.06</ele>
        <time>2017-08-07T15:25:45Z</time>
      </trkpt>
      <trkpt lat="42.46187" lon="2.28684">
        <ele>1863.65</ele>
        <time>2017-08-07T15:25:58Z</time>
      </trkpt>
      <trkpt lat="42.46196" lon="2.28694">
        <ele>1860.29</ele>
        <time>2017-08-07T15:26:12Z</time>
      </trkpt>
      <trkpt lat="42.46199" lon="2.28706">
        <ele>1856.44</ele>
        <time>2017-08-07T15:26:28Z</time>
      </trkpt>
      <trkpt lat="42.46202" lon="2.28713">
        <ele>1855.48</ele>
        <time>2017-08-07T15:26:41Z</time>
      </trkpt>
      <trkpt lat="42.46208" lon="2.28723">
        <ele>1853.08</ele>
        <time>2017-08-07T15:26:54Z</time>
      </trkpt>
      <trkpt lat="42.46207" lon="2.28732">
        <ele>1851.64</ele>
        <time>2017-08-07T15:27:03Z</time>
      </trkpt>
      <trkpt lat="42.4621" lon="2.28743">
        <ele>1850.68</ele>
        <time>2017-08-07T15:27:11Z</time>
      </trkpt>
      <trkpt lat="42.46217" lon="2.2877">
        <ele>1847.31</ele>
        <time>2017-08-07T15:27:30Z</time>
      </trkpt>
      <trkpt lat="42.46227" lon="2.28787">
        <ele>1844.91</ele>
        <time>2017-08-07T15:27:46Z</time>
      </trkpt>
      <trkpt lat="42.46234" lon="2.28806">
        <ele>1842.02</ele>
        <time>2017-08-07T15:28:03Z</time>
      </trkpt>
      <trkpt lat="42.46239" lon="2.2881">
        <ele>1839.62</ele>
        <time>2017-08-07T15:28:16Z</time>
      </trkpt>
      <trkpt lat="42.46243" lon="2.28812">
        <ele>1839.14</ele>
        <time>2017-08-07T15:28:20Z</time>
      </trkpt>
      <trkpt lat="42.46255" lon="2.28821">
        <ele>1837.7</ele>
        <time>2017-08-07T15:28:35Z</time>
      </trkpt>
      <trkpt lat="42.46259" lon="2.28828">
        <ele>1836.26</ele>
        <time>2017-08-07T15:28:44Z</time>
      </trkpt>
      <trkpt lat="42.46266" lon="2.28834">
        <ele>1835.77</ele>
        <time>2017-08-07T15:28:53Z</time>
      </trkpt>
      <trkpt lat="42.46276" lon="2.28842">
        <ele>1834.33</ele>
        <time>2017-08-07T15:29:08Z</time>
      </trkpt>
      <trkpt lat="42.46289" lon="2.28846">
        <ele>1833.85</ele>
        <time>2017-08-07T15:29:21Z</time>
      </trkpt>
      <trkpt lat="42.46294" lon="2.28853">
        <ele>1830.97</ele>
        <time>2017-08-07T15:29:34Z</time>
      </trkpt>
      <trkpt lat="42.463" lon="2.28863">
        <ele>1827.6</ele>
        <time>2017-08-07T15:29:50Z</time>
      </trkpt>
      <trkpt lat="42.46308" lon="2.28867">
        <ele>1825.68</ele>
        <time>2017-08-07T15:30:03Z</time>
      </trkpt>
      <trkpt lat="42.46314" lon="2.28873">
        <ele>1823.28</ele>
        <time>2017-08-07T15:30:15Z</time>
      </trkpt>
      <trkpt lat="42.46322" lon="2.28887">
        <ele>1819.91</ele>
        <time>2017-08-07T15:30:30Z</time>
      </trkpt>
      <trkpt lat="42.46328" lon="2.28894">
        <ele>1817.99</ele>
        <time>2017-08-07T15:30:44Z</time>
      </trkpt>
      <trkpt lat="42.46336" lon="2.28898">
        <ele>1817.03</ele>
        <time>2017-08-07T15:30:53Z</time>
      </trkpt>
      <trkpt lat="42.4635" lon="2.28907">
        <ele>1816.55</ele>
        <time>2017-08-07T15:31:09Z</time>
      </trkpt>
      <trkpt lat="42.46356" lon="2.2892">
        <ele>1815.11</ele>
        <time>2017-08-07T15:31:25Z</time>
      </trkpt>
      <trkpt lat="42.4636" lon="2.28929">
        <ele>1814.15</ele>
        <time>2017-08-07T15:31:36Z</time>
      </trkpt>
      <trkpt lat="42.46368" lon="2.28946">
        <ele>1812.22</ele>
        <time>2017-08-07T15:31:51Z</time>
      </trkpt>
      <trkpt lat="42.46374" lon="2.28955">
        <ele>1810.78</ele>
        <time>2017-08-07T15:32:04Z</time>
      </trkpt>
      <trkpt lat="42.4638" lon="2.2896">
        <ele>1808.86</ele>
        <time>2017-08-07T15:32:18Z</time>
      </trkpt>
      <trkpt lat="42.46391" lon="2.28963">
        <ele>1806.94</ele>
        <time>2017-08-07T15:32:31Z</time>
      </trkpt>
      <trkpt lat="42.464" lon="2.28978">
        <ele>1805.97</ele>
        <time>2017-08-07T15:32:45Z</time>
      </trkpt>
      <trkpt lat="42.46413" lon="2.28999">
        <ele>1804.05</ele>
        <time>2017-08-07T15:33:00Z</time>
      </trkpt>
      <trkpt lat="42.46425" lon="2.29012">
        <ele>1803.57</ele>
        <time>2017-08-07T15:33:15Z</time>
      </trkpt>
      <trkpt lat="42.46433" lon="2.29028">
        <ele>1803.57</ele>
        <time>2017-08-07T15:33:28Z</time>
      </trkpt>
      <trkpt lat="42.46437" lon="2.29042">
        <ele>1802.13</ele>
        <time>2017-08-07T15:33:42Z</time>
      </trkpt>
      <trkpt lat="42.46442" lon="2.29055">
        <ele>1800.21</ele>
        <time>2017-08-07T15:33:56Z</time>
      </trkpt>
      <trkpt lat="42.4645" lon="2.2907">
        <ele>1797.32</ele>
        <time>2017-08-07T15:34:08Z</time>
      </trkpt>
      <trkpt lat="42.46456" lon="2.29083">
        <ele>1794.92</ele>
        <time>2017-08-07T15:34:22Z</time>
      </trkpt>
      <trkpt lat="42.46462" lon="2.29093">
        <ele>1793</ele>
        <time>2017-08-07T15:34:36Z</time>
      </trkpt>
      <trkpt lat="42.46469" lon="2.29098">
        <ele>1792.03</ele>
        <time>2017-08-07T15:34:48Z</time>
      </trkpt>
      <trkpt lat="42.46471" lon="2.29099">
        <ele>1791.07</ele>
        <time>2017-08-07T15:34:51Z</time>
      </trkpt>
      <trkpt lat="42.46478" lon="2.29107">
        <ele>1789.63</ele>
        <time>2017-08-07T15:35:00Z</time>
      </trkpt>
      <trkpt lat="42.46487" lon="2.29109">
        <ele>1788.19</ele>
        <time>2017-08-07T15:35:13Z</time>
      </trkpt>
      <trkpt lat="42.46493" lon="2.29119">
        <ele>1784.82</ele>
        <time>2017-08-07T15:35:26Z</time>
      </trkpt>
      <trkpt lat="42.46497" lon="2.29128">
        <ele>1781.94</ele>
        <time>2017-08-07T15:35:39Z</time>
      </trkpt>
      <trkpt lat="42.46501" lon="2.29137">
        <ele>1779.06</ele>
        <time>2017-08-07T15:35:51Z</time>
      </trkpt>
      <trkpt lat="42.46509" lon="2.29132">
        <ele>1777.13</ele>
        <time>2017-08-07T15:36:04Z</time>
      </trkpt>
      <trkpt lat="42.46515" lon="2.29136">
        <ele>1774.73</ele>
        <time>2017-08-07T15:36:17Z</time>
      </trkpt>
      <trkpt lat="42.46509" lon="2.29139">
        <ele>1773.77</ele>
        <time>2017-08-07T15:36:30Z</time>
      </trkpt>
      <trkpt lat="42.46506" lon="2.2915">
        <ele>1773.29</ele>
        <time>2017-08-07T15:36:43Z</time>
      </trkpt>
      <trkpt lat="42.46506" lon="2.29156">
        <ele>1769.92</ele>
        <time>2017-08-07T15:36:54Z</time>
      </trkpt>
      <trkpt lat="42.46515" lon="2.2916">
        <ele>1767.52</ele>
        <time>2017-08-07T15:37:07Z</time>
      </trkpt>
      <trkpt lat="42.46523" lon="2.29158">
        <ele>1765.12</ele>
        <time>2017-08-07T15:37:18Z</time>
      </trkpt>
      <trkpt lat="42.46529" lon="2.29158">
        <ele>1763.2</ele>
        <time>2017-08-07T15:37:29Z</time>
      </trkpt>
      <trkpt lat="42.46535" lon="2.29163">
        <ele>1760.31</ele>
        <time>2017-08-07T15:37:42Z</time>
      </trkpt>
      <trkpt lat="42.46537" lon="2.29172">
        <ele>1756.95</ele>
        <time>2017-08-07T15:37:52Z</time>
      </trkpt>
      <trkpt lat="42.46545" lon="2.29171">
        <ele>1755.02</ele>
        <time>2017-08-07T15:38:06Z</time>
      </trkpt>
      <trkpt lat="42.46555" lon="2.29168">
        <ele>1752.62</ele>
        <time>2017-08-07T15:38:18Z</time>
      </trkpt>
      <trkpt lat="42.46565" lon="2.29166">
        <ele>1750.22</ele>
        <time>2017-08-07T15:38:33Z</time>
      </trkpt>
      <trkpt lat="42.46574" lon="2.29162">
        <ele>1747.81</ele>
        <time>2017-08-07T15:38:42Z</time>
      </trkpt>
      <trkpt lat="42.46582" lon="2.2916">
        <ele>1745.89</ele>
        <time>2017-08-07T15:38:50Z</time>
      </trkpt>
      <trkpt lat="42.46595" lon="2.29153">
        <ele>1743.97</ele>
        <time>2017-08-07T15:39:06Z</time>
      </trkpt>
      <trkpt lat="42.46608" lon="2.29142">
        <ele>1742.53</ele>
        <time>2017-08-07T15:39:20Z</time>
      </trkpt>
      <trkpt lat="42.46616" lon="2.29135">
        <ele>1741.57</ele>
        <time>2017-08-07T15:39:33Z</time>
      </trkpt>
      <trkpt lat="42.46618" lon="2.29131">
        <ele>1740.6</ele>
        <time>2017-08-07T15:39:50Z</time>
      </trkpt>
      <trkpt lat="42.46629" lon="2.29121">
        <ele>1739.64</ele>
        <time>2017-08-07T15:40:03Z</time>
      </trkpt>
      <trkpt lat="42.46637" lon="2.29114">
        <ele>1737.24</ele>
        <time>2017-08-07T15:40:17Z</time>
      </trkpt>
      <trkpt lat="42.46648" lon="2.29107">
        <ele>1735.32</ele>
        <time>2017-08-07T15:40:31Z</time>
      </trkpt>
      <trkpt lat="42.46659" lon="2.29097">
        <ele>1733.88</ele>
        <time>2017-08-07T15:40:44Z</time>
      </trkpt>
      <trkpt lat="42.46671" lon="2.291">
        <ele>1731.95</ele>
        <time>2017-08-07T15:40:58Z</time>
      </trkpt>
      <trkpt lat="42.46676" lon="2.29102">
        <ele>1730.99</ele>
        <time>2017-08-07T15:41:14Z</time>
      </trkpt>
      <trkpt lat="42.46693" lon="2.29102">
        <ele>1729.55</ele>
        <time>2017-08-07T15:41:30Z</time>
      </trkpt>
      <trkpt lat="42.467" lon="2.29113">
        <ele>1726.18</ele>
        <time>2017-08-07T15:41:45Z</time>
      </trkpt>
      <trkpt lat="42.46702" lon="2.29119">
        <ele>1724.26</ele>
        <time>2017-08-07T15:41:58Z</time>
      </trkpt>
      <trkpt lat="42.46697" lon="2.29124">
        <ele>1723.78</ele>
        <time>2017-08-07T15:42:05Z</time>
      </trkpt>
      <trkpt lat="42.46684" lon="2.29132">
        <ele>1722.82</ele>
        <time>2017-08-07T15:42:20Z</time>
      </trkpt>
      <trkpt lat="42.46679" lon="2.29139">
        <ele>1721.38</ele>
        <time>2017-08-07T15:42:34Z</time>
      </trkpt>
      <trkpt lat="42.46678" lon="2.29147">
        <ele>1719.46</ele>
        <time>2017-08-07T15:42:48Z</time>
      </trkpt>
      <trkpt lat="42.46683" lon="2.29152">
        <ele>1717.05</ele>
        <time>2017-08-07T15:42:57Z</time>
      </trkpt>
      <trkpt lat="42.46681" lon="2.29166">
        <ele>1714.17</ele>
        <time>2017-08-07T15:43:11Z</time>
      </trkpt>
      <trkpt lat="42.46671" lon="2.29176">
        <ele>1713.21</ele>
        <time>2017-08-07T15:43:23Z</time>
      </trkpt>
      <trkpt lat="42.4666" lon="2.29192">
        <ele>1711.76</ele>
        <time>2017-08-07T15:43:39Z</time>
      </trkpt>
      <trkpt lat="42.46658" lon="2.29205">
        <ele>1708.88</ele>
        <time>2017-08-07T15:43:51Z</time>
      </trkpt>
      <trkpt lat="42.46668" lon="2.2921">
        <ele>1706</ele>
        <time>2017-08-07T15:44:04Z</time>
      </trkpt>
      <trkpt lat="42.46682" lon="2.2921">
        <ele>1703.59</ele>
        <time>2017-08-07T15:44:17Z</time>
      </trkpt>
      <trkpt lat="42.46685" lon="2.29209">
        <ele>1703.59</ele>
        <time>2017-08-07T15:44:20Z</time>
      </trkpt>
      <trkpt lat="42.46697" lon="2.2921">
        <ele>1702.15</ele>
        <time>2017-08-07T15:44:32Z</time>
      </trkpt>
      <trkpt lat="42.46704" lon="2.29213">
        <ele>1700.23</ele>
        <time>2017-08-07T15:44:38Z</time>
      </trkpt>
      <trkpt lat="42.4671" lon="2.29222">
        <ele>1698.31</ele>
        <time>2017-08-07T15:44:47Z</time>
      </trkpt>
      <trkpt lat="42.46715" lon="2.29226">
        <ele>1697.83</ele>
        <time>2017-08-07T15:44:52Z</time>
      </trkpt>
      <trkpt lat="42.46718" lon="2.29229">
        <ele>1696.38</ele>
        <time>2017-08-07T15:44:55Z</time>
      </trkpt>
      <trkpt lat="42.46723" lon="2.29237">
        <ele>1694.46</ele>
        <time>2017-08-07T15:45:02Z</time>
      </trkpt>
      <trkpt lat="42.46735" lon="2.29255">
        <ele>1691.1</ele>
        <time>2017-08-07T15:45:17Z</time>
      </trkpt>
      <trkpt lat="42.46745" lon="2.29269">
        <ele>1688.21</ele>
        <time>2017-08-07T15:45:28Z</time>
      </trkpt>
      <trkpt lat="42.4675" lon="2.29288">
        <ele>1684.37</ele>
        <time>2017-08-07T15:45:40Z</time>
      </trkpt>
      <trkpt lat="42.4675" lon="2.29289">
        <ele>1684.37</ele>
        <time>2017-08-07T15:45:41Z</time>
      </trkpt>
      <trkpt lat="42.46753" lon="2.29292">
        <ele>1683.41</ele>
        <time>2017-08-07T15:45:44Z</time>
      </trkpt>
      <trkpt lat="42.46754" lon="2.29293">
        <ele>1683.41</ele>
        <time>2017-08-07T15:45:45Z</time>
      </trkpt>
      <trkpt lat="42.46768" lon="2.29311">
        <ele>1680.04</ele>
        <time>2017-08-07T15:46:00Z</time>
      </trkpt>
      <trkpt lat="42.46769" lon="2.29312">
        <ele>1679.56</ele>
        <time>2017-08-07T15:46:01Z</time>
      </trkpt>
      <trkpt lat="42.46771" lon="2.29312">
        <ele>1679.56</ele>
        <time>2017-08-07T15:46:03Z</time>
      </trkpt>
      <trkpt lat="42.46779" lon="2.29318">
        <ele>1679.08</ele>
        <time>2017-08-07T15:46:10Z</time>
      </trkpt>
      <trkpt lat="42.46791" lon="2.29344">
        <ele>1675.23</ele>
        <time>2017-08-07T15:46:28Z</time>
      </trkpt>
      <trkpt lat="42.46792" lon="2.29345">
        <ele>1674.75</ele>
        <time>2017-08-07T15:46:30Z</time>
      </trkpt>
      <trkpt lat="42.46805" lon="2.29358">
        <ele>1672.83</ele>
        <time>2017-08-07T15:46:43Z</time>
      </trkpt>
      <trkpt lat="42.4682" lon="2.29373">
        <ele>1669.47</ele>
        <time>2017-08-07T15:47:00Z</time>
      </trkpt>
      <trkpt lat="42.46829" lon="2.29384">
        <ele>1667.06</ele>
        <time>2017-08-07T15:47:14Z</time>
      </trkpt>
      <trkpt lat="42.46836" lon="2.29395">
        <ele>1664.66</ele>
        <time>2017-08-07T15:47:25Z</time>
      </trkpt>
      <trkpt lat="42.46839" lon="2.29405">
        <ele>1661.78</ele>
        <time>2017-08-07T15:47:39Z</time>
      </trkpt>
      <trkpt lat="42.46841" lon="2.29412">
        <ele>1660.33</ele>
        <time>2017-08-07T15:47:47Z</time>
      </trkpt>
      <trkpt lat="42.46839" lon="2.29418">
        <ele>1659.85</ele>
        <time>2017-08-07T15:47:52Z</time>
      </trkpt>
      <trkpt lat="42.46839" lon="2.29427">
        <ele>1657.93</ele>
        <time>2017-08-07T15:47:58Z</time>
      </trkpt>
      <trkpt lat="42.46848" lon="2.29421">
        <ele>1655.53</ele>
        <time>2017-08-07T15:48:12Z</time>
      </trkpt>
      <trkpt lat="42.46858" lon="2.29425">
        <ele>1653.6</ele>
        <time>2017-08-07T15:48:25Z</time>
      </trkpt>
      <trkpt lat="42.46867" lon="2.29439">
        <ele>1651.2</ele>
        <time>2017-08-07T15:48:40Z</time>
      </trkpt>
      <trkpt lat="42.46869" lon="2.29445">
        <ele>1650.24</ele>
        <time>2017-08-07T15:48:45Z</time>
      </trkpt>
      <trkpt lat="42.46881" lon="2.29454">
        <ele>1647.84</ele>
        <time>2017-08-07T15:49:01Z</time>
      </trkpt>
      <trkpt lat="42.46891" lon="2.29458">
        <ele>1646.4</ele>
        <time>2017-08-07T15:49:11Z</time>
      </trkpt>
      <trkpt lat="42.46904" lon="2.29469">
        <ele>1643.99</ele>
        <time>2017-08-07T15:49:27Z</time>
      </trkpt>
      <trkpt lat="42.46912" lon="2.2948">
        <ele>1641.11</ele>
        <time>2017-08-07T15:49:41Z</time>
      </trkpt>
      <trkpt lat="42.46918" lon="2.29487">
        <ele>1638.7</ele>
        <time>2017-08-07T15:49:54Z</time>
      </trkpt>
      <trkpt lat="42.46928" lon="2.29496">
        <ele>1636.78</ele>
        <time>2017-08-07T15:50:07Z</time>
      </trkpt>
      <trkpt lat="42.46939" lon="2.29506">
        <ele>1633.42</ele>
        <time>2017-08-07T15:50:22Z</time>
      </trkpt>
      <trkpt lat="42.46948" lon="2.29513">
        <ele>1630.05</ele>
        <time>2017-08-07T15:50:36Z</time>
      </trkpt>
      <trkpt lat="42.46963" lon="2.29525">
        <ele>1628.13</ele>
        <time>2017-08-07T15:50:51Z</time>
      </trkpt>
      <trkpt lat="42.46968" lon="2.29527">
        <ele>1627.65</ele>
        <time>2017-08-07T15:50:56Z</time>
      </trkpt>
      <trkpt lat="42.46971" lon="2.29527">
        <ele>1627.65</ele>
        <time>2017-08-07T15:50:58Z</time>
      </trkpt>
      <trkpt lat="42.46991" lon="2.2953">
        <ele>1626.21</ele>
        <time>2017-08-07T15:51:13Z</time>
      </trkpt>
      <trkpt lat="42.47008" lon="2.29533">
        <ele>1625.25</ele>
        <time>2017-08-07T15:51:28Z</time>
      </trkpt>
      <trkpt lat="42.47021" lon="2.29539">
        <ele>1623.8</ele>
        <time>2017-08-07T15:51:41Z</time>
      </trkpt>
      <trkpt lat="42.47023" lon="2.2954">
        <ele>1623.8</ele>
        <time>2017-08-07T15:51:43Z</time>
      </trkpt>
      <trkpt lat="42.4704" lon="2.29547">
        <ele>1621.88</ele>
        <time>2017-08-07T15:51:58Z</time>
      </trkpt>
      <trkpt lat="42.47059" lon="2.29547">
        <ele>1619.96</ele>
        <time>2017-08-07T15:52:15Z</time>
      </trkpt>
      <trkpt lat="42.47062" lon="2.2955">
        <ele>1618.52</ele>
        <time>2017-08-07T15:52:20Z</time>
      </trkpt>
      <trkpt lat="42.47066" lon="2.29565">
        <ele>1615.63</ele>
        <time>2017-08-07T15:52:33Z</time>
      </trkpt>
      <trkpt lat="42.47074" lon="2.29572">
        <ele>1612.75</ele>
        <time>2017-08-07T15:52:48Z</time>
      </trkpt>
      <trkpt lat="42.47079" lon="2.29577">
        <ele>1611.79</ele>
        <time>2017-08-07T15:52:55Z</time>
      </trkpt>
      <trkpt lat="42.4709" lon="2.29592">
        <ele>1609.86</ele>
        <time>2017-08-07T15:53:11Z</time>
      </trkpt>
      <trkpt lat="42.47101" lon="2.29608">
        <ele>1606.98</ele>
        <time>2017-08-07T15:53:28Z</time>
      </trkpt>
      <trkpt lat="42.4711" lon="2.29619">
        <ele>1604.58</ele>
        <time>2017-08-07T15:53:45Z</time>
      </trkpt>
      <trkpt lat="42.47119" lon="2.29627">
        <ele>1602.66</ele>
        <time>2017-08-07T15:54:03Z</time>
      </trkpt>
      <trkpt lat="42.47127" lon="2.29635">
        <ele>1600.25</ele>
        <time>2017-08-07T15:54:18Z</time>
      </trkpt>
      <trkpt lat="42.47133" lon="2.29642">
        <ele>1598.81</ele>
        <time>2017-08-07T15:54:35Z</time>
      </trkpt>
      <trkpt lat="42.47138" lon="2.29647">
        <ele>1597.85</ele>
        <time>2017-08-07T15:54:52Z</time>
      </trkpt>
      <trkpt lat="42.47145" lon="2.29656">
        <ele>1595.45</ele>
        <time>2017-08-07T15:55:03Z</time>
      </trkpt>
      <trkpt lat="42.47153" lon="2.29668">
        <ele>1593.52</ele>
        <time>2017-08-07T15:55:16Z</time>
      </trkpt>
      <trkpt lat="42.4716" lon="2.29676">
        <ele>1592.08</ele>
        <time>2017-08-07T15:55:30Z</time>
      </trkpt>
      <trkpt lat="42.47168" lon="2.29688">
        <ele>1590.64</ele>
        <time>2017-08-07T15:55:42Z</time>
      </trkpt>
      <trkpt lat="42.47179" lon="2.29697">
        <ele>1588.24</ele>
        <time>2017-08-07T15:55:58Z</time>
      </trkpt>
      <trkpt lat="42.47192" lon="2.29707">
        <ele>1585.35</ele>
        <time>2017-08-07T15:56:13Z</time>
      </trkpt>
      <trkpt lat="42.47197" lon="2.29712">
        <ele>1584.39</ele>
        <time>2017-08-07T15:56:19Z</time>
      </trkpt>
      <trkpt lat="42.47201" lon="2.29718">
        <ele>1583.43</ele>
        <time>2017-08-07T15:56:25Z</time>
      </trkpt>
      <trkpt lat="42.47211" lon="2.29734">
        <ele>1580.54</ele>
        <time>2017-08-07T15:56:41Z</time>
      </trkpt>
      <trkpt lat="42.47219" lon="2.29745">
        <ele>1578.14</ele>
        <time>2017-08-07T15:56:56Z</time>
      </trkpt>
      <trkpt lat="42.47224" lon="2.29755">
        <ele>1575.74</ele>
        <time>2017-08-07T15:57:11Z</time>
      </trkpt>
      <trkpt lat="42.4723" lon="2.29765">
        <ele>1573.82</ele>
        <time>2017-08-07T15:57:25Z</time>
      </trkpt>
      <trkpt lat="42.47237" lon="2.29773">
        <ele>1572.37</ele>
        <time>2017-08-07T15:57:38Z</time>
      </trkpt>
      <trkpt lat="42.47245" lon="2.2978">
        <ele>1569.97</ele>
        <time>2017-08-07T15:57:53Z</time>
      </trkpt>
      <trkpt lat="42.47251" lon="2.29787">
        <ele>1568.53</ele>
        <time>2017-08-07T15:58:11Z</time>
      </trkpt>
      <trkpt lat="42.4726" lon="2.29792">
        <ele>1566.12</ele>
        <time>2017-08-07T15:58:24Z</time>
      </trkpt>
      <trkpt lat="42.4726" lon="2.29796">
        <ele>1564.68</ele>
        <time>2017-08-07T15:58:36Z</time>
      </trkpt>
      <trkpt lat="42.47266" lon="2.29805">
        <ele>1562.28</ele>
        <time>2017-08-07T15:58:47Z</time>
      </trkpt>
      <trkpt lat="42.47275" lon="2.29816">
        <ele>1558.92</ele>
        <time>2017-08-07T15:59:02Z</time>
      </trkpt>
      <trkpt lat="42.4728" lon="2.29819">
        <ele>1557.95</ele>
        <time>2017-08-07T15:59:08Z</time>
      </trkpt>
      <trkpt lat="42.47289" lon="2.29832">
        <ele>1555.07</ele>
        <time>2017-08-07T15:59:23Z</time>
      </trkpt>
      <trkpt lat="42.47296" lon="2.29847">
        <ele>1552.67</ele>
        <time>2017-08-07T15:59:36Z</time>
      </trkpt>
      <trkpt lat="42.473" lon="2.29858">
        <ele>1550.74</ele>
        <time>2017-08-07T15:59:45Z</time>
      </trkpt>
      <trkpt lat="42.47307" lon="2.2987">
        <ele>1547.86</ele>
        <time>2017-08-07T15:59:55Z</time>
      </trkpt>
      <trkpt lat="42.47307" lon="2.29876">
        <ele>1545.94</ele>
        <time>2017-08-07T16:00:09Z</time>
      </trkpt>
      <trkpt lat="42.47307" lon="2.29884">
        <ele>1544.01</ele>
        <time>2017-08-07T16:00:21Z</time>
      </trkpt>
      <trkpt lat="42.47311" lon="2.29893">
        <ele>1542.09</ele>
        <time>2017-08-07T16:00:32Z</time>
      </trkpt>
      <trkpt lat="42.47317" lon="2.29907">
        <ele>1539.21</ele>
        <time>2017-08-07T16:00:46Z</time>
      </trkpt>
      <trkpt lat="42.47318" lon="2.29915">
        <ele>1536.8</ele>
        <time>2017-08-07T16:00:59Z</time>
      </trkpt>
      <trkpt lat="42.47325" lon="2.29927">
        <ele>1534.88</ele>
        <time>2017-08-07T16:01:13Z</time>
      </trkpt>
      <trkpt lat="42.47328" lon="2.29932">
        <ele>1533.92</ele>
        <time>2017-08-07T16:01:18Z</time>
      </trkpt>
      <trkpt lat="42.4733" lon="2.29941">
        <ele>1531.52</ele>
        <time>2017-08-07T16:01:26Z</time>
      </trkpt>
      <trkpt lat="42.47336" lon="2.2996">
        <ele>1527.67</ele>
        <time>2017-08-07T16:01:42Z</time>
      </trkpt>
      <trkpt lat="42.47343" lon="2.29976">
        <ele>1525.27</ele>
        <time>2017-08-07T16:01:57Z</time>
      </trkpt>
      <trkpt lat="42.47354" lon="2.29998">
        <ele>1522.87</ele>
        <time>2017-08-07T16:02:16Z</time>
      </trkpt>
      <trkpt lat="42.47359" lon="2.30011">
        <ele>1519.98</ele>
        <time>2017-08-07T16:02:29Z</time>
      </trkpt>
      <trkpt lat="42.47368" lon="2.30028">
        <ele>1518.06</ele>
        <time>2017-08-07T16:02:45Z</time>
      </trkpt>
      <trkpt lat="42.47373" lon="2.30041">
        <ele>1515.18</ele>
        <time>2017-08-07T16:02:58Z</time>
      </trkpt>
      <trkpt lat="42.4738" lon="2.30049">
        <ele>1513.25</ele>
        <time>2017-08-07T16:03:12Z</time>
      </trkpt>
      <trkpt lat="42.47382" lon="2.30059">
        <ele>1510.85</ele>
        <time>2017-08-07T16:03:25Z</time>
      </trkpt>
      <trkpt lat="42.47373" lon="2.30071">
        <ele>1510.85</ele>
        <time>2017-08-07T16:03:38Z</time>
      </trkpt>
      <trkpt lat="42.47369" lon="2.30075">
        <ele>1513.25</ele>
        <time>2017-08-07T16:03:53Z</time>
      </trkpt>
      <trkpt lat="42.47369" lon="2.30074">
        <ele>1510.85</ele>
        <time>2017-08-07T16:04:04Z</time>
      </trkpt>
      <trkpt lat="42.47367" lon="2.30075">
        <ele>1509.89</ele>
        <time>2017-08-07T16:04:25Z</time>
      </trkpt>
      <trkpt lat="42.47369" lon="2.30076">
        <ele>1509.89</ele>
        <time>2017-08-07T16:04:51Z</time>
      </trkpt>
      <trkpt lat="42.47373" lon="2.30075">
        <ele>1509.89</ele>
        <time>2017-08-07T16:05:25Z</time>
      </trkpt>
      <trkpt lat="42.47372" lon="2.30076">
        <ele>1509.89</ele>
        <time>2017-08-07T16:05:54Z</time>
      </trkpt>
      <trkpt lat="42.47371" lon="2.30073">
        <ele>1509.89</ele>
        <time>2017-08-07T16:06:29Z</time>
      </trkpt>
      <trkpt lat="42.47373" lon="2.30076">
        <ele>1508.93</ele>
        <time>2017-08-07T16:07:10Z</time>
      </trkpt>
      <trkpt lat="42.47371" lon="2.30076">
        <ele>1510.85</ele>
        <time>2017-08-07T16:07:15Z</time>
      </trkpt>
      <trkpt lat="42.47371" lon="2.30077">
        <ele>1510.85</ele>
        <time>2017-08-07T16:07:33Z</time>
      </trkpt>
      <trkpt lat="42.4737" lon="2.30075">
        <ele>1510.85</ele>
        <time>2017-08-07T16:07:50Z</time>
      </trkpt>
      <trkpt lat="42.4737" lon="2.30074">
        <ele>1509.89</ele>
        <time>2017-08-07T16:08:00Z</time>
      </trkpt>
      <trkpt lat="42.47367" lon="2.30075">
        <ele>1509.89</ele>
        <time>2017-08-07T16:08:11Z</time>
      </trkpt>
      <trkpt lat="42.47369" lon="2.30073">
        <ele>1509.41</ele>
        <time>2017-08-07T16:08:25Z</time>
      </trkpt>
      <trkpt lat="42.47369" lon="2.30072">
        <ele>1510.37</ele>
        <time>2017-08-07T16:08:32Z</time>
      </trkpt>
      <trkpt lat="42.47375" lon="2.30076">
        <ele>1509.41</ele>
        <time>2017-08-07T16:08:48Z</time>
      </trkpt>
      <trkpt lat="42.47377" lon="2.30074">
        <ele>1509.41</ele>
        <time>2017-08-07T16:09:11Z</time>
      </trkpt>
      <trkpt lat="42.47374" lon="2.30074">
        <ele>1510.37</ele>
        <time>2017-08-07T16:09:24Z</time>
      </trkpt>
      <trkpt lat="42.47373" lon="2.30075">
        <ele>1510.37</ele>
        <time>2017-08-07T16:09:39Z</time>
      </trkpt>
      <trkpt lat="42.47376" lon="2.30077">
        <ele>1509.89</ele>
        <time>2017-08-07T16:10:01Z</time>
      </trkpt>
      <trkpt lat="42.47374" lon="2.30076">
        <ele>1509.89</ele>
        <time>2017-08-07T16:10:22Z</time>
      </trkpt>
      <trkpt lat="42.47374" lon="2.30074">
        <ele>1508.45</ele>
        <time>2017-08-07T16:10:46Z</time>
      </trkpt>
      <trkpt lat="42.47375" lon="2.30076">
        <ele>1508.45</ele>
        <time>2017-08-07T16:11:13Z</time>
      </trkpt>
      <trkpt lat="42.47373" lon="2.30075">
        <ele>1508.45</ele>
        <time>2017-08-07T16:11:34Z</time>
      </trkpt>
      <trkpt lat="42.47372" lon="2.30075">
        <ele>1508.45</ele>
        <time>2017-08-07T16:11:53Z</time>
      </trkpt>
      <trkpt lat="42.47372" lon="2.30074">
        <ele>1508.45</ele>
        <time>2017-08-07T16:12:12Z</time>
      </trkpt>
      <trkpt lat="42.47374" lon="2.30076">
        <ele>1507.97</ele>
        <time>2017-08-07T16:12:31Z</time>
      </trkpt>
      <trkpt lat="42.47374" lon="2.30076">
        <ele>1507.97</ele>
        <time>2017-08-07T16:12:54Z</time>
      </trkpt>
      <trkpt lat="42.47373" lon="2.30078">
        <ele>1507.97</ele>
        <time>2017-08-07T16:13:17Z</time>
      </trkpt>
      <trkpt lat="42.47375" lon="2.30077">
        <ele>1507.97</ele>
        <time>2017-08-07T16:13:40Z</time>
      </trkpt>
      <trkpt lat="42.47373" lon="2.30072">
        <ele>1508.93</ele>
        <time>2017-08-07T16:13:54Z</time>
      </trkpt>
      <trkpt lat="42.47368" lon="2.30068">
        <ele>1508.93</ele>
        <time>2017-08-07T16:14:21Z</time>
      </trkpt>
      <trkpt lat="42.4737" lon="2.30065">
        <ele>1508.93</ele>
        <time>2017-08-07T16:14:51Z</time>
      </trkpt>
      <trkpt lat="42.47369" lon="2.30066">
        <ele>1508.45</ele>
        <time>2017-08-07T16:15:21Z</time>
      </trkpt>
      <trkpt lat="42.47368" lon="2.30065">
        <ele>1508.45</ele>
        <time>2017-08-07T16:15:45Z</time>
      </trkpt>
      <trkpt lat="42.47368" lon="2.30066">
        <ele>1508.45</ele>
        <time>2017-08-07T16:16:02Z</time>
      </trkpt>
      <trkpt lat="42.4737" lon="2.30072">
        <ele>1508.45</ele>
        <time>2017-08-07T16:16:13Z</time>
      </trkpt>
      <trkpt lat="42.4737" lon="2.30072">
        <ele>1507</ele>
        <time>2017-08-07T16:16:17Z</time>
      </trkpt>
      <trkpt lat="42.47374" lon="2.30071">
        <ele>1507</ele>
        <time>2017-08-07T16:16:42Z</time>
      </trkpt>
      <trkpt lat="42.4737" lon="2.30073">
        <ele>1507</ele>
        <time>2017-08-07T16:16:55Z</time>
      </trkpt>
      <trkpt lat="42.47373" lon="2.30074">
        <ele>1507</ele>
        <time>2017-08-07T16:17:14Z</time>
      </trkpt>
      <trkpt lat="42.47374" lon="2.30075">
        <ele>1507</ele>
        <time>2017-08-07T16:17:26Z</time>
      </trkpt>
      <trkpt lat="42.47373" lon="2.30076">
        <ele>1506.52</ele>
        <time>2017-08-07T16:17:43Z</time>
      </trkpt>
      <trkpt lat="42.47372" lon="2.30079">
        <ele>1506.52</ele>
        <time>2017-08-07T16:17:53Z</time>
      </trkpt>
      <trkpt lat="42.4737" lon="2.3008">
        <ele>1507.48</ele>
        <time>2017-08-07T16:18:08Z</time>
      </trkpt>
      <trkpt lat="42.47369" lon="2.30083">
        <ele>1507.48</ele>
        <time>2017-08-07T16:18:23Z</time>
      </trkpt>
      <trkpt lat="42.47369" lon="2.30082">
        <ele>1507.48</ele>
        <time>2017-08-07T16:18:40Z</time>
      </trkpt>
      <trkpt lat="42.4737" lon="2.3008">
        <ele>1507.97</ele>
        <time>2017-08-07T16:18:58Z</time>
      </trkpt>
      <trkpt lat="42.47371" lon="2.30076">
        <ele>1507.97</ele>
        <time>2017-08-07T16:19:08Z</time>
      </trkpt>
      <trkpt lat="42.47375" lon="2.30084">
        <ele>1507.97</ele>
        <time>2017-08-07T16:19:20Z</time>
      </trkpt>
      <trkpt lat="42.47378" lon="2.30088">
        <ele>1506.52</ele>
        <time>2017-08-07T16:19:23Z</time>
      </trkpt>
      <trkpt lat="42.47385" lon="2.30095">
        <ele>1505.08</ele>
        <time>2017-08-07T16:19:38Z</time>
      </trkpt>
      <trkpt lat="42.47402" lon="2.30102">
        <ele>1503.64</ele>
        <time>2017-08-07T16:19:54Z</time>
      </trkpt>
      <trkpt lat="42.47415" lon="2.3011">
        <ele>1505.08</ele>
        <time>2017-08-07T16:20:11Z</time>
      </trkpt>
      <trkpt lat="42.47428" lon="2.30115">
        <ele>1505.08</ele>
        <time>2017-08-07T16:20:26Z</time>
      </trkpt>
      <trkpt lat="42.47442" lon="2.30121">
        <ele>1502.2</ele>
        <time>2017-08-07T16:20:42Z</time>
      </trkpt>
      <trkpt lat="42.47447" lon="2.30123">
        <ele>1500.76</ele>
        <time>2017-08-07T16:20:48Z</time>
      </trkpt>
      <trkpt lat="42.47463" lon="2.30138">
        <ele>1499.31</ele>
        <time>2017-08-07T16:21:08Z</time>
      </trkpt>
      <trkpt lat="42.47465" lon="2.30142">
        <ele>1498.83</ele>
        <time>2017-08-07T16:21:12Z</time>
      </trkpt>
      <trkpt lat="42.47471" lon="2.30154">
        <ele>1497.87</ele>
        <time>2017-08-07T16:21:23Z</time>
      </trkpt>
      <trkpt lat="42.47486" lon="2.30168">
        <ele>1496.43</ele>
        <time>2017-08-07T16:21:41Z</time>
      </trkpt>
      <trkpt lat="42.47496" lon="2.30181">
        <ele>1494.51</ele>
        <time>2017-08-07T16:21:56Z</time>
      </trkpt>
      <trkpt lat="42.47501" lon="2.30194">
        <ele>1493.06</ele>
        <time>2017-08-07T16:22:09Z</time>
      </trkpt>
      <trkpt lat="42.47512" lon="2.30208">
        <ele>1491.62</ele>
        <time>2017-08-07T16:22:24Z</time>
      </trkpt>
      <trkpt lat="42.47523" lon="2.30219">
        <ele>1488.74</ele>
        <time>2017-08-07T16:22:40Z</time>
      </trkpt>
      <trkpt lat="42.4753" lon="2.30229">
        <ele>1486.82</ele>
        <time>2017-08-07T16:22:52Z</time>
      </trkpt>
      <trkpt lat="42.47542" lon="2.30245">
        <ele>1485.85</ele>
        <time>2017-08-07T16:23:08Z</time>
      </trkpt>
      <trkpt lat="42.47555" lon="2.30264">
        <ele>1483.93</ele>
        <time>2017-08-07T16:23:25Z</time>
      </trkpt>
      <trkpt lat="42.47566" lon="2.30276">
        <ele>1482.97</ele>
        <time>2017-08-07T16:23:37Z</time>
      </trkpt>
      <trkpt lat="42.47572" lon="2.30284">
        <ele>1482.49</ele>
        <time>2017-08-07T16:23:44Z</time>
      </trkpt>
      <trkpt lat="42.47583" lon="2.30295">
        <ele>1481.05</ele>
        <time>2017-08-07T16:23:59Z</time>
      </trkpt>
      <trkpt lat="42.47589" lon="2.30305">
        <ele>1479.61</ele>
        <time>2017-08-07T16:24:13Z</time>
      </trkpt>
      <trkpt lat="42.47596" lon="2.30321">
        <ele>1477.68</ele>
        <time>2017-08-07T16:24:30Z</time>
      </trkpt>
      <trkpt lat="42.47595" lon="2.30328">
        <ele>1479.13</ele>
        <time>2017-08-07T16:24:39Z</time>
      </trkpt>
      <trkpt lat="42.47595" lon="2.30337">
        <ele>1479.61</ele>
        <time>2017-08-07T16:24:54Z</time>
      </trkpt>
      <trkpt lat="42.47592" lon="2.30338">
        <ele>1479.61</ele>
        <time>2017-08-07T16:25:10Z</time>
      </trkpt>
      <trkpt lat="42.47591" lon="2.30348">
        <ele>1480.09</ele>
        <time>2017-08-07T16:25:22Z</time>
      </trkpt>
      <trkpt lat="42.47586" lon="2.30359">
        <ele>1481.53</ele>
        <time>2017-08-07T16:25:36Z</time>
      </trkpt>
      <trkpt lat="42.47587" lon="2.30364">
        <ele>1482.01</ele>
        <time>2017-08-07T16:25:50Z</time>
      </trkpt>
      <trkpt lat="42.47591" lon="2.3037">
        <ele>1482.49</ele>
        <time>2017-08-07T16:25:55Z</time>
      </trkpt>
      <trkpt lat="42.47597" lon="2.30371">
        <ele>1482.97</ele>
        <time>2017-08-07T16:26:00Z</time>
      </trkpt>
      <trkpt lat="42.47612" lon="2.30359">
        <ele>1484.41</ele>
        <time>2017-08-07T16:26:16Z</time>
      </trkpt>
      <trkpt lat="42.47616" lon="2.30358">
        <ele>1485.37</ele>
        <time>2017-08-07T16:26:21Z</time>
      </trkpt>
      <trkpt lat="42.4763" lon="2.3037">
        <ele>1486.82</ele>
        <time>2017-08-07T16:26:37Z</time>
      </trkpt>
      <trkpt lat="42.47643" lon="2.30387">
        <ele>1489.22</ele>
        <time>2017-08-07T16:26:55Z</time>
      </trkpt>
      <trkpt lat="42.47651" lon="2.30399">
        <ele>1492.1</ele>
        <time>2017-08-07T16:27:11Z</time>
      </trkpt>
      <trkpt lat="42.47657" lon="2.30415">
        <ele>1493.55</ele>
        <time>2017-08-07T16:27:25Z</time>
      </trkpt>
      <trkpt lat="42.47657" lon="2.30436">
        <ele>1495.47</ele>
        <time>2017-08-07T16:27:41Z</time>
      </trkpt>
      <trkpt lat="42.47664" lon="2.30448">
        <ele>1497.39</ele>
        <time>2017-08-07T16:27:57Z</time>
      </trkpt>
      <trkpt lat="42.47666" lon="2.3046">
        <ele>1499.31</ele>
        <time>2017-08-07T16:28:13Z</time>
      </trkpt>
      <trkpt lat="42.47667" lon="2.30467">
        <ele>1500.27</ele>
        <time>2017-08-07T16:28:27Z</time>
      </trkpt>
      <trkpt lat="42.47668" lon="2.30468">
        <ele>1500.76</ele>
        <time>2017-08-07T16:28:39Z</time>
      </trkpt>
      <trkpt lat="42.4767" lon="2.30468">
        <ele>1500.76</ele>
        <time>2017-08-07T16:29:03Z</time>
      </trkpt>
      <trkpt lat="42.47671" lon="2.30468">
        <ele>1500.76</ele>
        <time>2017-08-07T16:29:19Z</time>
      </trkpt>
      <trkpt lat="42.4767" lon="2.30468">
        <ele>1500.76</ele>
        <time>2017-08-07T16:29:45Z</time>
      </trkpt>
      <trkpt lat="42.47668" lon="2.30467">
        <ele>1500.76</ele>
        <time>2017-08-07T16:30:03Z</time>
      </trkpt>
      <trkpt lat="42.4767" lon="2.30467">
        <ele>1500.76</ele>
        <time>2017-08-07T16:30:19Z</time>
      </trkpt>
      <trkpt lat="42.47671" lon="2.30467">
        <ele>1500.27</ele>
        <time>2017-08-07T16:30:44Z</time>
      </trkpt>
      <trkpt lat="42.47673" lon="2.30472">
        <ele>1500.76</ele>
        <time>2017-08-07T16:30:59Z</time>
      </trkpt>
      <trkpt lat="42.47674" lon="2.30485">
        <ele>1503.64</ele>
        <time>2017-08-07T16:31:14Z</time>
      </trkpt>
      <trkpt lat="42.47673" lon="2.305">
        <ele>1506.04</ele>
        <time>2017-08-07T16:31:28Z</time>
      </trkpt>
      <trkpt lat="42.47675" lon="2.3051">
        <ele>1507.97</ele>
        <time>2017-08-07T16:31:40Z</time>
      </trkpt>
      <trkpt lat="42.47675" lon="2.30524">
        <ele>1510.85</ele>
        <time>2017-08-07T16:31:56Z</time>
      </trkpt>
      <trkpt lat="42.47678" lon="2.30536">
        <ele>1512.77</ele>
        <time>2017-08-07T16:32:11Z</time>
      </trkpt>
      <trkpt lat="42.4768" lon="2.30548">
        <ele>1515.18</ele>
        <time>2017-08-07T16:32:25Z</time>
      </trkpt>
      <trkpt lat="42.47686" lon="2.3056">
        <ele>1517.1</ele>
        <time>2017-08-07T16:32:39Z</time>
      </trkpt>
      <trkpt lat="42.47689" lon="2.30576">
        <ele>1519.5</ele>
        <time>2017-08-07T16:32:56Z</time>
      </trkpt>
      <trkpt lat="42.47693" lon="2.30588">
        <ele>1520.94</ele>
        <time>2017-08-07T16:33:10Z</time>
      </trkpt>
      <trkpt lat="42.47695" lon="2.30602">
        <ele>1523.35</ele>
        <time>2017-08-07T16:33:25Z</time>
      </trkpt>
      <trkpt lat="42.47694" lon="2.30616">
        <ele>1524.31</ele>
        <time>2017-08-07T16:33:39Z</time>
      </trkpt>
      <trkpt lat="42.47694" lon="2.30626">
        <ele>1525.27</ele>
        <time>2017-08-07T16:33:55Z</time>
      </trkpt>
      <trkpt lat="42.47696" lon="2.30633">
        <ele>1523.83</ele>
        <time>2017-08-07T16:34:13Z</time>
      </trkpt>
      <trkpt lat="42.47696" lon="2.30635">
        <ele>1523.83</ele>
        <time>2017-08-07T16:34:30Z</time>
      </trkpt>
      <trkpt lat="42.47693" lon="2.30631">
        <ele>1523.83</ele>
        <time>2017-08-07T16:34:48Z</time>
      </trkpt>
      <trkpt lat="42.47692" lon="2.30632">
        <ele>1523.35</ele>
        <time>2017-08-07T16:35:04Z</time>
      </trkpt>
      <trkpt lat="42.47692" lon="2.30632">
        <ele>1523.35</ele>
        <time>2017-08-07T16:35:28Z</time>
      </trkpt>
      <trkpt lat="42.47693" lon="2.30631">
        <ele>1524.31</ele>
        <time>2017-08-07T16:35:50Z</time>
      </trkpt>
      <trkpt lat="42.47692" lon="2.30628">
        <ele>1524.79</ele>
        <time>2017-08-07T16:36:16Z</time>
      </trkpt>
      <trkpt lat="42.47692" lon="2.30623">
        <ele>1525.27</ele>
        <time>2017-08-07T16:36:32Z</time>
      </trkpt>
      <trkpt lat="42.47693" lon="2.30622">
        <ele>1525.75</ele>
        <time>2017-08-07T16:36:45Z</time>
      </trkpt>
      <trkpt lat="42.47693" lon="2.30622">
        <ele>1525.75</ele>
        <time>2017-08-07T16:37:00Z</time>
      </trkpt>
      <trkpt lat="42.47693" lon="2.30623">
        <ele>1525.27</ele>
        <time>2017-08-07T16:37:24Z</time>
      </trkpt>
      <trkpt lat="42.47694" lon="2.30622">
        <ele>1526.23</ele>
        <time>2017-08-07T16:37:43Z</time>
      </trkpt>
      <trkpt lat="42.47695" lon="2.30625">
        <ele>1526.71</ele>
        <time>2017-08-07T16:37:57Z</time>
      </trkpt>
      <trkpt lat="42.47695" lon="2.30629">
        <ele>1527.19</ele>
        <time>2017-08-07T16:38:12Z</time>
      </trkpt>
      <trkpt lat="42.47694" lon="2.30631">
        <ele>1527.19</ele>
        <time>2017-08-07T16:38:36Z</time>
      </trkpt>
      <trkpt lat="42.47697" lon="2.30641">
        <ele>1528.15</ele>
        <time>2017-08-07T16:38:48Z</time>
      </trkpt>
      <trkpt lat="42.47703" lon="2.30647">
        <ele>1530.56</ele>
        <time>2017-08-07T16:39:02Z</time>
      </trkpt>
      <trkpt lat="42.47709" lon="2.30651">
        <ele>1532</ele>
        <time>2017-08-07T16:39:13Z</time>
      </trkpt>
      <trkpt lat="42.47715" lon="2.30662">
        <ele>1534.4</ele>
        <time>2017-08-07T16:39:28Z</time>
      </trkpt>
      <trkpt lat="42.47716" lon="2.30672">
        <ele>1536.32</ele>
        <time>2017-08-07T16:39:41Z</time>
      </trkpt>
      <trkpt lat="42.47714" lon="2.30679">
        <ele>1537.29</ele>
        <time>2017-08-07T16:39:57Z</time>
      </trkpt>
      <trkpt lat="42.47714" lon="2.30682">
        <ele>1538.25</ele>
        <time>2017-08-07T16:40:11Z</time>
      </trkpt>
      <trkpt lat="42.47718" lon="2.30682">
        <ele>1536.8</ele>
        <time>2017-08-07T16:40:46Z</time>
      </trkpt>
      <trkpt lat="42.47718" lon="2.3068">
        <ele>1536.8</ele>
        <time>2017-08-07T16:41:22Z</time>
      </trkpt>
      <trkpt lat="42.4772" lon="2.30678">
        <ele>1536.32</ele>
        <time>2017-08-07T16:41:50Z</time>
      </trkpt>
      <trkpt lat="42.47719" lon="2.30678">
        <ele>1535.84</ele>
        <time>2017-08-07T16:42:16Z</time>
      </trkpt>
      <trkpt lat="42.47721" lon="2.30681">
        <ele>1535.84</ele>
        <time>2017-08-07T16:42:42Z</time>
      </trkpt>
      <trkpt lat="42.47721" lon="2.30682">
        <ele>1536.8</ele>
        <time>2017-08-07T16:42:43Z</time>
      </trkpt>
      <trkpt lat="42.4772" lon="2.30687">
        <ele>1536.8</ele>
        <time>2017-08-07T16:43:02Z</time>
      </trkpt>
      <trkpt lat="42.47726" lon="2.30692">
        <ele>1538.73</ele>
        <time>2017-08-07T16:43:16Z</time>
      </trkpt>
      <trkpt lat="42.47732" lon="2.30704">
        <ele>1541.13</ele>
        <time>2017-08-07T16:43:32Z</time>
      </trkpt>
      <trkpt lat="42.47734" lon="2.30711">
        <ele>1541.13</ele>
        <time>2017-08-07T16:43:52Z</time>
      </trkpt>
      <trkpt lat="42.47735" lon="2.30725">
        <ele>1543.05</ele>
        <time>2017-08-07T16:44:06Z</time>
      </trkpt>
      <trkpt lat="42.47736" lon="2.30724">
        <ele>1543.53</ele>
        <time>2017-08-07T16:44:23Z</time>
      </trkpt>
      <trkpt lat="42.47735" lon="2.3073">
        <ele>1543.53</ele>
        <time>2017-08-07T16:44:45Z</time>
      </trkpt>
      <trkpt lat="42.47739" lon="2.30748">
        <ele>1545.46</ele>
        <time>2017-08-07T16:45:01Z</time>
      </trkpt>
      <trkpt lat="42.47746" lon="2.30759">
        <ele>1547.86</ele>
        <time>2017-08-07T16:45:14Z</time>
      </trkpt>
      <trkpt lat="42.47757" lon="2.30764">
        <ele>1550.26</ele>
        <time>2017-08-07T16:45:29Z</time>
      </trkpt>
      <trkpt lat="42.47766" lon="2.30753">
        <ele>1551.71</ele>
        <time>2017-08-07T16:45:42Z</time>
      </trkpt>
      <trkpt lat="42.47769" lon="2.30729">
        <ele>1553.63</ele>
        <time>2017-08-07T16:45:59Z</time>
      </trkpt>
      <trkpt lat="42.47771" lon="2.307">
        <ele>1554.59</ele>
        <time>2017-08-07T16:46:17Z</time>
      </trkpt>
      <trkpt lat="42.47771" lon="2.30672">
        <ele>1554.59</ele>
        <time>2017-08-07T16:46:34Z</time>
      </trkpt>
      <trkpt lat="42.47773" lon="2.30659">
        <ele>1555.07</ele>
        <time>2017-08-07T16:46:48Z</time>
      </trkpt>
      <trkpt lat="42.47778" lon="2.30666">
        <ele>1556.03</ele>
        <time>2017-08-07T16:47:03Z</time>
      </trkpt>
      <trkpt lat="42.47779" lon="2.30669">
        <ele>1556.51</ele>
        <time>2017-08-07T16:47:06Z</time>
      </trkpt>
      <trkpt lat="42.47783" lon="2.30689">
        <ele>1558.43</ele>
        <time>2017-08-07T16:47:21Z</time>
      </trkpt>
      <trkpt lat="42.47789" lon="2.30708">
        <ele>1560.36</ele>
        <time>2017-08-07T16:47:37Z</time>
      </trkpt>
      <trkpt lat="42.47796" lon="2.30728">
        <ele>1562.28</ele>
        <time>2017-08-07T16:47:54Z</time>
      </trkpt>
      <trkpt lat="42.47803" lon="2.30745">
        <ele>1564.2</ele>
        <time>2017-08-07T16:48:11Z</time>
      </trkpt>
      <trkpt lat="42.47803" lon="2.30751">
        <ele>1565.64</ele>
        <time>2017-08-07T16:48:24Z</time>
      </trkpt>
      <trkpt lat="42.47812" lon="2.30765">
        <ele>1567.09</ele>
        <time>2017-08-07T16:48:40Z</time>
      </trkpt>
      <trkpt lat="42.47818" lon="2.30778">
        <ele>1569.01</ele>
        <time>2017-08-07T16:48:54Z</time>
      </trkpt>
      <trkpt lat="42.47825" lon="2.3079">
        <ele>1571.89</ele>
        <time>2017-08-07T16:49:09Z</time>
      </trkpt>
      <trkpt lat="42.47828" lon="2.30804">
        <ele>1574.3</ele>
        <time>2017-08-07T16:49:24Z</time>
      </trkpt>
      <trkpt lat="42.4783" lon="2.3082">
        <ele>1577.18</ele>
        <time>2017-08-07T16:49:39Z</time>
      </trkpt>
      <trkpt lat="42.4783" lon="2.30822">
        <ele>1577.18</ele>
        <time>2017-08-07T16:49:41Z</time>
      </trkpt>
      <trkpt lat="42.47826" lon="2.30843">
        <ele>1577.66</ele>
        <time>2017-08-07T16:49:56Z</time>
      </trkpt>
      <trkpt lat="42.47825" lon="2.30847">
        <ele>1577.66</ele>
        <time>2017-08-07T16:49:59Z</time>
      </trkpt>
      <trkpt lat="42.4782" lon="2.30872">
        <ele>1578.14</ele>
        <time>2017-08-07T16:50:16Z</time>
      </trkpt>
      <trkpt lat="42.47817" lon="2.30898">
        <ele>1578.14</ele>
        <time>2017-08-07T16:50:33Z</time>
      </trkpt>
      <trkpt lat="42.4781" lon="2.30929">
        <ele>1578.62</ele>
        <time>2017-08-07T16:50:54Z</time>
      </trkpt>
      <trkpt lat="42.47808" lon="2.3093">
        <ele>1578.62</ele>
        <time>2017-08-07T16:50:57Z</time>
      </trkpt>
      <trkpt lat="42.47792" lon="2.30934">
        <ele>1581.03</ele>
        <time>2017-08-07T16:51:12Z</time>
      </trkpt>
      <trkpt lat="42.47787" lon="2.30936">
        <ele>1581.51</ele>
        <time>2017-08-07T16:51:17Z</time>
      </trkpt>
      <trkpt lat="42.47772" lon="2.30944">
        <ele>1582.95</ele>
        <time>2017-08-07T16:51:32Z</time>
      </trkpt>
      <trkpt lat="42.47756" lon="2.30948">
        <ele>1582.95</ele>
        <time>2017-08-07T16:51:48Z</time>
      </trkpt>
      <trkpt lat="42.47735" lon="2.30953">
        <ele>1580.06</ele>
        <time>2017-08-07T16:52:06Z</time>
      </trkpt>
      <trkpt lat="42.47718" lon="2.30956">
        <ele>1578.62</ele>
        <time>2017-08-07T16:52:23Z</time>
      </trkpt>
      <trkpt lat="42.47699" lon="2.30956">
        <ele>1576.7</ele>
        <time>2017-08-07T16:52:41Z</time>
      </trkpt>
      <trkpt lat="42.47698" lon="2.30955">
        <ele>1576.7</ele>
        <time>2017-08-07T16:52:42Z</time>
      </trkpt>
      <trkpt lat="42.47704" lon="2.30945">
        <ele>1574.78</ele>
        <time>2017-08-07T16:52:55Z</time>
      </trkpt>
      <trkpt lat="42.47708" lon="2.30943">
        <ele>1574.78</ele>
        <time>2017-08-07T16:53:11Z</time>
      </trkpt>
      <trkpt lat="42.47713" lon="2.3094">
        <ele>1575.74</ele>
        <time>2017-08-07T16:53:30Z</time>
      </trkpt>
      <trkpt lat="42.47714" lon="2.3094">
        <ele>1576.7</ele>
        <time>2017-08-07T16:53:52Z</time>
      </trkpt>
    </trkseg>
  </trk>
</gpx>